<?xml version='1.0' encoding='UTF-8'?><gpx version="1.1" creator="JPX - https://github.com/jenetics/jpx" xmlns="http://www.topografix.com/GPX/1/1"><trk><trkseg><trkpt lat="36.96222379688659" lon="15.123761546399663"><ele>451.00000000000006</ele><time>2026-04-26T06:27:23Z</time></trkpt><trkpt lat="36.96214393382856" lon="15.123731232980683"><ele>451.0</ele><time>2026-04-26T06:27:25Z</time></trkpt><trkpt lat="36.962056784503744" lon="15.12369740536521"><ele>451.0</ele><time>2026-04-26T06:27:27Z</time></trkpt><trkpt lat="36.96197555306543" lon="15.123677493071579"><ele>451.0</ele><time>2026-04-26T06:27:29Z</time></trkpt><trkpt lat="36.96189776475276" lon="15.123652477488651"><ele>451.00000000000006</ele><time>2026-04-26T06:27:31Z</time></trkpt><trkpt lat="36.96182217308018" lon="15.123633694767985"><ele>451.0</ele><time>2026-04-26T06:27:33Z</time></trkpt><trkpt lat="36.96173500274485" lon="15.123621815896529"><ele>450.6666666666667</ele><time>2026-04-26T06:27:35Z</time></trkpt><trkpt lat="36.96165229607909" lon="15.123609429895271"><ele>450.33333333333337</ele><time>2026-04-26T06:27:37Z</time></trkpt><trkpt lat="36.961568847102654" lon="15.12357695643353"><ele>450.0</ele><time>2026-04-26T06:27:40Z</time></trkpt><trkpt lat="36.96150178720816" lon="15.123562454586606"><ele>449.66666666666663</ele><time>2026-04-26T06:27:42Z</time></trkpt><trkpt lat="36.961428791903934" lon="15.12353001033448"><ele>449.3333333333333</ele><time>2026-04-26T06:27:44Z</time></trkpt><trkpt lat="36.96135495323944" lon="15.123518541732524"><ele>449.0</ele><time>2026-04-26T06:27:46Z</time></trkpt><trkpt lat="36.96128750885885" lon="15.12352970925993"><ele>448.99999999999994</ele><time>2026-04-26T06:27:50Z</time></trkpt><trkpt lat="36.9612155699674" lon="15.123528679308963"><ele>449.0</ele><time>2026-04-26T06:27:55Z</time></trkpt><trkpt lat="36.96114331012257" lon="15.123540733252106"><ele>449.0</ele><time>2026-04-26T06:27:58Z</time></trkpt><trkpt lat="36.96110063782159" lon="15.123623757756988"><ele>449.0</ele><time>2026-04-26T06:28:45Z</time></trkpt><trkpt lat="36.961052993837555" lon="15.123753229787974"><ele>448.99999999999994</ele><time>2026-04-26T06:28:47Z</time></trkpt><trkpt lat="36.961035908666695" lon="15.123836533766225"><ele>449.0</ele><time>2026-04-26T06:28:48Z</time></trkpt><trkpt lat="36.961024181296345" lon="15.123927494362682"><ele>448.99999999999994</ele><time>2026-04-26T06:28:49Z</time></trkpt><trkpt lat="36.96102011209673" lon="15.12401715175344"><ele>449.0</ele><time>2026-04-26T06:28:50Z</time></trkpt><trkpt lat="36.96103317545128" lon="15.124103191739612"><ele>449.0</ele><time>2026-04-26T06:28:51Z</time></trkpt><trkpt lat="36.96102736923118" lon="15.124228870282714"><ele>449.0</ele><time>2026-04-26T06:28:53Z</time></trkpt><trkpt lat="36.96098755928608" lon="15.124296300314475"><ele>448.99999999999994</ele><time>2026-04-26T06:28:55Z</time></trkpt><trkpt lat="36.960924536987875" lon="15.124301173417734"><ele>449.0</ele><time>2026-04-26T06:28:57Z</time></trkpt><trkpt lat="36.96084002179005" lon="15.124291633117226"><ele>447.3333333333333</ele><time>2026-04-26T06:28:59Z</time></trkpt><trkpt lat="36.96076047589829" lon="15.124337691115054"><ele>445.66666666666663</ele><time>2026-04-26T06:29:01Z</time></trkpt><trkpt lat="36.96070558612635" lon="15.12439562830166"><ele>444.0</ele><time>2026-04-26T06:29:02Z</time></trkpt><trkpt lat="36.96065517790375" lon="15.124466219296988"><ele>442.33333333333337</ele><time>2026-04-26T06:29:03Z</time></trkpt><trkpt lat="36.960617580362445" lon="15.124538047935147"><ele>440.6666666666667</ele><time>2026-04-26T06:29:04Z</time></trkpt><trkpt lat="36.960562430070745" lon="15.12466102365739"><ele>439.0</ele><time>2026-04-26T06:29:06Z</time></trkpt><trkpt lat="36.960517444663935" lon="15.124750067271881"><ele>439.0</ele><time>2026-04-26T06:29:08Z</time></trkpt><trkpt lat="36.96047009394768" lon="15.124855892822433"><ele>439.0</ele><time>2026-04-26T06:29:10Z</time></trkpt><trkpt lat="36.960419695260015" lon="15.124958557325359"><ele>439.0</ele><time>2026-04-26T06:29:12Z</time></trkpt><trkpt lat="36.96033603192831" lon="15.125022878379182"><ele>439.0</ele><time>2026-04-26T06:29:14Z</time></trkpt><trkpt lat="36.9602730743458" lon="15.125050325854316"><ele>439.0</ele><time>2026-04-26T06:29:15Z</time></trkpt><trkpt lat="36.96018277518048" lon="15.125079676003793"><ele>438.83333333333337</ele><time>2026-04-26T06:29:16Z</time></trkpt><trkpt lat="36.96008184071621" lon="15.12511468108417"><ele>438.6666666666667</ele><time>2026-04-26T06:29:17Z</time></trkpt><trkpt lat="36.96000060557318" lon="15.125125140654266"><ele>438.5</ele><time>2026-04-26T06:29:18Z</time></trkpt><trkpt lat="36.95992059169329" lon="15.125101952742552"><ele>438.33333333333337</ele><time>2026-04-26T06:29:20Z</time></trkpt><trkpt lat="36.95982703270657" lon="15.125092921898982"><ele>438.1666666666667</ele><time>2026-04-26T06:29:22Z</time></trkpt><trkpt lat="36.95982293742144" lon="15.125005957676116"><ele>438.0</ele><time>2026-04-26T06:29:24Z</time></trkpt><trkpt lat="36.95983099308794" lon="15.124925463631863"><ele>438.6666666666667</ele><time>2026-04-26T06:29:25Z</time></trkpt><trkpt lat="36.95983798858079" lon="15.12483583534863"><ele>439.33333333333337</ele><time>2026-04-26T06:29:26Z</time></trkpt><trkpt lat="36.9598275602448" lon="15.124749606248931"><ele>440.0</ele><time>2026-04-26T06:29:28Z</time></trkpt><trkpt lat="36.95977422517294" lon="15.124675536916564"><ele>440.6666666666667</ele><time>2026-04-26T06:31:51.999Z</time></trkpt><trkpt lat="36.95973906402713" lon="15.124593224975454"><ele>441.33333333333337</ele><time>2026-04-26T06:33:28Z</time></trkpt><trkpt lat="36.9597072957809" lon="15.124514619165119"><ele>442.0</ele><time>2026-04-26T06:33:30Z</time></trkpt><trkpt lat="36.959614576819995" lon="15.12446303742509"><ele>442.00000000000006</ele><time>2026-04-26T06:33:32Z</time></trkpt><trkpt lat="36.95948978467797" lon="15.12446130130869"><ele>442.0</ele><time>2026-04-26T06:33:34Z</time></trkpt><trkpt lat="36.95941477052576" lon="15.124446741342945"><ele>442.0</ele><time>2026-04-26T06:33:35Z</time></trkpt><trkpt lat="36.95934820849733" lon="15.124425967293913"><ele>442.0</ele><time>2026-04-26T06:33:36Z</time></trkpt><trkpt lat="36.959277630186634" lon="15.12440678747912"><ele>442.00000000000006</ele><time>2026-04-26T06:33:37Z</time></trkpt><trkpt lat="36.95920746676866" lon="15.124400828888737"><ele>442.0</ele><time>2026-04-26T06:33:38Z</time></trkpt><trkpt lat="36.95913735612555" lon="15.124396202372512"><ele>443.0</ele><time>2026-04-26T06:33:39Z</time></trkpt><trkpt lat="36.959071900820945" lon="15.124386176436063"><ele>444.0</ele><time>2026-04-26T06:33:40Z</time></trkpt><trkpt lat="36.9589970020763" lon="15.124381696203843"><ele>445.0</ele><time>2026-04-26T06:33:41Z</time></trkpt><trkpt lat="36.95891651720476" lon="15.124376211938355"><ele>446.0</ele><time>2026-04-26T06:33:42Z</time></trkpt><trkpt lat="36.95884096131356" lon="15.124370149534052"><ele>446.99999999999994</ele><time>2026-04-26T06:33:43Z</time></trkpt><trkpt lat="36.958769482823" lon="15.124366775511811"><ele>448.0</ele><time>2026-04-26T06:33:44Z</time></trkpt><trkpt lat="36.9587046342539" lon="15.124364000990932"><ele>449.0</ele><time>2026-04-26T06:33:45Z</time></trkpt><trkpt lat="36.95862578500362" lon="15.124350377230313"><ele>448.99999999999994</ele><time>2026-04-26T06:33:46Z</time></trkpt><trkpt lat="36.958555882265856" lon="15.124329421795432"><ele>449.0</ele><time>2026-04-26T06:33:47Z</time></trkpt><trkpt lat="36.958484917752365" lon="15.124300823808788"><ele>449.0</ele><time>2026-04-26T06:33:48Z</time></trkpt><trkpt lat="36.95841405626537" lon="15.124274868500788"><ele>449.0</ele><time>2026-04-26T06:33:49Z</time></trkpt><trkpt lat="36.95830297611208" lon="15.12424766783461"><ele>448.99999999999994</ele><time>2026-04-26T06:33:51Z</time></trkpt><trkpt lat="36.9582407646631" lon="15.124223329378943"><ele>449.0</ele><time>2026-04-26T06:33:52Z</time></trkpt><trkpt lat="36.958143854388034" lon="15.124170561692571"><ele>449.16666666666663</ele><time>2026-04-26T06:33:54Z</time></trkpt><trkpt lat="36.95804190753848" lon="15.124131759999457"><ele>449.3333333333333</ele><time>2026-04-26T06:33:56Z</time></trkpt><trkpt lat="36.9579415036352" lon="15.12412270126282"><ele>449.5</ele><time>2026-04-26T06:33:57.999Z</time></trkpt><trkpt lat="36.95788267778321" lon="15.12408420795457"><ele>449.66666666666663</ele><time>2026-04-26T06:33:59.999Z</time></trkpt><trkpt lat="36.95780644386495" lon="15.124016113123275"><ele>449.8333333333333</ele><time>2026-04-26T06:34:01.999Z</time></trkpt><trkpt lat="36.9577517582286" lon="15.12396436443837"><ele>450.0</ele><time>2026-04-26T06:34:03.999Z</time></trkpt><trkpt lat="36.9576992784622" lon="15.123863515519645"><ele>450.00000000000006</ele><time>2026-04-26T06:34:24.999Z</time></trkpt><trkpt lat="36.95764210426866" lon="15.123803185855216"><ele>450.0</ele><time>2026-04-26T06:34:26.999Z</time></trkpt><trkpt lat="36.957583030581134" lon="15.123755694737676"><ele>450.00000000000006</ele><time>2026-04-26T06:34:28.999Z</time></trkpt><trkpt lat="36.957516452308035" lon="15.123684487930653"><ele>450.00000000000006</ele><time>2026-04-26T06:34:30.999Z</time></trkpt><trkpt lat="36.95745813067764" lon="15.12364700118009"><ele>450.0</ele><time>2026-04-26T06:34:32.999Z</time></trkpt><trkpt lat="36.957390636278404" lon="15.123627489258185"><ele>450.00000000000006</ele><time>2026-04-26T06:34:34.999Z</time></trkpt><trkpt lat="36.95732242657808" lon="15.123588983871572"><ele>450.00000000000006</ele><time>2026-04-26T06:34:38Z</time></trkpt><trkpt lat="36.95726284393218" lon="15.123620525378692"><ele>450.00000000000006</ele><time>2026-04-26T06:34:59Z</time></trkpt><trkpt lat="36.95725598904779" lon="15.123715807920501"><ele>450.0</ele><time>2026-04-26T06:35:03Z</time></trkpt><trkpt lat="36.9573046852457" lon="15.123649972611556"><ele>450.00000000000006</ele><time>2026-04-26T06:35:06Z</time></trkpt><trkpt lat="36.957339590791314" lon="15.123581171537463"><ele>450.00000000000006</ele><time>2026-04-26T06:35:10Z</time></trkpt><trkpt lat="36.95741707462226" lon="15.12361445681361"><ele>450.0</ele><time>2026-04-26T06:35:13Z</time></trkpt><trkpt lat="36.957488161966886" lon="15.123666725263073"><ele>450.00000000000006</ele><time>2026-04-26T06:35:15Z</time></trkpt><trkpt lat="36.9575486121991" lon="15.12371363222822"><ele>450.00000000000006</ele><time>2026-04-26T06:35:17Z</time></trkpt><trkpt lat="36.95760445944755" lon="15.123780107819574"><ele>450.0</ele><time>2026-04-26T06:35:19Z</time></trkpt><trkpt lat="36.95767916886746" lon="15.12384396183947"><ele>450.0</ele><time>2026-04-26T06:35:21Z</time></trkpt><trkpt lat="36.95773365110443" lon="15.123908396457779"><ele>450.0</ele><time>2026-04-26T06:35:23Z</time></trkpt><trkpt lat="36.95776512543442" lon="15.123980338745838"><ele>450.0</ele><time>2026-04-26T06:35:25Z</time></trkpt><trkpt lat="36.95782654493739" lon="15.124030886607715"><ele>450.0</ele><time>2026-04-26T06:35:27Z</time></trkpt><trkpt lat="36.95791055323551" lon="15.124093841706719"><ele>450.0</ele><time>2026-04-26T06:35:29Z</time></trkpt><trkpt lat="36.958000638902895" lon="15.124142487019311"><ele>450.1666666666667</ele><time>2026-04-26T06:35:31Z</time></trkpt><trkpt lat="36.958064636266506" lon="15.124158301952091"><ele>450.33333333333337</ele><time>2026-04-26T06:35:32Z</time></trkpt><trkpt lat="36.958126616093516" lon="15.124176832078223"><ele>450.5</ele><time>2026-04-26T06:35:33Z</time></trkpt><trkpt lat="36.9581915140925" lon="15.124203347416595"><ele>450.6666666666667</ele><time>2026-04-26T06:35:34Z</time></trkpt><trkpt lat="36.958262134737424" lon="15.124233364056256"><ele>450.83333333333337</ele><time>2026-04-26T06:35:35Z</time></trkpt><trkpt lat="36.95838368650695" lon="15.124275007085995"><ele>451.0</ele><time>2026-04-26T06:35:37Z</time></trkpt><trkpt lat="36.958508409411" lon="15.124309755543894"><ele>450.6666666666667</ele><time>2026-04-26T06:35:39Z</time></trkpt><trkpt lat="36.9585939179205" lon="15.124329082688426"><ele>450.33333333333337</ele><time>2026-04-26T06:35:40Z</time></trkpt><trkpt lat="36.958676022491325" lon="15.124354832510013"><ele>450.0</ele><time>2026-04-26T06:35:41Z</time></trkpt><trkpt lat="36.958762539986004" lon="15.124369060943632"><ele>449.66666666666663</ele><time>2026-04-26T06:35:42Z</time></trkpt><trkpt lat="36.958848976568696" lon="15.124374060664739"><ele>449.3333333333333</ele><time>2026-04-26T06:35:43Z</time></trkpt><trkpt lat="36.9589312846468" lon="15.124378259228946"><ele>449.0</ele><time>2026-04-26T06:35:44Z</time></trkpt><trkpt lat="36.95905829647193" lon="15.124386470799692"><ele>448.99999999999994</ele><time>2026-04-26T06:35:46Z</time></trkpt><trkpt lat="36.9591293516594" lon="15.124394565277038"><ele>449.0</ele><time>2026-04-26T06:35:47Z</time></trkpt><trkpt lat="36.95920465263905" lon="15.124400943263568"><ele>449.0</ele><time>2026-04-26T06:35:48Z</time></trkpt><trkpt lat="36.95928272023832" lon="15.124413018688546"><ele>449.0</ele><time>2026-04-26T06:35:49Z</time></trkpt><trkpt lat="36.959358111504" lon="15.124424536435333"><ele>448.99999999999994</ele><time>2026-04-26T06:35:50Z</time></trkpt><trkpt lat="36.95943238124404" lon="15.1244386831815"><ele>449.0</ele><time>2026-04-26T06:35:51Z</time></trkpt><trkpt lat="36.95950764192827" lon="15.124461449965157"><ele>448.0</ele><time>2026-04-26T06:35:52Z</time></trkpt><trkpt lat="36.959583378864" lon="15.124479180880932"><ele>446.99999999999994</ele><time>2026-04-26T06:35:53Z</time></trkpt><trkpt lat="36.95965724783734" lon="15.124491621278551"><ele>446.0</ele><time>2026-04-26T06:35:54Z</time></trkpt><trkpt lat="36.95973177475216" lon="15.12453463481489"><ele>445.0</ele><time>2026-04-26T06:35:56Z</time></trkpt><trkpt lat="36.959761138623406" lon="15.124605414554932"><ele>444.0</ele><time>2026-04-26T06:35:58Z</time></trkpt><trkpt lat="36.95977649275621" lon="15.124683168072208"><ele>443.0</ele><time>2026-04-26T06:36:02Z</time></trkpt><trkpt lat="36.959824920393" lon="15.124764100770115"><ele>442.0</ele><time>2026-04-26T06:36:40.999Z</time></trkpt><trkpt lat="36.95984297031153" lon="15.124841159856198"><ele>441.6666666666667</ele><time>2026-04-26T06:36:45Z</time></trkpt><trkpt lat="36.95982451865206" lon="15.124955193983526"><ele>441.33333333333337</ele><time>2026-04-26T06:38:27Z</time></trkpt><trkpt lat="36.95982370781235" lon="15.125038802125117"><ele>441.0</ele><time>2026-04-26T06:38:29Z</time></trkpt><trkpt lat="36.95987239700363" lon="15.125121846865897"><ele>440.66666666666663</ele><time>2026-04-26T06:38:32Z</time></trkpt><trkpt lat="36.959951737527895" lon="15.125110818445584"><ele>440.3333333333333</ele><time>2026-04-26T06:38:35Z</time></trkpt><trkpt lat="36.96005074669816" lon="15.125096151048647"><ele>440.0</ele><time>2026-04-26T06:38:37Z</time></trkpt><trkpt lat="36.960115173790584" lon="15.125078097871132"><ele>439.8</ele><time>2026-04-26T06:38:38Z</time></trkpt><trkpt lat="36.960205477792194" lon="15.12504653914952"><ele>439.6</ele><time>2026-04-26T06:38:39Z</time></trkpt><trkpt lat="36.96030642365835" lon="15.1250010789036"><ele>439.4</ele><time>2026-04-26T06:38:40Z</time></trkpt><trkpt lat="36.9603838242861" lon="15.124965969220955"><ele>439.2</ele><time>2026-04-26T06:38:41Z</time></trkpt><trkpt lat="36.96045732143941" lon="15.124855490227475"><ele>439.0</ele><time>2026-04-26T06:38:43Z</time></trkpt><trkpt lat="36.96049965781342" lon="15.124759165001874"><ele>439.0</ele><time>2026-04-26T06:38:44Z</time></trkpt><trkpt lat="36.960553475876125" lon="15.124636192697603"><ele>439.0</ele><time>2026-04-26T06:38:45Z</time></trkpt><trkpt lat="36.96062276176973" lon="15.124484697900325"><ele>439.0</ele><time>2026-04-26T06:38:46Z</time></trkpt><trkpt lat="36.96069028038112" lon="15.124362998016874"><ele>439.0</ele><time>2026-04-26T06:38:47Z</time></trkpt><trkpt lat="36.96074350489197" lon="15.124302198217052"><ele>439.0</ele><time>2026-04-26T06:38:48Z</time></trkpt><trkpt lat="36.960801140942536" lon="15.12426964993101"><ele>440.79999999999995</ele><time>2026-04-26T06:38:49Z</time></trkpt><trkpt lat="36.96089073630981" lon="15.124271307306227"><ele>442.59999999999997</ele><time>2026-04-26T06:38:51Z</time></trkpt><trkpt lat="36.96100488145079" lon="15.124263163311438"><ele>444.4</ele><time>2026-04-26T06:38:53Z</time></trkpt><trkpt lat="36.961029740475574" lon="15.124150306030351"><ele>446.2</ele><time>2026-04-26T06:38:55Z</time></trkpt><trkpt lat="36.96102544525094" lon="15.124053588493643"><ele>448.0</ele><time>2026-04-26T06:38:56Z</time></trkpt><trkpt lat="36.96101902619983" lon="15.123915468676616"><ele>448.1666666666667</ele><time>2026-04-26T06:38:57Z</time></trkpt><trkpt lat="36.96102354645561" lon="15.12379163136768"><ele>448.33333333333337</ele><time>2026-04-26T06:38:58Z</time></trkpt><trkpt lat="36.961039906931376" lon="15.123696199408757"><ele>448.5</ele><time>2026-04-26T06:38:59Z</time></trkpt><trkpt lat="36.96109290947631" lon="15.123604989962223"><ele>448.66666666666663</ele><time>2026-04-26T06:39:01Z</time></trkpt><trkpt lat="36.96112357364288" lon="15.123530094940145"><ele>448.8333333333333</ele><time>2026-04-26T06:39:03Z</time></trkpt><trkpt lat="36.96118720749195" lon="15.123513515117358"><ele>449.0</ele><time>2026-04-26T06:39:05Z</time></trkpt><trkpt lat="36.96125254785324" lon="15.123541947195648"><ele>449.0</ele><time>2026-04-26T06:39:45.001Z</time></trkpt><trkpt lat="36.96136921233133" lon="15.123554236246072"><ele>449.0</ele><time>2026-04-26T06:39:47.001Z</time></trkpt><trkpt lat="36.96145178058585" lon="15.123522898372016"><ele>449.0</ele><time>2026-04-26T06:41:09Z</time></trkpt><trkpt lat="36.96159198168307" lon="15.123577807943791"><ele>449.0</ele><time>2026-04-26T06:41:11Z</time></trkpt><trkpt lat="36.96166108938285" lon="15.123631461281578"><ele>449.0</ele><time>2026-04-26T06:41:12Z</time></trkpt><trkpt lat="36.96174471162242" lon="15.123647746332953"><ele>449.4</ele><time>2026-04-26T06:41:14Z</time></trkpt><trkpt lat="36.961765482097825" lon="15.1234244533254"><ele>449.79999999999995</ele><time>2026-04-26T06:41:15Z</time></trkpt><trkpt lat="36.961764741069025" lon="15.123337634470246"><ele>450.20000000000005</ele><time>2026-04-26T06:41:16Z</time></trkpt><trkpt lat="36.9617743193148" lon="15.123227966064341"><ele>450.6</ele><time>2026-04-26T06:41:17Z</time></trkpt><trkpt lat="36.9618186726559" lon="15.123143845093487"><ele>451.0</ele><time>2026-04-26T06:41:18Z</time></trkpt><trkpt lat="36.961918962881285" lon="15.123072742058115"><ele>451.75</ele><time>2026-04-26T06:41:20Z</time></trkpt><trkpt lat="36.962045853806224" lon="15.123097256192583"><ele>452.5</ele><time>2026-04-26T06:41:22Z</time></trkpt><trkpt lat="36.962141189401244" lon="15.12313516867038"><ele>453.25</ele><time>2026-04-26T06:41:23Z</time></trkpt><trkpt lat="36.962259493076765" lon="15.123178100614277"><ele>454.0</ele><time>2026-04-26T06:41:24Z</time></trkpt><trkpt lat="36.962392666161556" lon="15.123228305753994"><ele>453.50000000000006</ele><time>2026-04-26T06:41:25Z</time></trkpt><trkpt lat="36.96247829826741" lon="15.123281575181185"><ele>453.0</ele><time>2026-04-26T06:41:26Z</time></trkpt><trkpt lat="36.96253484197888" lon="15.123317792508635"><ele>452.5</ele><time>2026-04-26T06:41:27Z</time></trkpt><trkpt lat="36.96261268292681" lon="15.1233013778429"><ele>452.0</ele><time>2026-04-26T06:41:29Z</time></trkpt><trkpt lat="36.962668698206656" lon="15.123236961954712"><ele>451.50000000000006</ele><time>2026-04-26T06:41:30Z</time></trkpt><trkpt lat="36.96274625747773" lon="15.123150583230304"><ele>451.0</ele><time>2026-04-26T06:41:31Z</time></trkpt><trkpt lat="36.96283622925423" lon="15.123081584177966"><ele>446.0</ele><time>2026-04-26T06:41:32Z</time></trkpt><trkpt lat="36.96291625106558" lon="15.12300309922157"><ele>441.0</ele><time>2026-04-26T06:41:33Z</time></trkpt><trkpt lat="36.962979937930086" lon="15.122932155030282"><ele>436.0</ele><time>2026-04-26T06:41:34Z</time></trkpt><trkpt lat="36.96303816458868" lon="15.12286211257281"><ele>431.0</ele><time>2026-04-26T06:41:35Z</time></trkpt><trkpt lat="36.96309053295585" lon="15.12278222658829"><ele>426.0</ele><time>2026-04-26T06:41:36Z</time></trkpt><trkpt lat="36.96313154191075" lon="15.122659965335702"><ele>426.0</ele><time>2026-04-26T06:41:37Z</time></trkpt><trkpt lat="36.9631661082313" lon="15.122532827293385"><ele>426.0</ele><time>2026-04-26T06:41:38Z</time></trkpt><trkpt lat="36.963212330748185" lon="15.122390181059101"><ele>426.0</ele><time>2026-04-26T06:41:39Z</time></trkpt><trkpt lat="36.963244312155105" lon="15.122213562209003"><ele>426.0</ele><time>2026-04-26T06:41:40Z</time></trkpt><trkpt lat="36.96325768066928" lon="15.122030277115941"><ele>431.0</ele><time>2026-04-26T06:41:41Z</time></trkpt><trkpt lat="36.96328051450013" lon="15.121843189666931"><ele>436.0</ele><time>2026-04-26T06:41:42Z</time></trkpt><trkpt lat="36.96331665153029" lon="15.121682542899316"><ele>441.0</ele><time>2026-04-26T06:41:43Z</time></trkpt><trkpt lat="36.96331481075096" lon="15.12154755747122"><ele>446.0</ele><time>2026-04-26T06:41:44Z</time></trkpt><trkpt lat="36.96333254043601" lon="15.121442439649945"><ele>446.0</ele><time>2026-04-26T06:41:45Z</time></trkpt><trkpt lat="36.963312120316935" lon="15.121300805221184"><ele>446.0</ele><time>2026-04-26T06:41:46Z</time></trkpt><trkpt lat="36.96326598778399" lon="15.121126654938491"><ele>446.0</ele><time>2026-04-26T06:41:47Z</time></trkpt><trkpt lat="36.96323705998596" lon="15.120978072105729"><ele>446.0</ele><time>2026-04-26T06:41:48Z</time></trkpt><trkpt lat="36.96321531981808" lon="15.120859863878241"><ele>446.0</ele><time>2026-04-26T06:41:49Z</time></trkpt><trkpt lat="36.96319129723475" lon="15.12073408907692"><ele>446.0</ele><time>2026-04-26T06:41:50Z</time></trkpt><trkpt lat="36.96316484056497" lon="15.120596357573234"><ele>446.0</ele><time>2026-04-26T06:41:51Z</time></trkpt><trkpt lat="36.963140308602334" lon="15.120468273454494"><ele>446.0</ele><time>2026-04-26T06:41:52Z</time></trkpt><trkpt lat="36.96310510036391" lon="15.120363002305917"><ele>446.0</ele><time>2026-04-26T06:41:53Z</time></trkpt><trkpt lat="36.963092464654224" lon="15.120253566905589"><ele>444.20000000000005</ele><time>2026-04-26T06:41:54Z</time></trkpt><trkpt lat="36.96307199155905" lon="15.120155808751168"><ele>442.40000000000003</ele><time>2026-04-26T06:41:55Z</time></trkpt><trkpt lat="36.96303424982168" lon="15.120040349046898"><ele>440.6</ele><time>2026-04-26T06:41:56Z</time></trkpt><trkpt lat="36.9629876702575" lon="15.119930477557189"><ele>438.8</ele><time>2026-04-26T06:41:57Z</time></trkpt><trkpt lat="36.96292097072404" lon="15.119836753667702"><ele>437.0</ele><time>2026-04-26T06:41:58Z</time></trkpt><trkpt lat="36.96285247668956" lon="15.119709970394362"><ele>436.25</ele><time>2026-04-26T06:41:59Z</time></trkpt><trkpt lat="36.96275269889179" lon="15.119596459768909"><ele>435.5</ele><time>2026-04-26T06:42:00Z</time></trkpt><trkpt lat="36.962659334601064" lon="15.119453737362136"><ele>434.75</ele><time>2026-04-26T06:42:01Z</time></trkpt><trkpt lat="36.96255699706348" lon="15.119298293337197"><ele>434.0</ele><time>2026-04-26T06:42:02Z</time></trkpt><trkpt lat="36.96249352855525" lon="15.119161915400571"><ele>437.2</ele><time>2026-04-26T06:42:03Z</time></trkpt><trkpt lat="36.9624398734037" lon="15.119057938940188"><ele>440.4</ele><time>2026-04-26T06:42:04Z</time></trkpt><trkpt lat="36.9624097191193" lon="15.118968558240459"><ele>443.6</ele><time>2026-04-26T06:42:05Z</time></trkpt><trkpt lat="36.962415282214586" lon="15.118869117395954"><ele>446.8</ele><time>2026-04-26T06:42:06Z</time></trkpt><trkpt lat="36.96242130225864" lon="15.118757696726144"><ele>450.0</ele><time>2026-04-26T06:42:07Z</time></trkpt><trkpt lat="36.962433743083466" lon="15.118624560812268"><ele>450.0</ele><time>2026-04-26T06:42:08Z</time></trkpt><trkpt lat="36.96245254165348" lon="15.118454141489972"><ele>450.0</ele><time>2026-04-26T06:42:09Z</time></trkpt><trkpt lat="36.962474782631624" lon="15.118255546159986"><ele>450.0</ele><time>2026-04-26T06:42:10Z</time></trkpt><trkpt lat="36.96248258406545" lon="15.118065309613112"><ele>449.0</ele><time>2026-04-26T06:42:11Z</time></trkpt><trkpt lat="36.96249906914651" lon="15.11789268848694"><ele>448.0</ele><time>2026-04-26T06:42:12Z</time></trkpt><trkpt lat="36.96250287423744" lon="15.117756249891766"><ele>447.0</ele><time>2026-04-26T06:42:13Z</time></trkpt><trkpt lat="36.96250900293193" lon="15.117622630311178"><ele>446.0</ele><time>2026-04-26T06:42:14Z</time></trkpt><trkpt lat="36.96252253102771" lon="15.117485748200583"><ele>445.8</ele><time>2026-04-26T06:42:15Z</time></trkpt><trkpt lat="36.96250693075837" lon="15.117369897394678"><ele>445.6</ele><time>2026-04-26T06:42:16Z</time></trkpt><trkpt lat="36.96250475311825" lon="15.117252459517568"><ele>445.4</ele><time>2026-04-26T06:42:17Z</time></trkpt><trkpt lat="36.96249901021652" lon="15.117137701942697"><ele>445.2</ele><time>2026-04-26T06:42:18Z</time></trkpt><trkpt lat="36.962469377927825" lon="15.11700785591158"><ele>445.0</ele><time>2026-04-26T06:42:19Z</time></trkpt><trkpt lat="36.9624527140987" lon="15.116878248568987"><ele>445.0</ele><time>2026-04-26T06:42:20Z</time></trkpt><trkpt lat="36.96243161023078" lon="15.11671623017492"><ele>445.0</ele><time>2026-04-26T06:42:21Z</time></trkpt><trkpt lat="36.962414315315414" lon="15.116523357944944"><ele>445.0</ele><time>2026-04-26T06:42:22Z</time></trkpt><trkpt lat="36.96240752718522" lon="15.116374926793707"><ele>445.0</ele><time>2026-04-26T06:42:23Z</time></trkpt><trkpt lat="36.96241166398715" lon="15.116245508876263"><ele>445.6666666666667</ele><time>2026-04-26T06:42:24Z</time></trkpt><trkpt lat="36.9624220591449" lon="15.116133737441611"><ele>446.33333333333337</ele><time>2026-04-26T06:42:25Z</time></trkpt><trkpt lat="36.96243234357321" lon="15.116036612897004"><ele>447.0</ele><time>2026-04-26T06:42:26Z</time></trkpt><trkpt lat="36.96244819852687" lon="15.115935825624618"><ele>447.66666666666663</ele><time>2026-04-26T06:42:27Z</time></trkpt><trkpt lat="36.96246972831612" lon="15.115808326667768"><ele>448.3333333333333</ele><time>2026-04-26T06:42:28Z</time></trkpt><trkpt lat="36.9624905366104" lon="15.115709177701724"><ele>449.0</ele><time>2026-04-26T06:42:29Z</time></trkpt><trkpt lat="36.96252780451853" lon="15.11558703661088"><ele>439.2</ele><time>2026-04-26T06:42:30Z</time></trkpt><trkpt lat="36.96255420240837" lon="15.115465421337793"><ele>429.4</ele><time>2026-04-26T06:42:31Z</time></trkpt><trkpt lat="36.962577190867236" lon="15.115366431454085"><ele>419.6</ele><time>2026-04-26T06:42:32Z</time></trkpt><trkpt lat="36.96261458188546" lon="15.115231273620344"><ele>409.8</ele><time>2026-04-26T06:42:33Z</time></trkpt><trkpt lat="36.96266340654075" lon="15.11506447604716"><ele>400.0</ele><time>2026-04-26T06:42:34Z</time></trkpt><trkpt lat="36.962715937499205" lon="15.114883645155908"><ele>400.0</ele><time>2026-04-26T06:42:35Z</time></trkpt><trkpt lat="36.96275816140074" lon="15.114739456765163"><ele>400.0</ele><time>2026-04-26T06:42:36Z</time></trkpt><trkpt lat="36.962792268075205" lon="15.114614283381352"><ele>400.0</ele><time>2026-04-26T06:42:37Z</time></trkpt><trkpt lat="36.9628273065937" lon="15.114488029980933"><ele>400.0</ele><time>2026-04-26T06:42:38Z</time></trkpt><trkpt lat="36.96287185453191" lon="15.11432880949738"><ele>400.0</ele><time>2026-04-26T06:42:39Z</time></trkpt><trkpt lat="36.96291904720987" lon="15.114153397615922"><ele>400.0</ele><time>2026-04-26T06:42:40Z</time></trkpt><trkpt lat="36.962963246857" lon="15.113978843918"><ele>400.0</ele><time>2026-04-26T06:42:41Z</time></trkpt><trkpt lat="36.9630064041896" lon="15.11380376958148"><ele>400.0</ele><time>2026-04-26T06:42:42Z</time></trkpt><trkpt lat="36.963045768466536" lon="15.113632943204498"><ele>412.33333333333337</ele><time>2026-04-26T06:42:43Z</time></trkpt><trkpt lat="36.963085783604534" lon="15.1134565241813"><ele>424.66666666666663</ele><time>2026-04-26T06:42:44Z</time></trkpt><trkpt lat="36.96313400490557" lon="15.113252985927113"><ele>437.0</ele><time>2026-04-26T06:42:45Z</time></trkpt><trkpt lat="36.963189154429195" lon="15.1130278378413"><ele>446.0</ele><time>2026-04-26T06:42:46Z</time></trkpt><trkpt lat="36.96323488198433" lon="15.112844983707475"><ele>455.0</ele><time>2026-04-26T06:42:47Z</time></trkpt><trkpt lat="36.96328289175414" lon="15.112656170003369"><ele>464.0</ele><time>2026-04-26T06:42:48Z</time></trkpt><trkpt lat="36.96333704404439" lon="15.112481667330446"><ele>443.0</ele><time>2026-04-26T06:42:49Z</time></trkpt><trkpt lat="36.96339114294794" lon="15.112300359031343"><ele>422.0</ele><time>2026-04-26T06:42:50Z</time></trkpt><trkpt lat="36.963442942922065" lon="15.112093221040054"><ele>401.0</ele><time>2026-04-26T06:42:51Z</time></trkpt><trkpt lat="36.9634978490743" lon="15.11190375267942"><ele>401.0</ele><time>2026-04-26T06:42:52Z</time></trkpt><trkpt lat="36.96352051275431" lon="15.111758223237059"><ele>401.0</ele><time>2026-04-26T06:42:53Z</time></trkpt><trkpt lat="36.96353037443485" lon="15.111629021379391"><ele>401.0</ele><time>2026-04-26T06:42:54Z</time></trkpt><trkpt lat="36.96353685945535" lon="15.111500061424561"><ele>401.0</ele><time>2026-04-26T06:42:55Z</time></trkpt><trkpt lat="36.963531061427894" lon="15.111365085505"><ele>401.0</ele><time>2026-04-26T06:42:56Z</time></trkpt><trkpt lat="36.963522908031464" lon="15.111211222934518"><ele>413.66666666666663</ele><time>2026-04-26T06:42:57Z</time></trkpt><trkpt lat="36.963498033822574" lon="15.11102345328604"><ele>426.33333333333337</ele><time>2026-04-26T06:42:58Z</time></trkpt><trkpt lat="36.96345827537167" lon="15.110814489440221"><ele>439.0</ele><time>2026-04-26T06:42:59Z</time></trkpt><trkpt lat="36.96342685918079" lon="15.110613087954768"><ele>445.25</ele><time>2026-04-26T06:43:00Z</time></trkpt><trkpt lat="36.963393944518515" lon="15.110458122732945"><ele>451.5</ele><time>2026-04-26T06:43:01Z</time></trkpt><trkpt lat="36.963363414617824" lon="15.110309733768403"><ele>457.75</ele><time>2026-04-26T06:43:02Z</time></trkpt><trkpt lat="36.963341002166416" lon="15.110187468333597"><ele>464.0</ele><time>2026-04-26T06:43:03Z</time></trkpt><trkpt lat="36.96331441207701" lon="15.110059463492043"><ele>465.16666666666663</ele><time>2026-04-26T06:43:04Z</time></trkpt><trkpt lat="36.96329898001978" lon="15.109964153222608"><ele>466.3333333333333</ele><time>2026-04-26T06:43:05Z</time></trkpt><trkpt lat="36.96332105392652" lon="15.109875531810793"><ele>467.5</ele><time>2026-04-26T06:43:07Z</time></trkpt><trkpt lat="36.96332281687286" lon="15.10975544659504"><ele>468.66666666666663</ele><time>2026-04-26T06:43:09Z</time></trkpt><trkpt lat="36.963310281172085" lon="15.109637685060688"><ele>469.8333333333333</ele><time>2026-04-26T06:43:11Z</time></trkpt><trkpt lat="36.96330237209842" lon="15.109550435900905"><ele>471.0</ele><time>2026-04-26T06:43:13Z</time></trkpt><trkpt lat="36.96330349952679" lon="15.109432677539939"><ele>471.20000000000005</ele><time>2026-04-26T06:43:16Z</time></trkpt><trkpt lat="36.96332416638689" lon="15.109304838921563"><ele>471.40000000000003</ele><time>2026-04-26T06:43:18Z</time></trkpt><trkpt lat="36.96337687247285" lon="15.109163236064589"><ele>471.6</ele><time>2026-04-26T06:43:20Z</time></trkpt><trkpt lat="36.96343691093732" lon="15.109014771581032"><ele>471.8</ele><time>2026-04-26T06:43:22Z</time></trkpt><trkpt lat="36.9634675167091" lon="15.108938852652567"><ele>472.0</ele><time>2026-04-26T06:43:23Z</time></trkpt><trkpt lat="36.963505325095795" lon="15.10885223211775"><ele>473.20000000000005</ele><time>2026-04-26T06:43:25Z</time></trkpt><trkpt lat="36.9635351337979" lon="15.108735584319327"><ele>474.40000000000003</ele><time>2026-04-26T06:43:28Z</time></trkpt><trkpt lat="36.963563111958344" lon="15.108618874310219"><ele>475.59999999999997</ele><time>2026-04-26T06:43:30Z</time></trkpt><trkpt lat="36.96358554330601" lon="15.108509883575529"><ele>476.79999999999995</ele><time>2026-04-26T06:43:32Z</time></trkpt><trkpt lat="36.96361243237341" lon="15.108386866855039"><ele>478.0</ele><time>2026-04-26T06:43:34Z</time></trkpt><trkpt lat="36.96363299877784" lon="15.10825775213038"><ele>477.6666666666667</ele><time>2026-04-26T06:43:36Z</time></trkpt><trkpt lat="36.96366242222421" lon="15.10815322629152"><ele>477.33333333333337</ele><time>2026-04-26T06:43:38Z</time></trkpt><trkpt lat="36.96367688616333" lon="15.108044468379461"><ele>477.0</ele><time>2026-04-26T06:43:40Z</time></trkpt><trkpt lat="36.96370915744032" lon="15.10796702650081"><ele>476.66666666666663</ele><time>2026-04-26T06:43:42Z</time></trkpt><trkpt lat="36.963727255134" lon="15.107890865630964"><ele>476.3333333333333</ele><time>2026-04-26T06:43:44Z</time></trkpt><trkpt lat="36.963752200937265" lon="15.10778339188128"><ele>476.0</ele><time>2026-04-26T06:43:47Z</time></trkpt><trkpt lat="36.96377175256898" lon="15.107699157816597"><ele>475.99999999999994</ele><time>2026-04-26T06:43:49Z</time></trkpt><trkpt lat="36.96379235206132" lon="15.107614161611068"><ele>476.0</ele><time>2026-04-26T06:43:51Z</time></trkpt><trkpt lat="36.96381516278801" lon="15.107522797058325"><ele>476.0</ele><time>2026-04-26T06:43:54Z</time></trkpt><trkpt lat="36.963852397135" lon="15.107394003904938"><ele>476.0</ele><time>2026-04-26T06:44:12Z</time></trkpt><trkpt lat="36.9638784539751" lon="15.10731442760101"><ele>475.99999999999994</ele><time>2026-04-26T06:44:13Z</time></trkpt><trkpt lat="36.96390748217803" lon="15.107230447868906"><ele>476.0</ele><time>2026-04-26T06:44:14Z</time></trkpt><trkpt lat="36.96392945838633" lon="15.107126707576475"><ele>476.25</ele><time>2026-04-26T06:44:15Z</time></trkpt><trkpt lat="36.96398171766937" lon="15.107013847872029"><ele>476.5</ele><time>2026-04-26T06:44:16Z</time></trkpt><trkpt lat="36.96402856134924" lon="15.106879935749895"><ele>476.75</ele><time>2026-04-26T06:44:17Z</time></trkpt><trkpt lat="36.96407556932993" lon="15.10673299402535"><ele>477.0</ele><time>2026-04-26T06:44:18Z</time></trkpt><trkpt lat="36.964122425678866" lon="15.106572029767685"><ele>477.25</ele><time>2026-04-26T06:44:19Z</time></trkpt><trkpt lat="36.96416302800283" lon="15.106414712552274"><ele>477.5</ele><time>2026-04-26T06:44:20Z</time></trkpt><trkpt lat="36.96420120303163" lon="15.106249562731943"><ele>477.75</ele><time>2026-04-26T06:44:21Z</time></trkpt><trkpt lat="36.964241589458396" lon="15.10607408602353"><ele>478.0</ele><time>2026-04-26T06:44:22Z</time></trkpt><trkpt lat="36.96428545143591" lon="15.105874698305774"><ele>481.0</ele><time>2026-04-26T06:44:23Z</time></trkpt><trkpt lat="36.964328538863654" lon="15.105711466026753"><ele>484.0</ele><time>2026-04-26T06:44:24Z</time></trkpt><trkpt lat="36.964365758931066" lon="15.10556624527227"><ele>487.0</ele><time>2026-04-26T06:44:25Z</time></trkpt><trkpt lat="36.964397084277785" lon="15.105439360396206"><ele>490.0</ele><time>2026-04-26T06:44:26Z</time></trkpt><trkpt lat="36.96441312299628" lon="15.10531142624389"><ele>490.0</ele><time>2026-04-26T06:44:27Z</time></trkpt><trkpt lat="36.96441874992391" lon="15.105177750478147"><ele>490.0</ele><time>2026-04-26T06:44:28Z</time></trkpt><trkpt lat="36.96441854301447" lon="15.105034120197182"><ele>490.0</ele><time>2026-04-26T06:44:29Z</time></trkpt><trkpt lat="36.96440728547304" lon="15.10490188211225"><ele>490.0</ele><time>2026-04-26T06:44:30Z</time></trkpt><trkpt lat="36.96439320521088" lon="15.104773300293852"><ele>490.0</ele><time>2026-04-26T06:44:31Z</time></trkpt><trkpt lat="36.964378931864736" lon="15.104643641154073"><ele>490.2</ele><time>2026-04-26T06:44:32Z</time></trkpt><trkpt lat="36.9643721142311" lon="15.104521103696579"><ele>490.4</ele><time>2026-04-26T06:44:33Z</time></trkpt><trkpt lat="36.96437566011236" lon="15.104414015582638"><ele>490.6</ele><time>2026-04-26T06:44:34Z</time></trkpt><trkpt lat="36.96440938283451" lon="15.104305466369851"><ele>490.8</ele><time>2026-04-26T06:44:35Z</time></trkpt><trkpt lat="36.9644405223546" lon="15.104173595022342"><ele>491.0</ele><time>2026-04-26T06:44:36Z</time></trkpt><trkpt lat="36.96446081772952" lon="15.104061031487127"><ele>491.4</ele><time>2026-04-26T06:44:37Z</time></trkpt><trkpt lat="36.96446902450944" lon="15.103942971038517"><ele>491.8</ele><time>2026-04-26T06:44:38Z</time></trkpt><trkpt lat="36.96449447591977" lon="15.103810874875501"><ele>492.19999999999993</ele><time>2026-04-26T06:44:39Z</time></trkpt><trkpt lat="36.96450693048448" lon="15.10367467893506"><ele>492.59999999999997</ele><time>2026-04-26T06:44:40Z</time></trkpt><trkpt lat="36.96451817055461" lon="15.103539145260346"><ele>493.0</ele><time>2026-04-26T06:44:41Z</time></trkpt><trkpt lat="36.964528209313166" lon="15.103418097093916"><ele>493.0</ele><time>2026-04-26T06:44:42Z</time></trkpt><trkpt lat="36.964538662355515" lon="15.103292053418402"><ele>492.99999999999994</ele><time>2026-04-26T06:44:43Z</time></trkpt><trkpt lat="36.96453127019947" lon="15.10317642875607"><ele>492.99999999999994</ele><time>2026-04-26T06:44:44Z</time></trkpt><trkpt lat="36.964559217876136" lon="15.10306356054051"><ele>493.0</ele><time>2026-04-26T06:44:45Z</time></trkpt><trkpt lat="36.96456934010845" lon="15.102961643566378"><ele>493.0</ele><time>2026-04-26T06:44:46Z</time></trkpt><trkpt lat="36.9646265059333" lon="15.102879578779726"><ele>493.33333333333337</ele><time>2026-04-26T06:44:47Z</time></trkpt><trkpt lat="36.964676443493275" lon="15.102784290608975"><ele>493.6666666666667</ele><time>2026-04-26T06:44:48Z</time></trkpt><trkpt lat="36.96472980441454" lon="15.102685758532914"><ele>494.0</ele><time>2026-04-26T06:44:49Z</time></trkpt><trkpt lat="36.96477916039969" lon="15.102576690820026"><ele>494.33333333333337</ele><time>2026-04-26T06:44:50Z</time></trkpt><trkpt lat="36.96482516637776" lon="15.102482292401538"><ele>494.6666666666667</ele><time>2026-04-26T06:44:51Z</time></trkpt><trkpt lat="36.964866218019985" lon="15.102412262905647"><ele>495.0</ele><time>2026-04-26T06:44:52Z</time></trkpt><trkpt lat="36.964918011072356" lon="15.102350602008528"><ele>495.2</ele><time>2026-04-26T06:44:53Z</time></trkpt><trkpt lat="36.964971275642334" lon="15.102275460015749"><ele>495.4</ele><time>2026-04-26T06:44:54Z</time></trkpt><trkpt lat="36.96501433792284" lon="15.10220820765365"><ele>495.6</ele><time>2026-04-26T06:44:55Z</time></trkpt><trkpt lat="36.9650633231657" lon="15.102130513659414"><ele>495.8</ele><time>2026-04-26T06:44:56Z</time></trkpt><trkpt lat="36.96513897109719" lon="15.102031719063376"><ele>496.0</ele><time>2026-04-26T06:44:57Z</time></trkpt><trkpt lat="36.96521687901529" lon="15.101921947571114"><ele>497.75</ele><time>2026-04-26T06:44:58Z</time></trkpt><trkpt lat="36.965288059669064" lon="15.101828499484247"><ele>499.5</ele><time>2026-04-26T06:44:59Z</time></trkpt><trkpt lat="36.965366204403644" lon="15.10173924296567"><ele>501.25</ele><time>2026-04-26T06:45:00Z</time></trkpt><trkpt lat="36.965449415381656" lon="15.101620831627496"><ele>503.0</ele><time>2026-04-26T06:45:01Z</time></trkpt><trkpt lat="36.96555641206801" lon="15.101521954474316"><ele>503.0</ele><time>2026-04-26T06:45:02Z</time></trkpt><trkpt lat="36.965651209880846" lon="15.101414740774434"><ele>503.0</ele><time>2026-04-26T06:45:03Z</time></trkpt><trkpt lat="36.96575230402388" lon="15.101302851155479"><ele>503.0</ele><time>2026-04-26T06:45:04Z</time></trkpt><trkpt lat="36.96585560306135" lon="15.101192388501705"><ele>503.0</ele><time>2026-04-26T06:45:05Z</time></trkpt><trkpt lat="36.96595801764415" lon="15.10108347560812"><ele>503.2</ele><time>2026-04-26T06:45:06Z</time></trkpt><trkpt lat="36.96604012501584" lon="15.100973682363305"><ele>503.4</ele><time>2026-04-26T06:45:07Z</time></trkpt><trkpt lat="36.96610049955975" lon="15.100870083695092"><ele>503.59999999999997</ele><time>2026-04-26T06:45:08Z</time></trkpt><trkpt lat="36.96615294386112" lon="15.100762391663853"><ele>503.79999999999995</ele><time>2026-04-26T06:45:09Z</time></trkpt><trkpt lat="36.966208478780366" lon="15.100637262597226"><ele>504.0</ele><time>2026-04-26T06:45:10Z</time></trkpt><trkpt lat="36.96625601931216" lon="15.100527823451948"><ele>503.4</ele><time>2026-04-26T06:45:11Z</time></trkpt><trkpt lat="36.966298759555094" lon="15.10041588121395"><ele>502.79999999999995</ele><time>2026-04-26T06:45:12Z</time></trkpt><trkpt lat="36.96634141975965" lon="15.100299976894833"><ele>502.20000000000005</ele><time>2026-04-26T06:45:13Z</time></trkpt><trkpt lat="36.96638187040566" lon="15.100180528220493"><ele>501.6</ele><time>2026-04-26T06:45:14Z</time></trkpt><trkpt lat="36.96640871401857" lon="15.100085079531043"><ele>501.0</ele><time>2026-04-26T06:45:15Z</time></trkpt><trkpt lat="36.96642650120144" lon="15.099994476710293"><ele>500.0</ele><time>2026-04-26T06:45:16Z</time></trkpt><trkpt lat="36.96644295392898" lon="15.099893353916507"><ele>499.0</ele><time>2026-04-26T06:45:17Z</time></trkpt><trkpt lat="36.9664626649538" lon="15.09979105625455"><ele>498.0</ele><time>2026-04-26T06:45:18Z</time></trkpt><trkpt lat="36.96647230269826" lon="15.099709382604619"><ele>497.0</ele><time>2026-04-26T06:45:19Z</time></trkpt><trkpt lat="36.96648655583869" lon="15.099617154596345"><ele>496.0</ele><time>2026-04-26T06:45:20Z</time></trkpt><trkpt lat="36.96650431031961" lon="15.099489187945943"><ele>495.0</ele><time>2026-04-26T06:45:21Z</time></trkpt><trkpt lat="36.96653131489032" lon="15.099348574655973"><ele>495.0</ele><time>2026-04-26T06:45:22Z</time></trkpt><trkpt lat="36.96656342830107" lon="15.099205003561918"><ele>495.0</ele><time>2026-04-26T06:45:23Z</time></trkpt><trkpt lat="36.9665778825753" lon="15.09904331021571"><ele>495.0</ele><time>2026-04-26T06:45:24Z</time></trkpt><trkpt lat="36.96660489799033" lon="15.098873986991963"><ele>495.0</ele><time>2026-04-26T06:45:25Z</time></trkpt><trkpt lat="36.966629910285526" lon="15.09870311789115"><ele>494.5</ele><time>2026-04-26T06:45:26Z</time></trkpt><trkpt lat="36.966655331529715" lon="15.098551402709282"><ele>494.0</ele><time>2026-04-26T06:45:27Z</time></trkpt><trkpt lat="36.96668226709631" lon="15.098406619648252"><ele>493.5</ele><time>2026-04-26T06:45:28Z</time></trkpt><trkpt lat="36.96670865793327" lon="15.098268099287466"><ele>493.0</ele><time>2026-04-26T06:45:29Z</time></trkpt><trkpt lat="36.96673357565572" lon="15.09813098267562"><ele>486.0</ele><time>2026-04-26T06:45:30Z</time></trkpt><trkpt lat="36.966749378482874" lon="15.09797503626353"><ele>479.0</ele><time>2026-04-26T06:45:31Z</time></trkpt><trkpt lat="36.96676450139297" lon="15.097800193397571"><ele>472.0</ele><time>2026-04-26T06:45:32Z</time></trkpt><trkpt lat="36.96677557955038" lon="15.097610987052983"><ele>465.0</ele><time>2026-04-26T06:45:33Z</time></trkpt><trkpt lat="36.96678469913111" lon="15.097422383512578"><ele>462.25</ele><time>2026-04-26T06:45:34Z</time></trkpt><trkpt lat="36.96679382088344" lon="15.097261018864941"><ele>459.5</ele><time>2026-04-26T06:45:35Z</time></trkpt><trkpt lat="36.966806412482406" lon="15.09706798342562"><ele>456.75</ele><time>2026-04-26T06:45:36Z</time></trkpt><trkpt lat="36.966817331354" lon="15.096904141980467"><ele>454.0</ele><time>2026-04-26T06:45:37Z</time></trkpt><trkpt lat="36.96682923088153" lon="15.096743603829637"><ele>454.0</ele><time>2026-04-26T06:45:38Z</time></trkpt><trkpt lat="36.96682657130076" lon="15.096586287888224"><ele>454.0</ele><time>2026-04-26T06:45:39Z</time></trkpt><trkpt lat="36.96683493847368" lon="15.096416926204405"><ele>454.0</ele><time>2026-04-26T06:45:40Z</time></trkpt><trkpt lat="36.96684018930191" lon="15.096256403853205"><ele>454.0</ele><time>2026-04-26T06:45:41Z</time></trkpt><trkpt lat="36.96684823939982" lon="15.096126192667077"><ele>454.5</ele><time>2026-04-26T06:45:42Z</time></trkpt><trkpt lat="36.96687317491409" lon="15.095998264803525"><ele>455.0</ele><time>2026-04-26T06:45:43Z</time></trkpt><trkpt lat="36.966908972650984" lon="15.09588584803985"><ele>455.5</ele><time>2026-04-26T06:45:44Z</time></trkpt><trkpt lat="36.96696722743497" lon="15.09576187465654"><ele>456.0</ele><time>2026-04-26T06:45:45Z</time></trkpt><trkpt lat="36.96704556215192" lon="15.095627784508793"><ele>461.4</ele><time>2026-04-26T06:45:46Z</time></trkpt><trkpt lat="36.96710811728875" lon="15.095480443488102"><ele>466.8</ele><time>2026-04-26T06:45:47Z</time></trkpt><trkpt lat="36.96716743263879" lon="15.095351893062634"><ele>472.19999999999993</ele><time>2026-04-26T06:45:48Z</time></trkpt><trkpt lat="36.96722137673884" lon="15.095231568226396"><ele>477.59999999999997</ele><time>2026-04-26T06:45:49Z</time></trkpt><trkpt lat="36.9672662448047" lon="15.095152965773323"><ele>483.0</ele><time>2026-04-26T06:45:50Z</time></trkpt><trkpt lat="36.96730056461387" lon="15.09507020987646"><ele>483.0</ele><time>2026-04-26T06:45:51Z</time></trkpt><trkpt lat="36.96732160884293" lon="15.094983179786965"><ele>483.0</ele><time>2026-04-26T06:45:52Z</time></trkpt><trkpt lat="36.967323078483545" lon="15.09489012009947"><ele>483.0</ele><time>2026-04-26T06:45:54Z</time></trkpt><trkpt lat="36.96731183262075" lon="15.094791268601913"><ele>483.0</ele><time>2026-04-26T06:45:56Z</time></trkpt><trkpt lat="36.96724397150676" lon="15.094700714657336"><ele>483.0</ele><time>2026-04-26T06:45:58Z</time></trkpt><trkpt lat="36.9671800312325" lon="15.094724618256905"><ele>483.0</ele><time>2026-04-26T06:45:59Z</time></trkpt><trkpt lat="36.96707239699501" lon="15.094715338473584"><ele>486.59999999999997</ele><time>2026-04-26T06:46:01Z</time></trkpt><trkpt lat="36.96694953249491" lon="15.094689396107073"><ele>490.19999999999993</ele><time>2026-04-26T06:46:03Z</time></trkpt><trkpt lat="36.96686015659415" lon="15.094665008806517"><ele>493.8</ele><time>2026-04-26T06:46:04Z</time></trkpt><trkpt lat="36.966759450546704" lon="15.094634575004477"><ele>497.4</ele><time>2026-04-26T06:46:05Z</time></trkpt><trkpt lat="36.96666458294451" lon="15.09459762063149"><ele>501.0</ele><time>2026-04-26T06:46:06Z</time></trkpt><trkpt lat="36.96656523232073" lon="15.094576750325041"><ele>501.5</ele><time>2026-04-26T06:46:07Z</time></trkpt><trkpt lat="36.96646054149837" lon="15.094552449784036"><ele>502.0</ele><time>2026-04-26T06:46:08Z</time></trkpt><trkpt lat="36.966361027866036" lon="15.094526359779215"><ele>502.5</ele><time>2026-04-26T06:46:09Z</time></trkpt><trkpt lat="36.96625348286564" lon="15.094497108076576"><ele>503.0</ele><time>2026-04-26T06:46:10Z</time></trkpt><trkpt lat="36.96611217877771" lon="15.094431879636337"><ele>503.0</ele><time>2026-04-26T06:46:11Z</time></trkpt><trkpt lat="36.96596208730054" lon="15.094360039794617"><ele>503.0</ele><time>2026-04-26T06:46:12Z</time></trkpt><trkpt lat="36.96580160012283" lon="15.094298847967025"><ele>503.0</ele><time>2026-04-26T06:46:13Z</time></trkpt><trkpt lat="36.965629302790624" lon="15.09427682379571"><ele>501.25</ele><time>2026-04-26T06:46:14Z</time></trkpt><trkpt lat="36.96549088616691" lon="15.09426690162014"><ele>499.5</ele><time>2026-04-26T06:46:15Z</time></trkpt><trkpt lat="36.965373040798546" lon="15.094229103063661"><ele>497.75</ele><time>2026-04-26T06:46:16Z</time></trkpt><trkpt lat="36.96526227630391" lon="15.094181599724413"><ele>496.0</ele><time>2026-04-26T06:46:17Z</time></trkpt><trkpt lat="36.96515233827665" lon="15.0941409004459"><ele>496.0</ele><time>2026-04-26T06:46:18Z</time></trkpt><trkpt lat="36.96503092098655" lon="15.094099450543709"><ele>496.0</ele><time>2026-04-26T06:46:19Z</time></trkpt><trkpt lat="36.964926607722184" lon="15.094058118918595"><ele>496.0</ele><time>2026-04-26T06:46:20Z</time></trkpt><trkpt lat="36.964826077393475" lon="15.094018333740339"><ele>496.0</ele><time>2026-04-26T06:46:21Z</time></trkpt><trkpt lat="36.964732217734266" lon="15.093986610957955"><ele>496.0</ele><time>2026-04-26T06:46:22Z</time></trkpt><trkpt lat="36.96463273287808" lon="15.093966849382593"><ele>495.5</ele><time>2026-04-26T06:46:23Z</time></trkpt><trkpt lat="36.96452311932671" lon="15.093965860095336"><ele>495.0</ele><time>2026-04-26T06:46:24Z</time></trkpt><trkpt lat="36.96441429123342" lon="15.093987411903012"><ele>494.5</ele><time>2026-04-26T06:46:25Z</time></trkpt><trkpt lat="36.964293600893875" lon="15.094036573701388"><ele>494.0</ele><time>2026-04-26T06:46:26Z</time></trkpt><trkpt lat="36.96419109338631" lon="15.094069446668215"><ele>493.99999999999994</ele><time>2026-04-26T06:46:27Z</time></trkpt><trkpt lat="36.96411703020745" lon="15.094072908702058"><ele>494.0</ele><time>2026-04-26T06:46:28Z</time></trkpt><trkpt lat="36.96406851562903" lon="15.093999987122645"><ele>494.0</ele><time>2026-04-26T06:46:29Z</time></trkpt><trkpt lat="36.96401545990484" lon="15.093920874801544"><ele>494.0</ele><time>2026-04-26T06:46:30Z</time></trkpt><trkpt lat="36.96396507042858" lon="15.093832371449924"><ele>493.99999999999994</ele><time>2026-04-26T06:46:31Z</time></trkpt><trkpt lat="36.963907546492315" lon="15.09374637404717"><ele>494.0</ele><time>2026-04-26T06:46:32Z</time></trkpt><trkpt lat="36.96386592071028" lon="15.093647258155082"><ele>493.99999999999994</ele><time>2026-04-26T06:46:33Z</time></trkpt><trkpt lat="36.96382401033288" lon="15.093562041037154"><ele>494.0</ele><time>2026-04-26T06:46:34Z</time></trkpt><trkpt lat="36.96378968924356" lon="15.093446518415703"><ele>494.0</ele><time>2026-04-26T06:46:36Z</time></trkpt><trkpt lat="36.96375559209789" lon="15.093379679601009"><ele>494.0</ele><time>2026-04-26T06:46:38Z</time></trkpt><trkpt lat="36.963809936420205" lon="15.093289672155583"><ele>493.99999999999994</ele><time>2026-04-26T06:46:39Z</time></trkpt><trkpt lat="36.96385405211588" lon="15.093204781954924"><ele>494.0</ele><time>2026-04-26T06:46:40Z</time></trkpt><trkpt lat="36.96390059965771" lon="15.093116445840725"><ele>494.4</ele><time>2026-04-26T06:46:41Z</time></trkpt><trkpt lat="36.96394495315594" lon="15.093018449807344"><ele>494.79999999999995</ele><time>2026-04-26T06:46:42Z</time></trkpt><trkpt lat="36.963997660019686" lon="15.092904672341795"><ele>495.20000000000005</ele><time>2026-04-26T06:46:43Z</time></trkpt><trkpt lat="36.964042507316776" lon="15.092790948049974"><ele>495.6</ele><time>2026-04-26T06:46:44Z</time></trkpt><trkpt lat="36.96408564599476" lon="15.09268144903798"><ele>496.0</ele><time>2026-04-26T06:46:45Z</time></trkpt><trkpt lat="36.964136038872454" lon="15.092568164707528"><ele>496.0</ele><time>2026-04-26T06:46:46Z</time></trkpt><trkpt lat="36.96418995876879" lon="15.092451738912636"><ele>496.0</ele><time>2026-04-26T06:46:47Z</time></trkpt><trkpt lat="36.964244763184226" lon="15.092329701513389"><ele>496.0</ele><time>2026-04-26T06:46:48Z</time></trkpt><trkpt lat="36.96429702145194" lon="15.092181210002758"><ele>496.0</ele><time>2026-04-26T06:46:49Z</time></trkpt><trkpt lat="36.964324494086775" lon="15.091990782567136"><ele>496.25</ele><time>2026-04-26T06:46:50Z</time></trkpt><trkpt lat="36.96432511581351" lon="15.091804697617832"><ele>496.5</ele><time>2026-04-26T06:46:51Z</time></trkpt><trkpt lat="36.9643633029221" lon="15.091647044585624"><ele>496.75</ele><time>2026-04-26T06:46:52Z</time></trkpt><trkpt lat="36.964401067637496" lon="15.091483230670146"><ele>497.0</ele><time>2026-04-26T06:46:53Z</time></trkpt><trkpt lat="36.964462132182796" lon="15.091338095027329"><ele>498.0</ele><time>2026-04-26T06:46:54Z</time></trkpt><trkpt lat="36.96452805200023" lon="15.091204508972275"><ele>499.0</ele><time>2026-04-26T06:46:55Z</time></trkpt><trkpt lat="36.96459402790598" lon="15.091078369547736"><ele>500.0</ele><time>2026-04-26T06:46:56Z</time></trkpt><trkpt lat="36.96465608507568" lon="15.090955522273157"><ele>501.0</ele><time>2026-04-26T06:46:57Z</time></trkpt><trkpt lat="36.96471081181984" lon="15.09082841253683"><ele>501.5</ele><time>2026-04-26T06:46:58Z</time></trkpt><trkpt lat="36.96477046631754" lon="15.090702141862657"><ele>502.0</ele><time>2026-04-26T06:46:59Z</time></trkpt><trkpt lat="36.96484601119556" lon="15.090555108238535"><ele>502.5</ele><time>2026-04-26T06:47:00Z</time></trkpt><trkpt lat="36.96493785998463" lon="15.090371782980979"><ele>503.0</ele><time>2026-04-26T06:47:01Z</time></trkpt><trkpt lat="36.96500454342115" lon="15.090213062183768"><ele>502.25</ele><time>2026-04-26T06:47:02Z</time></trkpt><trkpt lat="36.965041147684104" lon="15.09006925395557"><ele>501.5</ele><time>2026-04-26T06:47:03Z</time></trkpt><trkpt lat="36.96505283634414" lon="15.089915474281293"><ele>500.75</ele><time>2026-04-26T06:47:04Z</time></trkpt><trkpt lat="36.9650542187573" lon="15.089753986190505"><ele>500.0</ele><time>2026-04-26T06:47:05Z</time></trkpt><trkpt lat="36.96505289469757" lon="15.089587414833487"><ele>500.0</ele><time>2026-04-26T06:47:06Z</time></trkpt><trkpt lat="36.96507074178333" lon="15.089402598626727"><ele>500.0</ele><time>2026-04-26T06:47:07Z</time></trkpt><trkpt lat="36.96507315840296" lon="15.089199264218497"><ele>500.0</ele><time>2026-04-26T06:47:08Z</time></trkpt><trkpt lat="36.96507447053241" lon="15.08902650266295"><ele>500.0</ele><time>2026-04-26T06:47:09Z</time></trkpt><trkpt lat="36.96506546603218" lon="15.088837851541848"><ele>500.0</ele><time>2026-04-26T06:47:10Z</time></trkpt><trkpt lat="36.965068891190995" lon="15.088646494764225"><ele>500.0</ele><time>2026-04-26T06:47:11Z</time></trkpt><trkpt lat="36.96507179046202" lon="15.088448967795303"><ele>500.0</ele><time>2026-04-26T06:47:12Z</time></trkpt><trkpt lat="36.96507314073384" lon="15.088244370944171"><ele>501.0</ele><time>2026-04-26T06:47:13Z</time></trkpt><trkpt lat="36.96507357340132" lon="15.088068613411826"><ele>502.0</ele><time>2026-04-26T06:47:14Z</time></trkpt><trkpt lat="36.96508011292846" lon="15.087916045785347"><ele>503.0</ele><time>2026-04-26T06:47:15Z</time></trkpt><trkpt lat="36.965098184618626" lon="15.087772349352305"><ele>504.0</ele><time>2026-04-26T06:47:16Z</time></trkpt><trkpt lat="36.965140192600124" lon="15.08765789131256"><ele>504.0</ele><time>2026-04-26T06:47:17Z</time></trkpt><trkpt lat="36.96524049573696" lon="15.087599238418386"><ele>504.0</ele><time>2026-04-26T06:47:18Z</time></trkpt><trkpt lat="36.96535840741199" lon="15.087469935257696"><ele>504.0</ele><time>2026-04-26T06:47:19Z</time></trkpt><trkpt lat="36.9654732971019" lon="15.087376298311865"><ele>504.0</ele><time>2026-04-26T06:47:20Z</time></trkpt><trkpt lat="36.96554003597159" lon="15.08728881553685"><ele>503.25</ele><time>2026-04-26T06:47:21Z</time></trkpt><trkpt lat="36.96558382327466" lon="15.087174949711423"><ele>502.5</ele><time>2026-04-26T06:47:22Z</time></trkpt><trkpt lat="36.96559588060062" lon="15.087030754514663"><ele>501.75</ele><time>2026-04-26T06:47:23Z</time></trkpt><trkpt lat="36.965589457167475" lon="15.086877053760306"><ele>501.0</ele><time>2026-04-26T06:47:24Z</time></trkpt><trkpt lat="36.965591985460094" lon="15.086722915105035"><ele>499.5</ele><time>2026-04-26T06:47:25Z</time></trkpt><trkpt lat="36.9655998904698" lon="15.086559828245058"><ele>498.0</ele><time>2026-04-26T06:47:26Z</time></trkpt><trkpt lat="36.96560947277286" lon="15.0863847917579"><ele>496.5</ele><time>2026-04-26T06:47:27Z</time></trkpt><trkpt lat="36.96561569737308" lon="15.086203204656908"><ele>495.0</ele><time>2026-04-26T06:47:28Z</time></trkpt><trkpt lat="36.965625129333645" lon="15.086023596283482"><ele>495.0</ele><time>2026-04-26T06:47:29Z</time></trkpt><trkpt lat="36.96563585526152" lon="15.085847134979968"><ele>495.0</ele><time>2026-04-26T06:47:30Z</time></trkpt><trkpt lat="36.96564556669915" lon="15.085690806901807"><ele>495.0</ele><time>2026-04-26T06:47:31Z</time></trkpt><trkpt lat="36.96567110552318" lon="15.085551792453561"><ele>495.0</ele><time>2026-04-26T06:47:32Z</time></trkpt><trkpt lat="36.96569780424588" lon="15.08541630592042"><ele>495.5</ele><time>2026-04-26T06:47:33Z</time></trkpt><trkpt lat="36.96564318610907" lon="15.08525486920092"><ele>496.0</ele><time>2026-04-26T06:47:34Z</time></trkpt><trkpt lat="36.965633298442334" lon="15.085102780499282"><ele>496.5</ele><time>2026-04-26T06:47:35Z</time></trkpt><trkpt lat="36.96561598646474" lon="15.084951296777884"><ele>497.0</ele><time>2026-04-26T06:47:36Z</time></trkpt><trkpt lat="36.96559690175811" lon="15.084794939990017"><ele>497.25</ele><time>2026-04-26T06:47:37Z</time></trkpt><trkpt lat="36.96558309887716" lon="15.084639252936299"><ele>497.5</ele><time>2026-04-26T06:47:38Z</time></trkpt><trkpt lat="36.96557546009999" lon="15.084483421507107"><ele>497.75</ele><time>2026-04-26T06:47:39Z</time></trkpt><trkpt lat="36.96558679996372" lon="15.084328362859225"><ele>498.0</ele><time>2026-04-26T06:47:40Z</time></trkpt><trkpt lat="36.96561814387626" lon="15.084189483269927"><ele>497.79999999999995</ele><time>2026-04-26T06:47:41Z</time></trkpt><trkpt lat="36.96565956488961" lon="15.084067587928393"><ele>497.59999999999997</ele><time>2026-04-26T06:47:42Z</time></trkpt><trkpt lat="36.96568257077517" lon="15.083955894936162"><ele>497.40000000000003</ele><time>2026-04-26T06:47:43Z</time></trkpt><trkpt lat="36.96569599847218" lon="15.083835320160619"><ele>497.20000000000005</ele><time>2026-04-26T06:47:44Z</time></trkpt><trkpt lat="36.965722306646605" lon="15.083711793148517"><ele>497.0</ele><time>2026-04-26T06:47:45Z</time></trkpt><trkpt lat="36.96572786881724" lon="15.083576330509505"><ele>497.0</ele><time>2026-04-26T06:47:46Z</time></trkpt><trkpt lat="36.96572037193339" lon="15.083441227348644"><ele>497.0</ele><time>2026-04-26T06:47:47Z</time></trkpt><trkpt lat="36.96572141751626" lon="15.083305634253241"><ele>497.0</ele><time>2026-04-26T06:47:48Z</time></trkpt><trkpt lat="36.96569551320447" lon="15.083164563646154"><ele>497.0</ele><time>2026-04-26T06:47:49Z</time></trkpt><trkpt lat="36.965655331351705" lon="15.083013300041554"><ele>494.0</ele><time>2026-04-26T06:47:50Z</time></trkpt><trkpt lat="36.96560948125432" lon="15.082851840882016"><ele>491.0</ele><time>2026-04-26T06:47:51Z</time></trkpt><trkpt lat="36.96555553988726" lon="15.08267531084341"><ele>488.0</ele><time>2026-04-26T06:47:52Z</time></trkpt><trkpt lat="36.965474238889" lon="15.08248156640389"><ele>484.66666666666663</ele><time>2026-04-26T06:47:53Z</time></trkpt><trkpt lat="36.965407803972134" lon="15.082242573987555"><ele>481.33333333333337</ele><time>2026-04-26T06:47:54Z</time></trkpt><trkpt lat="36.96533746754037" lon="15.081999193813855"><ele>478.0</ele><time>2026-04-26T06:47:55Z</time></trkpt><trkpt lat="36.96528038549605" lon="15.081735807284897"><ele>475.33333333333337</ele><time>2026-04-26T06:47:56Z</time></trkpt><trkpt lat="36.965249400170514" lon="15.081511780578055"><ele>472.66666666666663</ele><time>2026-04-26T06:47:57Z</time></trkpt><trkpt lat="36.96523161732836" lon="15.081301272904328"><ele>470.0</ele><time>2026-04-26T06:47:58Z</time></trkpt><trkpt lat="36.96522068125332" lon="15.081113650044918"><ele>470.0</ele><time>2026-04-26T06:47:59Z</time></trkpt><trkpt lat="36.96521238323821" lon="15.080939694011276"><ele>470.0</ele><time>2026-04-26T06:48:00Z</time></trkpt><trkpt lat="36.9651886964465" lon="15.080770017415707"><ele>470.0</ele><time>2026-04-26T06:48:01Z</time></trkpt><trkpt lat="36.96517829070531" lon="15.080605511088804"><ele>470.0</ele><time>2026-04-26T06:48:02Z</time></trkpt><trkpt lat="36.965185391126546" lon="15.080454447890654"><ele>470.0</ele><time>2026-04-26T06:48:03Z</time></trkpt><trkpt lat="36.96516957410081" lon="15.080301727892069"><ele>470.0</ele><time>2026-04-26T06:48:04Z</time></trkpt><trkpt lat="36.96513701661126" lon="15.080114977170368"><ele>470.0</ele><time>2026-04-26T06:48:05Z</time></trkpt><trkpt lat="36.965076578780895" lon="15.079890683597675"><ele>466.5</ele><time>2026-04-26T06:48:06Z</time></trkpt><trkpt lat="36.96502576612161" lon="15.079613654538102"><ele>463.0</ele><time>2026-04-26T06:48:07Z</time></trkpt><trkpt lat="36.96494672433159" lon="15.079312167489723"><ele>463.6666666666667</ele><time>2026-04-26T06:48:08Z</time></trkpt><trkpt lat="36.96487702660579" lon="15.079063455191985"><ele>464.33333333333337</ele><time>2026-04-26T06:48:09Z</time></trkpt><trkpt lat="36.96481971597677" lon="15.078859836868997"><ele>465.0</ele><time>2026-04-26T06:48:10Z</time></trkpt><trkpt lat="36.9647521185771" lon="15.078683225685031"><ele>465.0</ele><time>2026-04-26T06:48:11Z</time></trkpt><trkpt lat="36.96471328481699" lon="15.078527018034315"><ele>465.0</ele><time>2026-04-26T06:48:12Z</time></trkpt><trkpt lat="36.96466866224192" lon="15.078395727644361"><ele>465.0</ele><time>2026-04-26T06:48:13Z</time></trkpt><trkpt lat="36.9646284684858" lon="15.078274601691394"><ele>465.0</ele><time>2026-04-26T06:48:14Z</time></trkpt><trkpt lat="36.96458014013789" lon="15.078150224482675"><ele>464.5</ele><time>2026-04-26T06:48:15Z</time></trkpt><trkpt lat="36.964506258378414" lon="15.078019009261888"><ele>464.0</ele><time>2026-04-26T06:48:16Z</time></trkpt><trkpt lat="36.96441687149217" lon="15.077893972351031"><ele>463.5</ele><time>2026-04-26T06:48:17Z</time></trkpt><trkpt lat="36.96434203552106" lon="15.07779197969136"><ele>463.0</ele><time>2026-04-26T06:48:18Z</time></trkpt><trkpt lat="36.96428838193675" lon="15.077709427372923"><ele>463.00000000000006</ele><time>2026-04-26T06:48:19Z</time></trkpt><trkpt lat="36.96423775294039" lon="15.077634429833077"><ele>463.0</ele><time>2026-04-26T06:48:20Z</time></trkpt><trkpt lat="36.964194759146565" lon="15.077566189754886"><ele>463.0</ele><time>2026-04-26T06:48:21Z</time></trkpt><trkpt lat="36.96415218283697" lon="15.077485655597544"><ele>463.0</ele><time>2026-04-26T06:48:23Z</time></trkpt><trkpt lat="36.96410427331247" lon="15.077420553419923"><ele>463.00000000000006</ele><time>2026-04-26T06:49:05Z</time></trkpt><trkpt lat="36.96402844278338" lon="15.077326170732517"><ele>463.0</ele><time>2026-04-26T06:49:07Z</time></trkpt><trkpt lat="36.963943129291565" lon="15.07723622473614"><ele>461.0</ele><time>2026-04-26T06:49:09Z</time></trkpt><trkpt lat="36.963896443241474" lon="15.077175379386905"><ele>459.0</ele><time>2026-04-26T06:49:10Z</time></trkpt><trkpt lat="36.964063486330986" lon="15.07680548599192"><ele>457.0</ele><time>2026-04-26T06:49:11Z</time></trkpt><trkpt lat="36.9640444422863" lon="15.076666108998705"><ele>456.1666666666667</ele><time>2026-04-26T06:49:13Z</time></trkpt><trkpt lat="36.96404487933475" lon="15.076544748452443"><ele>455.33333333333337</ele><time>2026-04-26T06:49:15Z</time></trkpt><trkpt lat="36.96402442043764" lon="15.07641445454983"><ele>454.5</ele><time>2026-04-26T06:49:18Z</time></trkpt><trkpt lat="36.963993867977166" lon="15.076331757851355"><ele>453.66666666666663</ele><time>2026-04-26T06:49:19Z</time></trkpt><trkpt lat="36.963957474470625" lon="15.076236742450448"><ele>452.8333333333333</ele><time>2026-04-26T06:49:20Z</time></trkpt><trkpt lat="36.963935794553635" lon="15.076147201798893"><ele>452.0</ele><time>2026-04-26T06:49:21Z</time></trkpt><trkpt lat="36.963910312829015" lon="15.076063444832123"><ele>452.0</ele><time>2026-04-26T06:49:22Z</time></trkpt><trkpt lat="36.96388136863441" lon="15.075983392916973"><ele>452.0</ele><time>2026-04-26T06:49:23Z</time></trkpt><trkpt lat="36.963860099797515" lon="15.0759058953636"><ele>452.0</ele><time>2026-04-26T06:49:24Z</time></trkpt><trkpt lat="36.96384173783705" lon="15.075818466947176"><ele>452.0</ele><time>2026-04-26T06:49:25Z</time></trkpt><trkpt lat="36.96381772749771" lon="15.075728178549767"><ele>452.0</ele><time>2026-04-26T06:49:26Z</time></trkpt><trkpt lat="36.96378616360875" lon="15.075631290738764"><ele>452.0</ele><time>2026-04-26T06:49:27Z</time></trkpt><trkpt lat="36.96376120384627" lon="15.075546093406619"><ele>452.0</ele><time>2026-04-26T06:49:28Z</time></trkpt><trkpt lat="36.96370848497369" lon="15.07541710710881"><ele>452.5</ele><time>2026-04-26T06:49:30Z</time></trkpt><trkpt lat="36.963659296099245" lon="15.075290160519394"><ele>453.0</ele><time>2026-04-26T06:49:32Z</time></trkpt><trkpt lat="36.96361160159448" lon="15.075163143211945"><ele>453.5</ele><time>2026-04-26T06:49:34Z</time></trkpt><trkpt lat="36.96357166732856" lon="15.0749900754571"><ele>454.0</ele><time>2026-04-26T06:49:36Z</time></trkpt><trkpt lat="36.96356194372857" lon="15.07488793536218"><ele>454.6666666666667</ele><time>2026-04-26T06:49:37Z</time></trkpt><trkpt lat="36.96357782917" lon="15.074793505251183"><ele>455.33333333333337</ele><time>2026-04-26T06:49:38Z</time></trkpt><trkpt lat="36.9635880727936" lon="15.074708783499132"><ele>456.0</ele><time>2026-04-26T06:49:39Z</time></trkpt><trkpt lat="36.96360014428452" lon="15.074616346198825"><ele>456.66666666666663</ele><time>2026-04-26T06:49:40Z</time></trkpt><trkpt lat="36.96361137045512" lon="15.074524083612244"><ele>457.3333333333333</ele><time>2026-04-26T06:49:41Z</time></trkpt><trkpt lat="36.963650103678845" lon="15.074390470935867"><ele>458.0</ele><time>2026-04-26T06:49:43Z</time></trkpt><trkpt lat="36.963677882404625" lon="15.0742783094883"><ele>458.0</ele><time>2026-04-26T06:49:45Z</time></trkpt><trkpt lat="36.96372613186214" lon="15.074172214788346"><ele>457.99999999999994</ele><time>2026-04-26T06:49:47Z</time></trkpt><trkpt lat="36.96374899820361" lon="15.074085070281727"><ele>457.99999999999994</ele><time>2026-04-26T06:49:48Z</time></trkpt><trkpt lat="36.96380008100216" lon="15.074015929223902"><ele>458.0</ele><time>2026-04-26T06:49:49Z</time></trkpt><trkpt lat="36.96385854130068" lon="15.073922501717899"><ele>458.0</ele><time>2026-04-26T06:49:51Z</time></trkpt><trkpt lat="36.96391521062008" lon="15.073775719663008"><ele>457.99999999999994</ele><time>2026-04-26T06:49:53Z</time></trkpt><trkpt lat="36.96394146545251" lon="15.07369571517858"><ele>458.0</ele><time>2026-04-26T06:49:54Z</time></trkpt><trkpt lat="36.96396947830356" lon="15.073582670013042"><ele>458.0</ele><time>2026-04-26T06:49:56Z</time></trkpt><trkpt lat="36.96400561231728" lon="15.073441266237964"><ele>458.0</ele><time>2026-04-26T06:49:58Z</time></trkpt><trkpt lat="36.96402151830072" lon="15.073363154471144"><ele>457.99999999999994</ele><time>2026-04-26T06:49:59Z</time></trkpt><trkpt lat="36.96403714979352" lon="15.073269844803786"><ele>458.0</ele><time>2026-04-26T06:50:00Z</time></trkpt><trkpt lat="36.96405424928609" lon="15.073181653509069"><ele>457.99999999999994</ele><time>2026-04-26T06:50:01Z</time></trkpt><trkpt lat="36.964069560701404" lon="15.073052127269605"><ele>458.0</ele><time>2026-04-26T06:50:03Z</time></trkpt><trkpt lat="36.96408459155944" lon="15.072897551703095"><ele>458.0</ele><time>2026-04-26T06:50:05Z</time></trkpt><trkpt lat="36.96409786518619" lon="15.07280268414809"><ele>458.0</ele><time>2026-04-26T06:50:06Z</time></trkpt><trkpt lat="36.96410376497792" lon="15.072715902386479"><ele>457.99999999999994</ele><time>2026-04-26T06:50:07Z</time></trkpt><trkpt lat="36.964113776932905" lon="15.072629123511149"><ele>458.0</ele><time>2026-04-26T06:50:08Z</time></trkpt><trkpt lat="36.96411739331847" lon="15.072533699630949"><ele>458.0</ele><time>2026-04-26T06:50:09Z</time></trkpt><trkpt lat="36.964117233526665" lon="15.072441240393427"><ele>457.99999999999994</ele><time>2026-04-26T06:50:10Z</time></trkpt><trkpt lat="36.96412505657579" lon="15.072353222170827"><ele>457.99999999999994</ele><time>2026-04-26T06:50:11Z</time></trkpt><trkpt lat="36.96412797948322" lon="15.072228851102174"><ele>458.0</ele><time>2026-04-26T06:50:13Z</time></trkpt><trkpt lat="36.96411288444591" lon="15.07210050067498"><ele>458.0</ele><time>2026-04-26T06:50:15Z</time></trkpt><trkpt lat="36.96407390422599" lon="15.071947146126812"><ele>457.99999999999994</ele><time>2026-04-26T06:50:17Z</time></trkpt><trkpt lat="36.96404588517503" lon="15.071875351272492"><ele>458.0</ele><time>2026-04-26T06:50:18Z</time></trkpt><trkpt lat="36.964013525106076" lon="15.07173721323701"><ele>458.0</ele><time>2026-04-26T06:50:20Z</time></trkpt><trkpt lat="36.96401340385466" lon="15.071606536913515"><ele>458.0</ele><time>2026-04-26T06:50:22Z</time></trkpt><trkpt lat="36.96402209459528" lon="15.071528453909515"><ele>457.99999999999994</ele><time>2026-04-26T06:50:25Z</time></trkpt><trkpt lat="36.96403360256766" lon="15.071428458134388"><ele>458.0</ele><time>2026-04-26T06:50:27Z</time></trkpt><trkpt lat="36.96404017025289" lon="15.071286952783439"><ele>458.2</ele><time>2026-04-26T06:50:29Z</time></trkpt><trkpt lat="36.96403977363876" lon="15.071205476079312"><ele>458.4</ele><time>2026-04-26T06:50:30Z</time></trkpt><trkpt lat="36.9640520290926" lon="15.071050991079384"><ele>458.59999999999997</ele><time>2026-04-26T06:50:32Z</time></trkpt><trkpt lat="36.96405144830455" lon="15.070900259389727"><ele>458.79999999999995</ele><time>2026-04-26T06:50:34Z</time></trkpt><trkpt lat="36.964051969444206" lon="15.070768556037208"><ele>459.0</ele><time>2026-04-26T06:50:36Z</time></trkpt><trkpt lat="36.96405777556902" lon="15.070649110206608"><ele>458.4</ele><time>2026-04-26T06:50:39Z</time></trkpt><trkpt lat="36.96404060060722" lon="15.070566031818755"><ele>457.79999999999995</ele><time>2026-04-26T06:50:41Z</time></trkpt><trkpt lat="36.96406314466866" lon="15.070466848969682"><ele>457.20000000000005</ele><time>2026-04-26T06:50:43Z</time></trkpt><trkpt lat="36.964043423983505" lon="15.070330734616565"><ele>456.6</ele><time>2026-04-26T06:50:46Z</time></trkpt><trkpt lat="36.963995662918435" lon="15.070211385534519"><ele>456.0</ele><time>2026-04-26T06:50:48Z</time></trkpt><trkpt lat="36.96396724966159" lon="15.070090866875384"><ele>456.0</ele><time>2026-04-26T06:50:50Z</time></trkpt><trkpt lat="36.96395264641713" lon="15.070013197176081"><ele>456.0</ele><time>2026-04-26T06:50:53Z</time></trkpt><trkpt lat="36.963934307005495" lon="15.069932004305391"><ele>456.0</ele><time>2026-04-26T06:50:56Z</time></trkpt><trkpt lat="36.96389213266004" lon="15.069812935521552"><ele>456.0</ele><time>2026-04-26T06:50:59Z</time></trkpt><trkpt lat="36.963876343889" lon="15.069719209298974"><ele>456.0</ele><time>2026-04-26T06:51:01Z</time></trkpt><trkpt lat="36.963855918986816" lon="15.069606658029695"><ele>456.0</ele><time>2026-04-26T06:51:03Z</time></trkpt><trkpt lat="36.96381401628315" lon="15.069504821315572"><ele>456.5</ele><time>2026-04-26T06:51:05Z</time></trkpt><trkpt lat="36.96377291167509" lon="15.069381809784131"><ele>457.0</ele><time>2026-04-26T06:51:07Z</time></trkpt><trkpt lat="36.963725042248726" lon="15.069254627084188"><ele>457.5</ele><time>2026-04-26T06:51:09Z</time></trkpt><trkpt lat="36.963666861547075" lon="15.069136611400411"><ele>458.0</ele><time>2026-04-26T06:51:11Z</time></trkpt><trkpt lat="36.9635920986933" lon="15.069010023624854"><ele>458.4</ele><time>2026-04-26T06:51:13Z</time></trkpt><trkpt lat="36.963546392079905" lon="15.068944330378828"><ele>458.79999999999995</ele><time>2026-04-26T06:51:14Z</time></trkpt><trkpt lat="36.963456716752276" lon="15.068835359892631"><ele>459.2</ele><time>2026-04-26T06:51:16Z</time></trkpt><trkpt lat="36.963365370847725" lon="15.068739948217013"><ele>459.6</ele><time>2026-04-26T06:51:18Z</time></trkpt><trkpt lat="36.96327102842725" lon="15.068633556587518"><ele>460.0</ele><time>2026-04-26T06:51:20Z</time></trkpt><trkpt lat="36.96319420611862" lon="15.068576032714635"><ele>460.00000000000006</ele><time>2026-04-26T06:51:22Z</time></trkpt><trkpt lat="36.963132361624474" lon="15.06850757486336"><ele>460.0</ele><time>2026-04-26T06:51:24Z</time></trkpt><trkpt lat="36.963046850418884" lon="15.068436125316492"><ele>460.0</ele><time>2026-04-26T06:51:26Z</time></trkpt><trkpt lat="36.96296781261018" lon="15.068335481567855"><ele>460.0</ele><time>2026-04-26T06:51:28Z</time></trkpt><trkpt lat="36.96292609055022" lon="15.068271604831383"><ele>460.00000000000006</ele><time>2026-04-26T06:51:29Z</time></trkpt><trkpt lat="36.96288703775882" lon="15.068208296367668"><ele>460.0</ele><time>2026-04-26T06:51:30Z</time></trkpt><trkpt lat="36.96283590680864" lon="15.068121080527845"><ele>460.50000000000006</ele><time>2026-04-26T06:51:32Z</time></trkpt><trkpt lat="36.96278187373031" lon="15.068020221000971"><ele>461.0</ele><time>2026-04-26T06:51:34Z</time></trkpt><trkpt lat="36.96273793523862" lon="15.067896028977911"><ele>461.5</ele><time>2026-04-26T06:51:36Z</time></trkpt><trkpt lat="36.96267426977967" lon="15.067797383919084"><ele>462.0</ele><time>2026-04-26T06:51:38Z</time></trkpt><trkpt lat="36.96264186238276" lon="15.06772382637255"><ele>462.50000000000006</ele><time>2026-04-26T06:51:40Z</time></trkpt><trkpt lat="36.96266480508761" lon="15.067646525163411"><ele>463.0</ele><time>2026-04-26T06:51:43Z</time></trkpt><trkpt lat="36.96271183823113" lon="15.067586262808808"><ele>463.0</ele><time>2026-04-26T06:53:38Z</time></trkpt><trkpt lat="36.96274872674529" lon="15.067459271507206"><ele>462.99999999999994</ele><time>2026-04-26T06:53:40Z</time></trkpt><trkpt lat="36.96279753731676" lon="15.06731470475924"><ele>462.99999999999994</ele><time>2026-04-26T06:53:42Z</time></trkpt><trkpt lat="36.96284910625168" lon="15.067251068323431"><ele>463.0</ele><time>2026-04-26T06:53:43Z</time></trkpt><trkpt lat="36.96287473431444" lon="15.067173573324279"><ele>463.0</ele><time>2026-04-26T06:53:44Z</time></trkpt><trkpt lat="36.96291224174382" lon="15.06706015713132"><ele>462.6666666666667</ele><time>2026-04-26T06:53:45Z</time></trkpt><trkpt lat="36.962950183986365" lon="15.066928781741268"><ele>462.33333333333337</ele><time>2026-04-26T06:53:46Z</time></trkpt><trkpt lat="36.962975839656345" lon="15.066806834976852"><ele>462.0</ele><time>2026-04-26T06:53:47Z</time></trkpt><trkpt lat="36.962996230601014" lon="15.066700501696914"><ele>461.66666666666663</ele><time>2026-04-26T06:53:48Z</time></trkpt><trkpt lat="36.96301229591154" lon="15.066608704365075"><ele>461.3333333333333</ele><time>2026-04-26T06:53:49Z</time></trkpt><trkpt lat="36.9630258090273" lon="15.06653149033857"><ele>461.0</ele><time>2026-04-26T06:53:50Z</time></trkpt><trkpt lat="36.96304707146207" lon="15.066409996556223"><ele>460.20000000000005</ele><time>2026-04-26T06:53:51Z</time></trkpt><trkpt lat="36.96307566413787" lon="15.066288953706284"><ele>459.40000000000003</ele><time>2026-04-26T06:53:52Z</time></trkpt><trkpt lat="36.963097664467305" lon="15.066178840265314"><ele>458.6</ele><time>2026-04-26T06:53:53Z</time></trkpt><trkpt lat="36.963104133724485" lon="15.066058356200703"><ele>457.8</ele><time>2026-04-26T06:53:54Z</time></trkpt><trkpt lat="36.96313421518431" lon="15.065970512790257"><ele>457.0</ele><time>2026-04-26T06:53:55Z</time></trkpt><trkpt lat="36.96316874390248" lon="15.065817943910368"><ele>456.1666666666667</ele><time>2026-04-26T06:53:57Z</time></trkpt><trkpt lat="36.96319093927063" lon="15.065736113600556"><ele>455.33333333333337</ele><time>2026-04-26T06:53:58Z</time></trkpt><trkpt lat="36.963229604699976" lon="15.065647596338717"><ele>454.5</ele><time>2026-04-26T06:53:59Z</time></trkpt><trkpt lat="36.96324929444988" lon="15.065534102639113"><ele>453.66666666666663</ele><time>2026-04-26T06:54:00Z</time></trkpt><trkpt lat="36.96327009550905" lon="15.065417777839986"><ele>452.8333333333333</ele><time>2026-04-26T06:54:01Z</time></trkpt><trkpt lat="36.96328667333399" lon="15.065310711856894"><ele>452.0</ele><time>2026-04-26T06:54:02Z</time></trkpt><trkpt lat="36.963288019871136" lon="15.065170373123928"><ele>452.0</ele><time>2026-04-26T06:54:03Z</time></trkpt><trkpt lat="36.96328964871765" lon="15.065026373429635"><ele>452.00000000000006</ele><time>2026-04-26T06:54:04Z</time></trkpt><trkpt lat="36.96330219698933" lon="15.064868542210629"><ele>452.00000000000006</ele><time>2026-04-26T06:54:05Z</time></trkpt><trkpt lat="36.963314852449955" lon="15.064746729511024"><ele>452.0</ele><time>2026-04-26T06:54:06Z</time></trkpt><trkpt lat="36.96333108077182" lon="15.0646598635575"><ele>452.0</ele><time>2026-04-26T06:54:07Z</time></trkpt><trkpt lat="36.96335594535212" lon="15.06456218350957"><ele>452.49999999999994</ele><time>2026-04-26T06:54:08Z</time></trkpt><trkpt lat="36.96339342674664" lon="15.064444208920973"><ele>453.0</ele><time>2026-04-26T06:54:09Z</time></trkpt><trkpt lat="36.963425045933015" lon="15.064329138890363"><ele>453.5</ele><time>2026-04-26T06:54:10Z</time></trkpt><trkpt lat="36.96343437380448" lon="15.064222116578026"><ele>454.0</ele><time>2026-04-26T06:54:11Z</time></trkpt><trkpt lat="36.96345272216033" lon="15.064124731340815"><ele>454.49999999999994</ele><time>2026-04-26T06:54:12Z</time></trkpt><trkpt lat="36.96349423393278" lon="15.064038063598726"><ele>455.0</ele><time>2026-04-26T06:54:13Z</time></trkpt><trkpt lat="36.96353821466526" lon="15.063941825842704"><ele>455.0</ele><time>2026-04-26T06:54:14Z</time></trkpt><trkpt lat="36.96360636230191" lon="15.063849067022552"><ele>455.0</ele><time>2026-04-26T06:54:15Z</time></trkpt><trkpt lat="36.96366850332078" lon="15.063738534671245"><ele>455.0</ele><time>2026-04-26T06:54:16Z</time></trkpt><trkpt lat="36.96373386187028" lon="15.063632351359296"><ele>455.0</ele><time>2026-04-26T06:54:17Z</time></trkpt><trkpt lat="36.96378736624385" lon="15.063538438808285"><ele>455.0</ele><time>2026-04-26T06:54:18Z</time></trkpt><trkpt lat="36.963840515537115" lon="15.063439801384325"><ele>454.99999999999994</ele><time>2026-04-26T06:54:19Z</time></trkpt><trkpt lat="36.963886283170524" lon="15.063354863243838"><ele>455.0</ele><time>2026-04-26T06:54:20Z</time></trkpt><trkpt lat="36.963925175678725" lon="15.063282910337016"><ele>455.0</ele><time>2026-04-26T06:54:21Z</time></trkpt><trkpt lat="36.96397237935914" lon="15.063196170239497"><ele>455.0</ele><time>2026-04-26T06:54:22Z</time></trkpt><trkpt lat="36.96401775698062" lon="15.063078603123483"><ele>454.99999999999994</ele><time>2026-04-26T06:54:23Z</time></trkpt><trkpt lat="36.9640790771617" lon="15.062995433961147"><ele>455.0</ele><time>2026-04-26T06:54:24Z</time></trkpt><trkpt lat="36.96412675757057" lon="15.06291081122037"><ele>456.3333333333333</ele><time>2026-04-26T06:55:28Z</time></trkpt><trkpt lat="36.96423770448399" lon="15.062804407318627"><ele>457.66666666666663</ele><time>2026-04-26T06:55:30Z</time></trkpt><trkpt lat="36.96430863839005" lon="15.062754910879772"><ele>459.0</ele><time>2026-04-26T06:55:31Z</time></trkpt><trkpt lat="36.96436898366677" lon="15.06270845260392"><ele>460.33333333333337</ele><time>2026-04-26T06:55:32Z</time></trkpt><trkpt lat="36.96440422043289" lon="15.06263608178431"><ele>461.6666666666667</ele><time>2026-04-26T06:55:33Z</time></trkpt><trkpt lat="36.964415689004525" lon="15.062557391497549"><ele>463.0</ele><time>2026-04-26T06:55:34Z</time></trkpt><trkpt lat="36.96442280402282" lon="15.06247065341865"><ele>463.79999999999995</ele><time>2026-04-26T06:55:35Z</time></trkpt><trkpt lat="36.96444418238454" lon="15.062381672982596"><ele>464.59999999999997</ele><time>2026-04-26T06:55:36Z</time></trkpt><trkpt lat="36.96446911818334" lon="15.062291812428594"><ele>465.40000000000003</ele><time>2026-04-26T06:55:37Z</time></trkpt><trkpt lat="36.96450842342674" lon="15.062174467556563"><ele>466.20000000000005</ele><time>2026-04-26T06:55:38Z</time></trkpt><trkpt lat="36.96456516350757" lon="15.062065212293811"><ele>467.0</ele><time>2026-04-26T06:55:39Z</time></trkpt><trkpt lat="36.964625153984315" lon="15.06194339849137"><ele>466.99999999999994</ele><time>2026-04-26T06:55:40Z</time></trkpt><trkpt lat="36.96465907730772" lon="15.061850888925237"><ele>467.0</ele><time>2026-04-26T06:55:41Z</time></trkpt><trkpt lat="36.964694701708055" lon="15.061769910855292"><ele>467.0</ele><time>2026-04-26T06:55:42Z</time></trkpt><trkpt lat="36.964739704775596" lon="15.061685017325038"><ele>467.0</ele><time>2026-04-26T06:55:43Z</time></trkpt><trkpt lat="36.96478127377233" lon="15.06159990563373"><ele>466.99999999999994</ele><time>2026-04-26T06:55:44Z</time></trkpt><trkpt lat="36.964829197374236" lon="15.061504812009064"><ele>467.0</ele><time>2026-04-26T06:55:45Z</time></trkpt><trkpt lat="36.964891939828355" lon="15.06141075423239"><ele>467.25</ele><time>2026-04-26T06:55:46Z</time></trkpt><trkpt lat="36.96494654511273" lon="15.061296796563065"><ele>467.5</ele><time>2026-04-26T06:55:47Z</time></trkpt><trkpt lat="36.96499555199782" lon="15.061156579326619"><ele>467.75</ele><time>2026-04-26T06:55:48Z</time></trkpt><trkpt lat="36.965067618518404" lon="15.061037244811475"><ele>468.0</ele><time>2026-04-26T06:55:49Z</time></trkpt><trkpt lat="36.96510506227625" lon="15.060912829014686"><ele>468.5</ele><time>2026-04-26T06:55:50Z</time></trkpt><trkpt lat="36.96515619972362" lon="15.060793767797554"><ele>469.0</ele><time>2026-04-26T06:55:51Z</time></trkpt><trkpt lat="36.96522807990979" lon="15.060664706672624"><ele>469.5</ele><time>2026-04-26T06:55:52Z</time></trkpt><trkpt lat="36.96528840859645" lon="15.060523663854887"><ele>470.0</ele><time>2026-04-26T06:55:53Z</time></trkpt><trkpt lat="36.96535014773216" lon="15.060386879653958"><ele>470.0</ele><time>2026-04-26T06:55:54Z</time></trkpt><trkpt lat="36.96541342046641" lon="15.06026408882909"><ele>470.0</ele><time>2026-04-26T06:55:55Z</time></trkpt><trkpt lat="36.965488687106784" lon="15.060132321374141"><ele>470.0</ele><time>2026-04-26T06:55:56Z</time></trkpt><trkpt lat="36.965556824299156" lon="15.060034763503072"><ele>470.0</ele><time>2026-04-26T06:55:57Z</time></trkpt><trkpt lat="36.96562749386546" lon="15.059951193309523"><ele>470.0</ele><time>2026-04-26T06:55:58Z</time></trkpt><trkpt lat="36.96569991011518" lon="15.059848772487344"><ele>470.2</ele><time>2026-04-26T06:55:59Z</time></trkpt><trkpt lat="36.96574489412166" lon="15.05974105219905"><ele>470.4</ele><time>2026-04-26T06:56:00Z</time></trkpt><trkpt lat="36.96580308614889" lon="15.0596170686253"><ele>470.6</ele><time>2026-04-26T06:56:01Z</time></trkpt><trkpt lat="36.96585341668185" lon="15.059492395136045"><ele>470.8</ele><time>2026-04-26T06:56:02Z</time></trkpt><trkpt lat="36.965903795656" lon="15.059378743982137"><ele>471.0</ele><time>2026-04-26T06:56:03Z</time></trkpt><trkpt lat="36.96595974362786" lon="15.059256042921342"><ele>471.0</ele><time>2026-04-26T06:56:04Z</time></trkpt><trkpt lat="36.96599849940657" lon="15.059123188765769"><ele>471.0</ele><time>2026-04-26T06:56:05Z</time></trkpt><trkpt lat="36.96602915379001" lon="15.059004217088548"><ele>471.0</ele><time>2026-04-26T06:56:06Z</time></trkpt><trkpt lat="36.966055121918096" lon="15.058865767651207"><ele>471.0</ele><time>2026-04-26T06:56:07Z</time></trkpt><trkpt lat="36.966083123197365" lon="15.058715945908975"><ele>471.0</ele><time>2026-04-26T06:56:08Z</time></trkpt><trkpt lat="36.966097775179314" lon="15.058570377813583"><ele>470.5</ele><time>2026-04-26T06:56:09Z</time></trkpt><trkpt lat="36.966101129356844" lon="15.058399552988291"><ele>470.0</ele><time>2026-04-26T06:56:10Z</time></trkpt><trkpt lat="36.96609585692624" lon="15.05821926677982"><ele>469.5</ele><time>2026-04-26T06:56:11Z</time></trkpt><trkpt lat="36.96611292039723" lon="15.058050751592942"><ele>469.0</ele><time>2026-04-26T06:56:12Z</time></trkpt><trkpt lat="36.96610124306503" lon="15.057904770116183"><ele>468.50000000000006</ele><time>2026-04-26T06:56:13Z</time></trkpt><trkpt lat="36.96612720732798" lon="15.057753107991878"><ele>468.0</ele><time>2026-04-26T06:56:14Z</time></trkpt><trkpt lat="36.96614580457784" lon="15.057662426814197"><ele>467.5</ele><time>2026-04-26T06:56:15Z</time></trkpt><trkpt lat="36.96616336086998" lon="15.057581806700474"><ele>467.0</ele><time>2026-04-26T06:56:16Z</time></trkpt><trkpt lat="36.96618373767375" lon="15.05750199209076"><ele>466.50000000000006</ele><time>2026-04-26T06:56:17Z</time></trkpt><trkpt lat="36.966216913367674" lon="15.057378495870095"><ele>466.0</ele><time>2026-04-26T06:56:18Z</time></trkpt><trkpt lat="36.96625311042499" lon="15.057236992942789"><ele>464.75</ele><time>2026-04-26T06:56:19Z</time></trkpt><trkpt lat="36.96628130750245" lon="15.057095043500421"><ele>463.5</ele><time>2026-04-26T06:56:20Z</time></trkpt><trkpt lat="36.966309470398684" lon="15.056962997295015"><ele>462.25</ele><time>2026-04-26T06:56:21Z</time></trkpt><trkpt lat="36.96632642310023" lon="15.056810517459281"><ele>461.0</ele><time>2026-04-26T06:56:22Z</time></trkpt><trkpt lat="36.96635131838948" lon="15.05659667007564"><ele>459.66666666666663</ele><time>2026-04-26T06:56:23Z</time></trkpt><trkpt lat="36.96637610667097" lon="15.056359190054875"><ele>458.33333333333337</ele><time>2026-04-26T06:56:24Z</time></trkpt><trkpt lat="36.96639370993074" lon="15.056149821432198"><ele>457.0</ele><time>2026-04-26T06:56:25Z</time></trkpt><trkpt lat="36.96640205183409" lon="15.055991224742442"><ele>457.0</ele><time>2026-04-26T06:56:26Z</time></trkpt><trkpt lat="36.96639179758574" lon="15.05584615809444"><ele>457.0</ele><time>2026-04-26T06:56:27Z</time></trkpt><trkpt lat="36.96639926976833" lon="15.055704989262754"><ele>457.0</ele><time>2026-04-26T06:56:28Z</time></trkpt><trkpt lat="36.966403250643815" lon="15.055567822984166"><ele>457.0</ele><time>2026-04-26T06:56:29Z</time></trkpt><trkpt lat="36.9664111014808" lon="15.055422190977128"><ele>456.0</ele><time>2026-04-26T06:56:30Z</time></trkpt><trkpt lat="36.96642707130114" lon="15.055265616916206"><ele>455.00000000000006</ele><time>2026-04-26T06:56:31Z</time></trkpt><trkpt lat="36.9664504244921" lon="15.055136465024084"><ele>454.00000000000006</ele><time>2026-04-26T06:56:32Z</time></trkpt><trkpt lat="36.96647442793672" lon="15.055023752691499"><ele>453.0</ele><time>2026-04-26T06:56:33Z</time></trkpt><trkpt lat="36.966496630575534" lon="15.054917499832289"><ele>452.0</ele><time>2026-04-26T06:56:34Z</time></trkpt><trkpt lat="36.96652199651823" lon="15.054793540861766"><ele>450.8</ele><time>2026-04-26T06:56:35Z</time></trkpt><trkpt lat="36.966529619800546" lon="15.05466870197475"><ele>449.6</ele><time>2026-04-26T06:56:36Z</time></trkpt><trkpt lat="36.96656473565642" lon="15.054567708894167"><ele>448.40000000000003</ele><time>2026-04-26T06:56:37Z</time></trkpt><trkpt lat="36.96658638695886" lon="15.054446503656811"><ele>447.20000000000005</ele><time>2026-04-26T06:56:38Z</time></trkpt><trkpt lat="36.96660567817419" lon="15.054319938915139"><ele>446.0</ele><time>2026-04-26T06:56:39Z</time></trkpt><trkpt lat="36.96662691451715" lon="15.054183365667635"><ele>447.0</ele><time>2026-04-26T06:56:40Z</time></trkpt><trkpt lat="36.96665391594232" lon="15.054026032022337"><ele>448.0</ele><time>2026-04-26T06:56:41Z</time></trkpt><trkpt lat="36.96668331908409" lon="15.053865272940444"><ele>449.0</ele><time>2026-04-26T06:56:42Z</time></trkpt><trkpt lat="36.96669797473181" lon="15.053691883173196"><ele>450.0</ele><time>2026-04-26T06:56:43Z</time></trkpt><trkpt lat="36.966742401657854" lon="15.053527604340019"><ele>450.0</ele><time>2026-04-26T06:56:44Z</time></trkpt><trkpt lat="36.96676688282246" lon="15.053396957902155"><ele>450.0</ele><time>2026-04-26T06:56:45Z</time></trkpt><trkpt lat="36.96677123372545" lon="15.053254005711837"><ele>450.0</ele><time>2026-04-26T06:56:46Z</time></trkpt><trkpt lat="36.96679352710878" lon="15.053111680287053"><ele>450.0</ele><time>2026-04-26T06:56:47Z</time></trkpt><trkpt lat="36.96679092201283" lon="15.052982936774168"><ele>450.0</ele><time>2026-04-26T06:56:48Z</time></trkpt><trkpt lat="36.966782800082576" lon="15.052834489522523"><ele>450.0</ele><time>2026-04-26T06:56:49Z</time></trkpt><trkpt lat="36.96673982667108" lon="15.05264763633241"><ele>450.0</ele><time>2026-04-26T06:56:50Z</time></trkpt><trkpt lat="36.96672207978662" lon="15.052495599901174"><ele>450.0</ele><time>2026-04-26T06:56:51Z</time></trkpt><trkpt lat="36.96669936597421" lon="15.052357717522462"><ele>450.0</ele><time>2026-04-26T06:56:52Z</time></trkpt><trkpt lat="36.96663756401577" lon="15.052203836295494"><ele>446.75</ele><time>2026-04-26T06:56:53Z</time></trkpt><trkpt lat="36.96655795856948" lon="15.052035219967125"><ele>443.5</ele><time>2026-04-26T06:56:54Z</time></trkpt><trkpt lat="36.96650689661315" lon="15.051881659028359"><ele>440.25</ele><time>2026-04-26T06:56:55Z</time></trkpt><trkpt lat="36.96645920115018" lon="15.05176090192377"><ele>437.0</ele><time>2026-04-26T06:56:56Z</time></trkpt><trkpt lat="36.96642701984414" lon="15.051629478998581"><ele>436.25</ele><time>2026-04-26T06:56:57Z</time></trkpt><trkpt lat="36.96639277101266" lon="15.051462051734086"><ele>435.5</ele><time>2026-04-26T06:56:58Z</time></trkpt><trkpt lat="36.966357520435196" lon="15.051293762522043"><ele>434.75</ele><time>2026-04-26T06:56:59Z</time></trkpt><trkpt lat="36.96632035954376" lon="15.051129543774188"><ele>434.0</ele><time>2026-04-26T06:57:00Z</time></trkpt><trkpt lat="36.9662823815674" lon="15.050977677319374"><ele>434.0</ele><time>2026-04-26T06:57:01Z</time></trkpt><trkpt lat="36.96624504522837" lon="15.050842207851973"><ele>434.0</ele><time>2026-04-26T06:57:02Z</time></trkpt><trkpt lat="36.96620961681307" lon="15.050717694219326"><ele>434.0</ele><time>2026-04-26T06:57:03Z</time></trkpt><trkpt lat="36.966166285559396" lon="15.050575930510742"><ele>434.0</ele><time>2026-04-26T06:57:04Z</time></trkpt><trkpt lat="36.96613844587159" lon="15.050443249023143"><ele>431.6</ele><time>2026-04-26T06:57:05Z</time></trkpt><trkpt lat="36.96612934626903" lon="15.050321989894407"><ele>429.2</ele><time>2026-04-26T06:57:06Z</time></trkpt><trkpt lat="36.96612080659095" lon="15.050195417850759"><ele>426.8</ele><time>2026-04-26T06:57:07Z</time></trkpt><trkpt lat="36.966111705817525" lon="15.050063475012811"><ele>424.40000000000003</ele><time>2026-04-26T06:57:08Z</time></trkpt><trkpt lat="36.96610337045177" lon="15.049942629028886"><ele>422.0</ele><time>2026-04-26T06:57:09Z</time></trkpt><trkpt lat="36.9660953243812" lon="15.049825428669351"><ele>420.75</ele><time>2026-04-26T06:57:10Z</time></trkpt><trkpt lat="36.96608446130422" lon="15.049684064247103"><ele>419.5</ele><time>2026-04-26T06:57:11Z</time></trkpt><trkpt lat="36.96607115301834" lon="15.049530129884566"><ele>418.25</ele><time>2026-04-26T06:57:12Z</time></trkpt><trkpt lat="36.96605913568911" lon="15.049370166402012"><ele>417.0</ele><time>2026-04-26T06:57:13Z</time></trkpt><trkpt lat="36.96605271876157" lon="15.049182570562973"><ele>416.6</ele><time>2026-04-26T06:57:14Z</time></trkpt><trkpt lat="36.966055607330944" lon="15.049019620170553"><ele>416.20000000000005</ele><time>2026-04-26T06:57:15Z</time></trkpt><trkpt lat="36.96605886611754" lon="15.048888766736319"><ele>415.8</ele><time>2026-04-26T06:57:16Z</time></trkpt><trkpt lat="36.96606222181034" lon="15.048784337689419"><ele>415.4</ele><time>2026-04-26T06:57:17Z</time></trkpt><trkpt lat="36.96604893337814" lon="15.048686482540372"><ele>415.0</ele><time>2026-04-26T06:57:18Z</time></trkpt><trkpt lat="36.966050909206245" lon="15.048596010210304"><ele>415.0</ele><time>2026-04-26T06:57:19Z</time></trkpt><trkpt lat="36.96605698538321" lon="15.04849882838436"><ele>415.0</ele><time>2026-04-26T06:57:20Z</time></trkpt><trkpt lat="36.96606247125073" lon="15.048341416923504"><ele>415.0</ele><time>2026-04-26T06:57:22Z</time></trkpt><trkpt lat="36.96601816970815" lon="15.048177649847183"><ele>415.0</ele><time>2026-04-26T06:57:24Z</time></trkpt><trkpt lat="36.96601724466016" lon="15.048049483220348"><ele>415.0</ele><time>2026-04-26T06:57:25Z</time></trkpt><trkpt lat="36.96601005705216" lon="15.04789864267235"><ele>414.5</ele><time>2026-04-26T06:57:26Z</time></trkpt><trkpt lat="36.96601367774391" lon="15.0477678562024"><ele>414.0</ele><time>2026-04-26T06:57:27Z</time></trkpt><trkpt lat="36.96602739916322" lon="15.047617475505188"><ele>413.5</ele><time>2026-04-26T06:57:28Z</time></trkpt><trkpt lat="36.966043345520795" lon="15.047456772305248"><ele>413.0</ele><time>2026-04-26T06:57:29Z</time></trkpt><trkpt lat="36.966036304288394" lon="15.04733656625744"><ele>412.4</ele><time>2026-04-26T06:57:30Z</time></trkpt><trkpt lat="36.96602469325129" lon="15.047243369030317"><ele>411.79999999999995</ele><time>2026-04-26T06:57:31Z</time></trkpt><trkpt lat="36.96600892813787" lon="15.047139015635304"><ele>411.2</ele><time>2026-04-26T06:57:32Z</time></trkpt><trkpt lat="36.96597406445659" lon="15.047043844277985"><ele>410.6</ele><time>2026-04-26T06:57:33Z</time></trkpt><trkpt lat="36.965908986467106" lon="15.046951951315926"><ele>410.0</ele><time>2026-04-26T06:57:34Z</time></trkpt><trkpt lat="36.96589963828668" lon="15.046802111399616"><ele>409.99999999999994</ele><time>2026-04-26T06:57:35Z</time></trkpt><trkpt lat="36.965870982833" lon="15.046706294436113"><ele>410.0</ele><time>2026-04-26T06:57:36Z</time></trkpt><trkpt lat="36.9658371639432" lon="15.046631050326159"><ele>410.0</ele><time>2026-04-26T06:57:37Z</time></trkpt><trkpt lat="36.96576157216647" lon="15.046603168745406"><ele>410.0</ele><time>2026-04-26T06:59:08Z</time></trkpt><trkpt lat="36.96564942316769" lon="15.046568116676909"><ele>409.99999999999994</ele><time>2026-04-26T06:59:10Z</time></trkpt><trkpt lat="36.965564844597175" lon="15.046531803200853"><ele>410.0</ele><time>2026-04-26T06:59:11Z</time></trkpt><trkpt lat="36.96549487429243" lon="15.046496637836459"><ele>409.4</ele><time>2026-04-26T06:59:12Z</time></trkpt><trkpt lat="36.96540184422228" lon="15.046441478703896"><ele>408.8</ele><time>2026-04-26T06:59:13Z</time></trkpt><trkpt lat="36.96532832512754" lon="15.046385784971122"><ele>408.20000000000005</ele><time>2026-04-26T06:59:14Z</time></trkpt><trkpt lat="36.96527819352651" lon="15.046320789761833"><ele>407.6</ele><time>2026-04-26T06:59:15Z</time></trkpt><trkpt lat="36.96522820874131" lon="15.046213080726126"><ele>407.0</ele><time>2026-04-26T06:59:16Z</time></trkpt><trkpt lat="36.96518169047029" lon="15.046071035634466"><ele>407.0</ele><time>2026-04-26T06:59:17Z</time></trkpt><trkpt lat="36.96514193060314" lon="15.045928494140181"><ele>407.0</ele><time>2026-04-26T06:59:18Z</time></trkpt><trkpt lat="36.965109577937994" lon="15.04581195056218"><ele>407.0</ele><time>2026-04-26T06:59:19Z</time></trkpt><trkpt lat="36.96506388944976" lon="15.045712730323121"><ele>407.0</ele><time>2026-04-26T06:59:20Z</time></trkpt><trkpt lat="36.96499493106672" lon="15.045595594535019"><ele>407.0</ele><time>2026-04-26T06:59:21Z</time></trkpt><trkpt lat="36.96495181021509" lon="15.04549658351007"><ele>406.16666666666663</ele><time>2026-04-26T06:59:22Z</time></trkpt><trkpt lat="36.964915051829344" lon="15.045397152609544"><ele>405.3333333333333</ele><time>2026-04-26T06:59:23Z</time></trkpt><trkpt lat="36.964883641558295" lon="15.045303734497976"><ele>404.5</ele><time>2026-04-26T06:59:24Z</time></trkpt><trkpt lat="36.96485734279721" lon="15.04521337993943"><ele>403.66666666666663</ele><time>2026-04-26T06:59:25Z</time></trkpt><trkpt lat="36.96483674844241" lon="15.04512064806551"><ele>402.8333333333333</ele><time>2026-04-26T06:59:26Z</time></trkpt><trkpt lat="36.96481145953141" lon="15.045027739507354"><ele>402.0</ele><time>2026-04-26T06:59:27Z</time></trkpt><trkpt lat="36.964769432797766" lon="15.044920087674656"><ele>401.20000000000005</ele><time>2026-04-26T06:59:28Z</time></trkpt><trkpt lat="36.9647219619107" lon="15.044806440748918"><ele>400.4</ele><time>2026-04-26T06:59:29Z</time></trkpt><trkpt lat="36.96465948251269" lon="15.044685258520513"><ele>399.6</ele><time>2026-04-26T06:59:30Z</time></trkpt><trkpt lat="36.96459818350321" lon="15.044578058572624"><ele>398.79999999999995</ele><time>2026-04-26T06:59:31Z</time></trkpt><trkpt lat="36.96454731594648" lon="15.044479761060176"><ele>398.0</ele><time>2026-04-26T06:59:32Z</time></trkpt><trkpt lat="36.964500034968495" lon="15.044391950866325"><ele>397.99999999999994</ele><time>2026-04-26T06:59:33Z</time></trkpt><trkpt lat="36.96445112587365" lon="15.044320770124902"><ele>398.0</ele><time>2026-04-26T06:59:34Z</time></trkpt><trkpt lat="36.96440000080941" lon="15.04425848435487"><ele>398.0</ele><time>2026-04-26T06:59:35Z</time></trkpt><trkpt lat="36.96433103901841" lon="15.044174677917491"><ele>398.0</ele><time>2026-04-26T06:59:36Z</time></trkpt><trkpt lat="36.96426703823583" lon="15.044093683360616"><ele>397.99999999999994</ele><time>2026-04-26T06:59:37Z</time></trkpt><trkpt lat="36.964221140401115" lon="15.044021121280206"><ele>398.0</ele><time>2026-04-26T06:59:38Z</time></trkpt><trkpt lat="36.96417557611545" lon="15.043929067442388"><ele>396.99999999999994</ele><time>2026-04-26T06:59:39Z</time></trkpt><trkpt lat="36.9641244486763" lon="15.043847760914172"><ele>396.0</ele><time>2026-04-26T06:59:40Z</time></trkpt><trkpt lat="36.96405691305863" lon="15.04377110147368"><ele>395.0</ele><time>2026-04-26T06:59:41Z</time></trkpt><trkpt lat="36.96396672233684" lon="15.043700171257981"><ele>394.0</ele><time>2026-04-26T06:59:42Z</time></trkpt><trkpt lat="36.96389803706998" lon="15.04362026500309"><ele>392.99999999999994</ele><time>2026-04-26T06:59:43Z</time></trkpt><trkpt lat="36.963851898152306" lon="15.043552813761947"><ele>392.0</ele><time>2026-04-26T06:59:44Z</time></trkpt><trkpt lat="36.96381254531721" lon="15.043462706887878"><ele>392.0</ele><time>2026-04-26T06:59:45Z</time></trkpt><trkpt lat="36.963785273942015" lon="15.043358417297506"><ele>392.0</ele><time>2026-04-26T06:59:46Z</time></trkpt><trkpt lat="36.96376886181096" lon="15.043267289393395"><ele>392.0</ele><time>2026-04-26T06:59:47Z</time></trkpt><trkpt lat="36.96375565619032" lon="15.043162452682271"><ele>392.0</ele><time>2026-04-26T06:59:48Z</time></trkpt><trkpt lat="36.96374839132498" lon="15.043043507978094"><ele>392.0</ele><time>2026-04-26T06:59:49Z</time></trkpt><trkpt lat="36.96374276391738" lon="15.042896096960943"><ele>391.8</ele><time>2026-04-26T06:59:50Z</time></trkpt><trkpt lat="36.963742069097755" lon="15.042761812478853"><ele>391.6</ele><time>2026-04-26T06:59:51Z</time></trkpt><trkpt lat="36.963741126451666" lon="15.04265100926222"><ele>391.40000000000003</ele><time>2026-04-26T06:59:52Z</time></trkpt><trkpt lat="36.963732125974126" lon="15.042531680228459"><ele>391.20000000000005</ele><time>2026-04-26T06:59:53Z</time></trkpt><trkpt lat="36.963711425117694" lon="15.042395277055817"><ele>391.0</ele><time>2026-04-26T06:59:54Z</time></trkpt><trkpt lat="36.963684096130976" lon="15.042230889746326"><ele>392.25</ele><time>2026-04-26T06:59:55Z</time></trkpt><trkpt lat="36.96365997506374" lon="15.042063334725459"><ele>393.5</ele><time>2026-04-26T06:59:56Z</time></trkpt><trkpt lat="36.96364835911222" lon="15.041923184688244"><ele>394.75</ele><time>2026-04-26T06:59:57Z</time></trkpt><trkpt lat="36.96363441966419" lon="15.041764908507234"><ele>396.0</ele><time>2026-04-26T06:59:58Z</time></trkpt><trkpt lat="36.96361627342221" lon="15.04160213881897"><ele>397.5</ele><time>2026-04-26T06:59:59Z</time></trkpt><trkpt lat="36.96359062109781" lon="15.04141481466505"><ele>399.0</ele><time>2026-04-26T07:00:00Z</time></trkpt><trkpt lat="36.963561761483135" lon="15.04123923036289"><ele>400.5</ele><time>2026-04-26T07:00:01Z</time></trkpt><trkpt lat="36.96354528403746" lon="15.041094645593713"><ele>402.0</ele><time>2026-04-26T07:00:02Z</time></trkpt><trkpt lat="36.96353738855544" lon="15.040951052372405"><ele>403.0</ele><time>2026-04-26T07:00:03Z</time></trkpt><trkpt lat="36.963529703706854" lon="15.040791278870218"><ele>404.0</ele><time>2026-04-26T07:00:04Z</time></trkpt><trkpt lat="36.96352115324162" lon="15.040666767423645"><ele>405.0</ele><time>2026-04-26T07:00:05Z</time></trkpt><trkpt lat="36.963511435046364" lon="15.040540907283054"><ele>406.0</ele><time>2026-04-26T07:00:06Z</time></trkpt><trkpt lat="36.96350101865267" lon="15.040410983731073"><ele>407.0</ele><time>2026-04-26T07:00:07Z</time></trkpt><trkpt lat="36.963490434652435" lon="15.040284108046523"><ele>407.0</ele><time>2026-04-26T07:00:08Z</time></trkpt><trkpt lat="36.96347934460567" lon="15.040151165809494"><ele>407.0</ele><time>2026-04-26T07:00:09Z</time></trkpt><trkpt lat="36.96346627835787" lon="15.039994533793761"><ele>407.0</ele><time>2026-04-26T07:00:10Z</time></trkpt><trkpt lat="36.9634204575333" lon="15.03982514450224"><ele>407.0</ele><time>2026-04-26T07:00:11Z</time></trkpt><trkpt lat="36.96338393496317" lon="15.039626936176328"><ele>407.75</ele><time>2026-04-26T07:00:12Z</time></trkpt><trkpt lat="36.963368853855506" lon="15.039428191704696"><ele>408.5</ele><time>2026-04-26T07:00:13Z</time></trkpt><trkpt lat="36.963364657193594" lon="15.039274431246627"><ele>409.25</ele><time>2026-04-26T07:00:14Z</time></trkpt><trkpt lat="36.963358921536894" lon="15.039119838610468"><ele>410.0</ele><time>2026-04-26T07:00:15Z</time></trkpt><trkpt lat="36.963348536529736" lon="15.038971055410213"><ele>410.0</ele><time>2026-04-26T07:00:16Z</time></trkpt><trkpt lat="36.963336749888136" lon="15.038851030238215"><ele>410.0</ele><time>2026-04-26T07:00:17Z</time></trkpt><trkpt lat="36.96330292301227" lon="15.038727439008293"><ele>410.0</ele><time>2026-04-26T07:00:18Z</time></trkpt><trkpt lat="36.96323252587773" lon="15.038607634806697"><ele>410.0</ele><time>2026-04-26T07:00:19Z</time></trkpt><trkpt lat="36.963137918027115" lon="15.038495885298506"><ele>410.0</ele><time>2026-04-26T07:00:20Z</time></trkpt><trkpt lat="36.96304903764849" lon="15.038410308272834"><ele>410.0</ele><time>2026-04-26T07:00:21Z</time></trkpt><trkpt lat="36.962966884510024" lon="15.038335426424418"><ele>410.0</ele><time>2026-04-26T07:00:22Z</time></trkpt><trkpt lat="36.962883741775265" lon="15.03826699865504"><ele>410.0</ele><time>2026-04-26T07:00:23Z</time></trkpt><trkpt lat="36.96280859944291" lon="15.038191896081585"><ele>410.0</ele><time>2026-04-26T07:00:24Z</time></trkpt><trkpt lat="36.962743625942466" lon="15.038107303954007"><ele>411.3333333333333</ele><time>2026-04-26T07:00:25Z</time></trkpt><trkpt lat="36.96268972592368" lon="15.038012303820452"><ele>412.66666666666663</ele><time>2026-04-26T07:00:26Z</time></trkpt><trkpt lat="36.96265197925641" lon="15.03791459409941"><ele>414.0</ele><time>2026-04-26T07:00:27Z</time></trkpt><trkpt lat="36.9626311740911" lon="15.037802250017794"><ele>415.33333333333337</ele><time>2026-04-26T07:00:29Z</time></trkpt><trkpt lat="36.962702345609785" lon="15.037708252991893"><ele>416.6666666666667</ele><time>2026-04-26T07:00:32Z</time></trkpt><trkpt lat="36.96276886884249" lon="15.037682423458746"><ele>418.0</ele><time>2026-04-26T07:00:33Z</time></trkpt><trkpt lat="36.96284232270833" lon="15.03765145394596"><ele>418.0</ele><time>2026-04-26T07:00:34Z</time></trkpt><trkpt lat="36.96291161081832" lon="15.03760670313943"><ele>418.0</ele><time>2026-04-26T07:00:35Z</time></trkpt><trkpt lat="36.96297902771151" lon="15.037554401581948"><ele>418.0</ele><time>2026-04-26T07:00:36Z</time></trkpt><trkpt lat="36.96303665405602" lon="15.037485507522282"><ele>418.0</ele><time>2026-04-26T07:00:37Z</time></trkpt><trkpt lat="36.96309980875813" lon="15.037390521738372"><ele>418.0</ele><time>2026-04-26T07:00:38Z</time></trkpt><trkpt lat="36.963187582668695" lon="15.037286412879212"><ele>418.59999999999997</ele><time>2026-04-26T07:00:39Z</time></trkpt><trkpt lat="36.96327976883568" lon="15.03717874662556"><ele>419.2</ele><time>2026-04-26T07:00:40Z</time></trkpt><trkpt lat="36.963367281203304" lon="15.037070657772786"><ele>419.8</ele><time>2026-04-26T07:00:41Z</time></trkpt><trkpt lat="36.96342781004969" lon="15.037001498291556"><ele>420.4</ele><time>2026-04-26T07:00:42Z</time></trkpt><trkpt lat="36.96348672146673" lon="15.036943325138212"><ele>421.0</ele><time>2026-04-26T07:00:43Z</time></trkpt><trkpt lat="36.963531198641604" lon="15.036872727965152"><ele>421.6666666666667</ele><time>2026-04-26T07:00:44Z</time></trkpt><trkpt lat="36.96360566126724" lon="15.036782625930147"><ele>422.33333333333337</ele><time>2026-04-26T07:00:45Z</time></trkpt><trkpt lat="36.96366997176036" lon="15.036689531487518"><ele>423.0</ele><time>2026-04-26T07:00:46Z</time></trkpt><trkpt lat="36.963717730772466" lon="15.036598925683416"><ele>423.66666666666663</ele><time>2026-04-26T07:00:47Z</time></trkpt><trkpt lat="36.96376968951256" lon="15.036524497144931"><ele>424.3333333333333</ele><time>2026-04-26T07:00:48Z</time></trkpt><trkpt lat="36.96381510532834" lon="15.036464095268665"><ele>425.0</ele><time>2026-04-26T07:00:49Z</time></trkpt><trkpt lat="36.96386542963833" lon="15.03640620723603"><ele>426.4</ele><time>2026-04-26T07:00:50Z</time></trkpt><trkpt lat="36.96393125117324" lon="15.03632013687721"><ele>427.8</ele><time>2026-04-26T07:00:51Z</time></trkpt><trkpt lat="36.96401466636714" lon="15.036203559760285"><ele>429.20000000000005</ele><time>2026-04-26T07:00:52Z</time></trkpt><trkpt lat="36.964083887729664" lon="15.03613407669776"><ele>430.6</ele><time>2026-04-26T07:00:53Z</time></trkpt><trkpt lat="36.96413083535059" lon="15.036066430058906"><ele>432.0</ele><time>2026-04-26T07:00:54Z</time></trkpt><trkpt lat="36.964187938640585" lon="15.035984150163994"><ele>432.20000000000005</ele><time>2026-04-26T07:00:55Z</time></trkpt><trkpt lat="36.96424980365921" lon="15.035897167234305"><ele>432.40000000000003</ele><time>2026-04-26T07:00:56Z</time></trkpt><trkpt lat="36.96429806344436" lon="15.03579910257266"><ele>432.59999999999997</ele><time>2026-04-26T07:00:57Z</time></trkpt><trkpt lat="36.964365461196614" lon="15.035742634147912"><ele>432.79999999999995</ele><time>2026-04-26T07:00:58Z</time></trkpt><trkpt lat="36.9644299329682" lon="15.035671353595118"><ele>433.0</ele><time>2026-04-26T07:00:59Z</time></trkpt><trkpt lat="36.96451482316523" lon="15.035579551217122"><ele>433.83333333333337</ele><time>2026-04-26T07:01:00Z</time></trkpt><trkpt lat="36.9645809028664" lon="15.035507138007159"><ele>434.6666666666667</ele><time>2026-04-26T07:01:01Z</time></trkpt><trkpt lat="36.96464090749983" lon="15.035441594019135"><ele>435.5</ele><time>2026-04-26T07:01:02Z</time></trkpt><trkpt lat="36.96471129305005" lon="15.035377541929773"><ele>436.33333333333337</ele><time>2026-04-26T07:01:03Z</time></trkpt><trkpt lat="36.964786588623774" lon="15.035326322785307"><ele>437.1666666666667</ele><time>2026-04-26T07:01:04Z</time></trkpt><trkpt lat="36.96485680248444" lon="15.035282745579874"><ele>438.0</ele><time>2026-04-26T07:01:05Z</time></trkpt><trkpt lat="36.964953457189566" lon="15.035227085067858"><ele>438.0</ele><time>2026-04-26T07:01:06Z</time></trkpt><trkpt lat="36.96503473400811" lon="15.035176247080722"><ele>437.99999999999994</ele><time>2026-04-26T07:01:07Z</time></trkpt><trkpt lat="36.965113479767126" lon="15.035120252178249"><ele>437.99999999999994</ele><time>2026-04-26T07:01:08Z</time></trkpt><trkpt lat="36.96518810675517" lon="15.035067190914667"><ele>438.0</ele><time>2026-04-26T07:01:09Z</time></trkpt><trkpt lat="36.96524333387306" lon="15.03502792335164"><ele>438.0</ele><time>2026-04-26T07:01:10Z</time></trkpt><trkpt lat="36.965347520053605" lon="15.034936539495002"><ele>438.0</ele><time>2026-04-26T07:01:12Z</time></trkpt><trkpt lat="36.965430183936704" lon="15.034880162638121"><ele>437.99999999999994</ele><time>2026-04-26T07:01:13Z</time></trkpt><trkpt lat="36.96553498761391" lon="15.03484395067377"><ele>437.99999999999994</ele><time>2026-04-26T07:01:14Z</time></trkpt><trkpt lat="36.96562362925365" lon="15.034794396185506"><ele>438.0</ele><time>2026-04-26T07:01:15Z</time></trkpt><trkpt lat="36.9656827645675" lon="15.034739533388265"><ele>438.0</ele><time>2026-04-26T07:01:16Z</time></trkpt><trkpt lat="36.965776089355984" lon="15.034689413133103"><ele>438.0</ele><time>2026-04-26T07:01:18Z</time></trkpt><trkpt lat="36.96583371565804" lon="15.034638766811822"><ele>438.0</ele><time>2026-04-26T07:01:20Z</time></trkpt><trkpt lat="36.96585880576283" lon="15.034565122382755"><ele>438.0</ele><time>2026-04-26T07:01:22Z</time></trkpt><trkpt lat="36.965859700278614" lon="15.034460541711903"><ele>438.0</ele><time>2026-04-26T07:01:25Z</time></trkpt><trkpt lat="36.9658578595229" lon="15.034360847494824"><ele>438.0</ele><time>2026-04-26T07:01:31Z</time></trkpt><trkpt lat="36.96599906915338" lon="15.034351314977416"><ele>438.0</ele><time>2026-04-26T07:01:32Z</time></trkpt><trkpt lat="36.96606809448829" lon="15.034327839489066"><ele>438.0</ele><time>2026-04-26T07:01:33Z</time></trkpt><trkpt lat="36.96614713148654" lon="15.03431101202483"><ele>437.99999999999994</ele><time>2026-04-26T07:01:34Z</time></trkpt><trkpt lat="36.9662416774914" lon="15.034286789631219"><ele>437.99999999999994</ele><time>2026-04-26T07:01:35Z</time></trkpt><trkpt lat="36.96635566010195" lon="15.0342535675897"><ele>438.0</ele><time>2026-04-26T07:01:36Z</time></trkpt><trkpt lat="36.96648764820633" lon="15.034219133297709"><ele>438.0</ele><time>2026-04-26T07:01:37Z</time></trkpt><trkpt lat="36.96663882786941" lon="15.034185622436748"><ele>438.0</ele><time>2026-04-26T07:01:38Z</time></trkpt><trkpt lat="36.96681992765427" lon="15.034148606782592"><ele>438.0</ele><time>2026-04-26T07:01:39Z</time></trkpt><trkpt lat="36.96698673096407" lon="15.034109036615506"><ele>438.0</ele><time>2026-04-26T07:01:40Z</time></trkpt><trkpt lat="36.96712502493618" lon="15.034073587895787"><ele>438.0</ele><time>2026-04-26T07:01:41Z</time></trkpt><trkpt lat="36.967253002925695" lon="15.0340435022282"><ele>438.0</ele><time>2026-04-26T07:01:42Z</time></trkpt><trkpt lat="36.967380123714975" lon="15.034015514606278"><ele>438.0</ele><time>2026-04-26T07:01:43Z</time></trkpt><trkpt lat="36.9675105627127" lon="15.033984088838999"><ele>438.0</ele><time>2026-04-26T07:01:44Z</time></trkpt><trkpt lat="36.9676525582153" lon="15.033947717956467"><ele>439.0</ele><time>2026-04-26T07:01:45Z</time></trkpt><trkpt lat="36.96779984787351" lon="15.03391199169174"><ele>440.0</ele><time>2026-04-26T07:01:46Z</time></trkpt><trkpt lat="36.96795243043464" lon="15.033877170389607"><ele>441.0</ele><time>2026-04-26T07:01:47Z</time></trkpt><trkpt lat="36.96811153074991" lon="15.033836669182703"><ele>441.0</ele><time>2026-04-26T07:01:48Z</time></trkpt><trkpt lat="36.96827335771797" lon="15.033791595206749"><ele>441.0</ele><time>2026-04-26T07:01:49Z</time></trkpt><trkpt lat="36.96843992984356" lon="15.033744817485056"><ele>441.0</ele><time>2026-04-26T07:01:50Z</time></trkpt><trkpt lat="36.96861143253052" lon="15.033693160766168"><ele>441.33333333333337</ele><time>2026-04-26T07:01:51Z</time></trkpt><trkpt lat="36.96879134149428" lon="15.033631008056847"><ele>441.6666666666667</ele><time>2026-04-26T07:01:52Z</time></trkpt><trkpt lat="36.96900031320673" lon="15.033553650863574"><ele>442.0</ele><time>2026-04-26T07:01:53Z</time></trkpt><trkpt lat="36.969187749719104" lon="15.033477891923521"><ele>442.6666666666667</ele><time>2026-04-26T07:01:54Z</time></trkpt><trkpt lat="36.96936816466209" lon="15.033404850578902"><ele>443.33333333333337</ele><time>2026-04-26T07:01:55Z</time></trkpt><trkpt lat="36.96953543771345" lon="15.033338139204465"><ele>444.0</ele><time>2026-04-26T07:01:56Z</time></trkpt><trkpt lat="36.96970411206519" lon="15.033276083078187"><ele>444.0</ele><time>2026-04-26T07:01:57Z</time></trkpt><trkpt lat="36.96987208759358" lon="15.033219348704279"><ele>444.0</ele><time>2026-04-26T07:01:58Z</time></trkpt><trkpt lat="36.97004108705623" lon="15.033170655651212"><ele>444.0</ele><time>2026-04-26T07:01:59Z</time></trkpt><trkpt lat="36.970211819507945" lon="15.033142104118406"><ele>444.0</ele><time>2026-04-26T07:02:00Z</time></trkpt><trkpt lat="36.970381898217404" lon="15.033135727843332"><ele>444.0</ele><time>2026-04-26T07:02:01Z</time></trkpt><trkpt lat="36.97055048370092" lon="15.033146031089919"><ele>444.0</ele><time>2026-04-26T07:02:02Z</time></trkpt><trkpt lat="36.97071840891063" lon="15.03315150449247"><ele>446.0</ele><time>2026-04-26T07:02:03Z</time></trkpt><trkpt lat="36.97088470874805" lon="15.033140575068266"><ele>448.0</ele><time>2026-04-26T07:02:04Z</time></trkpt><trkpt lat="36.97105209161736" lon="15.033133961477064"><ele>450.0</ele><time>2026-04-26T07:02:05Z</time></trkpt><trkpt lat="36.97122711524649" lon="15.033134357021414"><ele>450.0</ele><time>2026-04-26T07:02:06Z</time></trkpt><trkpt lat="36.971404044523275" lon="15.033133917138917"><ele>450.0</ele><time>2026-04-26T07:02:07Z</time></trkpt><trkpt lat="36.97158112482555" lon="15.033131905147096"><ele>450.0</ele><time>2026-04-26T07:02:08Z</time></trkpt><trkpt lat="36.97175240283375" lon="15.033117685233346"><ele>448.66666666666663</ele><time>2026-04-26T07:02:09Z</time></trkpt><trkpt lat="36.97192762665563" lon="15.033083553237185"><ele>447.3333333333333</ele><time>2026-04-26T07:02:10Z</time></trkpt><trkpt lat="36.97210321913453" lon="15.03302114802462"><ele>446.0</ele><time>2026-04-26T07:02:11Z</time></trkpt><trkpt lat="36.972284321684754" lon="15.032938599664975"><ele>446.0</ele><time>2026-04-26T07:02:12Z</time></trkpt><trkpt lat="36.972464764641735" lon="15.032860184371684"><ele>446.0</ele><time>2026-04-26T07:02:13Z</time></trkpt><trkpt lat="36.97264530944506" lon="15.032784315221123"><ele>446.0</ele><time>2026-04-26T07:02:14Z</time></trkpt><trkpt lat="36.97282566764097" lon="15.03271208712629"><ele>446.3333333333333</ele><time>2026-04-26T07:02:15Z</time></trkpt><trkpt lat="36.97300554730746" lon="15.032637813290151"><ele>446.66666666666663</ele><time>2026-04-26T07:02:16Z</time></trkpt><trkpt lat="36.973183323416" lon="15.032558707959435"><ele>447.0</ele><time>2026-04-26T07:02:17Z</time></trkpt><trkpt lat="36.97336380841889" lon="15.032479219902307"><ele>446.66666666666663</ele><time>2026-04-26T07:02:18Z</time></trkpt><trkpt lat="36.9735476320096" lon="15.032404530032945"><ele>446.3333333333333</ele><time>2026-04-26T07:02:19Z</time></trkpt><trkpt lat="36.97373220948373" lon="15.032334604794583"><ele>446.0</ele><time>2026-04-26T07:02:20Z</time></trkpt><trkpt lat="36.97391559846223" lon="15.032260367066987"><ele>446.0</ele><time>2026-04-26T07:02:21Z</time></trkpt><trkpt lat="36.97410024925438" lon="15.032182535847792"><ele>446.0</ele><time>2026-04-26T07:02:22Z</time></trkpt><trkpt lat="36.974294445629305" lon="15.032101113426796"><ele>446.0</ele><time>2026-04-26T07:02:23Z</time></trkpt><trkpt lat="36.97449190793113" lon="15.032019214454355"><ele>446.0</ele><time>2026-04-26T07:02:24Z</time></trkpt><trkpt lat="36.97472603289787" lon="15.031919781089428"><ele>446.0</ele><time>2026-04-26T07:02:25Z</time></trkpt><trkpt lat="36.97494548218349" lon="15.031824104610347"><ele>447.3333333333333</ele><time>2026-04-26T07:02:26Z</time></trkpt><trkpt lat="36.97514402868208" lon="15.031739502407078"><ele>448.66666666666663</ele><time>2026-04-26T07:02:27Z</time></trkpt><trkpt lat="36.97532547781631" lon="15.031671824524905"><ele>450.0</ele><time>2026-04-26T07:02:28Z</time></trkpt><trkpt lat="36.97549417146181" lon="15.031629147791731"><ele>450.0</ele><time>2026-04-26T07:02:29Z</time></trkpt><trkpt lat="36.97566578809727" lon="15.031633640588257"><ele>450.0</ele><time>2026-04-26T07:02:30Z</time></trkpt><trkpt lat="36.97583046624982" lon="15.031688956395008"><ele>450.0</ele><time>2026-04-26T07:02:31Z</time></trkpt><trkpt lat="36.97596282801191" lon="15.031772392559844"><ele>451.5</ele><time>2026-04-26T07:02:32Z</time></trkpt><trkpt lat="36.97606173112174" lon="15.031896808831338"><ele>453.0</ele><time>2026-04-26T07:02:33Z</time></trkpt><trkpt lat="36.97613645192938" lon="15.032051002815258"><ele>454.5</ele><time>2026-04-26T07:02:34Z</time></trkpt><trkpt lat="36.9762165057159" lon="15.032184462205343"><ele>456.0</ele><time>2026-04-26T07:02:35Z</time></trkpt><trkpt lat="36.976300823298146" lon="15.032311531876141"><ele>456.0</ele><time>2026-04-26T07:02:36Z</time></trkpt><trkpt lat="36.976377194567284" lon="15.032428871131696"><ele>456.0</ele><time>2026-04-26T07:02:37Z</time></trkpt><trkpt lat="36.976473388222665" lon="15.032541705985484"><ele>456.0</ele><time>2026-04-26T07:02:38Z</time></trkpt><trkpt lat="36.97661468659032" lon="15.03261502476331"><ele>456.0</ele><time>2026-04-26T07:02:39Z</time></trkpt><trkpt lat="36.97678721749582" lon="15.03263997868336"><ele>453.33333333333337</ele><time>2026-04-26T07:02:40Z</time></trkpt><trkpt lat="36.976939704787085" lon="15.032635085192428"><ele>450.6666666666667</ele><time>2026-04-26T07:02:41Z</time></trkpt><trkpt lat="36.97710103493864" lon="15.032614893628212"><ele>448.0</ele><time>2026-04-26T07:02:42Z</time></trkpt><trkpt lat="36.97726591571469" lon="15.032574796158354"><ele>448.0</ele><time>2026-04-26T07:02:43Z</time></trkpt><trkpt lat="36.97742765359822" lon="15.032509141226345"><ele>448.0</ele><time>2026-04-26T07:02:44Z</time></trkpt><trkpt lat="36.97759791120324" lon="15.032406057208195"><ele>448.0</ele><time>2026-04-26T07:02:45Z</time></trkpt><trkpt lat="36.97776610671996" lon="15.03226677345661"><ele>445.6666666666667</ele><time>2026-04-26T07:02:46Z</time></trkpt><trkpt lat="36.97790670479251" lon="15.032110204584075"><ele>443.33333333333337</ele><time>2026-04-26T07:02:47Z</time></trkpt><trkpt lat="36.9780094478182" lon="15.031939667419584"><ele>441.0</ele><time>2026-04-26T07:02:48Z</time></trkpt><trkpt lat="36.97809067035585" lon="15.031745064840134"><ele>442.0</ele><time>2026-04-26T07:02:49Z</time></trkpt><trkpt lat="36.97816990209657" lon="15.031551931258475"><ele>443.0</ele><time>2026-04-26T07:02:50Z</time></trkpt><trkpt lat="36.97824824536392" lon="15.031378664815417"><ele>444.0</ele><time>2026-04-26T07:02:51Z</time></trkpt><trkpt lat="36.97832598214789" lon="15.031206203558087"><ele>443.0</ele><time>2026-04-26T07:02:52Z</time></trkpt><trkpt lat="36.97839768380439" lon="15.031043839043084"><ele>442.0</ele><time>2026-04-26T07:02:53Z</time></trkpt><trkpt lat="36.97848418916096" lon="15.030919606986787"><ele>441.0</ele><time>2026-04-26T07:02:54Z</time></trkpt><trkpt lat="36.9785477676675" lon="15.030816199899355"><ele>440.0</ele><time>2026-04-26T07:02:55Z</time></trkpt><trkpt lat="36.97863382371098" lon="15.030784560300525"><ele>440.0</ele><time>2026-04-26T07:02:56Z</time></trkpt><trkpt lat="36.97870093430594" lon="15.030786721504079"><ele>440.0</ele><time>2026-04-26T07:02:57Z</time></trkpt><trkpt lat="36.97878775729606" lon="15.030823180802377"><ele>440.0</ele><time>2026-04-26T07:02:58Z</time></trkpt><trkpt lat="36.97887661190168" lon="15.030893545898536"><ele>440.0</ele><time>2026-04-26T07:02:59Z</time></trkpt><trkpt lat="36.97898035650901" lon="15.030957653321506"><ele>440.0</ele><time>2026-04-26T07:03:00Z</time></trkpt><trkpt lat="36.97908350107568" lon="15.031020720134878"><ele>439.25</ele><time>2026-04-26T07:03:01Z</time></trkpt><trkpt lat="36.97918909277319" lon="15.03107030021173"><ele>438.5</ele><time>2026-04-26T07:03:02Z</time></trkpt><trkpt lat="36.97930838667862" lon="15.031080480843766"><ele>437.75</ele><time>2026-04-26T07:03:03Z</time></trkpt><trkpt lat="36.97944494388" lon="15.031058165366263"><ele>437.0</ele><time>2026-04-26T07:03:04Z</time></trkpt><trkpt lat="36.97958666829738" lon="15.031000933117758"><ele>437.0</ele><time>2026-04-26T07:03:05Z</time></trkpt><trkpt lat="36.97973399126929" lon="15.030905536117196"><ele>437.0</ele><time>2026-04-26T07:03:06Z</time></trkpt><trkpt lat="36.979873939745374" lon="15.030808792924647"><ele>437.0</ele><time>2026-04-26T07:03:07Z</time></trkpt><trkpt lat="36.98001177836632" lon="15.030717116760686"><ele>437.0</ele><time>2026-04-26T07:03:08Z</time></trkpt><trkpt lat="36.9801457641416" lon="15.030627560837765"><ele>437.0</ele><time>2026-04-26T07:03:09Z</time></trkpt><trkpt lat="36.98029288272702" lon="15.030530221116324"><ele>437.0</ele><time>2026-04-26T07:03:10Z</time></trkpt><trkpt lat="36.9804616806127" lon="15.030417950967726"><ele>437.0</ele><time>2026-04-26T07:03:11Z</time></trkpt><trkpt lat="36.98063096544132" lon="15.030306695467804"><ele>437.0</ele><time>2026-04-26T07:03:12Z</time></trkpt><trkpt lat="36.98079567798398" lon="15.030197543119417"><ele>437.0</ele><time>2026-04-26T07:03:13Z</time></trkpt><trkpt lat="36.98095959004604" lon="15.030089730354613"><ele>436.3333333333333</ele><time>2026-04-26T07:03:14Z</time></trkpt><trkpt lat="36.98112989415814" lon="15.029977422842794"><ele>435.66666666666663</ele><time>2026-04-26T07:03:15Z</time></trkpt><trkpt lat="36.98130313264604" lon="15.029861706268798"><ele>435.0</ele><time>2026-04-26T07:03:16Z</time></trkpt><trkpt lat="36.98147721778784" lon="15.029748180604534"><ele>435.0</ele><time>2026-04-26T07:03:17Z</time></trkpt><trkpt lat="36.981655476434106" lon="15.029637403551941"><ele>435.0</ele><time>2026-04-26T07:03:18Z</time></trkpt><trkpt lat="36.98184048838009" lon="15.029525153628185"><ele>435.0</ele><time>2026-04-26T07:03:19Z</time></trkpt><trkpt lat="36.98201385648409" lon="15.029404868075513"><ele>434.33333333333337</ele><time>2026-04-26T07:03:20Z</time></trkpt><trkpt lat="36.982170783594995" lon="15.029298578939283"><ele>433.6666666666667</ele><time>2026-04-26T07:03:21Z</time></trkpt><trkpt lat="36.982332227879596" lon="15.029193022067709"><ele>433.0</ele><time>2026-04-26T07:03:22Z</time></trkpt><trkpt lat="36.98248918319274" lon="15.029086217815054"><ele>433.33333333333337</ele><time>2026-04-26T07:03:23Z</time></trkpt><trkpt lat="36.98264757155262" lon="15.028985107707774"><ele>433.66666666666663</ele><time>2026-04-26T07:03:24Z</time></trkpt><trkpt lat="36.98280767293384" lon="15.028891481438531"><ele>434.0</ele><time>2026-04-26T07:03:25Z</time></trkpt><trkpt lat="36.982971465405164" lon="15.028815122290025"><ele>434.0</ele><time>2026-04-26T07:03:26Z</time></trkpt><trkpt lat="36.98315388563683" lon="15.028754720643292"><ele>434.0</ele><time>2026-04-26T07:03:27Z</time></trkpt><trkpt lat="36.98333414412023" lon="15.028695187165471"><ele>434.0</ele><time>2026-04-26T07:03:28Z</time></trkpt><trkpt lat="36.983513645161295" lon="15.028631077082062"><ele>433.66666666666663</ele><time>2026-04-26T07:03:29Z</time></trkpt><trkpt lat="36.983694876333" lon="15.02856540101117"><ele>433.33333333333337</ele><time>2026-04-26T07:03:30Z</time></trkpt><trkpt lat="36.98387273263108" lon="15.028502471042424"><ele>433.0</ele><time>2026-04-26T07:03:31Z</time></trkpt><trkpt lat="36.984054746724624" lon="15.02843763090489"><ele>433.33333333333337</ele><time>2026-04-26T07:03:32Z</time></trkpt><trkpt lat="36.98423438744168" lon="15.028373667523642"><ele>433.66666666666663</ele><time>2026-04-26T07:03:33Z</time></trkpt><trkpt lat="36.98441287046507" lon="15.028310811489266"><ele>434.0</ele><time>2026-04-26T07:03:34Z</time></trkpt><trkpt lat="36.98458704555453" lon="15.028248901110738"><ele>434.0</ele><time>2026-04-26T07:03:35Z</time></trkpt><trkpt lat="36.98474801826572" lon="15.028193580396735"><ele>434.0</ele><time>2026-04-26T07:03:36Z</time></trkpt><trkpt lat="36.9849099585853" lon="15.028137781054726"><ele>434.0</ele><time>2026-04-26T07:03:37Z</time></trkpt><trkpt lat="36.985061723788434" lon="15.028084320358385"><ele>432.25</ele><time>2026-04-26T07:03:38Z</time></trkpt><trkpt lat="36.98520561928938" lon="15.028032743992744"><ele>430.5</ele><time>2026-04-26T07:03:39Z</time></trkpt><trkpt lat="36.98534795326411" lon="15.027978306775616"><ele>428.75</ele><time>2026-04-26T07:03:40Z</time></trkpt><trkpt lat="36.9854854322524" lon="15.027912844493791"><ele>427.0</ele><time>2026-04-26T07:03:41Z</time></trkpt><trkpt lat="36.98560881162894" lon="15.02781757126132"><ele>427.0</ele><time>2026-04-26T07:03:42Z</time></trkpt><trkpt lat="36.98571249318456" lon="15.027685090639014"><ele>427.0</ele><time>2026-04-26T07:03:43Z</time></trkpt><trkpt lat="36.985803465735266" lon="15.027535596964874"><ele>427.0</ele><time>2026-04-26T07:03:44Z</time></trkpt><trkpt lat="36.985887992192325" lon="15.027375083199537"><ele>425.25</ele><time>2026-04-26T07:03:45Z</time></trkpt><trkpt lat="36.98596381735305" lon="15.027201509816305"><ele>423.5</ele><time>2026-04-26T07:03:46Z</time></trkpt><trkpt lat="36.986023809365854" lon="15.027027404010457"><ele>421.75</ele><time>2026-04-26T07:03:47Z</time></trkpt><trkpt lat="36.98606993359813" lon="15.026882569393852"><ele>420.0</ele><time>2026-04-26T07:03:48Z</time></trkpt><trkpt lat="36.98611270411892" lon="15.0267546666601"><ele>420.0</ele><time>2026-04-26T07:03:49Z</time></trkpt><trkpt lat="36.986151161385116" lon="15.026645203309727"><ele>420.0</ele><time>2026-04-26T07:03:50Z</time></trkpt><trkpt lat="36.98619797480628" lon="15.026559335060794"><ele>420.0</ele><time>2026-04-26T07:03:51Z</time></trkpt><trkpt lat="36.986249747631625" lon="15.026492845928255"><ele>420.0</ele><time>2026-04-26T07:03:52Z</time></trkpt><trkpt lat="36.98631305845937" lon="15.026456757503228"><ele>420.0</ele><time>2026-04-26T07:03:53Z</time></trkpt><trkpt lat="36.986418124346486" lon="15.026460499425776"><ele>420.0</ele><time>2026-04-26T07:03:55Z</time></trkpt><trkpt lat="36.98648496087963" lon="15.02649640296042"><ele>419.6</ele><time>2026-04-26T07:03:58Z</time></trkpt><trkpt lat="36.98658665359575" lon="15.026363109187782"><ele>419.2</ele><time>2026-04-26T07:04:01Z</time></trkpt><trkpt lat="36.98663223321138" lon="15.026267330154896"><ele>418.79999999999995</ele><time>2026-04-26T07:04:02Z</time></trkpt><trkpt lat="36.986664286923975" lon="15.02613590391941"><ele>418.4</ele><time>2026-04-26T07:04:03Z</time></trkpt><trkpt lat="36.9866814289994" lon="15.026013655617117"><ele>418.0</ele><time>2026-04-26T07:04:04Z</time></trkpt><trkpt lat="36.98668087038587" lon="15.025916968336764"><ele>418.0</ele><time>2026-04-26T07:04:05Z</time></trkpt><trkpt lat="36.98664096491989" lon="15.025837980625111"><ele>418.0</ele><time>2026-04-26T07:04:06Z</time></trkpt><trkpt lat="36.986585704140246" lon="15.025720096429126"><ele>418.0</ele><time>2026-04-26T07:04:08Z</time></trkpt><trkpt lat="36.986573780889394" lon="15.02557534718205"><ele>418.0</ele><time>2026-04-26T07:04:10Z</time></trkpt><trkpt lat="36.98657750784709" lon="15.025484982308749"><ele>418.0</ele><time>2026-04-26T07:04:11Z</time></trkpt><trkpt lat="36.98657613117844" lon="15.025372436964053"><ele>417.79999999999995</ele><time>2026-04-26T07:04:12Z</time></trkpt><trkpt lat="36.98660750491831" lon="15.025250228999672"><ele>417.6</ele><time>2026-04-26T07:04:13Z</time></trkpt><trkpt lat="36.9866326383381" lon="15.025140014889093"><ele>417.4</ele><time>2026-04-26T07:04:14Z</time></trkpt><trkpt lat="36.98666980554379" lon="15.02503945243066"><ele>417.20000000000005</ele><time>2026-04-26T07:04:15Z</time></trkpt><trkpt lat="36.98670205163911" lon="15.024932153404974"><ele>417.0</ele><time>2026-04-26T07:04:16Z</time></trkpt><trkpt lat="36.9867402208781" lon="15.024845136113845"><ele>415.8333333333333</ele><time>2026-04-26T07:04:17Z</time></trkpt><trkpt lat="36.986777206454555" lon="15.024765791706628"><ele>414.66666666666663</ele><time>2026-04-26T07:04:18Z</time></trkpt><trkpt lat="36.98679887805756" lon="15.024682412992812"><ele>413.5</ele><time>2026-04-26T07:04:19Z</time></trkpt><trkpt lat="36.98683064040235" lon="15.024613631843424"><ele>412.3333333333333</ele><time>2026-04-26T07:04:20Z</time></trkpt><trkpt lat="36.98687314739321" lon="15.024549579450756"><ele>411.16666666666663</ele><time>2026-04-26T07:04:25Z</time></trkpt><trkpt lat="36.9868584971367" lon="15.024630523613773"><ele>410.0</ele><time>2026-04-26T07:04:43Z</time></trkpt><trkpt lat="36.98694889769688" lon="15.024714383206236"><ele>409.99999999999994</ele><time>2026-04-26T07:04:53Z</time></trkpt><trkpt lat="36.98700584363996" lon="15.024667744403947"><ele>410.0</ele><time>2026-04-26T07:05:27Z</time></trkpt><trkpt lat="36.987085837347394" lon="15.024626669688727"><ele>410.0</ele><time>2026-04-26T07:05:46Z</time></trkpt><trkpt lat="36.9871171244365" lon="15.024697796464604"><ele>410.0</ele><time>2026-04-26T07:08:49Z</time></trkpt><trkpt lat="36.98715355643772" lon="15.024768091193092"><ele>409.99999999999994</ele><time>2026-04-26T07:09:04Z</time></trkpt><trkpt lat="36.98723867836333" lon="15.024790819171947"><ele>410.0</ele><time>2026-04-26T07:09:13Z</time></trkpt><trkpt lat="36.98727346851091" lon="15.024702655980157"><ele>410.0</ele><time>2026-04-26T07:09:17Z</time></trkpt><trkpt lat="36.98728345581255" lon="15.02478940374304"><ele>410.0</ele><time>2026-04-26T07:11:34.999Z</time></trkpt><trkpt lat="36.987197303267166" lon="15.024800550169134"><ele>410.0</ele><time>2026-04-26T07:12:29Z</time></trkpt><trkpt lat="36.987141606170056" lon="15.02475797494622"><ele>410.0</ele><time>2026-04-26T07:12:36Z</time></trkpt><trkpt lat="36.98712796002771" lon="15.024676780962563"><ele>410.0</ele><time>2026-04-26T07:12:45Z</time></trkpt><trkpt lat="36.98708010627439" lon="15.024619559508524"><ele>410.0</ele><time>2026-04-26T07:13:02Z</time></trkpt><trkpt lat="36.987028652200934" lon="15.02466547697906"><ele>410.0</ele><time>2026-04-26T07:13:08Z</time></trkpt><trkpt lat="36.98696256593604" lon="15.024712544467226"><ele>409.99999999999994</ele><time>2026-04-26T07:14:13Z</time></trkpt><trkpt lat="36.98697579136352" lon="15.024611050747097"><ele>410.0</ele><time>2026-04-26T07:22:57Z</time></trkpt><trkpt lat="36.986942978821396" lon="15.02453216763485"><ele>410.0</ele><time>2026-04-26T07:23:01Z</time></trkpt><trkpt lat="36.98690301308332" lon="15.024470075852111"><ele>410.0</ele><time>2026-04-26T07:23:14Z</time></trkpt><trkpt lat="36.98691201607105" lon="15.024369261490158"><ele>409.99999999999994</ele><time>2026-04-26T07:23:15.999Z</time></trkpt><trkpt lat="36.98692253325674" lon="15.02425685483127"><ele>410.0</ele><time>2026-04-26T07:23:17.999Z</time></trkpt><trkpt lat="36.98693927477378" lon="15.02414970455517"><ele>411.3333333333333</ele><time>2026-04-26T07:23:19.999Z</time></trkpt><trkpt lat="36.986979076398384" lon="15.024039647706127"><ele>412.66666666666663</ele><time>2026-04-26T07:23:21.999Z</time></trkpt><trkpt lat="36.987009181144636" lon="15.023911069760205"><ele>414.0</ele><time>2026-04-26T07:23:22.999Z</time></trkpt><trkpt lat="36.98699953704619" lon="15.0238174874218"><ele>415.33333333333337</ele><time>2026-04-26T07:23:23.999Z</time></trkpt><trkpt lat="36.986960937007886" lon="15.023725855847973"><ele>416.6666666666667</ele><time>2026-04-26T07:23:24.999Z</time></trkpt><trkpt lat="36.98691691919667" lon="15.023639571754753"><ele>418.0</ele><time>2026-04-26T07:23:25.999Z</time></trkpt><trkpt lat="36.98688282158327" lon="15.023559494945724"><ele>418.00000000000006</ele><time>2026-04-26T07:23:26.999Z</time></trkpt><trkpt lat="36.986849576030565" lon="15.023482070770045"><ele>418.0</ele><time>2026-04-26T07:23:27.999Z</time></trkpt><trkpt lat="36.986816565518374" lon="15.023387505650607"><ele>418.0</ele><time>2026-04-26T07:23:28.999Z</time></trkpt><trkpt lat="36.98678672915537" lon="15.023282918791583"><ele>418.0</ele><time>2026-04-26T07:23:29.999Z</time></trkpt><trkpt lat="36.986763182549474" lon="15.023181475206737"><ele>418.00000000000006</ele><time>2026-04-26T07:23:30.999Z</time></trkpt><trkpt lat="36.986737309066854" lon="15.023076583259686"><ele>418.0</ele><time>2026-04-26T07:23:31.999Z</time></trkpt><trkpt lat="36.986717123462526" lon="15.02296857676705"><ele>418.0</ele><time>2026-04-26T07:23:32.999Z</time></trkpt><trkpt lat="36.98670166242024" lon="15.022836826309092"><ele>418.0</ele><time>2026-04-26T07:23:33.999Z</time></trkpt><trkpt lat="36.986684846644636" lon="15.022711993494772"><ele>418.0</ele><time>2026-04-26T07:23:34.999Z</time></trkpt><trkpt lat="36.9866716854658" lon="15.022594166744142"><ele>418.0</ele><time>2026-04-26T07:23:35.999Z</time></trkpt><trkpt lat="36.9866625330199" lon="15.022478957914071"><ele>418.0</ele><time>2026-04-26T07:23:36.999Z</time></trkpt><trkpt lat="36.98666493403794" lon="15.022367277138844"><ele>418.33333333333337</ele><time>2026-04-26T07:23:37.999Z</time></trkpt><trkpt lat="36.98667772866477" lon="15.022273508813347"><ele>418.6666666666667</ele><time>2026-04-26T07:23:38.999Z</time></trkpt><trkpt lat="36.98670362856096" lon="15.02218981639503"><ele>419.0</ele><time>2026-04-26T07:23:39.999Z</time></trkpt><trkpt lat="36.98675260534699" lon="15.022112351051579"><ele>419.33333333333337</ele><time>2026-04-26T07:23:40.999Z</time></trkpt><trkpt lat="36.98682329413682" lon="15.0220413589794"><ele>419.6666666666667</ele><time>2026-04-26T07:23:41.999Z</time></trkpt><trkpt lat="36.98687675216663" lon="15.021976441546782"><ele>420.0</ele><time>2026-04-26T07:23:42.999Z</time></trkpt><trkpt lat="36.986931554354186" lon="15.021915695218977"><ele>422.0</ele><time>2026-04-26T07:23:43.999Z</time></trkpt><trkpt lat="36.98700319727695" lon="15.021890332004732"><ele>424.0</ele><time>2026-04-26T07:23:44.999Z</time></trkpt><trkpt lat="36.98707852474058" lon="15.021848910419328"><ele>426.0</ele><time>2026-04-26T07:23:45.999Z</time></trkpt><trkpt lat="36.98717309446866" lon="15.021825789743454"><ele>428.0</ele><time>2026-04-26T07:23:46.999Z</time></trkpt><trkpt lat="36.987268283721455" lon="15.02179625258745"><ele>430.0</ele><time>2026-04-26T07:23:47.999Z</time></trkpt><trkpt lat="36.9873678725149" lon="15.021772260480976"><ele>430.00000000000006</ele><time>2026-04-26T07:23:48.999Z</time></trkpt><trkpt lat="36.98746395632371" lon="15.021745232780683"><ele>430.0</ele><time>2026-04-26T07:23:49.999Z</time></trkpt><trkpt lat="36.98755821102691" lon="15.02171682138453"><ele>430.0</ele><time>2026-04-26T07:23:50.999Z</time></trkpt><trkpt lat="36.9876441976702" lon="15.021685728938113"><ele>430.0</ele><time>2026-04-26T07:23:51.999Z</time></trkpt><trkpt lat="36.98772458427326" lon="15.021650567084995"><ele>430.00000000000006</ele><time>2026-04-26T07:23:52.999Z</time></trkpt><trkpt lat="36.987786578804794" lon="15.021592516135657"><ele>430.0</ele><time>2026-04-26T07:23:53.999Z</time></trkpt><trkpt lat="36.98783852775375" lon="15.021535495961132"><ele>430.8</ele><time>2026-04-26T07:23:54.999Z</time></trkpt><trkpt lat="36.987882560924" lon="15.02145121681413"><ele>431.6</ele><time>2026-04-26T07:23:55.999Z</time></trkpt><trkpt lat="36.98790244883217" lon="15.021336372661194"><ele>432.4</ele><time>2026-04-26T07:23:56.999Z</time></trkpt><trkpt lat="36.987924728352986" lon="15.02122403601578"><ele>433.2</ele><time>2026-04-26T07:23:57.999Z</time></trkpt><trkpt lat="36.987944385294725" lon="15.021110920392296"><ele>434.0</ele><time>2026-04-26T07:23:58.999Z</time></trkpt><trkpt lat="36.98794425965162" lon="15.020990081448671"><ele>434.0</ele><time>2026-04-26T07:23:59.999Z</time></trkpt><trkpt lat="36.98793958593261" lon="15.020866766938555"><ele>434.0</ele><time>2026-04-26T07:24:00.999Z</time></trkpt><trkpt lat="36.98793154864498" lon="15.020748908375978"><ele>434.0</ele><time>2026-04-26T07:24:01.999Z</time></trkpt><trkpt lat="36.987923628793034" lon="15.02063277197873"><ele>434.0</ele><time>2026-04-26T07:24:02.999Z</time></trkpt><trkpt lat="36.987915135711255" lon="15.020508229690234"><ele>434.0</ele><time>2026-04-26T07:24:03.999Z</time></trkpt><trkpt lat="36.987909826156745" lon="15.020383851139572"><ele>434.79999999999995</ele><time>2026-04-26T07:24:04.999Z</time></trkpt><trkpt lat="36.98790746998836" lon="15.020253161625043"><ele>435.59999999999997</ele><time>2026-04-26T07:24:05.999Z</time></trkpt><trkpt lat="36.987907848331176" lon="15.020122785511058"><ele>436.4</ele><time>2026-04-26T07:24:06.999Z</time></trkpt><trkpt lat="36.98790919532891" lon="15.01998732415646"><ele>437.2</ele><time>2026-04-26T07:24:07.999Z</time></trkpt><trkpt lat="36.98791072188709" lon="15.019849720858572"><ele>438.0</ele><time>2026-04-26T07:24:08.999Z</time></trkpt><trkpt lat="36.98789696587378" lon="15.019711581056571"><ele>438.4</ele><time>2026-04-26T07:24:09.999Z</time></trkpt><trkpt lat="36.98789977858664" lon="15.019577194224976"><ele>438.79999999999995</ele><time>2026-04-26T07:24:10.999Z</time></trkpt><trkpt lat="36.98790382572725" lon="15.01944450126608"><ele>439.2</ele><time>2026-04-26T07:24:11.999Z</time></trkpt><trkpt lat="36.98789995063741" lon="15.019317502894756"><ele>439.6</ele><time>2026-04-26T07:24:12.999Z</time></trkpt><trkpt lat="36.987898781480624" lon="15.019190448215758"><ele>440.0</ele><time>2026-04-26T07:24:13.999Z</time></trkpt><trkpt lat="36.9879028666649" lon="15.019079932892982"><ele>440.2</ele><time>2026-04-26T07:24:14.999Z</time></trkpt><trkpt lat="36.98790338845381" lon="15.01899317078369"><ele>440.4</ele><time>2026-04-26T07:24:15.999Z</time></trkpt><trkpt lat="36.987899612471686" lon="15.018854988849645"><ele>440.6</ele><time>2026-04-26T07:24:18Z</time></trkpt><trkpt lat="36.98790975777253" lon="15.018735868962523"><ele>440.8</ele><time>2026-04-26T07:24:20Z</time></trkpt><trkpt lat="36.987901496618576" lon="15.018599373649511"><ele>441.0</ele><time>2026-04-26T07:24:22Z</time></trkpt><trkpt lat="36.98788979273906" lon="15.018516292669863"><ele>441.0</ele><time>2026-04-26T07:24:23Z</time></trkpt><trkpt lat="36.987856785113934" lon="15.018365457028047"><ele>441.0</ele><time>2026-04-26T07:24:25Z</time></trkpt><trkpt lat="36.987826792490004" lon="15.018268766752536"><ele>441.0</ele><time>2026-04-26T07:24:26Z</time></trkpt><trkpt lat="36.98778994464402" lon="15.01816154067616"><ele>441.0</ele><time>2026-04-26T07:24:27Z</time></trkpt><trkpt lat="36.98775187123913" lon="15.01805432234084"><ele>441.0</ele><time>2026-04-26T07:24:28Z</time></trkpt><trkpt lat="36.98770779261804" lon="15.017937975023981"><ele>441.0</ele><time>2026-04-26T07:24:29Z</time></trkpt><trkpt lat="36.987657384423365" lon="15.017818650805115"><ele>441.0</ele><time>2026-04-26T07:24:30Z</time></trkpt><trkpt lat="36.98760461018851" lon="15.017696398162185"><ele>441.0</ele><time>2026-04-26T07:24:31Z</time></trkpt><trkpt lat="36.987558256208914" lon="15.017579475625029"><ele>441.0</ele><time>2026-04-26T07:24:32Z</time></trkpt><trkpt lat="36.98751259227442" lon="15.017463201713348"><ele>441.0</ele><time>2026-04-26T07:24:33Z</time></trkpt><trkpt lat="36.987464760674165" lon="15.017341408284612"><ele>440.8</ele><time>2026-04-26T07:24:34Z</time></trkpt><trkpt lat="36.98741719415683" lon="15.017223594712672"><ele>440.6</ele><time>2026-04-26T07:24:35Z</time></trkpt><trkpt lat="36.98736835366089" lon="15.017108864566415"><ele>440.4</ele><time>2026-04-26T07:24:36Z</time></trkpt><trkpt lat="36.98732551258269" lon="15.01700293521272"><ele>440.2</ele><time>2026-04-26T07:24:37Z</time></trkpt><trkpt lat="36.98728929276581" lon="15.016894619004937"><ele>440.0</ele><time>2026-04-26T07:24:38Z</time></trkpt><trkpt lat="36.98726256384313" lon="15.016776680142948"><ele>440.2</ele><time>2026-04-26T07:24:39Z</time></trkpt><trkpt lat="36.98724132881309" lon="15.016652471597071"><ele>440.4</ele><time>2026-04-26T07:24:40Z</time></trkpt><trkpt lat="36.98722562992418" lon="15.016539176546246"><ele>440.6</ele><time>2026-04-26T07:24:41Z</time></trkpt><trkpt lat="36.98721976410309" lon="15.016437128310283"><ele>440.8</ele><time>2026-04-26T07:24:42Z</time></trkpt><trkpt lat="36.98722454831637" lon="15.016304797567068"><ele>441.0</ele><time>2026-04-26T07:24:43Z</time></trkpt><trkpt lat="36.987238561903325" lon="15.016170832037757"><ele>441.0</ele><time>2026-04-26T07:24:44Z</time></trkpt><trkpt lat="36.98723977464147" lon="15.016038759239136"><ele>441.0</ele><time>2026-04-26T07:24:45Z</time></trkpt><trkpt lat="36.987256166468356" lon="15.015901233112224"><ele>441.0</ele><time>2026-04-26T07:24:46Z</time></trkpt><trkpt lat="36.98727184729084" lon="15.015754089249198"><ele>441.0</ele><time>2026-04-26T07:24:47Z</time></trkpt><trkpt lat="36.987288118631774" lon="15.015623118418333"><ele>441.0</ele><time>2026-04-26T07:24:48Z</time></trkpt><trkpt lat="36.98731827103095" lon="15.015491305764641"><ele>441.3333333333333</ele><time>2026-04-26T07:24:49Z</time></trkpt><trkpt lat="36.98733333857138" lon="15.015372249196501"><ele>441.66666666666663</ele><time>2026-04-26T07:24:50Z</time></trkpt><trkpt lat="36.98734680752437" lon="15.015265823843787"><ele>442.0</ele><time>2026-04-26T07:24:51Z</time></trkpt><trkpt lat="36.987362392689" lon="15.01516658666722"><ele>442.3333333333333</ele><time>2026-04-26T07:24:52Z</time></trkpt><trkpt lat="36.98738312090754" lon="15.015075856564243"><ele>442.66666666666663</ele><time>2026-04-26T07:24:53Z</time></trkpt><trkpt lat="36.98742772932142" lon="15.01499643388695"><ele>443.0</ele><time>2026-04-26T07:24:54Z</time></trkpt><trkpt lat="36.98749672226237" lon="15.014901079522497"><ele>443.59999999999997</ele><time>2026-04-26T07:24:55Z</time></trkpt><trkpt lat="36.987556758518345" lon="15.014789390938757"><ele>444.19999999999993</ele><time>2026-04-26T07:24:56Z</time></trkpt><trkpt lat="36.98761889069161" lon="15.01469524181815"><ele>444.8</ele><time>2026-04-26T07:24:57Z</time></trkpt><trkpt lat="36.98767816273128" lon="15.014606908762424"><ele>445.4</ele><time>2026-04-26T07:24:58Z</time></trkpt><trkpt lat="36.98773310043185" lon="15.014521883330385"><ele>446.0</ele><time>2026-04-26T07:24:59Z</time></trkpt><trkpt lat="36.987789862115456" lon="15.014460275368528"><ele>446.0</ele><time>2026-04-26T07:25:00Z</time></trkpt><trkpt lat="36.98780133925901" lon="15.014363831763436"><ele>446.0</ele><time>2026-04-26T07:25:01Z</time></trkpt><trkpt lat="36.987806913102524" lon="15.014250223688117"><ele>446.0</ele><time>2026-04-26T07:25:02Z</time></trkpt><trkpt lat="36.98782749775989" lon="15.014107626518019"><ele>446.0</ele><time>2026-04-26T07:25:03Z</time></trkpt><trkpt lat="36.98783444150328" lon="15.013957424549394"><ele>446.0</ele><time>2026-04-26T07:25:04Z</time></trkpt><trkpt lat="36.98784095766321" lon="15.013816471913806"><ele>445.75</ele><time>2026-04-26T07:25:05Z</time></trkpt><trkpt lat="36.98784773182943" lon="15.013657657322188"><ele>445.5</ele><time>2026-04-26T07:25:06Z</time></trkpt><trkpt lat="36.987853439968866" lon="15.01349697154291"><ele>445.25</ele><time>2026-04-26T07:25:07Z</time></trkpt><trkpt lat="36.98784231076048" lon="15.013350659417494"><ele>445.0</ele><time>2026-04-26T07:25:08Z</time></trkpt><trkpt lat="36.98785847545068" lon="15.013208432816953"><ele>445.0</ele><time>2026-04-26T07:25:09Z</time></trkpt><trkpt lat="36.98786024936891" lon="15.013061945949886"><ele>445.0</ele><time>2026-04-26T07:25:10Z</time></trkpt><trkpt lat="36.98786221223324" lon="15.012899856155896"><ele>445.0</ele><time>2026-04-26T07:25:11Z</time></trkpt><trkpt lat="36.987866169786116" lon="15.012741025170664"><ele>445.0</ele><time>2026-04-26T07:25:12Z</time></trkpt><trkpt lat="36.98787137854936" lon="15.01260188939236"><ele>445.8</ele><time>2026-04-26T07:25:13Z</time></trkpt><trkpt lat="36.98786351724283" lon="15.012457865957531"><ele>446.6</ele><time>2026-04-26T07:25:14Z</time></trkpt><trkpt lat="36.987863002842666" lon="15.012329069180145"><ele>447.4</ele><time>2026-04-26T07:25:15Z</time></trkpt><trkpt lat="36.98784050223433" lon="15.012209684577314"><ele>448.2</ele><time>2026-04-26T07:25:16Z</time></trkpt><trkpt lat="36.98778777796428" lon="15.012095567033162"><ele>449.0</ele><time>2026-04-26T07:25:17Z</time></trkpt><trkpt lat="36.98771464365571" lon="15.011986543959638"><ele>449.0</ele><time>2026-04-26T07:25:18Z</time></trkpt><trkpt lat="36.98765205302638" lon="15.011865949954341"><ele>449.0</ele><time>2026-04-26T07:25:19Z</time></trkpt><trkpt lat="36.98759301608814" lon="15.011759805396492"><ele>449.0</ele><time>2026-04-26T07:25:20Z</time></trkpt><trkpt lat="36.98752734300359" lon="15.01164172946735"><ele>449.0</ele><time>2026-04-26T07:25:21Z</time></trkpt><trkpt lat="36.98744418292647" lon="15.011492213071548"><ele>449.79999999999995</ele><time>2026-04-26T07:25:22Z</time></trkpt><trkpt lat="36.98737980518735" lon="15.011376466104101"><ele>450.59999999999997</ele><time>2026-04-26T07:25:23Z</time></trkpt><trkpt lat="36.98732080171123" lon="15.011270381703484"><ele>451.4</ele><time>2026-04-26T07:25:23.999Z</time></trkpt><trkpt lat="36.98726493428585" lon="15.011169935714149"><ele>452.2</ele><time>2026-04-26T07:25:24.999Z</time></trkpt><trkpt lat="36.987195543033366" lon="15.011079781010958"><ele>453.0</ele><time>2026-04-26T07:25:25.999Z</time></trkpt><trkpt lat="36.98714707962633" lon="15.01096174176568"><ele>453.0</ele><time>2026-04-26T07:25:26.999Z</time></trkpt><trkpt lat="36.987078885458914" lon="15.010842131927083"><ele>452.99999999999994</ele><time>2026-04-26T07:25:27.999Z</time></trkpt><trkpt lat="36.987020915998144" lon="15.010740455811186"><ele>452.99999999999994</ele><time>2026-04-26T07:25:28.999Z</time></trkpt><trkpt lat="36.98695913416324" lon="15.010653014002793"><ele>453.0</ele><time>2026-04-26T07:25:29.999Z</time></trkpt><trkpt lat="36.98690096219903" lon="15.010552856193835"><ele>453.0</ele><time>2026-04-26T07:25:30.999Z</time></trkpt><trkpt lat="36.986844614057475" lon="15.010433822365036"><ele>453.3333333333333</ele><time>2026-04-26T07:25:31.999Z</time></trkpt><trkpt lat="36.98678242409618" lon="15.010326538799378"><ele>453.66666666666663</ele><time>2026-04-26T07:25:32.999Z</time></trkpt><trkpt lat="36.98672849507404" lon="15.010233506151986"><ele>454.0</ele><time>2026-04-26T07:25:33.999Z</time></trkpt><trkpt lat="36.9866751728797" lon="15.010164660433384"><ele>454.3333333333333</ele><time>2026-04-26T07:25:34.999Z</time></trkpt><trkpt lat="36.986637459228035" lon="15.01009680219721"><ele>454.66666666666663</ele><time>2026-04-26T07:25:35.999Z</time></trkpt><trkpt lat="36.98659796150736" lon="15.010032877088232"><ele>455.0</ele><time>2026-04-26T07:25:36.999Z</time></trkpt><trkpt lat="36.98655057716224" lon="15.009924032860164"><ele>456.75</ele><time>2026-04-26T07:25:38.999Z</time></trkpt><trkpt lat="36.986467879246014" lon="15.009670640335328"><ele>458.5</ele><time>2026-04-26T07:25:40.999Z</time></trkpt><trkpt lat="36.986537666444406" lon="15.009565159241257"><ele>460.25</ele><time>2026-04-26T07:25:41.999Z</time></trkpt><trkpt lat="36.98658214409579" lon="15.009480393447202"><ele>462.0</ele><time>2026-04-26T07:25:42.999Z</time></trkpt><trkpt lat="36.98663125025305" lon="15.009386806789"><ele>461.3333333333333</ele><time>2026-04-26T07:25:43.999Z</time></trkpt><trkpt lat="36.98667902389844" lon="15.0092957594467"><ele>460.66666666666663</ele><time>2026-04-26T07:25:44.999Z</time></trkpt><trkpt lat="36.986729347545065" lon="15.009216430360656"><ele>460.0</ele><time>2026-04-26T07:25:45.999Z</time></trkpt><trkpt lat="36.986767789323586" lon="15.009137696159865"><ele>459.3333333333333</ele><time>2026-04-26T07:25:46.999Z</time></trkpt><trkpt lat="36.98678837590982" lon="15.009049736633546"><ele>458.66666666666663</ele><time>2026-04-26T07:25:47.999Z</time></trkpt><trkpt lat="36.98676078516192" lon="15.00889613411971"><ele>458.0</ele><time>2026-04-26T07:25:49.999Z</time></trkpt><trkpt lat="36.98672960985236" lon="15.008811062818165"><ele>458.0</ele><time>2026-04-26T07:25:51.999Z</time></trkpt><trkpt lat="36.98670421643536" lon="15.008709351908717"><ele>458.0</ele><time>2026-04-26T07:26:13.999Z</time></trkpt><trkpt lat="36.98667871778797" lon="15.00862808600829"><ele>458.0</ele><time>2026-04-26T07:26:15.999Z</time></trkpt><trkpt lat="36.986910903634936" lon="15.008470380095849"><ele>458.0</ele><time>2026-04-26T07:26:17.999Z</time></trkpt><trkpt lat="36.98699236196557" lon="15.008413601680775"><ele>458.0</ele><time>2026-04-26T07:26:19.999Z</time></trkpt><trkpt lat="36.987077323197795" lon="15.008340267205075"><ele>457.99999999999994</ele><time>2026-04-26T07:26:21.999Z</time></trkpt><trkpt lat="36.98715851616222" lon="15.008266626301348"><ele>457.99999999999994</ele><time>2026-04-26T07:26:24Z</time></trkpt><trkpt lat="36.987229421002" lon="15.008181018609557"><ele>458.0</ele><time>2026-04-26T07:26:26Z</time></trkpt><trkpt lat="36.98731507259624" lon="15.00809429200301"><ele>458.0</ele><time>2026-04-26T07:26:28Z</time></trkpt><trkpt lat="36.98741715774287" lon="15.008018702921145"><ele>458.4</ele><time>2026-04-26T07:26:30Z</time></trkpt><trkpt lat="36.987467026008595" lon="15.007956658109762"><ele>458.79999999999995</ele><time>2026-04-26T07:26:31Z</time></trkpt><trkpt lat="36.987542387159706" lon="15.007887005644463"><ele>459.2</ele><time>2026-04-26T07:26:32Z</time></trkpt><trkpt lat="36.98761572728202" lon="15.007820569771052"><ele>459.6</ele><time>2026-04-26T07:26:33Z</time></trkpt><trkpt lat="36.98769132054619" lon="15.007756774102806"><ele>460.0</ele><time>2026-04-26T07:26:35Z</time></trkpt><trkpt lat="36.987777441382384" lon="15.007666527160081"><ele>460.00000000000006</ele><time>2026-04-26T07:26:37Z</time></trkpt><trkpt lat="36.98783753169076" lon="15.007613491023758"><ele>460.0</ele><time>2026-04-26T07:26:38Z</time></trkpt><trkpt lat="36.98790075738368" lon="15.007547164653293"><ele>460.0</ele><time>2026-04-26T07:26:39Z</time></trkpt><trkpt lat="36.98795843805493" lon="15.007495235444384"><ele>460.0</ele><time>2026-04-26T07:26:40Z</time></trkpt><trkpt lat="36.98804169519629" lon="15.007418786148058"><ele>460.00000000000006</ele><time>2026-04-26T07:26:42Z</time></trkpt><trkpt lat="36.98807254673701" lon="15.007295409711427"><ele>460.0</ele><time>2026-04-26T07:26:44Z</time></trkpt><trkpt lat="36.98808012773284" lon="15.007199215810992"><ele>458.6666666666667</ele><time>2026-04-26T07:26:46Z</time></trkpt><trkpt lat="36.988082505320214" lon="15.007059193708862"><ele>457.33333333333337</ele><time>2026-04-26T07:26:48Z</time></trkpt><trkpt lat="36.988062766215464" lon="15.006968384120905"><ele>456.0</ele><time>2026-04-26T07:29:02Z</time></trkpt><trkpt lat="36.98808171117633" lon="15.007072417806086"><ele>454.66666666666663</ele><time>2026-04-26T07:29:53.999Z</time></trkpt><trkpt lat="36.9880828725626" lon="15.007170322966392"><ele>453.3333333333333</ele><time>2026-04-26T07:29:56.999Z</time></trkpt><trkpt lat="36.988064230701994" lon="15.00728855478368"><ele>452.0</ele><time>2026-04-26T07:30:03.999Z</time></trkpt><trkpt lat="36.98803978424952" lon="15.007389776049559"><ele>454.0</ele><time>2026-04-26T07:30:05.999Z</time></trkpt><trkpt lat="36.98790740502693" lon="15.007538479700848"><ele>456.0</ele><time>2026-04-26T07:30:07.999Z</time></trkpt><trkpt lat="36.98783291330566" lon="15.007604932144272"><ele>458.0</ele><time>2026-04-26T07:30:08.999Z</time></trkpt><trkpt lat="36.98778066382412" lon="15.007654920684104"><ele>460.0</ele><time>2026-04-26T07:30:09.999Z</time></trkpt><trkpt lat="36.98768693541889" lon="15.007755501578316"><ele>460.0</ele><time>2026-04-26T07:30:11.999Z</time></trkpt><trkpt lat="36.9876272887477" lon="15.007820435637608"><ele>460.0</ele><time>2026-04-26T07:30:12.999Z</time></trkpt><trkpt lat="36.98754810045584" lon="15.007896567708517"><ele>460.0</ele><time>2026-04-26T07:30:13.999Z</time></trkpt><trkpt lat="36.98744821029497" lon="15.007978538759064"><ele>460.0</ele><time>2026-04-26T07:30:14.999Z</time></trkpt><trkpt lat="36.98737542152735" lon="15.008050447091513"><ele>460.0</ele><time>2026-04-26T07:30:15.999Z</time></trkpt><trkpt lat="36.98731285642193" lon="15.00811270618815"><ele>460.33333333333337</ele><time>2026-04-26T07:30:16.999Z</time></trkpt><trkpt lat="36.98723787198624" lon="15.008171833318585"><ele>460.6666666666667</ele><time>2026-04-26T07:30:17.999Z</time></trkpt><trkpt lat="36.98717367293994" lon="15.008217925412666"><ele>461.0</ele><time>2026-04-26T07:30:18.999Z</time></trkpt><trkpt lat="36.987106390779076" lon="15.008315680956565"><ele>461.33333333333337</ele><time>2026-04-26T07:30:20.999Z</time></trkpt><trkpt lat="36.987049522575795" lon="15.008378441561966"><ele>461.6666666666667</ele><time>2026-04-26T07:30:21.999Z</time></trkpt><trkpt lat="36.98698325961946" lon="15.008428087868174"><ele>462.0</ele><time>2026-04-26T07:30:22.999Z</time></trkpt><trkpt lat="36.986918080858445" lon="15.008481945730546"><ele>462.0</ele><time>2026-04-26T07:30:23.999Z</time></trkpt><trkpt lat="36.986857841285534" lon="15.008539887249055"><ele>462.0</ele><time>2026-04-26T07:30:24.999Z</time></trkpt><trkpt lat="36.98683226721782" lon="15.008683752817527"><ele>462.0</ele><time>2026-04-26T07:30:26.999Z</time></trkpt><trkpt lat="36.986817528173184" lon="15.008761573230263"><ele>462.0</ele><time>2026-04-26T07:30:27.999Z</time></trkpt><trkpt lat="36.986792997769896" lon="15.008837229548"><ele>462.0</ele><time>2026-04-26T07:30:29.999Z</time></trkpt><trkpt lat="36.986721286998026" lon="15.008832646460545"><ele>462.0</ele><time>2026-04-26T07:30:35Z</time></trkpt><trkpt lat="36.986663080070876" lon="15.00877953536247"><ele>462.0</ele><time>2026-04-26T07:30:36Z</time></trkpt><trkpt lat="36.98658730441459" lon="15.008785573295732"><ele>462.0</ele><time>2026-04-26T07:30:39Z</time></trkpt><trkpt lat="36.98652336523428" lon="15.008794066495803"><ele>462.0</ele><time>2026-04-26T07:30:40Z</time></trkpt><trkpt lat="36.986462488288495" lon="15.008841939458513"><ele>462.0</ele><time>2026-04-26T07:30:41Z</time></trkpt><trkpt lat="36.98640242910987" lon="15.008894404684723"><ele>462.0</ele><time>2026-04-26T07:30:42Z</time></trkpt><trkpt lat="36.986332582776875" lon="15.008973737332527"><ele>462.0</ele><time>2026-04-26T07:30:43Z</time></trkpt><trkpt lat="36.98623355668878" lon="15.009027920885481"><ele>462.0</ele><time>2026-04-26T07:30:44Z</time></trkpt><trkpt lat="36.98612624733921" lon="15.009104926388398"><ele>462.0</ele><time>2026-04-26T07:30:45Z</time></trkpt><trkpt lat="36.98599819801113" lon="15.009196731642389"><ele>462.0</ele><time>2026-04-26T07:30:46Z</time></trkpt><trkpt lat="36.98587563666356" lon="15.009284602245982"><ele>462.0</ele><time>2026-04-26T07:30:47Z</time></trkpt><trkpt lat="36.985774673719106" lon="15.00938165966033"><ele>461.8</ele><time>2026-04-26T07:30:48Z</time></trkpt><trkpt lat="36.98568290380308" lon="15.009446658386437"><ele>461.6</ele><time>2026-04-26T07:30:49Z</time></trkpt><trkpt lat="36.98558173502691" lon="15.009479751831595"><ele>461.40000000000003</ele><time>2026-04-26T07:30:50Z</time></trkpt><trkpt lat="36.985475812846545" lon="15.009517668409577"><ele>461.20000000000005</ele><time>2026-04-26T07:30:51Z</time></trkpt><trkpt lat="36.98535852330822" lon="15.00954736715563"><ele>461.0</ele><time>2026-04-26T07:30:52Z</time></trkpt><trkpt lat="36.98522170374512" lon="15.009603790140565"><ele>461.0</ele><time>2026-04-26T07:30:53Z</time></trkpt><trkpt lat="36.98506692643241" lon="15.009643238571735"><ele>461.0</ele><time>2026-04-26T07:30:54Z</time></trkpt><trkpt lat="36.98491510021469" lon="15.009669934297726"><ele>461.0</ele><time>2026-04-26T07:30:55Z</time></trkpt><trkpt lat="36.98477774626259" lon="15.009710122685687"><ele>461.0</ele><time>2026-04-26T07:30:56Z</time></trkpt><trkpt lat="36.98465240052336" lon="15.009766868882176"><ele>461.0</ele><time>2026-04-26T07:30:57Z</time></trkpt><trkpt lat="36.98450963716993" lon="15.009806141177878"><ele>461.0</ele><time>2026-04-26T07:30:58Z</time></trkpt><trkpt lat="36.98437769843165" lon="15.009845754319752"><ele>461.0</ele><time>2026-04-26T07:30:59Z</time></trkpt><trkpt lat="36.984237501865564" lon="15.009869131747504"><ele>461.75</ele><time>2026-04-26T07:31:00Z</time></trkpt><trkpt lat="36.984101561534885" lon="15.00990914279571"><ele>462.5</ele><time>2026-04-26T07:31:01Z</time></trkpt><trkpt lat="36.9839757885348" lon="15.009969902568836"><ele>463.25</ele><time>2026-04-26T07:31:02Z</time></trkpt><trkpt lat="36.98382811833079" lon="15.010011799487794"><ele>464.0</ele><time>2026-04-26T07:31:03Z</time></trkpt><trkpt lat="36.98370322648886" lon="15.010052983794255"><ele>464.66666666666663</ele><time>2026-04-26T07:31:04Z</time></trkpt><trkpt lat="36.983584663745994" lon="15.010109825351243"><ele>465.33333333333337</ele><time>2026-04-26T07:31:05Z</time></trkpt><trkpt lat="36.98342398368205" lon="15.010192707294749"><ele>466.0</ele><time>2026-04-26T07:31:06Z</time></trkpt><trkpt lat="36.98325360992434" lon="15.010254847643841"><ele>466.0</ele><time>2026-04-26T07:31:07Z</time></trkpt><trkpt lat="36.983085634218156" lon="15.010336277000343"><ele>466.0</ele><time>2026-04-26T07:31:08Z</time></trkpt><trkpt lat="36.9829243649045" lon="15.010414455330425"><ele>466.0</ele><time>2026-04-26T07:31:09Z</time></trkpt><trkpt lat="36.98273319694863" lon="15.010508688170884"><ele>466.0</ele><time>2026-04-26T07:31:10Z</time></trkpt><trkpt lat="36.982554734573995" lon="15.010596670680611"><ele>466.0</ele><time>2026-04-26T07:31:11Z</time></trkpt><trkpt lat="36.982431297269194" lon="15.01065752567281"><ele>466.0</ele><time>2026-04-26T07:31:12Z</time></trkpt><trkpt lat="36.982313127288236" lon="15.010715783852971"><ele>465.4</ele><time>2026-04-26T07:31:13Z</time></trkpt><trkpt lat="36.98221153165578" lon="15.010762656365753"><ele>464.8</ele><time>2026-04-26T07:31:14Z</time></trkpt><trkpt lat="36.982139639982876" lon="15.010789495493876"><ele>464.19999999999993</ele><time>2026-04-26T07:31:15Z</time></trkpt><trkpt lat="36.982080541875305" lon="15.010828194708077"><ele>463.59999999999997</ele><time>2026-04-26T07:31:17Z</time></trkpt><trkpt lat="36.98207664171607" lon="15.010700853061255"><ele>463.0</ele><time>2026-04-26T07:31:19Z</time></trkpt><trkpt lat="36.98208742107661" lon="15.010560712786685"><ele>463.0</ele><time>2026-04-26T07:31:20Z</time></trkpt><trkpt lat="36.98210016806334" lon="15.01037691477969"><ele>463.0</ele><time>2026-04-26T07:31:21Z</time></trkpt><trkpt lat="36.98209780474189" lon="15.010175675152524"><ele>463.0</ele><time>2026-04-26T07:31:22Z</time></trkpt><trkpt lat="36.98209539488461" lon="15.009970473119978"><ele>464.59999999999997</ele><time>2026-04-26T07:31:23Z</time></trkpt><trkpt lat="36.98209380452908" lon="15.00983505273746"><ele>466.19999999999993</ele><time>2026-04-26T07:31:24Z</time></trkpt><trkpt lat="36.98209245570354" lon="15.009720264940066"><ele>467.8</ele><time>2026-04-26T07:31:25Z</time></trkpt><trkpt lat="36.982090999384965" lon="15.00959671514711"><ele>469.4</ele><time>2026-04-26T07:31:26Z</time></trkpt><trkpt lat="36.98208967729145" lon="15.009484552627466"><ele>471.0</ele><time>2026-04-26T07:31:27Z</time></trkpt><trkpt lat="36.98208837421308" lon="15.009374003381712"><ele>471.0</ele><time>2026-04-26T07:31:28Z</time></trkpt><trkpt lat="36.982087334829345" lon="15.009285825001575"><ele>471.0</ele><time>2026-04-26T07:31:29Z</time></trkpt><trkpt lat="36.98208591133573" lon="15.009165059921264"><ele>471.0</ele><time>2026-04-26T07:31:31Z</time></trkpt><trkpt lat="36.98208462223883" lon="15.009055696809982"><ele>471.0</ele><time>2026-04-26T07:31:33Z</time></trkpt><trkpt lat="36.98208360274761" lon="15.008969206489764"><ele>471.0</ele><time>2026-04-26T07:31:34Z</time></trkpt><trkpt lat="36.98206654039578" lon="15.008858817622317"><ele>471.0</ele><time>2026-04-26T07:31:35Z</time></trkpt><trkpt lat="36.98207145448477" lon="15.00870749485527"><ele>473.75</ele><time>2026-04-26T07:31:36Z</time></trkpt><trkpt lat="36.98207690991535" lon="15.008500908804683"><ele>476.5</ele><time>2026-04-26T07:31:37Z</time></trkpt><trkpt lat="36.98207721832352" lon="15.008318166362574"><ele>479.25</ele><time>2026-04-26T07:31:38Z</time></trkpt><trkpt lat="36.98208464252196" lon="15.008145871671497"><ele>482.0</ele><time>2026-04-26T07:31:39Z</time></trkpt><trkpt lat="36.98209351052773" lon="15.008002648771905"><ele>482.0</ele><time>2026-04-26T07:31:40Z</time></trkpt><trkpt lat="36.98210118966926" lon="15.007878626642134"><ele>482.00000000000006</ele><time>2026-04-26T07:31:41Z</time></trkpt><trkpt lat="36.982110280207024" lon="15.00773180970532"><ele>482.00000000000006</ele><time>2026-04-26T07:31:42Z</time></trkpt><trkpt lat="36.98210249293286" lon="15.007591644726043"><ele>482.0</ele><time>2026-04-26T07:31:43Z</time></trkpt><trkpt lat="36.98211486381822" lon="15.007454377621348"><ele>482.0</ele><time>2026-04-26T07:31:44Z</time></trkpt><trkpt lat="36.98212673677407" lon="15.007312060862091"><ele>484.5</ele><time>2026-04-26T07:31:45Z</time></trkpt><trkpt lat="36.98213326927123" lon="15.007220078580318"><ele>487.0</ele><time>2026-04-26T07:31:46Z</time></trkpt><trkpt lat="36.98215430424166" lon="15.007028463013814"><ele>489.5</ele><time>2026-04-26T07:31:48Z</time></trkpt><trkpt lat="36.98214909149289" lon="15.006852012355958"><ele>492.0</ele><time>2026-04-26T07:31:49Z</time></trkpt><trkpt lat="36.982161664805446" lon="15.006630655901375"><ele>494.5</ele><time>2026-04-26T07:31:50Z</time></trkpt><trkpt lat="36.98218919968084" lon="15.0064318147766"><ele>497.0</ele><time>2026-04-26T07:31:51Z</time></trkpt><trkpt lat="36.98218708139595" lon="15.00624271784474"><ele>499.5</ele><time>2026-04-26T07:31:52Z</time></trkpt><trkpt lat="36.98220106920186" lon="15.00607479697231"><ele>502.0</ele><time>2026-04-26T07:31:53Z</time></trkpt><trkpt lat="36.982209142256984" lon="15.00597324229846"><ele>502.0</ele><time>2026-04-26T07:31:54Z</time></trkpt><trkpt lat="36.982202785243686" lon="15.005883812850435"><ele>502.0</ele><time>2026-04-26T07:31:55Z</time></trkpt><trkpt lat="36.98213011146039" lon="15.005750623316516"><ele>502.0</ele><time>2026-04-26T07:31:56Z</time></trkpt><trkpt lat="36.982101160552006" lon="15.0055927005669"><ele>502.0</ele><time>2026-04-26T07:31:57Z</time></trkpt><trkpt lat="36.982056195887886" lon="15.00543880662189"><ele>502.25</ele><time>2026-04-26T07:31:58Z</time></trkpt><trkpt lat="36.981989519266065" lon="15.005264614029251"><ele>502.5</ele><time>2026-04-26T07:31:59Z</time></trkpt><trkpt lat="36.98194816779521" lon="15.005117930871672"><ele>502.75</ele><time>2026-04-26T07:32:00Z</time></trkpt><trkpt lat="36.98190629531743" lon="15.004921077389307"><ele>503.0</ele><time>2026-04-26T07:32:00.999Z</time></trkpt><trkpt lat="36.98184170770888" lon="15.00476004421643"><ele>503.0</ele><time>2026-04-26T07:32:01.999Z</time></trkpt><trkpt lat="36.9818097435751" lon="15.004600003730495"><ele>503.0</ele><time>2026-04-26T07:32:02.999Z</time></trkpt><trkpt lat="36.98174242035262" lon="15.00443488328359"><ele>503.0</ele><time>2026-04-26T07:32:03.999Z</time></trkpt><trkpt lat="36.98170815390394" lon="15.004305603851058"><ele>503.0</ele><time>2026-04-26T07:32:04.999Z</time></trkpt><trkpt lat="36.9816754290657" lon="15.004206698728824"><ele>504.4</ele><time>2026-04-26T07:32:05.999Z</time></trkpt><trkpt lat="36.981662105005604" lon="15.004104342579863"><ele>505.79999999999995</ele><time>2026-04-26T07:32:06.999Z</time></trkpt><trkpt lat="36.98162621096283" lon="15.003974373086315"><ele>507.2</ele><time>2026-04-26T07:32:07.999Z</time></trkpt><trkpt lat="36.98158701280886" lon="15.00383412955468"><ele>508.6</ele><time>2026-04-26T07:32:08.999Z</time></trkpt><trkpt lat="36.981556839865185" lon="15.003730129216084"><ele>510.0</ele><time>2026-04-26T07:32:09.999Z</time></trkpt><trkpt lat="36.98152551109392" lon="15.00362890861138"><ele>510.0</ele><time>2026-04-26T07:32:10.999Z</time></trkpt><trkpt lat="36.981480258931434" lon="15.00353122496903"><ele>510.0</ele><time>2026-04-26T07:32:11.999Z</time></trkpt><trkpt lat="36.98139593217022" lon="15.00345587097799"><ele>510.0</ele><time>2026-04-26T07:32:12.999Z</time></trkpt><trkpt lat="36.981298920595" lon="15.003333885582077"><ele>510.0</ele><time>2026-04-26T07:32:13.999Z</time></trkpt><trkpt lat="36.98117252803247" lon="15.003192870186306"><ele>509.4</ele><time>2026-04-26T07:32:14.999Z</time></trkpt><trkpt lat="36.98108135684844" lon="15.003091729319951"><ele>508.8</ele><time>2026-04-26T07:32:15.999Z</time></trkpt><trkpt lat="36.981031231824794" lon="15.003036373173668"><ele>508.20000000000005</ele><time>2026-04-26T07:32:16.999Z</time></trkpt><trkpt lat="36.98096924445263" lon="15.00299502233657"><ele>507.6</ele><time>2026-04-26T07:32:17.999Z</time></trkpt><trkpt lat="36.98090424384186" lon="15.002896132454964"><ele>507.0</ele><time>2026-04-26T07:32:18.999Z</time></trkpt><trkpt lat="36.9808047590232" lon="15.002785838151002"><ele>511.0</ele><time>2026-04-26T07:32:19.999Z</time></trkpt><trkpt lat="36.98067763283918" lon="15.002644785227812"><ele>515.0</ele><time>2026-04-26T07:32:20.999Z</time></trkpt><trkpt lat="36.980527079324006" lon="15.00247554942255"><ele>519.0</ele><time>2026-04-26T07:32:21.999Z</time></trkpt><trkpt lat="36.9803903579517" lon="15.002316321489111"><ele>520.75</ele><time>2026-04-26T07:32:22.999Z</time></trkpt><trkpt lat="36.98026676267188" lon="15.0021953062977"><ele>522.5</ele><time>2026-04-26T07:32:23.999Z</time></trkpt><trkpt lat="36.980208045829144" lon="15.002083254807873"><ele>524.25</ele><time>2026-04-26T07:32:24.999Z</time></trkpt><trkpt lat="36.980141730961364" lon="15.001977392198764"><ele>526.0</ele><time>2026-04-26T07:32:25.999Z</time></trkpt><trkpt lat="36.98009128841955" lon="15.001880943525522"><ele>526.0</ele><time>2026-04-26T07:32:26.999Z</time></trkpt><trkpt lat="36.98005503279316" lon="15.001761858842656"><ele>526.0</ele><time>2026-04-26T07:32:27.999Z</time></trkpt><trkpt lat="36.98002779588296" lon="15.001674336380335"><ele>526.0</ele><time>2026-04-26T07:32:28.999Z</time></trkpt><trkpt lat="36.97999094347649" lon="15.00155046046193"><ele>526.0</ele><time>2026-04-26T07:32:30.999Z</time></trkpt><trkpt lat="36.979965606594455" lon="15.001465184139205"><ele>526.0</ele><time>2026-04-26T07:32:41Z</time></trkpt><trkpt lat="36.97999803574093" lon="15.001574330933616"><ele>526.0</ele><time>2026-04-26T07:32:50Z</time></trkpt><trkpt lat="36.98003179011148" lon="15.001687089840729"><ele>526.0</ele><time>2026-04-26T07:32:52Z</time></trkpt><trkpt lat="36.98007056974426" lon="15.001808406712163"><ele>526.0</ele><time>2026-04-26T07:32:54Z</time></trkpt><trkpt lat="36.980106246428" lon="15.001905633687258"><ele>526.0</ele><time>2026-04-26T07:32:56Z</time></trkpt><trkpt lat="36.98013028424847" lon="15.001992828823457"><ele>526.0</ele><time>2026-04-26T07:32:58Z</time></trkpt><trkpt lat="36.980193909037325" lon="15.002083025707709"><ele>526.0</ele><time>2026-04-26T07:33:00Z</time></trkpt><trkpt lat="36.98026953400518" lon="15.002184968422641"><ele>526.0</ele><time>2026-04-26T07:33:02Z</time></trkpt><trkpt lat="36.98032603598088" lon="15.002254459686082"><ele>526.0</ele><time>2026-04-26T07:33:04Z</time></trkpt><trkpt lat="36.98038144535512" lon="15.002316686409124"><ele>526.0</ele><time>2026-04-26T07:33:06Z</time></trkpt><trkpt lat="36.980440687475536" lon="15.002390589129751"><ele>526.0</ele><time>2026-04-26T07:33:08Z</time></trkpt><trkpt lat="36.980514925144405" lon="15.00246699020268"><ele>526.0</ele><time>2026-04-26T07:33:10Z</time></trkpt><trkpt lat="36.980598566825" lon="15.002553954300069"><ele>526.0</ele><time>2026-04-26T07:33:11Z</time></trkpt><trkpt lat="36.980648218385916" lon="15.002637390251836"><ele>524.8333333333334</ele><time>2026-04-26T07:33:12Z</time></trkpt><trkpt lat="36.980702230191724" lon="15.002700425795954"><ele>523.6666666666667</ele><time>2026-04-26T07:33:13Z</time></trkpt><trkpt lat="36.98075130537279" lon="15.002759606853388"><ele>522.5</ele><time>2026-04-26T07:33:14Z</time></trkpt><trkpt lat="36.980801205623976" lon="15.00281017133873"><ele>521.3333333333334</ele><time>2026-04-26T07:33:15Z</time></trkpt><trkpt lat="36.98088849731824" lon="15.002890630387911"><ele>520.1666666666666</ele><time>2026-04-26T07:33:17Z</time></trkpt><trkpt lat="36.98095695944922" lon="15.002965425591526"><ele>519.0</ele><time>2026-04-26T07:33:19Z</time></trkpt><trkpt lat="36.981017716906884" lon="15.003026055631421"><ele>517.2</ele><time>2026-04-26T07:33:23Z</time></trkpt><trkpt lat="36.981065890111175" lon="15.00308763060291"><ele>515.4</ele><time>2026-04-26T07:33:28Z</time></trkpt><trkpt lat="36.981127402974785" lon="15.003148988064645"><ele>513.6</ele><time>2026-04-26T07:33:58Z</time></trkpt><trkpt lat="36.981182261221406" lon="15.003216873672356"><ele>511.8</ele><time>2026-04-26T07:33:59Z</time></trkpt><trkpt lat="36.98125455912724" lon="15.00331546491544"><ele>510.0</ele><time>2026-04-26T07:34:00Z</time></trkpt><trkpt lat="36.98133978705665" lon="15.003435249273515"><ele>510.0</ele><time>2026-04-26T07:34:01Z</time></trkpt><trkpt lat="36.98142945409804" lon="15.003509062009897"><ele>510.0</ele><time>2026-04-26T07:34:02Z</time></trkpt><trkpt lat="36.98147398918968" lon="15.003592405756491"><ele>510.0</ele><time>2026-04-26T07:34:03Z</time></trkpt><trkpt lat="36.98150948069664" lon="15.003665840280583"><ele>510.0</ele><time>2026-04-26T07:34:04Z</time></trkpt><trkpt lat="36.98154984222771" lon="15.003828200541264"><ele>510.0</ele><time>2026-04-26T07:34:06Z</time></trkpt><trkpt lat="36.98159648439507" lon="15.003934126175954"><ele>510.0</ele><time>2026-04-26T07:34:07Z</time></trkpt><trkpt lat="36.98161568108009" lon="15.004063909833542"><ele>510.0</ele><time>2026-04-26T07:34:08Z</time></trkpt><trkpt lat="36.98164808385882" lon="15.004181237771753"><ele>510.0</ele><time>2026-04-26T07:34:08.999Z</time></trkpt><trkpt lat="36.98169775518519" lon="15.004293478226467"><ele>510.0</ele><time>2026-04-26T07:34:09.999Z</time></trkpt><trkpt lat="36.981717037531986" lon="15.004411276800727"><ele>510.0</ele><time>2026-04-26T07:34:10.999Z</time></trkpt><trkpt lat="36.981758546975065" lon="15.00454860380642"><ele>508.5</ele><time>2026-04-26T07:34:11.999Z</time></trkpt><trkpt lat="36.98180305848486" lon="15.004695082968743"><ele>507.0</ele><time>2026-04-26T07:34:12.999Z</time></trkpt><trkpt lat="36.98184961233074" lon="15.004847835951932"><ele>505.5</ele><time>2026-04-26T07:34:13.999Z</time></trkpt><trkpt lat="36.98191162432775" lon="15.005004603548267"><ele>504.0</ele><time>2026-04-26T07:34:14.999Z</time></trkpt><trkpt lat="36.98196117675559" lon="15.005179509720245"><ele>504.0</ele><time>2026-04-26T07:34:15.999Z</time></trkpt><trkpt lat="36.981992095111835" lon="15.005340849502213"><ele>504.0</ele><time>2026-04-26T07:34:16.999Z</time></trkpt><trkpt lat="36.98205475332634" lon="15.005499291901302"><ele>504.0</ele><time>2026-04-26T07:34:17.999Z</time></trkpt><trkpt lat="36.982096210504906" lon="15.005657770152705"><ele>504.0</ele><time>2026-04-26T07:34:18.999Z</time></trkpt><trkpt lat="36.98212876757471" lon="15.005770112515187"><ele>503.6</ele><time>2026-04-26T07:34:19.999Z</time></trkpt><trkpt lat="36.98215231035622" lon="15.005863484567517"><ele>503.2</ele><time>2026-04-26T07:34:20.999Z</time></trkpt><trkpt lat="36.98218786443529" lon="15.005965513200348"><ele>502.80000000000007</ele><time>2026-04-26T07:34:21.999Z</time></trkpt><trkpt lat="36.9821857385195" lon="15.006088555426599"><ele>502.40000000000003</ele><time>2026-04-26T07:34:22.999Z</time></trkpt><trkpt lat="36.9821654899933" lon="15.006259395076082"><ele>502.0</ele><time>2026-04-26T07:34:23.999Z</time></trkpt><trkpt lat="36.98216788890236" lon="15.006479048800546"><ele>502.0</ele><time>2026-04-26T07:34:24.999Z</time></trkpt><trkpt lat="36.982154182384434" lon="15.006655675704526"><ele>502.0</ele><time>2026-04-26T07:34:25.999Z</time></trkpt><trkpt lat="36.98214313503092" lon="15.006818047306561"><ele>502.0</ele><time>2026-04-26T07:34:26.999Z</time></trkpt><trkpt lat="36.982130488678244" lon="15.00697772135059"><ele>502.0</ele><time>2026-04-26T07:34:27.999Z</time></trkpt><trkpt lat="36.98212834526585" lon="15.007120241592899"><ele>500.0</ele><time>2026-04-26T07:34:28.999Z</time></trkpt><trkpt lat="36.9821079557231" lon="15.007232572215178"><ele>498.00000000000006</ele><time>2026-04-26T07:34:29.999Z</time></trkpt><trkpt lat="36.98210131496865" lon="15.007336581705244"><ele>496.00000000000006</ele><time>2026-04-26T07:34:30.999Z</time></trkpt><trkpt lat="36.9820936305931" lon="15.007460688372742"><ele>494.0</ele><time>2026-04-26T07:34:31.999Z</time></trkpt><trkpt lat="36.98210085933337" lon="15.007604132968218"><ele>492.0</ele><time>2026-04-26T07:34:32.999Z</time></trkpt><trkpt lat="36.98209026177506" lon="15.007755874760004"><ele>490.20000000000005</ele><time>2026-04-26T07:34:33.999Z</time></trkpt><trkpt lat="36.98206592708839" lon="15.007908114179532"><ele>488.40000000000003</ele><time>2026-04-26T07:34:34.999Z</time></trkpt><trkpt lat="36.982068512718826" lon="15.008034189696065"><ele>486.59999999999997</ele><time>2026-04-26T07:34:35.999Z</time></trkpt><trkpt lat="36.98206164540052" lon="15.008161655428994"><ele>484.79999999999995</ele><time>2026-04-26T07:34:36.999Z</time></trkpt><trkpt lat="36.9820554841552" lon="15.008303467442833"><ele>483.0</ele><time>2026-04-26T07:34:37.999Z</time></trkpt><trkpt lat="36.982050994707265" lon="15.008444090872516"><ele>483.0</ele><time>2026-04-26T07:34:38.999Z</time></trkpt><trkpt lat="36.982055278394846" lon="15.00860685855841"><ele>483.0</ele><time>2026-04-26T07:34:39.999Z</time></trkpt><trkpt lat="36.98206478907183" lon="15.008799290800736"><ele>483.0</ele><time>2026-04-26T07:34:40.999Z</time></trkpt><trkpt lat="36.9820619587589" lon="15.008966031560838"><ele>483.0</ele><time>2026-04-26T07:34:41.999Z</time></trkpt><trkpt lat="36.98206605585698" lon="15.00910161723196"><ele>480.0</ele><time>2026-04-26T07:34:42.999Z</time></trkpt><trkpt lat="36.98205326339653" lon="15.009223881177894"><ele>477.0</ele><time>2026-04-26T07:34:44Z</time></trkpt><trkpt lat="36.98205490204621" lon="15.009362899860223"><ele>474.0</ele><time>2026-04-26T07:34:45Z</time></trkpt><trkpt lat="36.9820623429008" lon="15.009540256692688"><ele>471.0</ele><time>2026-04-26T07:34:46Z</time></trkpt><trkpt lat="36.98207099277533" lon="15.00972295041603"><ele>471.0</ele><time>2026-04-26T07:34:47Z</time></trkpt><trkpt lat="36.98206123238501" lon="15.009900545339883"><ele>471.0</ele><time>2026-04-26T07:34:48Z</time></trkpt><trkpt lat="36.98206331699776" lon="15.010078052653748"><ele>471.0</ele><time>2026-04-26T07:34:49Z</time></trkpt><trkpt lat="36.98206535280376" lon="15.010251404019677"><ele>471.0</ele><time>2026-04-26T07:34:50Z</time></trkpt><trkpt lat="36.98206704237208" lon="15.010395272847045"><ele>469.4</ele><time>2026-04-26T07:34:51Z</time></trkpt><trkpt lat="36.98206767869548" lon="15.01051906297695"><ele>467.8</ele><time>2026-04-26T07:34:52Z</time></trkpt><trkpt lat="36.98208311466916" lon="15.01062307353409"><ele>466.19999999999993</ele><time>2026-04-26T07:34:53Z</time></trkpt><trkpt lat="36.98206948094591" lon="15.010719540703592"><ele>464.59999999999997</ele><time>2026-04-26T07:34:54Z</time></trkpt><trkpt lat="36.982088013803754" lon="15.010835950935602"><ele>463.0</ele><time>2026-04-26T07:34:56Z</time></trkpt><trkpt lat="36.982210506409636" lon="15.010809962644629"><ele>463.0</ele><time>2026-04-26T07:34:58Z</time></trkpt><trkpt lat="36.98231368800407" lon="15.010760195742467"><ele>463.0</ele><time>2026-04-26T07:34:59Z</time></trkpt><trkpt lat="36.98245174966372" lon="15.010692130906916"><ele>463.0</ele><time>2026-04-26T07:35:00Z</time></trkpt><trkpt lat="36.982608912418584" lon="15.01061464915974"><ele>463.0</ele><time>2026-04-26T07:35:01Z</time></trkpt><trkpt lat="36.982767605416086" lon="15.010536412988543"><ele>464.0</ele><time>2026-04-26T07:35:02Z</time></trkpt><trkpt lat="36.98291157254045" lon="15.010465436733934"><ele>465.0</ele><time>2026-04-26T07:35:03Z</time></trkpt><trkpt lat="36.9830510248722" lon="15.010397642619386"><ele>466.0</ele><time>2026-04-26T07:35:04Z</time></trkpt><trkpt lat="36.98319051537592" lon="15.010330021963957"><ele>466.0</ele><time>2026-04-26T07:35:05Z</time></trkpt><trkpt lat="36.98332003669379" lon="15.010267234089104"><ele>466.0</ele><time>2026-04-26T07:35:06Z</time></trkpt><trkpt lat="36.983459781199365" lon="15.010199490305924"><ele>466.0</ele><time>2026-04-26T07:35:07Z</time></trkpt><trkpt lat="36.9835994535662" lon="15.010131781513149"><ele>466.0</ele><time>2026-04-26T07:35:08Z</time></trkpt><trkpt lat="36.98372551377985" lon="15.010076188183907"><ele>466.5</ele><time>2026-04-26T07:35:09Z</time></trkpt><trkpt lat="36.98383314693917" lon="15.010037161317879"><ele>467.0</ele><time>2026-04-26T07:35:10Z</time></trkpt><trkpt lat="36.98394406762205" lon="15.010001368544614"><ele>467.5</ele><time>2026-04-26T07:35:11Z</time></trkpt><trkpt lat="36.98407684536549" lon="15.009959617380957"><ele>468.0</ele><time>2026-04-26T07:35:12Z</time></trkpt><trkpt lat="36.98421032969045" lon="15.009919828143023"><ele>466.25</ele><time>2026-04-26T07:35:13Z</time></trkpt><trkpt lat="36.984344353658614" lon="15.009880381149241"><ele>464.5</ele><time>2026-04-26T07:35:14Z</time></trkpt><trkpt lat="36.98447439300676" lon="15.009842106933537"><ele>462.75</ele><time>2026-04-26T07:35:15Z</time></trkpt><trkpt lat="36.98462672580243" lon="15.00979727112336"><ele>461.0</ele><time>2026-04-26T07:35:16Z</time></trkpt><trkpt lat="36.98479714300905" lon="15.00974711256868"><ele>461.0</ele><time>2026-04-26T07:35:17Z</time></trkpt><trkpt lat="36.98500772699091" lon="15.00968740178265"><ele>461.0</ele><time>2026-04-26T07:35:18Z</time></trkpt><trkpt lat="36.985194745337495" lon="15.00963544404368"><ele>461.0</ele><time>2026-04-26T07:35:19Z</time></trkpt><trkpt lat="36.9853371955667" lon="15.009595868288299"><ele>461.0</ele><time>2026-04-26T07:35:20Z</time></trkpt><trkpt lat="36.985460431615195" lon="15.00956163065585"><ele>461.0</ele><time>2026-04-26T07:35:21Z</time></trkpt><trkpt lat="36.98557288879425" lon="15.009507428201676"><ele>461.0</ele><time>2026-04-26T07:35:22Z</time></trkpt><trkpt lat="36.985675873995596" lon="15.00946539539282"><ele>461.0</ele><time>2026-04-26T07:35:23Z</time></trkpt><trkpt lat="36.985780662031644" lon="15.009389719395678"><ele>461.3333333333333</ele><time>2026-04-26T07:35:24Z</time></trkpt><trkpt lat="36.98592654170305" lon="15.009296045352107"><ele>461.66666666666663</ele><time>2026-04-26T07:35:25Z</time></trkpt><trkpt lat="36.98609164848892" lon="15.009177671664009"><ele>462.0</ele><time>2026-04-26T07:35:26Z</time></trkpt><trkpt lat="36.98625499094211" lon="15.00906036483165"><ele>462.0</ele><time>2026-04-26T07:35:27Z</time></trkpt><trkpt lat="36.98636193941109" lon="15.00897894024592"><ele>462.00000000000006</ele><time>2026-04-26T07:35:28Z</time></trkpt><trkpt lat="36.98644008129415" lon="15.008912297087935"><ele>462.00000000000006</ele><time>2026-04-26T07:35:29Z</time></trkpt><trkpt lat="36.98650255518319" lon="15.0088589215876"><ele>462.0</ele><time>2026-04-26T07:35:30Z</time></trkpt><trkpt lat="36.986561268238724" lon="15.00881600541677"><ele>462.0</ele><time>2026-04-26T07:35:31Z</time></trkpt><trkpt lat="36.986643889301384" lon="15.008775830192162"><ele>462.0</ele><time>2026-04-26T07:35:33Z</time></trkpt><trkpt lat="36.986698562859" lon="15.008819619817533"><ele>462.0</ele><time>2026-04-26T07:35:36Z</time></trkpt><trkpt lat="36.986743234455076" lon="15.008918388431566"><ele>462.0</ele><time>2026-04-26T07:35:40Z</time></trkpt><trkpt lat="36.9867497213338" lon="15.008999198260238"><ele>462.0</ele><time>2026-04-26T07:35:42Z</time></trkpt><trkpt lat="36.986760271886595" lon="15.00910592640215"><ele>462.0</ele><time>2026-04-26T07:35:44Z</time></trkpt><trkpt lat="36.98671287186571" lon="15.009170672273589"><ele>462.0</ele><time>2026-04-26T07:35:46Z</time></trkpt><trkpt lat="36.98667143295358" lon="15.009240848125195"><ele>462.0</ele><time>2026-04-26T07:35:47Z</time></trkpt><trkpt lat="36.98661561945047" lon="15.009340677246374"><ele>462.0</ele><time>2026-04-26T07:35:48Z</time></trkpt><trkpt lat="36.98656213023723" lon="15.00944261737692"><ele>462.00000000000006</ele><time>2026-04-26T07:35:49Z</time></trkpt><trkpt lat="36.986508325022605" lon="15.009545157855063"><ele>462.00000000000006</ele><time>2026-04-26T07:35:50Z</time></trkpt><trkpt lat="36.98643468348357" lon="15.009662623842313"><ele>462.0</ele><time>2026-04-26T07:35:51Z</time></trkpt><trkpt lat="36.98642036623142" lon="15.009812814428148"><ele>462.0</ele><time>2026-04-26T07:35:52Z</time></trkpt><trkpt lat="36.98653002063756" lon="15.009944025008842"><ele>461.20000000000005</ele><time>2026-04-26T07:35:53Z</time></trkpt><trkpt lat="36.98658602066541" lon="15.010058283517425"><ele>460.40000000000003</ele><time>2026-04-26T07:35:55Z</time></trkpt><trkpt lat="36.986644435744566" lon="15.010138974177968"><ele>459.59999999999997</ele><time>2026-04-26T07:35:56Z</time></trkpt><trkpt lat="36.986701685663405" lon="15.010253335774049"><ele>458.79999999999995</ele><time>2026-04-26T07:35:57Z</time></trkpt><trkpt lat="36.986788707748225" lon="15.010383445832753"><ele>458.0</ele><time>2026-04-26T07:35:58Z</time></trkpt><trkpt lat="36.986863116376384" lon="15.010536694927827"><ele>457.25</ele><time>2026-04-26T07:35:59Z</time></trkpt><trkpt lat="36.986940705131296" lon="15.010671505675612"><ele>456.5</ele><time>2026-04-26T07:36:00Z</time></trkpt><trkpt lat="36.987014293059744" lon="15.010800575982582"><ele>455.75</ele><time>2026-04-26T07:36:01Z</time></trkpt><trkpt lat="36.98709597354962" lon="15.010918390164724"><ele>455.0</ele><time>2026-04-26T07:36:02Z</time></trkpt><trkpt lat="36.98717570220826" lon="15.01105386222081"><ele>454.5</ele><time>2026-04-26T07:36:03Z</time></trkpt><trkpt lat="36.98724813311601" lon="15.011212664796973"><ele>454.0</ele><time>2026-04-26T07:36:04Z</time></trkpt><trkpt lat="36.987326346861934" lon="15.011353287996917"><ele>453.5</ele><time>2026-04-26T07:36:05Z</time></trkpt><trkpt lat="36.98739890161325" lon="15.011483736707312"><ele>453.0</ele><time>2026-04-26T07:36:06Z</time></trkpt><trkpt lat="36.98747620579752" lon="15.011622724600764"><ele>452.0</ele><time>2026-04-26T07:36:07Z</time></trkpt><trkpt lat="36.987548776837386" lon="15.01175320261534"><ele>451.0</ele><time>2026-04-26T07:36:08Z</time></trkpt><trkpt lat="36.98761818741989" lon="15.011877998310753"><ele>450.0</ele><time>2026-04-26T07:36:09Z</time></trkpt><trkpt lat="36.98768071715362" lon="15.011990422712953"><ele>449.0</ele><time>2026-04-26T07:36:10Z</time></trkpt><trkpt lat="36.98773477436942" lon="15.012090027432789"><ele>448.99999999999994</ele><time>2026-04-26T07:36:11Z</time></trkpt><trkpt lat="36.98778184053463" lon="15.012183670399166"><ele>449.0</ele><time>2026-04-26T07:36:12Z</time></trkpt><trkpt lat="36.98781488931325" lon="15.012267505720287"><ele>449.0</ele><time>2026-04-26T07:36:13Z</time></trkpt><trkpt lat="36.987835881841626" lon="15.012364871916349"><ele>449.0</ele><time>2026-04-26T07:36:14Z</time></trkpt><trkpt lat="36.987841243774284" lon="15.012483080308154"><ele>448.99999999999994</ele><time>2026-04-26T07:36:15Z</time></trkpt><trkpt lat="36.9878375223514" lon="15.012614767853899"><ele>449.0</ele><time>2026-04-26T07:36:16Z</time></trkpt><trkpt lat="36.98783233832301" lon="15.01275324290932"><ele>448.0</ele><time>2026-04-26T07:36:17Z</time></trkpt><trkpt lat="36.98784400946208" lon="15.012899131831476"><ele>447.0</ele><time>2026-04-26T07:36:18Z</time></trkpt><trkpt lat="36.98784037090416" lon="15.013044260153446"><ele>446.0</ele><time>2026-04-26T07:36:19Z</time></trkpt><trkpt lat="36.9878413849895" lon="15.013198203177497"><ele>445.0</ele><time>2026-04-26T07:36:20Z</time></trkpt><trkpt lat="36.98782316278149" lon="15.01336079491015"><ele>445.0</ele><time>2026-04-26T07:36:21Z</time></trkpt><trkpt lat="36.987818904564975" lon="15.013544793870302"><ele>445.0</ele><time>2026-04-26T07:36:22Z</time></trkpt><trkpt lat="36.9878105863252" lon="15.013751008840678"><ele>445.0</ele><time>2026-04-26T07:36:22.999Z</time></trkpt><trkpt lat="36.98780296119226" lon="15.013916048333712"><ele>445.0</ele><time>2026-04-26T07:36:23.999Z</time></trkpt><trkpt lat="36.98779589642679" lon="15.014068867988605"><ele>445.2</ele><time>2026-04-26T07:36:24.999Z</time></trkpt><trkpt lat="36.9877867230399" lon="15.014221110186494"><ele>445.4</ele><time>2026-04-26T07:36:25.999Z</time></trkpt><trkpt lat="36.98777844410607" lon="15.014340182493804"><ele>445.6</ele><time>2026-04-26T07:36:26.999Z</time></trkpt><trkpt lat="36.98776353548108" lon="15.014430264926474"><ele>445.8</ele><time>2026-04-26T07:36:27.999Z</time></trkpt><trkpt lat="36.987720536282396" lon="15.014519216188877"><ele>446.0</ele><time>2026-04-26T07:36:28.999Z</time></trkpt><trkpt lat="36.98764663826837" lon="15.014612841783112"><ele>446.0</ele><time>2026-04-26T07:36:29.999Z</time></trkpt><trkpt lat="36.98755697768528" lon="15.014746486181927"><ele>446.0</ele><time>2026-04-26T07:36:30.999Z</time></trkpt><trkpt lat="36.987463553241156" lon="15.014885740832664"><ele>446.0</ele><time>2026-04-26T07:36:31.999Z</time></trkpt><trkpt lat="36.98739946001563" lon="15.014982755490816"><ele>446.0</ele><time>2026-04-26T07:36:32.999Z</time></trkpt><trkpt lat="36.98736175378217" lon="15.015052987303159"><ele>445.4</ele><time>2026-04-26T07:36:33.999Z</time></trkpt><trkpt lat="36.9873494895537" lon="15.015131318551989"><ele>444.8</ele><time>2026-04-26T07:36:34.999Z</time></trkpt><trkpt lat="36.987329873288395" lon="15.015228411404832"><ele>444.19999999999993</ele><time>2026-04-26T07:36:35.999Z</time></trkpt><trkpt lat="36.98729988729093" lon="15.015369887745528"><ele>443.59999999999997</ele><time>2026-04-26T07:36:36.999Z</time></trkpt><trkpt lat="36.98729142815311" lon="15.015550975145544"><ele>443.0</ele><time>2026-04-26T07:36:37.999Z</time></trkpt><trkpt lat="36.98725351570644" lon="15.015737504413872"><ele>442.5</ele><time>2026-04-26T07:36:38.999Z</time></trkpt><trkpt lat="36.98722966682552" lon="15.015950075578589"><ele>442.0</ele><time>2026-04-26T07:36:39.999Z</time></trkpt><trkpt lat="36.98721043981214" lon="15.016121450858332"><ele>441.5</ele><time>2026-04-26T07:36:40.999Z</time></trkpt><trkpt lat="36.987194058058044" lon="15.016267465721107"><ele>441.0</ele><time>2026-04-26T07:36:41.999Z</time></trkpt><trkpt lat="36.987201687180814" lon="15.016403985910145"><ele>441.0</ele><time>2026-04-26T07:36:42.999Z</time></trkpt><trkpt lat="36.987206388241916" lon="15.016535425651268"><ele>441.0</ele><time>2026-04-26T07:36:43.999Z</time></trkpt><trkpt lat="36.9872169639558" lon="15.016710366524784"><ele>441.0</ele><time>2026-04-26T07:36:44.999Z</time></trkpt><trkpt lat="36.98726193537622" lon="15.016871660988345"><ele>441.0</ele><time>2026-04-26T07:36:45.999Z</time></trkpt><trkpt lat="36.98730954467096" lon="15.017021284347619"><ele>440.66666666666663</ele><time>2026-04-26T07:36:46.999Z</time></trkpt><trkpt lat="36.987386776904586" lon="15.017211216871605"><ele>440.3333333333333</ele><time>2026-04-26T07:36:47.999Z</time></trkpt><trkpt lat="36.98746776390768" lon="15.01740767776865"><ele>440.0</ele><time>2026-04-26T07:36:48.999Z</time></trkpt><trkpt lat="36.98752690588394" lon="15.017594163026622"><ele>439.75</ele><time>2026-04-26T07:36:50Z</time></trkpt><trkpt lat="36.987594921244636" lon="15.017763210505658"><ele>439.5</ele><time>2026-04-26T07:36:51Z</time></trkpt><trkpt lat="36.987655664310076" lon="15.01790236545124"><ele>439.25</ele><time>2026-04-26T07:36:52Z</time></trkpt><trkpt lat="36.987704155352176" lon="15.018022127389607"><ele>439.0</ele><time>2026-04-26T07:36:53Z</time></trkpt><trkpt lat="36.987741588564475" lon="15.018126948551119"><ele>439.0</ele><time>2026-04-26T07:36:54Z</time></trkpt><trkpt lat="36.98778017033176" lon="15.018238636295749"><ele>439.0</ele><time>2026-04-26T07:36:55Z</time></trkpt><trkpt lat="36.987820358056275" lon="15.018359548573253"><ele>439.0</ele><time>2026-04-26T07:36:56Z</time></trkpt><trkpt lat="36.98785022621506" lon="15.018491226899375"><ele>439.0</ele><time>2026-04-26T07:36:57Z</time></trkpt><trkpt lat="36.987871101951626" lon="15.01863431449294"><ele>439.0</ele><time>2026-04-26T07:36:58Z</time></trkpt><trkpt lat="36.98787754056296" lon="15.01878655655067"><ele>439.33333333333337</ele><time>2026-04-26T07:36:59Z</time></trkpt><trkpt lat="36.987878634270665" lon="15.018966340683447"><ele>439.66666666666663</ele><time>2026-04-26T07:37:00Z</time></trkpt><trkpt lat="36.98787949901058" lon="15.01919435179452"><ele>440.0</ele><time>2026-04-26T07:37:01Z</time></trkpt><trkpt lat="36.987880301261455" lon="15.019407605137788"><ele>440.0</ele><time>2026-04-26T07:37:02Z</time></trkpt><trkpt lat="36.987879511865366" lon="15.019587093607495"><ele>440.0</ele><time>2026-04-26T07:37:03Z</time></trkpt><trkpt lat="36.98787835704378" lon="15.019761727089316"><ele>440.0</ele><time>2026-04-26T07:37:04Z</time></trkpt><trkpt lat="36.98787633312244" lon="15.01994416240107"><ele>440.0</ele><time>2026-04-26T07:37:05Z</time></trkpt><trkpt lat="36.98787445919306" lon="15.020129469215952"><ele>439.3333333333333</ele><time>2026-04-26T07:37:06Z</time></trkpt><trkpt lat="36.98787518297813" lon="15.020322102337811"><ele>438.66666666666663</ele><time>2026-04-26T07:37:07Z</time></trkpt><trkpt lat="36.98788199057564" lon="15.02051997098521"><ele>438.0</ele><time>2026-04-26T07:37:08Z</time></trkpt><trkpt lat="36.987895319682686" lon="15.020708276538523"><ele>437.0</ele><time>2026-04-26T07:37:09Z</time></trkpt><trkpt lat="36.987906755965135" lon="15.020880606203283"><ele>436.0</ele><time>2026-04-26T07:37:10Z</time></trkpt><trkpt lat="36.9879117276287" lon="15.021035822867486"><ele>435.0</ele><time>2026-04-26T07:37:11Z</time></trkpt><trkpt lat="36.98790703247749" lon="15.021179545701845"><ele>434.0</ele><time>2026-04-26T07:37:12Z</time></trkpt><trkpt lat="36.987891996387376" lon="15.021310088579828"><ele>434.0</ele><time>2026-04-26T07:37:13Z</time></trkpt><trkpt lat="36.98785792840731" lon="15.021418095141339"><ele>434.0</ele><time>2026-04-26T07:37:14Z</time></trkpt><trkpt lat="36.987810612313446" lon="15.021514660729675"><ele>434.0</ele><time>2026-04-26T07:37:15Z</time></trkpt><trkpt lat="36.987749352758854" lon="15.021588699461848"><ele>434.0</ele><time>2026-04-26T07:37:16Z</time></trkpt><trkpt lat="36.987678135196845" lon="15.021641748559537"><ele>434.0</ele><time>2026-04-26T07:37:17Z</time></trkpt><trkpt lat="36.987564843694514" lon="15.021691896117176"><ele>433.0</ele><time>2026-04-26T07:37:18Z</time></trkpt><trkpt lat="36.98742816076228" lon="15.021725017040874"><ele>432.0</ele><time>2026-04-26T07:37:19Z</time></trkpt><trkpt lat="36.987311638324" lon="15.021755166527111"><ele>431.0</ele><time>2026-04-26T07:37:20Z</time></trkpt><trkpt lat="36.98720320154724" lon="15.021782431722254"><ele>430.0</ele><time>2026-04-26T07:37:21Z</time></trkpt><trkpt lat="36.98710334820303" lon="15.021828563460206"><ele>430.0</ele><time>2026-04-26T07:37:22Z</time></trkpt><trkpt lat="36.987007664056186" lon="15.021855535607092"><ele>430.0</ele><time>2026-04-26T07:37:23Z</time></trkpt><trkpt lat="36.98691613793493" lon="15.021914547124034"><ele>430.0</ele><time>2026-04-26T07:37:24Z</time></trkpt><trkpt lat="36.98679662076999" lon="15.022005321569791"><ele>430.0</ele><time>2026-04-26T07:37:25Z</time></trkpt><trkpt lat="36.98672345341616" lon="15.022097501234523"><ele>430.0</ele><time>2026-04-26T07:37:26Z</time></trkpt><trkpt lat="36.98667225876405" lon="15.02220258265546"><ele>427.5</ele><time>2026-04-26T07:37:27Z</time></trkpt><trkpt lat="36.98666327758046" lon="15.022349475892964"><ele>425.0</ele><time>2026-04-26T07:37:28Z</time></trkpt><trkpt lat="36.986661327961244" lon="15.022511209915779"><ele>422.5</ele><time>2026-04-26T07:37:29Z</time></trkpt><trkpt lat="36.98667024447537" lon="15.02268069626007"><ele>420.0</ele><time>2026-04-26T07:37:30Z</time></trkpt><trkpt lat="36.98667584401644" lon="15.022862951026118"><ele>419.5</ele><time>2026-04-26T07:37:31Z</time></trkpt><trkpt lat="36.98670513344131" lon="15.023046600439285"><ele>419.0</ele><time>2026-04-26T07:37:32Z</time></trkpt><trkpt lat="36.98674471879551" lon="15.023212840022184"><ele>418.5</ele><time>2026-04-26T07:37:33Z</time></trkpt><trkpt lat="36.98681143806264" lon="15.023374935496243"><ele>418.0</ele><time>2026-04-26T07:37:34Z</time></trkpt><trkpt lat="36.98685271065826" lon="15.023547532131317"><ele>418.0</ele><time>2026-04-26T07:37:35Z</time></trkpt><trkpt lat="36.9869032688467" lon="15.02369076909372"><ele>418.0</ele><time>2026-04-26T07:37:36Z</time></trkpt><trkpt lat="36.98695428681919" lon="15.023809418163543"><ele>418.0</ele><time>2026-04-26T07:37:37Z</time></trkpt><trkpt lat="36.98697548776039" lon="15.023903799226602"><ele>418.0</ele><time>2026-04-26T07:37:38Z</time></trkpt><trkpt lat="36.986963607093365" lon="15.023997112729711"><ele>418.0</ele><time>2026-04-26T07:37:39Z</time></trkpt><trkpt lat="36.98693528657225" lon="15.02411373627575"><ele>416.6666666666667</ele><time>2026-04-26T07:37:40Z</time></trkpt><trkpt lat="36.98690314854448" lon="15.02421195482318"><ele>415.33333333333337</ele><time>2026-04-26T07:37:41Z</time></trkpt><trkpt lat="36.98690392630017" lon="15.024308589547523"><ele>414.0</ele><time>2026-04-26T07:37:42Z</time></trkpt><trkpt lat="36.986877760403026" lon="15.024410404923346"><ele>412.66666666666663</ele><time>2026-04-26T07:37:43Z</time></trkpt><trkpt lat="36.9868534535263" lon="15.024498038976663"><ele>411.3333333333333</ele><time>2026-04-26T07:37:45Z</time></trkpt><trkpt lat="36.986798723717826" lon="15.024636167506461"><ele>410.0</ele><time>2026-04-26T07:37:48Z</time></trkpt><trkpt lat="36.9867587870921" lon="15.024722435305533"><ele>410.0</ele><time>2026-04-26T07:37:49Z</time></trkpt><trkpt lat="36.986709204188074" lon="15.024829491545193"><ele>410.0</ele><time>2026-04-26T07:37:50Z</time></trkpt><trkpt lat="36.98667304019014" lon="15.02491998554593"><ele>410.0</ele><time>2026-04-26T07:37:51Z</time></trkpt><trkpt lat="36.986628249879026" lon="15.025059824758621"><ele>410.0</ele><time>2026-04-26T07:37:53Z</time></trkpt><trkpt lat="36.986606371018844" lon="15.025144187698121"><ele>410.0</ele><time>2026-04-26T07:37:54Z</time></trkpt><trkpt lat="36.9865817214046" lon="15.025253303333276"><ele>411.4</ele><time>2026-04-26T07:37:55Z</time></trkpt><trkpt lat="36.98655633359882" lon="15.02538424038579"><ele>412.8</ele><time>2026-04-26T07:37:56Z</time></trkpt><trkpt lat="36.98654092520353" lon="15.025517038184297"><ele>414.20000000000005</ele><time>2026-04-26T07:37:57Z</time></trkpt><trkpt lat="36.986541299670236" lon="15.025619702751277"><ele>415.6</ele><time>2026-04-26T07:37:58Z</time></trkpt><trkpt lat="36.98655820789488" lon="15.025731430609094"><ele>417.0</ele><time>2026-04-26T07:37:59Z</time></trkpt><trkpt lat="36.986604649761475" lon="15.025833292922496"><ele>417.20000000000005</ele><time>2026-04-26T07:38:00Z</time></trkpt><trkpt lat="36.98665324479913" lon="15.025945161835809"><ele>417.4</ele><time>2026-04-26T07:38:02Z</time></trkpt><trkpt lat="36.986637313971436" lon="15.026097494776193"><ele>417.6</ele><time>2026-04-26T07:38:04Z</time></trkpt><trkpt lat="36.98660997712741" lon="15.026224171538844"><ele>417.79999999999995</ele><time>2026-04-26T07:38:05Z</time></trkpt><trkpt lat="36.98657818191161" lon="15.0263163915567"><ele>418.0</ele><time>2026-04-26T07:38:06Z</time></trkpt><trkpt lat="36.9865398138475" lon="15.026409150249943"><ele>418.00000000000006</ele><time>2026-04-26T07:38:08Z</time></trkpt><trkpt lat="36.98651898277522" lon="15.026488750446191"><ele>418.0</ele><time>2026-04-26T07:38:19Z</time></trkpt><trkpt lat="36.986542602680586" lon="15.02640953414199"><ele>418.0</ele><time>2026-04-26T07:38:23Z</time></trkpt><trkpt lat="36.98659048041556" lon="15.026327411278267"><ele>418.0</ele><time>2026-04-26T07:38:25Z</time></trkpt><trkpt lat="36.98661066053139" lon="15.026244456265701"><ele>418.00000000000006</ele><time>2026-04-26T07:38:26Z</time></trkpt><trkpt lat="36.98663793010398" lon="15.026151193270687"><ele>418.0</ele><time>2026-04-26T07:38:27Z</time></trkpt><trkpt lat="36.98665520119195" lon="15.026041509229922"><ele>418.00000000000006</ele><time>2026-04-26T07:38:28Z</time></trkpt><trkpt lat="36.98666082220079" lon="15.025937332621998"><ele>418.0</ele><time>2026-04-26T07:38:29Z</time></trkpt><trkpt lat="36.986647460913424" lon="15.02584052621297"><ele>418.0</ele><time>2026-04-26T07:38:30Z</time></trkpt><trkpt lat="36.98658381269836" lon="15.025739516386178"><ele>418.0</ele><time>2026-04-26T07:38:31Z</time></trkpt><trkpt lat="36.986535146776504" lon="15.025647878819415"><ele>418.00000000000006</ele><time>2026-04-26T07:38:32Z</time></trkpt><trkpt lat="36.98654705332474" lon="15.025542334921548"><ele>418.0</ele><time>2026-04-26T07:38:33Z</time></trkpt><trkpt lat="36.98659540034784" lon="15.025367324136868"><ele>417.75</ele><time>2026-04-26T07:38:34Z</time></trkpt><trkpt lat="36.98665051915219" lon="15.025165690024139"><ele>417.5</ele><time>2026-04-26T07:38:34.999Z</time></trkpt><trkpt lat="36.986686320272874" lon="15.025029449162366"><ele>417.25</ele><time>2026-04-26T07:38:35.999Z</time></trkpt><trkpt lat="36.986721615496684" lon="15.024916402271801"><ele>417.0</ele><time>2026-04-26T07:38:36.999Z</time></trkpt><trkpt lat="36.98676159376979" lon="15.024824436863156"><ele>415.8333333333333</ele><time>2026-04-26T07:38:37.999Z</time></trkpt><trkpt lat="36.986791901564985" lon="15.024749649879233"><ele>414.66666666666663</ele><time>2026-04-26T07:38:38.999Z</time></trkpt><trkpt lat="36.98682561799267" lon="15.024636717625025"><ele>413.5</ele><time>2026-04-26T07:38:40.999Z</time></trkpt><trkpt lat="36.98685695365781" lon="15.024554645369884"><ele>412.3333333333333</ele><time>2026-04-26T07:38:43.999Z</time></trkpt><trkpt lat="36.98692846526056" lon="15.024526178462636"><ele>411.16666666666663</ele><time>2026-04-26T07:38:46.999Z</time></trkpt><trkpt lat="36.98698817284257" lon="15.024556107344347"><ele>410.0</ele><time>2026-04-26T07:38:50.999Z</time></trkpt><trkpt lat="36.98697337960253" lon="15.024673421356015"><ele>410.0</ele><time>2026-04-26T07:38:56Z</time></trkpt><trkpt lat="36.98691757760411" lon="15.024826547148745"><ele>410.0</ele><time>2026-04-26T07:38:58Z</time></trkpt><trkpt lat="36.98687937866463" lon="15.024949791075722"><ele>410.0</ele><time>2026-04-26T07:39:00Z</time></trkpt><trkpt lat="36.98688338584308" lon="15.025068345512238"><ele>410.0</ele><time>2026-04-26T07:39:02Z</time></trkpt><trkpt lat="36.986891681346314" lon="15.025153995011108"><ele>410.0</ele><time>2026-04-26T07:39:03Z</time></trkpt><trkpt lat="36.986895289673676" lon="15.025236238755978"><ele>409.4</ele><time>2026-04-26T07:39:04Z</time></trkpt><trkpt lat="36.98690675846145" lon="15.025346954934385"><ele>408.8</ele><time>2026-04-26T07:39:06Z</time></trkpt><trkpt lat="36.98694758744273" lon="15.025410645225556"><ele>408.20000000000005</ele><time>2026-04-26T07:39:09Z</time></trkpt><trkpt lat="36.98690638043231" lon="15.02527315278896"><ele>407.6</ele><time>2026-04-26T07:58:05Z</time></trkpt><trkpt lat="36.98689202746324" lon="15.025171601876542"><ele>407.0</ele><time>2026-04-26T07:58:06Z</time></trkpt><trkpt lat="36.98689193805018" lon="15.025017634868778"><ele>407.49999999999994</ele><time>2026-04-26T07:58:08Z</time></trkpt><trkpt lat="36.98688453837617" lon="15.02492765055218"><ele>408.0</ele><time>2026-04-26T07:58:09Z</time></trkpt><trkpt lat="36.98690827961896" lon="15.024846235131232"><ele>408.5</ele><time>2026-04-26T07:58:10Z</time></trkpt><trkpt lat="36.986951553085376" lon="15.024772232986487"><ele>409.0</ele><time>2026-04-26T07:58:12Z</time></trkpt><trkpt lat="36.98694869121506" lon="15.02464115578919"><ele>409.49999999999994</ele><time>2026-04-26T07:58:15Z</time></trkpt><trkpt lat="36.98693682178458" lon="15.02454988323755"><ele>410.0</ele><time>2026-04-26T07:58:17Z</time></trkpt><trkpt lat="36.98685675493949" lon="15.024538711953838"><ele>410.0</ele><time>2026-04-26T07:58:20Z</time></trkpt><trkpt lat="36.986821612652264" lon="15.024633682854875"><ele>410.0</ele><time>2026-04-26T07:58:23Z</time></trkpt><trkpt lat="36.98665787019233" lon="15.025010895608283"><ele>410.0</ele><time>2026-04-26T07:58:26Z</time></trkpt><trkpt lat="36.98659172993497" lon="15.025236777529363"><ele>411.75</ele><time>2026-04-26T07:58:27Z</time></trkpt><trkpt lat="36.98654106046488" lon="15.02544375894327"><ele>413.5</ele><time>2026-04-26T07:58:28Z</time></trkpt><trkpt lat="36.98651854851221" lon="15.02558997770025"><ele>415.25</ele><time>2026-04-26T07:58:29Z</time></trkpt><trkpt lat="36.98653157431736" lon="15.02568672624733"><ele>417.0</ele><time>2026-04-26T07:58:30Z</time></trkpt><trkpt lat="36.986575684714325" lon="15.025854606121651"><ele>417.1666666666667</ele><time>2026-04-26T07:58:32Z</time></trkpt><trkpt lat="36.98663620692617" lon="15.025941148005451"><ele>417.33333333333337</ele><time>2026-04-26T07:58:33Z</time></trkpt><trkpt lat="36.9866584730966" lon="15.026024176369372"><ele>417.5</ele><time>2026-04-26T07:58:34Z</time></trkpt><trkpt lat="36.98664445122702" lon="15.026111771361837"><ele>417.6666666666667</ele><time>2026-04-26T07:58:35Z</time></trkpt><trkpt lat="36.98660656343504" lon="15.026237598739266"><ele>417.83333333333337</ele><time>2026-04-26T07:58:36Z</time></trkpt><trkpt lat="36.986573211151004" lon="15.026336784381371"><ele>418.0</ele><time>2026-04-26T07:58:37Z</time></trkpt><trkpt lat="36.98653110925094" lon="15.02642970059986"><ele>418.0</ele><time>2026-04-26T07:58:38Z</time></trkpt><trkpt lat="36.98648502425982" lon="15.026538501077965"><ele>418.0</ele><time>2026-04-26T07:58:40Z</time></trkpt><trkpt lat="36.98657867410416" lon="15.026613187581992"><ele>418.0</ele><time>2026-04-26T07:58:43Z</time></trkpt><trkpt lat="36.98662796672078" lon="15.026705060027552"><ele>418.0</ele><time>2026-04-26T07:58:44Z</time></trkpt><trkpt lat="36.98665738134513" lon="15.026819747335436"><ele>418.0</ele><time>2026-04-26T07:58:45Z</time></trkpt><trkpt lat="36.98668513961496" lon="15.026939271700043"><ele>418.25</ele><time>2026-04-26T07:58:46Z</time></trkpt><trkpt lat="36.98669986036273" lon="15.027079133829497"><ele>418.5</ele><time>2026-04-26T07:58:47Z</time></trkpt><trkpt lat="36.98669890193002" lon="15.02722953361958"><ele>418.75</ele><time>2026-04-26T07:58:48Z</time></trkpt><trkpt lat="36.98668620291316" lon="15.027385808045237"><ele>419.0</ele><time>2026-04-26T07:58:49Z</time></trkpt><trkpt lat="36.98666555240193" lon="15.027562461976423"><ele>419.0</ele><time>2026-04-26T07:58:50Z</time></trkpt><trkpt lat="36.98665410761668" lon="15.027737888450085"><ele>419.0</ele><time>2026-04-26T07:58:51Z</time></trkpt><trkpt lat="36.9866611428617" lon="15.027866856537093"><ele>419.0</ele><time>2026-04-26T07:58:52Z</time></trkpt><trkpt lat="36.98669438375881" lon="15.027944453285523"><ele>419.0</ele><time>2026-04-26T07:58:53Z</time></trkpt><trkpt lat="36.986806238110944" lon="15.027994595684119"><ele>419.0</ele><time>2026-04-26T07:58:55Z</time></trkpt><trkpt lat="36.98692150480071" lon="15.027948017120039"><ele>417.3333333333333</ele><time>2026-04-26T07:58:56Z</time></trkpt><trkpt lat="36.98708709235427" lon="15.027873964680204"><ele>415.66666666666663</ele><time>2026-04-26T07:58:57Z</time></trkpt><trkpt lat="36.98724341724842" lon="15.027801944547763"><ele>414.0</ele><time>2026-04-26T07:58:58Z</time></trkpt><trkpt lat="36.987374558126426" lon="15.02774839140727"><ele>414.0</ele><time>2026-04-26T07:58:59Z</time></trkpt><trkpt lat="36.98749474255729" lon="15.027693527828387"><ele>414.0</ele><time>2026-04-26T07:59:00Z</time></trkpt><trkpt lat="36.98762183789053" lon="15.027627967033595"><ele>414.0</ele><time>2026-04-26T07:59:01Z</time></trkpt><trkpt lat="36.987749957950484" lon="15.027534948492175"><ele>414.0</ele><time>2026-04-26T07:59:02Z</time></trkpt><trkpt lat="36.98785728253786" lon="15.027377271616343"><ele>411.0</ele><time>2026-04-26T07:59:03Z</time></trkpt><trkpt lat="36.98793948230781" lon="15.027198398915841"><ele>408.0</ele><time>2026-04-26T07:59:04Z</time></trkpt><trkpt lat="36.98802012431309" lon="15.026960522822371"><ele>405.0</ele><time>2026-04-26T07:59:05Z</time></trkpt><trkpt lat="36.98811529428646" lon="15.026679543786875"><ele>407.0</ele><time>2026-04-26T07:59:06Z</time></trkpt><trkpt lat="36.98823497939594" lon="15.026363254440204"><ele>409.0</ele><time>2026-04-26T07:59:07Z</time></trkpt><trkpt lat="36.98836887666091" lon="15.02603920088112"><ele>414.0</ele><time>2026-04-26T07:59:08Z</time></trkpt><trkpt lat="36.98845571539025" lon="15.025758733616245"><ele>419.0</ele><time>2026-04-26T07:59:09Z</time></trkpt><trkpt lat="36.98851561730937" lon="15.025474470254215"><ele>419.0</ele><time>2026-04-26T07:59:10Z</time></trkpt><trkpt lat="36.98853656464489" lon="15.025135619830246"><ele>419.0</ele><time>2026-04-26T07:59:11Z</time></trkpt><trkpt lat="36.9885550122917" lon="15.02490800605198"><ele>418.0</ele><time>2026-04-26T07:59:12Z</time></trkpt><trkpt lat="36.98858399246236" lon="15.024716588965346"><ele>417.0</ele><time>2026-04-26T07:59:13Z</time></trkpt><trkpt lat="36.988649814507696" lon="15.024579243195385"><ele>416.0</ele><time>2026-04-26T07:59:14Z</time></trkpt><trkpt lat="36.988732291717845" lon="15.0244978055598"><ele>415.0</ele><time>2026-04-26T07:59:15Z</time></trkpt><trkpt lat="36.98882445778753" lon="15.024485565594535"><ele>415.0</ele><time>2026-04-26T07:59:16Z</time></trkpt><trkpt lat="36.98898317463811" lon="15.02441668848393"><ele>415.0</ele><time>2026-04-26T07:59:17Z</time></trkpt><trkpt lat="36.989174314341234" lon="15.02434083884404"><ele>415.0</ele><time>2026-04-26T07:59:18Z</time></trkpt><trkpt lat="36.98928929567646" lon="15.024317688103459"><ele>414.0</ele><time>2026-04-26T07:59:19Z</time></trkpt><trkpt lat="36.98935918654057" lon="15.024355600485451"><ele>413.0</ele><time>2026-04-26T07:59:20Z</time></trkpt><trkpt lat="36.98946063269301" lon="15.024387339608735"><ele>412.0</ele><time>2026-04-26T07:59:21Z</time></trkpt><trkpt lat="36.98946526873365" lon="15.024561347491108"><ele>411.0</ele><time>2026-04-26T07:59:22Z</time></trkpt><trkpt lat="36.989423150464994" lon="15.024715450270463"><ele>411.0</ele><time>2026-04-26T07:59:23Z</time></trkpt><trkpt lat="36.9893987465612" lon="15.024969193158565"><ele>411.0</ele><time>2026-04-26T07:59:24Z</time></trkpt><trkpt lat="36.98940031156134" lon="15.025205296374393"><ele>411.0</ele><time>2026-04-26T07:59:25Z</time></trkpt><trkpt lat="36.98941854176495" lon="15.025397160912657"><ele>412.66666666666663</ele><time>2026-04-26T07:59:26Z</time></trkpt><trkpt lat="36.989489152001525" lon="15.025610350983419"><ele>414.3333333333333</ele><time>2026-04-26T07:59:27Z</time></trkpt><trkpt lat="36.98959027996268" lon="15.025786320543704"><ele>416.0</ele><time>2026-04-26T07:59:28Z</time></trkpt><trkpt lat="36.98975624164839" lon="15.026008566257051"><ele>419.0</ele><time>2026-04-26T07:59:29Z</time></trkpt><trkpt lat="36.989922769069956" lon="15.026172473573684"><ele>422.0</ele><time>2026-04-26T07:59:30Z</time></trkpt><trkpt lat="36.99003496374876" lon="15.026231825367605"><ele>425.0</ele><time>2026-04-26T07:59:31Z</time></trkpt><trkpt lat="36.99016774369689" lon="15.026297166644092"><ele>425.8</ele><time>2026-04-26T07:59:32Z</time></trkpt><trkpt lat="36.99025966266373" lon="15.026339264051426"><ele>426.6</ele><time>2026-04-26T07:59:33Z</time></trkpt><trkpt lat="36.99034950273462" lon="15.026303398868633"><ele>427.4</ele><time>2026-04-26T07:59:34Z</time></trkpt><trkpt lat="36.99047045375678" lon="15.02625074728877"><ele>428.2</ele><time>2026-04-26T07:59:36Z</time></trkpt><trkpt lat="36.99054746986748" lon="15.026231365390224"><ele>429.0</ele><time>2026-04-26T07:59:37Z</time></trkpt><trkpt lat="36.99061820640266" lon="15.02621306917024"><ele>429.0</ele><time>2026-04-26T07:59:38Z</time></trkpt><trkpt lat="36.99068838321981" lon="15.026192629837476"><ele>429.0</ele><time>2026-04-26T07:59:39Z</time></trkpt><trkpt lat="36.990760726565256" lon="15.02616931270136"><ele>429.0</ele><time>2026-04-26T07:59:40Z</time></trkpt><trkpt lat="36.99084332973959" lon="15.026158577198391"><ele>429.0</ele><time>2026-04-26T07:59:41Z</time></trkpt><trkpt lat="36.99094132442691" lon="15.026131515845517"><ele>429.0</ele><time>2026-04-26T07:59:42Z</time></trkpt><trkpt lat="36.99102823062939" lon="15.026102304378568"><ele>429.0</ele><time>2026-04-26T07:59:43Z</time></trkpt><trkpt lat="36.991128237463144" lon="15.02608166219326"><ele>430.4</ele><time>2026-04-26T07:59:44Z</time></trkpt><trkpt lat="36.99122106546759" lon="15.026054859090113"><ele>431.79999999999995</ele><time>2026-04-26T07:59:45Z</time></trkpt><trkpt lat="36.99132093020831" lon="15.026024428168967"><ele>433.20000000000005</ele><time>2026-04-26T07:59:46Z</time></trkpt><trkpt lat="36.99142935639225" lon="15.025990902764025"><ele>434.6</ele><time>2026-04-26T07:59:47Z</time></trkpt><trkpt lat="36.99154627245967" lon="15.02595866301607"><ele>436.0</ele><time>2026-04-26T07:59:48Z</time></trkpt><trkpt lat="36.99167177707425" lon="15.025923498201738"><ele>436.5</ele><time>2026-04-26T07:59:49Z</time></trkpt><trkpt lat="36.991804564355874" lon="15.025884165765028"><ele>437.0</ele><time>2026-04-26T07:59:50Z</time></trkpt><trkpt lat="36.99194130439615" lon="15.025838413241566"><ele>437.5</ele><time>2026-04-26T07:59:51Z</time></trkpt><trkpt lat="36.99209097514411" lon="15.025791618302964"><ele>438.0</ele><time>2026-04-26T07:59:52Z</time></trkpt><trkpt lat="36.99228721868914" lon="15.025726889714406"><ele>438.0</ele><time>2026-04-26T07:59:53Z</time></trkpt><trkpt lat="36.99254236265708" lon="15.02565549820923"><ele>438.0</ele><time>2026-04-26T07:59:54Z</time></trkpt><trkpt lat="36.99279959812364" lon="15.02557964147435"><ele>438.0</ele><time>2026-04-26T07:59:55Z</time></trkpt><trkpt lat="36.993076334547276" lon="15.025497530805968"><ele>438.0</ele><time>2026-04-26T07:59:56Z</time></trkpt><trkpt lat="36.99337082701532" lon="15.025428559928393"><ele>439.5</ele><time>2026-04-26T07:59:57Z</time></trkpt><trkpt lat="36.993629421154154" lon="15.025352621378065"><ele>441.0</ele><time>2026-04-26T07:59:58Z</time></trkpt><trkpt lat="36.99382468214567" lon="15.025293215872656"><ele>441.0</ele><time>2026-04-26T07:59:59Z</time></trkpt><trkpt lat="36.99398725903538" lon="15.025231145110407"><ele>441.0</ele><time>2026-04-26T08:00:00Z</time></trkpt><trkpt lat="36.99413715259633" lon="15.025189575624884"><ele>441.0</ele><time>2026-04-26T08:00:01Z</time></trkpt><trkpt lat="36.99428778808317" lon="15.02514879862982"><ele>441.33333333333337</ele><time>2026-04-26T08:00:02Z</time></trkpt><trkpt lat="36.99444470288425" lon="15.025109758988663"><ele>441.6666666666667</ele><time>2026-04-26T08:00:03Z</time></trkpt><trkpt lat="36.99461048051822" lon="15.025063622336702"><ele>442.0</ele><time>2026-04-26T08:00:04Z</time></trkpt><trkpt lat="36.9947763623253" lon="15.025015176756146"><ele>442.0</ele><time>2026-04-26T08:00:05Z</time></trkpt><trkpt lat="36.994931792202955" lon="15.024958757740341"><ele>442.0</ele><time>2026-04-26T08:00:06Z</time></trkpt><trkpt lat="36.99509675101725" lon="15.024863088811879"><ele>442.0</ele><time>2026-04-26T08:00:07Z</time></trkpt><trkpt lat="36.995260301970916" lon="15.024736250368983"><ele>442.0</ele><time>2026-04-26T08:00:08Z</time></trkpt><trkpt lat="36.99540751684874" lon="15.024597436078022"><ele>442.0</ele><time>2026-04-26T08:00:09Z</time></trkpt><trkpt lat="36.99555353964479" lon="15.024455832928076"><ele>442.0</ele><time>2026-04-26T08:00:10Z</time></trkpt><trkpt lat="36.995701698717994" lon="15.024305012050862"><ele>441.6666666666667</ele><time>2026-04-26T08:00:11Z</time></trkpt><trkpt lat="36.99585851100671" lon="15.024151474056723"><ele>441.33333333333337</ele><time>2026-04-26T08:00:12Z</time></trkpt><trkpt lat="36.996016972769795" lon="15.024002443801306"><ele>441.0</ele><time>2026-04-26T08:00:13Z</time></trkpt><trkpt lat="36.9961728951757" lon="15.023856394134569"><ele>441.0</ele><time>2026-04-26T08:00:14Z</time></trkpt><trkpt lat="36.99632730851678" lon="15.023710587701897"><ele>441.0</ele><time>2026-04-26T08:00:15Z</time></trkpt><trkpt lat="36.996480557339346" lon="15.02356632990898"><ele>441.0</ele><time>2026-04-26T08:00:16Z</time></trkpt><trkpt lat="36.996635237674724" lon="15.02342165683237"><ele>441.66666666666663</ele><time>2026-04-26T08:00:17Z</time></trkpt><trkpt lat="36.99679039709351" lon="15.023274320231621"><ele>442.3333333333333</ele><time>2026-04-26T08:00:18Z</time></trkpt><trkpt lat="36.99694387786077" lon="15.02312290747787"><ele>443.0</ele><time>2026-04-26T08:00:19Z</time></trkpt><trkpt lat="36.99710043159138" lon="15.022968055706452"><ele>443.0</ele><time>2026-04-26T08:00:20Z</time></trkpt><trkpt lat="36.997262594225134" lon="15.022815971289441"><ele>443.0</ele><time>2026-04-26T08:00:21Z</time></trkpt><trkpt lat="36.99742657624582" lon="15.022664130534269"><ele>443.0</ele><time>2026-04-26T08:00:22Z</time></trkpt><trkpt lat="36.997590600181404" lon="15.022507583634592"><ele>443.0</ele><time>2026-04-26T08:00:23Z</time></trkpt><trkpt lat="36.99775477380153" lon="15.022345735143684"><ele>443.0</ele><time>2026-04-26T08:00:24Z</time></trkpt><trkpt lat="36.997926012611494" lon="15.022183716766454"><ele>443.0</ele><time>2026-04-26T08:00:25Z</time></trkpt><trkpt lat="36.998116148335214" lon="15.021999261467489"><ele>443.0</ele><time>2026-04-26T08:00:26Z</time></trkpt><trkpt lat="36.99829576128649" lon="15.021823583803425"><ele>443.0</ele><time>2026-04-26T08:00:27Z</time></trkpt><trkpt lat="36.99846305838761" lon="15.02165886292829"><ele>443.0</ele><time>2026-04-26T08:00:28Z</time></trkpt><trkpt lat="36.9986225517247" lon="15.02150471373139"><ele>443.3333333333333</ele><time>2026-04-26T08:00:29Z</time></trkpt><trkpt lat="36.99877799960956" lon="15.021352708850735"><ele>443.66666666666663</ele><time>2026-04-26T08:00:30Z</time></trkpt><trkpt lat="36.998929607335135" lon="15.021204134583291"><ele>444.0</ele><time>2026-04-26T08:00:31Z</time></trkpt><trkpt lat="36.99908352344151" lon="15.021057722140345"><ele>444.0</ele><time>2026-04-26T08:00:32Z</time></trkpt><trkpt lat="36.99924459645736" lon="15.02090197991955"><ele>444.0</ele><time>2026-04-26T08:00:33Z</time></trkpt><trkpt lat="36.999419251520266" lon="15.020727177517166"><ele>444.0</ele><time>2026-04-26T08:00:34Z</time></trkpt><trkpt lat="36.99959924519613" lon="15.020551776118156"><ele>444.0</ele><time>2026-04-26T08:00:35Z</time></trkpt><trkpt lat="36.99978726623471" lon="15.02040249040435"><ele>444.0</ele><time>2026-04-26T08:00:36Z</time></trkpt><trkpt lat="36.9999826141782" lon="15.020276079348825"><ele>444.0</ele><time>2026-04-26T08:00:37Z</time></trkpt><trkpt lat="37.0001923115909" lon="15.02018273002267"><ele>444.0</ele><time>2026-04-26T08:00:38Z</time></trkpt><trkpt lat="37.00042759825855" lon="15.020074543407587"><ele>444.0</ele><time>2026-04-26T08:00:39Z</time></trkpt><trkpt lat="37.0006908340826" lon="15.019946631038897"><ele>444.0</ele><time>2026-04-26T08:00:40Z</time></trkpt><trkpt lat="37.00092183630766" lon="15.019836584203073"><ele>444.0</ele><time>2026-04-26T08:00:41Z</time></trkpt><trkpt lat="37.00112269480866" lon="15.019736588827216"><ele>444.0</ele><time>2026-04-26T08:00:42Z</time></trkpt><trkpt lat="37.00131658079754" lon="15.019633966510389"><ele>444.0</ele><time>2026-04-26T08:00:43Z</time></trkpt><trkpt lat="37.001525230288685" lon="15.019528667292288"><ele>444.0</ele><time>2026-04-26T08:00:44Z</time></trkpt><trkpt lat="37.00175813239183" lon="15.019412188945207"><ele>444.5</ele><time>2026-04-26T08:00:45Z</time></trkpt><trkpt lat="37.0019856160197" lon="15.0192889056554"><ele>445.0</ele><time>2026-04-26T08:00:46Z</time></trkpt><trkpt lat="37.00219576210909" lon="15.019206678180693"><ele>445.33333333333337</ele><time>2026-04-26T08:00:47Z</time></trkpt><trkpt lat="37.00238411851542" lon="15.019115741345663"><ele>445.66666666666663</ele><time>2026-04-26T08:00:48Z</time></trkpt><trkpt lat="37.00256912637453" lon="15.019012158289174"><ele>446.0</ele><time>2026-04-26T08:00:49Z</time></trkpt><trkpt lat="37.00276117773296" lon="15.01891083660554"><ele>446.66666666666663</ele><time>2026-04-26T08:00:50Z</time></trkpt><trkpt lat="37.00295641539298" lon="15.018823976078197"><ele>447.33333333333337</ele><time>2026-04-26T08:00:51Z</time></trkpt><trkpt lat="37.00315102108294" lon="15.018732465678287"><ele>448.0</ele><time>2026-04-26T08:00:52Z</time></trkpt><trkpt lat="37.003349631871494" lon="15.018633260587956"><ele>448.6666666666667</ele><time>2026-04-26T08:00:53Z</time></trkpt><trkpt lat="37.00355633092257" lon="15.018529508318801"><ele>449.33333333333337</ele><time>2026-04-26T08:00:54Z</time></trkpt><trkpt lat="37.003762380565114" lon="15.018420215016063"><ele>450.0</ele><time>2026-04-26T08:00:55Z</time></trkpt><trkpt lat="37.00396657859836" lon="15.0182893922814"><ele>453.0</ele><time>2026-04-26T08:00:56Z</time></trkpt><trkpt lat="37.00419792498516" lon="15.018130816401275"><ele>456.0</ele><time>2026-04-26T08:00:57Z</time></trkpt><trkpt lat="37.00442264198759" lon="15.017977352757988"><ele>456.0</ele><time>2026-04-26T08:00:58Z</time></trkpt><trkpt lat="37.00462316020393" lon="15.01784687033712"><ele>456.0</ele><time>2026-04-26T08:00:59Z</time></trkpt><trkpt lat="37.00480670351453" lon="15.017728445465963"><ele>456.0</ele><time>2026-04-26T08:01:00Z</time></trkpt><trkpt lat="37.00499245614367" lon="15.01761045414191"><ele>455.33333333333337</ele><time>2026-04-26T08:01:01Z</time></trkpt><trkpt lat="37.00517671312683" lon="15.017480471056654"><ele>454.6666666666667</ele><time>2026-04-26T08:01:02Z</time></trkpt><trkpt lat="37.005358561431926" lon="15.01731309704466"><ele>454.0</ele><time>2026-04-26T08:01:03Z</time></trkpt><trkpt lat="37.00554799392424" lon="15.017106362216072"><ele>454.0</ele><time>2026-04-26T08:01:04Z</time></trkpt><trkpt lat="37.0057349189209" lon="15.016885639674358"><ele>454.0</ele><time>2026-04-26T08:01:05Z</time></trkpt><trkpt lat="37.005904000760324" lon="15.016708636519468"><ele>453.6666666666667</ele><time>2026-04-26T08:01:06Z</time></trkpt><trkpt lat="37.00605856451934" lon="15.016550890377077"><ele>453.33333333333337</ele><time>2026-04-26T08:01:07Z</time></trkpt><trkpt lat="37.00620682704773" lon="15.016396416498155"><ele>453.0</ele><time>2026-04-26T08:01:08Z</time></trkpt><trkpt lat="37.00635747163493" lon="15.016233166949794"><ele>453.0</ele><time>2026-04-26T08:01:09Z</time></trkpt><trkpt lat="37.00651103340061" lon="15.016070195662799"><ele>453.0</ele><time>2026-04-26T08:01:10Z</time></trkpt><trkpt lat="37.00666371043427" lon="15.015914165935058"><ele>453.0</ele><time>2026-04-26T08:01:11Z</time></trkpt><trkpt lat="37.006808184112074" lon="15.015768972451452"><ele>453.66666666666663</ele><time>2026-04-26T08:01:12Z</time></trkpt><trkpt lat="37.006950722159004" lon="15.01562612844136"><ele>454.3333333333333</ele><time>2026-04-26T08:01:13Z</time></trkpt><trkpt lat="37.00710025588142" lon="15.015485347677254"><ele>455.0</ele><time>2026-04-26T08:01:14Z</time></trkpt><trkpt lat="37.00726980889904" lon="15.015355873620408"><ele>455.0</ele><time>2026-04-26T08:01:15Z</time></trkpt><trkpt lat="37.00746664507631" lon="15.015239626094166"><ele>455.0</ele><time>2026-04-26T08:01:16Z</time></trkpt><trkpt lat="37.00767154744526" lon="15.015117181664781"><ele>455.0</ele><time>2026-04-26T08:01:17Z</time></trkpt><trkpt lat="37.00785577188149" lon="15.01499312601193"><ele>455.0</ele><time>2026-04-26T08:01:18Z</time></trkpt><trkpt lat="37.00803310241379" lon="15.01487002567212"><ele>455.0</ele><time>2026-04-26T08:01:19Z</time></trkpt><trkpt lat="37.008206485660665" lon="15.014745750200548"><ele>455.0</ele><time>2026-04-26T08:01:20Z</time></trkpt><trkpt lat="37.008371478763536" lon="15.014607907873476"><ele>455.3333333333333</ele><time>2026-04-26T08:01:21Z</time></trkpt><trkpt lat="37.00851737991333" lon="15.014454715870443"><ele>455.66666666666663</ele><time>2026-04-26T08:01:22Z</time></trkpt><trkpt lat="37.00864515574107" lon="15.014282928646425"><ele>456.0</ele><time>2026-04-26T08:01:23Z</time></trkpt><trkpt lat="37.00875874261762" lon="15.01408988995497"><ele>455.0</ele><time>2026-04-26T08:01:24Z</time></trkpt><trkpt lat="37.00886534694536" lon="15.013890975394418"><ele>454.0</ele><time>2026-04-26T08:01:25Z</time></trkpt><trkpt lat="37.008974467355245" lon="15.013704649921777"><ele>453.0</ele><time>2026-04-26T08:01:26Z</time></trkpt><trkpt lat="37.00908903900765" lon="15.013523706011473"><ele>454.66666666666663</ele><time>2026-04-26T08:01:27Z</time></trkpt><trkpt lat="37.00921049515003" lon="15.013347435326505"><ele>456.3333333333333</ele><time>2026-04-26T08:01:28Z</time></trkpt><trkpt lat="37.00933806752692" lon="15.013171413995"><ele>458.0</ele><time>2026-04-26T08:01:29Z</time></trkpt><trkpt lat="37.00946990973219" lon="15.012993313372093"><ele>458.0</ele><time>2026-04-26T08:01:30Z</time></trkpt><trkpt lat="37.00961929068174" lon="15.012846563243492"><ele>458.0</ele><time>2026-04-26T08:01:31Z</time></trkpt><trkpt lat="37.009781440839184" lon="15.012760478719962"><ele>458.0</ele><time>2026-04-26T08:01:32Z</time></trkpt><trkpt lat="37.009907487892775" lon="15.0127443047173"><ele>459.3333333333333</ele><time>2026-04-26T08:01:33Z</time></trkpt><trkpt lat="37.01002563925758" lon="15.012772482088971"><ele>460.66666666666663</ele><time>2026-04-26T08:01:34Z</time></trkpt><trkpt lat="37.01018592901002" lon="15.01286099775667"><ele>462.0</ele><time>2026-04-26T08:01:35Z</time></trkpt><trkpt lat="37.010382982583245" lon="15.012952709395446"><ele>462.0</ele><time>2026-04-26T08:01:36Z</time></trkpt><trkpt lat="37.01057536182143" lon="15.013021551967743"><ele>462.0</ele><time>2026-04-26T08:01:37Z</time></trkpt><trkpt lat="37.010750393653645" lon="15.013084703590813"><ele>462.0</ele><time>2026-04-26T08:01:38Z</time></trkpt><trkpt lat="37.0109357949832" lon="15.013163113527332"><ele>461.33333333333337</ele><time>2026-04-26T08:01:39Z</time></trkpt><trkpt lat="37.01111737550023" lon="15.013243480429807"><ele>460.6666666666667</ele><time>2026-04-26T08:01:40Z</time></trkpt><trkpt lat="37.01130181107328" lon="15.013321602905487"><ele>460.0</ele><time>2026-04-26T08:01:41Z</time></trkpt><trkpt lat="37.01149738249546" lon="15.01339323761111"><ele>459.33333333333337</ele><time>2026-04-26T08:01:42Z</time></trkpt><trkpt lat="37.011698925623605" lon="15.01346390555255"><ele>458.66666666666663</ele><time>2026-04-26T08:01:43Z</time></trkpt><trkpt lat="37.01190587572126" lon="15.013521480237886"><ele>458.0</ele><time>2026-04-26T08:01:44Z</time></trkpt><trkpt lat="37.012119066043965" lon="15.013563933238325"><ele>458.0</ele><time>2026-04-26T08:01:45Z</time></trkpt><trkpt lat="37.01233787783048" lon="15.0135922746658"><ele>458.0</ele><time>2026-04-26T08:01:46Z</time></trkpt><trkpt lat="37.012553411187454" lon="15.013620491325385"><ele>458.0</ele><time>2026-04-26T08:01:47Z</time></trkpt><trkpt lat="37.012770568520764" lon="15.013639269565553"><ele>456.0</ele><time>2026-04-26T08:01:48Z</time></trkpt><trkpt lat="37.012991911944944" lon="15.013654396760995"><ele>454.0</ele><time>2026-04-26T08:01:49Z</time></trkpt><trkpt lat="37.01322506798247" lon="15.01367192756539"><ele>452.5</ele><time>2026-04-26T08:01:50Z</time></trkpt><trkpt lat="37.01347412037126" lon="15.013693026179377"><ele>451.0</ele><time>2026-04-26T08:01:51Z</time></trkpt><trkpt lat="37.01369402198146" lon="15.013713159554277"><ele>451.0</ele><time>2026-04-26T08:01:52Z</time></trkpt><trkpt lat="37.01390353236108" lon="15.013730229463253"><ele>451.0</ele><time>2026-04-26T08:01:53Z</time></trkpt><trkpt lat="37.014112472881365" lon="15.013747834792937"><ele>451.0</ele><time>2026-04-26T08:01:54Z</time></trkpt><trkpt lat="37.01432265026053" lon="15.013764482371437"><ele>451.33333333333337</ele><time>2026-04-26T08:01:55Z</time></trkpt><trkpt lat="37.01453835126161" lon="15.013778733032717"><ele>451.66666666666663</ele><time>2026-04-26T08:01:56Z</time></trkpt><trkpt lat="37.01475574177998" lon="15.01378796358987"><ele>452.0</ele><time>2026-04-26T08:01:57Z</time></trkpt><trkpt lat="37.01497401700383" lon="15.013791540792058"><ele>452.66666666666663</ele><time>2026-04-26T08:01:58Z</time></trkpt><trkpt lat="37.015189573814816" lon="15.013786674170392"><ele>453.33333333333337</ele><time>2026-04-26T08:01:59Z</time></trkpt><trkpt lat="37.01540498935083" lon="15.01377165248276"><ele>454.0</ele><time>2026-04-26T08:02:00Z</time></trkpt><trkpt lat="37.015614223344436" lon="15.013745829420204"><ele>454.33333333333337</ele><time>2026-04-26T08:02:01Z</time></trkpt><trkpt lat="37.015823695066175" lon="15.013700510112544"><ele>454.66666666666663</ele><time>2026-04-26T08:02:02Z</time></trkpt><trkpt lat="37.016026948616584" lon="15.013642993984453"><ele>455.0</ele><time>2026-04-26T08:02:03Z</time></trkpt><trkpt lat="37.016222265878035" lon="15.013570758364844"><ele>455.0</ele><time>2026-04-26T08:02:04Z</time></trkpt><trkpt lat="37.016412258016686" lon="15.013489091167454"><ele>455.0</ele><time>2026-04-26T08:02:05Z</time></trkpt><trkpt lat="37.01659380308456" lon="15.013392518171354"><ele>455.0</ele><time>2026-04-26T08:02:06Z</time></trkpt><trkpt lat="37.016780317512385" lon="15.013280834484574"><ele>455.0</ele><time>2026-04-26T08:02:07Z</time></trkpt><trkpt lat="37.016968629841394" lon="15.01314937570814"><ele>455.0</ele><time>2026-04-26T08:02:08Z</time></trkpt><trkpt lat="37.01715632374225" lon="15.013007375425806"><ele>455.0</ele><time>2026-04-26T08:02:09Z</time></trkpt><trkpt lat="37.01732672320985" lon="15.012865465351933"><ele>455.0</ele><time>2026-04-26T08:02:10Z</time></trkpt><trkpt lat="37.01748984314836" lon="15.012719485945219"><ele>455.0</ele><time>2026-04-26T08:02:11Z</time></trkpt><trkpt lat="37.017637863971665" lon="15.012576665679866"><ele>455.0</ele><time>2026-04-26T08:02:12Z</time></trkpt><trkpt lat="37.01777190916042" lon="15.012444084467173"><ele>454.75</ele><time>2026-04-26T08:02:13Z</time></trkpt><trkpt lat="37.0178978139622" lon="15.012319485341141"><ele>454.5</ele><time>2026-04-26T08:02:14Z</time></trkpt><trkpt lat="37.018012365406584" lon="15.012204958320366"><ele>454.25</ele><time>2026-04-26T08:02:15Z</time></trkpt><trkpt lat="37.018115534816104" lon="15.012100098092743"><ele>454.0</ele><time>2026-04-26T08:02:16Z</time></trkpt><trkpt lat="37.018203640186165" lon="15.01200712273268"><ele>454.00000000000006</ele><time>2026-04-26T08:02:17Z</time></trkpt><trkpt lat="37.01827475840377" lon="15.011930414433042"><ele>454.0</ele><time>2026-04-26T08:02:18Z</time></trkpt><trkpt lat="37.0183172565506" lon="15.011871536511187"><ele>454.0</ele><time>2026-04-26T08:02:19Z</time></trkpt><trkpt lat="37.01828890262348" lon="15.011758039636636"><ele>454.0</ele><time>2026-04-26T08:02:21Z</time></trkpt><trkpt lat="37.01823566614725" lon="15.011710049371427"><ele>454.00000000000006</ele><time>2026-04-26T08:02:22Z</time></trkpt><trkpt lat="37.018183750218235" lon="15.011635078809464"><ele>454.0</ele><time>2026-04-26T08:02:23Z</time></trkpt><trkpt lat="37.01812496510839" lon="15.011549831139952"><ele>453.6</ele><time>2026-04-26T08:02:24Z</time></trkpt><trkpt lat="37.01807440753079" lon="15.011465642254501"><ele>453.2</ele><time>2026-04-26T08:02:25Z</time></trkpt><trkpt lat="37.01796528567423" lon="15.011379248366108"><ele>452.80000000000007</ele><time>2026-04-26T08:02:27Z</time></trkpt><trkpt lat="37.017902335626665" lon="15.011364052140657"><ele>452.40000000000003</ele><time>2026-04-26T08:02:28Z</time></trkpt><trkpt lat="37.01780205948229" lon="15.0113465695402"><ele>452.0</ele><time>2026-04-26T08:02:30Z</time></trkpt><trkpt lat="37.0177466717285" lon="15.011239079689084"><ele>452.0</ele><time>2026-04-26T08:02:32Z</time></trkpt><trkpt lat="37.01772220933835" lon="15.011155849831473"><ele>452.00000000000006</ele><time>2026-04-26T08:02:33Z</time></trkpt><trkpt lat="37.017712281035934" lon="15.011042232886279"><ele>452.00000000000006</ele><time>2026-04-26T08:02:34Z</time></trkpt><trkpt lat="37.01769958593377" lon="15.010892999350851"><ele>452.0</ele><time>2026-04-26T08:02:35Z</time></trkpt><trkpt lat="37.01766902370405" lon="15.010758143410914"><ele>452.0</ele><time>2026-04-26T08:02:36Z</time></trkpt><trkpt lat="37.01764969831762" lon="15.010637992211285"><ele>451.8333333333333</ele><time>2026-04-26T08:02:37Z</time></trkpt><trkpt lat="37.017644469047795" lon="15.010539507497013"><ele>451.66666666666663</ele><time>2026-04-26T08:02:38Z</time></trkpt><trkpt lat="37.017644778054766" lon="15.010457108359821"><ele>451.5</ele><time>2026-04-26T08:02:39Z</time></trkpt><trkpt lat="37.01763811314135" lon="15.01036357750407"><ele>451.33333333333337</ele><time>2026-04-26T08:02:40Z</time></trkpt><trkpt lat="37.017601559855976" lon="15.01026447359814"><ele>451.1666666666667</ele><time>2026-04-26T08:02:41Z</time></trkpt><trkpt lat="37.01754806824337" lon="15.010173751304636"><ele>451.0</ele><time>2026-04-26T08:02:42Z</time></trkpt><trkpt lat="37.01749155774257" lon="15.010083349567143"><ele>451.00000000000006</ele><time>2026-04-26T08:02:43Z</time></trkpt><trkpt lat="37.01744560880549" lon="15.010019521435863"><ele>451.0</ele><time>2026-04-26T08:02:44Z</time></trkpt><trkpt lat="37.017397284857346" lon="15.009949768142176"><ele>451.0</ele><time>2026-04-26T08:02:45Z</time></trkpt><trkpt lat="37.01735562171169" lon="15.00985937529056"><ele>451.0</ele><time>2026-04-26T08:02:46Z</time></trkpt><trkpt lat="37.017304431473185" lon="15.009761390915287"><ele>451.00000000000006</ele><time>2026-04-26T08:02:47Z</time></trkpt><trkpt lat="37.01726186929852" lon="15.009667544466042"><ele>451.0</ele><time>2026-04-26T08:02:48Z</time></trkpt><trkpt lat="37.01719358734494" lon="15.009541907921966"><ele>450.4</ele><time>2026-04-26T08:02:50Z</time></trkpt><trkpt lat="37.01716350856124" lon="15.009466178547903"><ele>449.8</ele><time>2026-04-26T08:02:51Z</time></trkpt><trkpt lat="37.017120135334515" lon="15.00933042450093"><ele>449.19999999999993</ele><time>2026-04-26T08:02:53Z</time></trkpt><trkpt lat="37.01705198625809" lon="15.00923818494228"><ele>448.59999999999997</ele><time>2026-04-26T08:02:55Z</time></trkpt><trkpt lat="37.01696433086489" lon="15.00921215247796"><ele>448.0</ele><time>2026-04-26T08:02:57Z</time></trkpt><trkpt lat="37.01687124198875" lon="15.009161815037768"><ele>447.79999999999995</ele><time>2026-04-26T08:02:59Z</time></trkpt><trkpt lat="37.016779002556454" lon="15.009119820521251"><ele>447.59999999999997</ele><time>2026-04-26T08:03:01Z</time></trkpt><trkpt lat="37.016701154943135" lon="15.009103269596574"><ele>447.40000000000003</ele><time>2026-04-26T08:03:03Z</time></trkpt><trkpt lat="37.01660537898747" lon="15.009273030637196"><ele>447.20000000000005</ele><time>2026-04-26T08:03:05Z</time></trkpt><trkpt lat="37.01656575046056" lon="15.009339843727153"><ele>447.0</ele><time>2026-04-26T08:03:09Z</time></trkpt><trkpt lat="37.016496606953105" lon="15.009411333970471"><ele>447.0</ele><time>2026-04-26T08:03:13Z</time></trkpt><trkpt lat="37.01638237525178" lon="15.009507915814769"><ele>447.0</ele><time>2026-04-26T08:03:15Z</time></trkpt><trkpt lat="37.01641441212877" lon="15.009315976788258"><ele>447.0</ele><time>2026-04-26T08:03:16Z</time></trkpt><trkpt lat="37.016457292137595" lon="15.009203753196097"><ele>447.0</ele><time>2026-04-26T08:03:31Z</time></trkpt><trkpt lat="37.016491969742184" lon="15.009129095304573"><ele>447.4285714285714</ele><time>2026-04-26T08:03:33Z</time></trkpt><trkpt lat="37.0165165022548" lon="15.00905107449579"><ele>447.8571428571429</ele><time>2026-04-26T08:03:35Z</time></trkpt><trkpt lat="37.016472042315314" lon="15.008983341109879"><ele>448.28571428571433</ele><time>2026-04-26T08:03:37Z</time></trkpt><trkpt lat="37.01638637099919" lon="15.008963824709152"><ele>448.7142857142857</ele><time>2026-04-26T08:03:39Z</time></trkpt><trkpt lat="37.0163217549842" lon="15.009005058577243"><ele>449.14285714285717</ele><time>2026-04-26T08:03:40Z</time></trkpt><trkpt lat="37.01625714231239" lon="15.009030974836966"><ele>449.5714285714286</ele><time>2026-04-26T08:03:42Z</time></trkpt><trkpt lat="37.01618685520154" lon="15.009021389331668"><ele>450.00000000000006</ele><time>2026-04-26T08:03:44Z</time></trkpt><trkpt lat="37.0161035341125" lon="15.008997811229102"><ele>450.0</ele><time>2026-04-26T08:03:46Z</time></trkpt><trkpt lat="37.016046378693" lon="15.008942014215023"><ele>450.0</ele><time>2026-04-26T08:03:48Z</time></trkpt><trkpt lat="37.01598179117036" lon="15.008839980798415"><ele>450.0</ele><time>2026-04-26T08:03:50Z</time></trkpt><trkpt lat="37.015955912114116" lon="15.008699499458183"><ele>450.0</ele><time>2026-04-26T08:03:52Z</time></trkpt><trkpt lat="37.015950892339404" lon="15.008561803601559"><ele>450.0</ele><time>2026-04-26T08:03:54Z</time></trkpt><trkpt lat="37.01595639545749" lon="15.008479787482743"><ele>450.0</ele><time>2026-04-26T08:03:55Z</time></trkpt><trkpt lat="37.01596665300821" lon="15.008376042847214"><ele>450.0</ele><time>2026-04-26T08:03:56Z</time></trkpt><trkpt lat="37.01597762047306" lon="15.00827421670332"><ele>450.0</ele><time>2026-04-26T08:03:57Z</time></trkpt><trkpt lat="37.01599003100146" lon="15.008158992619855"><ele>450.0</ele><time>2026-04-26T08:03:58Z</time></trkpt><trkpt lat="37.01598949407792" lon="15.008009953273891"><ele>450.0</ele><time>2026-04-26T08:03:59Z</time></trkpt><trkpt lat="37.016017058055645" lon="15.00785851849658"><ele>450.4</ele><time>2026-04-26T08:04:00Z</time></trkpt><trkpt lat="37.01602161212939" lon="15.00773052988677"><ele>450.8</ele><time>2026-04-26T08:04:01Z</time></trkpt><trkpt lat="37.016026580685605" lon="15.007626008410062"><ele>451.20000000000005</ele><time>2026-04-26T08:04:02Z</time></trkpt><trkpt lat="37.01603022141089" lon="15.007537861240888"><ele>451.6</ele><time>2026-04-26T08:04:03Z</time></trkpt><trkpt lat="37.01599126053925" lon="15.007417643368594"><ele>452.0</ele><time>2026-04-26T08:04:05Z</time></trkpt><trkpt lat="37.01590903477564" lon="15.007367163120676"><ele>451.99999999999994</ele><time>2026-04-26T08:04:07Z</time></trkpt><trkpt lat="37.015831537146646" lon="15.007325492730287"><ele>452.0</ele><time>2026-04-26T08:04:09Z</time></trkpt><trkpt lat="37.01575660987041" lon="15.007226968032548"><ele>452.0</ele><time>2026-04-26T08:04:11Z</time></trkpt><trkpt lat="37.01573794182344" lon="15.007150623645298"><ele>452.0</ele><time>2026-04-26T08:04:12Z</time></trkpt><trkpt lat="37.015694934213926" lon="15.007032829524224"><ele>451.99999999999994</ele><time>2026-04-26T08:04:14Z</time></trkpt><trkpt lat="37.015661450684526" lon="15.006930122332358"><ele>452.0</ele><time>2026-04-26T08:04:15Z</time></trkpt><trkpt lat="37.0156335424766" lon="15.006837743783086"><ele>452.0</ele><time>2026-04-26T08:04:16Z</time></trkpt><trkpt lat="37.015606491468645" lon="15.006748202629419"><ele>452.00000000000006</ele><time>2026-04-26T08:04:17Z</time></trkpt><trkpt lat="37.01557656289277" lon="15.00664913644766"><ele>452.00000000000006</ele><time>2026-04-26T08:04:18Z</time></trkpt><trkpt lat="37.015545713210905" lon="15.006528910632282"><ele>452.0</ele><time>2026-04-26T08:04:19Z</time></trkpt><trkpt lat="37.01553456788299" lon="15.006392859600702"><ele>452.0</ele><time>2026-04-26T08:04:20Z</time></trkpt><trkpt lat="37.015513974470366" lon="15.006246605993903"><ele>451.8333333333333</ele><time>2026-04-26T08:04:21Z</time></trkpt><trkpt lat="37.01552791949534" lon="15.006128090120185"><ele>451.66666666666663</ele><time>2026-04-26T08:04:22Z</time></trkpt><trkpt lat="37.01552420401005" lon="15.006014833707965"><ele>451.5</ele><time>2026-04-26T08:04:23Z</time></trkpt><trkpt lat="37.015515159624975" lon="15.005910436343688"><ele>451.33333333333337</ele><time>2026-04-26T08:04:24Z</time></trkpt><trkpt lat="37.0154957161267" lon="15.00581992242657"><ele>451.1666666666667</ele><time>2026-04-26T08:04:25Z</time></trkpt><trkpt lat="37.01547861405646" lon="15.00571001487265"><ele>451.0</ele><time>2026-04-26T08:04:26Z</time></trkpt><trkpt lat="37.01546799635021" lon="15.005596654139435"><ele>451.4</ele><time>2026-04-26T08:04:27Z</time></trkpt><trkpt lat="37.01545383099895" lon="15.005502714569186"><ele>451.8</ele><time>2026-04-26T08:04:28Z</time></trkpt><trkpt lat="37.01542768936284" lon="15.005401590583888"><ele>452.19999999999993</ele><time>2026-04-26T08:04:30Z</time></trkpt><trkpt lat="37.015323502374066" lon="15.005284933037148"><ele>452.59999999999997</ele><time>2026-04-26T08:04:32Z</time></trkpt><trkpt lat="37.01523410752228" lon="15.005199527605518"><ele>453.0</ele><time>2026-04-26T08:04:33Z</time></trkpt><trkpt lat="37.01515023440301" lon="15.00513850279146"><ele>453.0</ele><time>2026-04-26T08:04:34Z</time></trkpt><trkpt lat="37.01507350004124" lon="15.005047286943645"><ele>452.99999999999994</ele><time>2026-04-26T08:04:36Z</time></trkpt><trkpt lat="37.0150175122494" lon="15.00499835156887"><ele>452.99999999999994</ele><time>2026-04-26T08:04:37Z</time></trkpt><trkpt lat="37.01494345854262" lon="15.004925427477367"><ele>453.0</ele><time>2026-04-26T08:04:38Z</time></trkpt><trkpt lat="37.01484918313699" lon="15.00481822938439"><ele>453.0</ele><time>2026-04-26T08:04:39Z</time></trkpt><trkpt lat="37.01478652140014" lon="15.00473482746575"><ele>453.0</ele><time>2026-04-26T08:04:40Z</time></trkpt><trkpt lat="37.014744892324856" lon="15.004669147687457"><ele>453.0</ele><time>2026-04-26T08:04:41Z</time></trkpt><trkpt lat="37.01471115767754" lon="15.004594431946899"><ele>453.0</ele><time>2026-04-26T08:04:42Z</time></trkpt><trkpt lat="37.01468062839261" lon="15.004500774148926"><ele>453.0</ele><time>2026-04-26T08:04:43Z</time></trkpt><trkpt lat="37.01465654047903" lon="15.004426156752377"><ele>453.0</ele><time>2026-04-26T08:04:44Z</time></trkpt><trkpt lat="37.01461590770191" lon="15.004294302454767"><ele>453.0</ele><time>2026-04-26T08:04:46Z</time></trkpt><trkpt lat="37.01456834026562" lon="15.004162348258367"><ele>452.75</ele><time>2026-04-26T08:04:47Z</time></trkpt><trkpt lat="37.014534504678835" lon="15.004026954073359"><ele>452.5</ele><time>2026-04-26T08:04:48Z</time></trkpt><trkpt lat="37.01450533331462" lon="15.003897080675525"><ele>452.25</ele><time>2026-04-26T08:04:49Z</time></trkpt><trkpt lat="37.01448143154596" lon="15.00376325521707"><ele>452.0</ele><time>2026-04-26T08:04:50Z</time></trkpt><trkpt lat="37.0144574714181" lon="15.003606002024904"><ele>452.0</ele><time>2026-04-26T08:04:51Z</time></trkpt><trkpt lat="37.01442470180511" lon="15.003444446096289"><ele>452.00000000000006</ele><time>2026-04-26T08:04:52Z</time></trkpt><trkpt lat="37.014391274122374" lon="15.003311164772823"><ele>452.00000000000006</ele><time>2026-04-26T08:04:53Z</time></trkpt><trkpt lat="37.01436341940838" lon="15.003199928109792"><ele>452.0</ele><time>2026-04-26T08:04:54Z</time></trkpt><trkpt lat="37.01434362860528" lon="15.003102277051875"><ele>452.0</ele><time>2026-04-26T08:04:55Z</time></trkpt><trkpt lat="37.01431875196103" lon="15.002996893016931"><ele>451.6</ele><time>2026-04-26T08:04:56Z</time></trkpt><trkpt lat="37.01428694125665" lon="15.002878777277246"><ele>451.20000000000005</ele><time>2026-04-26T08:04:57Z</time></trkpt><trkpt lat="37.01424470105163" lon="15.002761180091728"><ele>450.8</ele><time>2026-04-26T08:04:58Z</time></trkpt><trkpt lat="37.01420958923308" lon="15.002638561841152"><ele>450.4</ele><time>2026-04-26T08:04:59Z</time></trkpt><trkpt lat="37.01417141460377" lon="15.00250500628903"><ele>450.0</ele><time>2026-04-26T08:05:00Z</time></trkpt><trkpt lat="37.01414220312661" lon="15.00238409583677"><ele>449.6666666666667</ele><time>2026-04-26T08:05:01Z</time></trkpt><trkpt lat="37.01411505028895" lon="15.002272525258787"><ele>449.33333333333337</ele><time>2026-04-26T08:05:02Z</time></trkpt><trkpt lat="37.014086532538684" lon="15.002171584185081"><ele>449.0</ele><time>2026-04-26T08:05:03Z</time></trkpt><trkpt lat="37.01405067038636" lon="15.002096569718503"><ele>448.6666666666667</ele><time>2026-04-26T08:05:05Z</time></trkpt><trkpt lat="37.01403255154978" lon="15.002014947445254"><ele>448.33333333333337</ele><time>2026-04-26T08:05:07Z</time></trkpt><trkpt lat="37.01401987401328" lon="15.001873604579693"><ele>448.0</ele><time>2026-04-26T08:05:09Z</time></trkpt><trkpt lat="37.014038355354224" lon="15.001725427476089"><ele>447.79999999999995</ele><time>2026-04-26T08:05:11Z</time></trkpt><trkpt lat="37.01404789556858" lon="15.001642657873086"><ele>447.59999999999997</ele><time>2026-04-26T08:05:12Z</time></trkpt><trkpt lat="37.014066607653554" lon="15.001549431928776"><ele>447.40000000000003</ele><time>2026-04-26T08:05:13Z</time></trkpt><trkpt lat="37.014088522140334" lon="15.001446686149889"><ele>447.20000000000005</ele><time>2026-04-26T08:05:14Z</time></trkpt><trkpt lat="37.01409893526646" lon="15.001306933963324"><ele>447.0</ele><time>2026-04-26T08:05:15Z</time></trkpt><trkpt lat="37.01411948190437" lon="15.001170705103714"><ele>447.0</ele><time>2026-04-26T08:05:16Z</time></trkpt><trkpt lat="37.014141651963925" lon="15.001051452990069"><ele>447.00000000000006</ele><time>2026-04-26T08:05:17Z</time></trkpt><trkpt lat="37.01416020632375" lon="15.000947115127628"><ele>447.00000000000006</ele><time>2026-04-26T08:05:18Z</time></trkpt><trkpt lat="37.014171168467946" lon="15.000845377420807"><ele>447.0</ele><time>2026-04-26T08:05:19Z</time></trkpt><trkpt lat="37.014182501252094" lon="15.000725258162309"><ele>447.0</ele><time>2026-04-26T08:05:20Z</time></trkpt><trkpt lat="37.01419779526409" lon="15.000609603905492"><ele>447.40000000000003</ele><time>2026-04-26T08:05:21Z</time></trkpt><trkpt lat="37.01419663176971" lon="15.000492338779726"><ele>447.80000000000007</ele><time>2026-04-26T08:05:22Z</time></trkpt><trkpt lat="37.01417649594728" lon="15.000402003348746"><ele>448.2</ele><time>2026-04-26T08:05:23Z</time></trkpt><trkpt lat="37.01409389974333" lon="15.00030792803436"><ele>448.6</ele><time>2026-04-26T08:05:25Z</time></trkpt><trkpt lat="37.01401143727614" lon="15.000286902007229"><ele>449.0</ele><time>2026-04-26T08:05:26Z</time></trkpt><trkpt lat="37.01392374389991" lon="15.000242627977618"><ele>449.0</ele><time>2026-04-26T08:05:27Z</time></trkpt><trkpt lat="37.0138141000932" lon="15.00019581024633"><ele>449.0</ele><time>2026-04-26T08:05:28Z</time></trkpt><trkpt lat="37.01370882050356" lon="15.000140952058311"><ele>449.0</ele><time>2026-04-26T08:05:29Z</time></trkpt><trkpt lat="37.013645426097646" lon="15.000092977004675"><ele>449.0</ele><time>2026-04-26T08:05:30Z</time></trkpt><trkpt lat="37.01359248347287" lon="15.000031819225391"><ele>449.0</ele><time>2026-04-26T08:05:31Z</time></trkpt><trkpt lat="37.01353058442267" lon="14.999914259786813"><ele>449.0</ele><time>2026-04-26T08:05:32Z</time></trkpt><trkpt lat="37.013438121123876" lon="14.999754648612278"><ele>449.0</ele><time>2026-04-26T08:05:34Z</time></trkpt><trkpt lat="37.01337721150897" lon="14.999632736489131"><ele>449.0</ele><time>2026-04-26T08:05:35Z</time></trkpt><trkpt lat="37.013326278175285" lon="14.99952285756093"><ele>449.0</ele><time>2026-04-26T08:05:36Z</time></trkpt><trkpt lat="37.01331262458145" lon="14.999440176345557"><ele>449.0</ele><time>2026-04-26T08:05:37Z</time></trkpt><trkpt lat="37.013284750631556" lon="14.999296882578854"><ele>449.75</ele><time>2026-04-26T08:05:38Z</time></trkpt><trkpt lat="37.013268106023396" lon="14.999128534978201"><ele>450.5</ele><time>2026-04-26T08:05:39Z</time></trkpt><trkpt lat="37.01325224465114" lon="14.998968441853805"><ele>451.25</ele><time>2026-04-26T08:05:40Z</time></trkpt><trkpt lat="37.01323923073393" lon="14.998799405689052"><ele>452.0</ele><time>2026-04-26T08:05:41Z</time></trkpt><trkpt lat="37.01322773122674" lon="14.998619710091102"><ele>452.0</ele><time>2026-04-26T08:05:42Z</time></trkpt><trkpt lat="37.01321573777365" lon="14.998440348666906"><ele>452.0</ele><time>2026-04-26T08:05:43Z</time></trkpt><trkpt lat="37.01317568419515" lon="14.998326193954401"><ele>452.0</ele><time>2026-04-26T08:05:44Z</time></trkpt><trkpt lat="37.013174449540784" lon="14.998246113926397"><ele>452.0</ele><time>2026-04-26T08:05:46Z</time></trkpt><trkpt lat="37.01330493003106" lon="14.998145953636325"><ele>452.3333333333333</ele><time>2026-04-26T08:05:47Z</time></trkpt><trkpt lat="37.01335774580539" lon="14.99799181989335"><ele>452.66666666666663</ele><time>2026-04-26T08:05:48Z</time></trkpt><trkpt lat="37.01342285371667" lon="14.997790543429506"><ele>453.0</ele><time>2026-04-26T08:05:49Z</time></trkpt><trkpt lat="37.01349348449786" lon="14.997546460263257"><ele>453.25</ele><time>2026-04-26T08:05:50Z</time></trkpt><trkpt lat="37.013547546755134" lon="14.997353648330261"><ele>453.5</ele><time>2026-04-26T08:05:51Z</time></trkpt><trkpt lat="37.01357160006779" lon="14.997207241706242"><ele>453.75</ele><time>2026-04-26T08:05:52Z</time></trkpt><trkpt lat="37.01363949203096" lon="14.997032017661656"><ele>454.0</ele><time>2026-04-26T08:05:53Z</time></trkpt><trkpt lat="37.01369826601367" lon="14.99685244051896"><ele>454.0</ele><time>2026-04-26T08:05:54Z</time></trkpt><trkpt lat="37.013750390843136" lon="14.996694166483707"><ele>454.0</ele><time>2026-04-26T08:05:55Z</time></trkpt><trkpt lat="37.01379597667157" lon="14.996550089328405"><ele>454.0</ele><time>2026-04-26T08:05:56Z</time></trkpt><trkpt lat="37.01383939019756" lon="14.99641247326486"><ele>454.0</ele><time>2026-04-26T08:05:57Z</time></trkpt><trkpt lat="37.01388338180533" lon="14.996275119063373"><ele>455.0</ele><time>2026-04-26T08:05:58Z</time></trkpt><trkpt lat="37.01393676313968" lon="14.996122585700439"><ele>456.0</ele><time>2026-04-26T08:05:59Z</time></trkpt><trkpt lat="37.01402389230126" lon="14.995932420502548"><ele>457.0</ele><time>2026-04-26T08:06:00Z</time></trkpt><trkpt lat="37.01411412400238" lon="14.995751252101897"><ele>457.5</ele><time>2026-04-26T08:06:01Z</time></trkpt><trkpt lat="37.014196696532466" lon="14.99558173720973"><ele>458.0</ele><time>2026-04-26T08:06:02Z</time></trkpt><trkpt lat="37.014269116881835" lon="14.995449351645663"><ele>458.5</ele><time>2026-04-26T08:06:03Z</time></trkpt><trkpt lat="37.01432523074429" lon="14.995340742890237"><ele>459.0</ele><time>2026-04-26T08:06:04Z</time></trkpt><trkpt lat="37.01436628411942" lon="14.995248223478399"><ele>459.0</ele><time>2026-04-26T08:06:05Z</time></trkpt><trkpt lat="37.01441384568188" lon="14.99514718154729"><ele>459.0</ele><time>2026-04-26T08:06:07Z</time></trkpt><trkpt lat="37.01444656800208" lon="14.995062168587841"><ele>459.0</ele><time>2026-04-26T08:06:09Z</time></trkpt><trkpt lat="37.01452141443725" lon="14.995073517503382"><ele>459.0</ele><time>2026-04-26T08:06:16Z</time></trkpt><trkpt lat="37.014578188762805" lon="14.995114668643108"><ele>459.0</ele><time>2026-04-26T08:06:17Z</time></trkpt><trkpt lat="37.0146372099625" lon="14.995178950798843"><ele>459.0</ele><time>2026-04-26T08:06:18Z</time></trkpt><trkpt lat="37.014702668705695" lon="14.995257868932676"><ele>459.0</ele><time>2026-04-26T08:06:19Z</time></trkpt><trkpt lat="37.01477935157572" lon="14.9953478062474"><ele>459.0</ele><time>2026-04-26T08:06:20Z</time></trkpt><trkpt lat="37.01486597689761" lon="14.995430012846583"><ele>459.0</ele><time>2026-04-26T08:06:21Z</time></trkpt><trkpt lat="37.01496589695193" lon="14.995501520017875"><ele>459.0</ele><time>2026-04-26T08:06:22Z</time></trkpt><trkpt lat="37.015057497729906" lon="14.99557884152394"><ele>459.0</ele><time>2026-04-26T08:06:23Z</time></trkpt><trkpt lat="37.01513632771067" lon="14.995609909891096"><ele>459.5</ele><time>2026-04-26T08:06:24Z</time></trkpt><trkpt lat="37.01522099909326" lon="14.995627019227564"><ele>460.0</ele><time>2026-04-26T08:06:25Z</time></trkpt><trkpt lat="37.01530265037791" lon="14.995605294812053"><ele>460.5</ele><time>2026-04-26T08:06:26Z</time></trkpt><trkpt lat="37.01537277233899" lon="14.995571294068345"><ele>461.0</ele><time>2026-04-26T08:06:27Z</time></trkpt><trkpt lat="37.01543444579638" lon="14.995553324307833"><ele>461.5</ele><time>2026-04-26T08:06:28Z</time></trkpt><trkpt lat="37.01555240278475" lon="14.995518955262586"><ele>462.0</ele><time>2026-04-26T08:06:30Z</time></trkpt><trkpt lat="37.01570252748834" lon="14.9957243115002"><ele>462.0</ele><time>2026-04-26T08:06:32Z</time></trkpt><trkpt lat="37.0158093392511" lon="14.995718809008485"><ele>462.00000000000006</ele><time>2026-04-26T08:06:34Z</time></trkpt><trkpt lat="37.01590111198592" lon="14.995640293236024"><ele>462.00000000000006</ele><time>2026-04-26T08:06:36Z</time></trkpt><trkpt lat="37.015944897346444" lon="14.995542056223885"><ele>462.0</ele><time>2026-04-26T08:06:37Z</time></trkpt><trkpt lat="37.01600484117363" lon="14.995423195385277"><ele>462.0</ele><time>2026-04-26T08:06:38Z</time></trkpt><trkpt lat="37.016077959160896" lon="14.99530977192404"><ele>462.20000000000005</ele><time>2026-04-26T08:06:39Z</time></trkpt><trkpt lat="37.01614208105755" lon="14.99520212465017"><ele>462.40000000000003</ele><time>2026-04-26T08:06:40Z</time></trkpt><trkpt lat="37.01620182649213" lon="14.995103111408472"><ele>462.59999999999997</ele><time>2026-04-26T08:06:41Z</time></trkpt><trkpt lat="37.01623836328107" lon="14.9950223708708"><ele>462.79999999999995</ele><time>2026-04-26T08:06:42Z</time></trkpt><trkpt lat="37.01630121345721" lon="14.994919870887797"><ele>463.0</ele><time>2026-04-26T08:06:44Z</time></trkpt><trkpt lat="37.01634528989853" lon="14.994835341447267"><ele>463.4</ele><time>2026-04-26T08:06:45Z</time></trkpt><trkpt lat="37.01640093248107" lon="14.994730287217202"><ele>463.79999999999995</ele><time>2026-04-26T08:06:46Z</time></trkpt><trkpt lat="37.016463854227716" lon="14.994630455319301"><ele>464.2</ele><time>2026-04-26T08:06:47Z</time></trkpt><trkpt lat="37.016517302003905" lon="14.994543562851282"><ele>464.6</ele><time>2026-04-26T08:06:48Z</time></trkpt><trkpt lat="37.01657173252331" lon="14.994448183588869"><ele>465.0</ele><time>2026-04-26T08:06:49Z</time></trkpt><trkpt lat="37.016632234639985" lon="14.994353956287894"><ele>465.5</ele><time>2026-04-26T08:06:50Z</time></trkpt><trkpt lat="37.01668934609864" lon="14.994292382678132"><ele>466.0</ele><time>2026-04-26T08:06:51Z</time></trkpt><trkpt lat="37.016750801090126" lon="14.994235586195146"><ele>466.5</ele><time>2026-04-26T08:06:52Z</time></trkpt><trkpt lat="37.01681915905197" lon="14.994157308604434"><ele>467.0</ele><time>2026-04-26T08:06:53Z</time></trkpt><trkpt lat="37.01689349833663" lon="14.99404840600591"><ele>467.5</ele><time>2026-04-26T08:06:54Z</time></trkpt><trkpt lat="37.01694286578291" lon="14.99397145111714"><ele>468.0</ele><time>2026-04-26T08:06:55Z</time></trkpt><trkpt lat="37.016988274727375" lon="14.993890770782052"><ele>468.8333333333333</ele><time>2026-04-26T08:06:56Z</time></trkpt><trkpt lat="37.01703634846378" lon="14.993809232650095"><ele>469.66666666666663</ele><time>2026-04-26T08:06:57Z</time></trkpt><trkpt lat="37.0170855906895" lon="14.993732957318526"><ele>470.5</ele><time>2026-04-26T08:06:58Z</time></trkpt><trkpt lat="37.01713028117625" lon="14.99366088931829"><ele>471.3333333333333</ele><time>2026-04-26T08:06:59Z</time></trkpt><trkpt lat="37.01717483538944" lon="14.993577862981958"><ele>472.16666666666663</ele><time>2026-04-26T08:07:00Z</time></trkpt><trkpt lat="37.01722532108093" lon="14.993493472415699"><ele>473.0</ele><time>2026-04-26T08:07:01Z</time></trkpt><trkpt lat="37.017266524087844" lon="14.993432079312848"><ele>473.0</ele><time>2026-04-26T08:07:02Z</time></trkpt><trkpt lat="37.01732061099205" lon="14.993368056986824"><ele>472.99999999999994</ele><time>2026-04-26T08:07:03Z</time></trkpt><trkpt lat="37.017382188883104" lon="14.993287187641538"><ele>472.99999999999994</ele><time>2026-04-26T08:07:04Z</time></trkpt><trkpt lat="37.01742889020494" lon="14.993211839354855"><ele>473.0</ele><time>2026-04-26T08:07:05Z</time></trkpt><trkpt lat="37.017524441887716" lon="14.993081697253283"><ele>473.0</ele><time>2026-04-26T08:07:07Z</time></trkpt><trkpt lat="37.01758769232466" lon="14.993022244224917"><ele>473.0</ele><time>2026-04-26T08:07:08Z</time></trkpt><trkpt lat="37.017644830803725" lon="14.99295937788384"><ele>472.99999999999994</ele><time>2026-04-26T08:07:10Z</time></trkpt><trkpt lat="37.01770616111848" lon="14.9929002785152"><ele>472.99999999999994</ele><time>2026-04-26T08:07:11Z</time></trkpt><trkpt lat="37.0177700962135" lon="14.992839058542737"><ele>473.0</ele><time>2026-04-26T08:07:12Z</time></trkpt><trkpt lat="37.01788197862583" lon="14.992725853681593"><ele>473.0</ele><time>2026-04-26T08:07:14Z</time></trkpt><trkpt lat="37.01794771454997" lon="14.992660946444058"><ele>472.99999999999994</ele><time>2026-04-26T08:07:15Z</time></trkpt><trkpt lat="37.018012254084674" lon="14.992596355219124"><ele>473.0</ele><time>2026-04-26T08:07:16Z</time></trkpt><trkpt lat="37.01807492900398" lon="14.992539682382"><ele>473.0</ele><time>2026-04-26T08:07:17Z</time></trkpt><trkpt lat="37.01816151368474" lon="14.99248871106822"><ele>473.0</ele><time>2026-04-26T08:07:19Z</time></trkpt><trkpt lat="37.01823685902774" lon="14.992447929839763"><ele>472.99999999999994</ele><time>2026-04-26T08:07:21Z</time></trkpt><trkpt lat="37.01829299303137" lon="14.992405970002828"><ele>473.0</ele><time>2026-04-26T08:07:22Z</time></trkpt><trkpt lat="37.018363188532135" lon="14.992326774381793"><ele>473.75</ele><time>2026-04-26T08:07:24Z</time></trkpt><trkpt lat="37.01847391028916" lon="14.992161693637494"><ele>474.5</ele><time>2026-04-26T08:07:27Z</time></trkpt><trkpt lat="37.018539955226856" lon="14.992067336124506"><ele>475.25</ele><time>2026-04-26T08:07:28Z</time></trkpt><trkpt lat="37.01859633153586" lon="14.991979140192617"><ele>476.0</ele><time>2026-04-26T08:07:30Z</time></trkpt><trkpt lat="37.01865407836845" lon="14.991870568538962"><ele>476.0</ele><time>2026-04-26T08:07:32Z</time></trkpt><trkpt lat="37.01872883107184" lon="14.991745003192351"><ele>476.0</ele><time>2026-04-26T08:07:34Z</time></trkpt><trkpt lat="37.01876634812395" lon="14.991677084240209"><ele>476.0</ele><time>2026-04-26T08:07:35Z</time></trkpt><trkpt lat="37.01885203814977" lon="14.99156657762034"><ele>476.0</ele><time>2026-04-26T08:07:37Z</time></trkpt><trkpt lat="37.018897811189305" lon="14.991510197218004"><ele>476.0</ele><time>2026-04-26T08:07:38Z</time></trkpt><trkpt lat="37.018968823665126" lon="14.991412122357742"><ele>476.99999999999994</ele><time>2026-04-26T08:07:40Z</time></trkpt><trkpt lat="37.019021144076945" lon="14.991352105599903"><ele>478.0</ele><time>2026-04-26T08:07:41Z</time></trkpt><trkpt lat="37.0190785823762" lon="14.991287648975353"><ele>479.0</ele><time>2026-04-26T08:07:42Z</time></trkpt><trkpt lat="37.0191351498735" lon="14.9912143217172"><ele>480.0</ele><time>2026-04-26T08:07:43Z</time></trkpt><trkpt lat="37.01919139192902" lon="14.991148354720327"><ele>480.99999999999994</ele><time>2026-04-26T08:07:44Z</time></trkpt><trkpt lat="37.01923701707788" lon="14.991086965777694"><ele>482.0</ele><time>2026-04-26T08:07:45Z</time></trkpt><trkpt lat="37.01928820131725" lon="14.99101258151672"><ele>482.40000000000003</ele><time>2026-04-26T08:07:46Z</time></trkpt><trkpt lat="37.01934195658194" lon="14.990944935008299"><ele>482.80000000000007</ele><time>2026-04-26T08:07:47Z</time></trkpt><trkpt lat="37.0194191153528" lon="14.990840937638191"><ele>483.2</ele><time>2026-04-26T08:07:49Z</time></trkpt><trkpt lat="37.01948506396018" lon="14.990720298090222"><ele>483.6</ele><time>2026-04-26T08:07:51Z</time></trkpt><trkpt lat="37.01955950897827" lon="14.990622242446934"><ele>484.0</ele><time>2026-04-26T08:07:53Z</time></trkpt><trkpt lat="37.0196150784457" lon="14.990550896296156"><ele>484.50000000000006</ele><time>2026-04-26T08:07:54Z</time></trkpt><trkpt lat="37.019671559449925" lon="14.990482655544287"><ele>485.0</ele><time>2026-04-26T08:07:55Z</time></trkpt><trkpt lat="37.01975134660579" lon="14.99038773654169"><ele>485.5</ele><time>2026-04-26T08:07:57Z</time></trkpt><trkpt lat="37.019836988181034" lon="14.99028346534344"><ele>486.0</ele><time>2026-04-26T08:07:59Z</time></trkpt><trkpt lat="37.01988867645875" lon="14.990222136068184"><ele>486.50000000000006</ele><time>2026-04-26T08:08:00Z</time></trkpt><trkpt lat="37.019938694176055" lon="14.990165664765074"><ele>487.0</ele><time>2026-04-26T08:08:01Z</time></trkpt><trkpt lat="37.01999828563212" lon="14.990072638866213"><ele>487.00000000000006</ele><time>2026-04-26T08:08:03Z</time></trkpt><trkpt lat="37.02004250487109" lon="14.990015131095186"><ele>487.0</ele><time>2026-04-26T08:08:04Z</time></trkpt><trkpt lat="37.020087894995115" lon="14.989947324360777"><ele>487.0</ele><time>2026-04-26T08:08:05Z</time></trkpt><trkpt lat="37.02013621967356" lon="14.989871625504962"><ele>487.0</ele><time>2026-04-26T08:08:06Z</time></trkpt><trkpt lat="37.02019599173519" lon="14.989792333159478"><ele>487.00000000000006</ele><time>2026-04-26T08:08:07Z</time></trkpt><trkpt lat="37.020257577297706" lon="14.98971677545254"><ele>487.0</ele><time>2026-04-26T08:08:08Z</time></trkpt><trkpt lat="37.02031187085618" lon="14.989632169170696"><ele>488.50000000000006</ele><time>2026-04-26T08:08:09Z</time></trkpt><trkpt lat="37.02033926673131" lon="14.98955477051745"><ele>490.0</ele><time>2026-04-26T08:08:10Z</time></trkpt><trkpt lat="37.020361405533" lon="14.989443354088692"><ele>491.5</ele><time>2026-04-26T08:08:12Z</time></trkpt><trkpt lat="37.02042581358647" lon="14.989397400916777"><ele>493.0</ele><time>2026-04-26T08:08:14Z</time></trkpt><trkpt lat="37.020513890203006" lon="14.989307519999903"><ele>494.50000000000006</ele><time>2026-04-26T08:08:16Z</time></trkpt><trkpt lat="37.020554606424696" lon="14.989206447497345"><ele>496.0</ele><time>2026-04-26T08:08:17Z</time></trkpt><trkpt lat="37.020591381487534" lon="14.989084437312567"><ele>497.00000000000006</ele><time>2026-04-26T08:08:18Z</time></trkpt><trkpt lat="37.02061853294252" lon="14.989007381016906"><ele>498.0</ele><time>2026-04-26T08:08:18.999Z</time></trkpt><trkpt lat="37.02061191463562" lon="14.98886793896552"><ele>499.0</ele><time>2026-04-26T08:08:51Z</time></trkpt><trkpt lat="37.02065221445445" lon="14.98878182384847"><ele>500.0</ele><time>2026-04-26T08:08:52Z</time></trkpt><trkpt lat="37.020671973660576" lon="14.98867315484699"><ele>501.00000000000006</ele><time>2026-04-26T08:08:53Z</time></trkpt><trkpt lat="37.020714486098136" lon="14.988586001270813"><ele>502.0</ele><time>2026-04-26T08:08:54Z</time></trkpt><trkpt lat="37.02076897969776" lon="14.98848470370517"><ele>501.5</ele><time>2026-04-26T08:08:55Z</time></trkpt><trkpt lat="37.0208424201761" lon="14.988397755670245"><ele>501.0</ele><time>2026-04-26T08:08:56Z</time></trkpt><trkpt lat="37.020937936756795" lon="14.988285322917603"><ele>500.5</ele><time>2026-04-26T08:08:57Z</time></trkpt><trkpt lat="37.02105562504588" lon="14.988154140810048"><ele>500.0</ele><time>2026-04-26T08:08:58Z</time></trkpt><trkpt lat="37.02115876734553" lon="14.988024919785815"><ele>501.5</ele><time>2026-04-26T08:08:59Z</time></trkpt><trkpt lat="37.021255635193754" lon="14.987928770598762"><ele>503.0</ele><time>2026-04-26T08:09:00Z</time></trkpt><trkpt lat="37.021358147649984" lon="14.987801942395514"><ele>504.5</ele><time>2026-04-26T08:09:01Z</time></trkpt><trkpt lat="37.021448571579946" lon="14.987677180154346"><ele>506.0</ele><time>2026-04-26T08:09:02Z</time></trkpt><trkpt lat="37.02153351762708" lon="14.987605441204414"><ele>506.0</ele><time>2026-04-26T08:09:03Z</time></trkpt><trkpt lat="37.0216157224038" lon="14.987517343610826"><ele>506.0</ele><time>2026-04-26T08:09:04Z</time></trkpt><trkpt lat="37.02173102771004" lon="14.987400778745732"><ele>506.0</ele><time>2026-04-26T08:09:05Z</time></trkpt><trkpt lat="37.021849981907316" lon="14.987256178998862"><ele>506.0</ele><time>2026-04-26T08:09:06Z</time></trkpt><trkpt lat="37.02196707442669" lon="14.987121629673153"><ele>509.25</ele><time>2026-04-26T08:09:07Z</time></trkpt><trkpt lat="37.02204645936267" lon="14.9870259827808"><ele>512.5</ele><time>2026-04-26T08:09:08Z</time></trkpt><trkpt lat="37.02213057461148" lon="14.98694188825079"><ele>515.75</ele><time>2026-04-26T08:09:09Z</time></trkpt><trkpt lat="37.02222104706922" lon="14.986846389443256"><ele>519.0</ele><time>2026-04-26T08:09:10Z</time></trkpt><trkpt lat="37.02233378842976" lon="14.986738862615562"><ele>521.25</ele><time>2026-04-26T08:09:11Z</time></trkpt><trkpt lat="37.0224370278408" lon="14.986631515108664"><ele>523.5</ele><time>2026-04-26T08:09:12Z</time></trkpt><trkpt lat="37.02250453239722" lon="14.986534014754222"><ele>525.75</ele><time>2026-04-26T08:09:13Z</time></trkpt><trkpt lat="37.022558004091294" lon="14.98639301428005"><ele>528.0</ele><time>2026-04-26T08:09:15Z</time></trkpt><trkpt lat="37.022612437188805" lon="14.986259320364738"><ele>528.0</ele><time>2026-04-26T08:09:16Z</time></trkpt><trkpt lat="37.022654206198546" lon="14.986117029879882"><ele>528.0</ele><time>2026-04-26T08:09:17Z</time></trkpt><trkpt lat="37.02270032882095" lon="14.985965751515353"><ele>528.0</ele><time>2026-04-26T08:09:18Z</time></trkpt><trkpt lat="37.02274926655922" lon="14.985813049340328"><ele>528.0</ele><time>2026-04-26T08:09:19Z</time></trkpt><trkpt lat="37.02278586612096" lon="14.985719389714486"><ele>528.4</ele><time>2026-04-26T08:09:20Z</time></trkpt><trkpt lat="37.022868222996024" lon="14.985613578622456"><ele>528.8</ele><time>2026-04-26T08:09:22Z</time></trkpt><trkpt lat="37.02291859535504" lon="14.985543537279952"><ele>529.2</ele><time>2026-04-26T08:09:23Z</time></trkpt><trkpt lat="37.02300267978031" lon="14.985500444655727"><ele>529.6</ele><time>2026-04-26T08:09:24Z</time></trkpt><trkpt lat="37.02309524660353" lon="14.985449206699196"><ele>530.0</ele><time>2026-04-26T08:09:25Z</time></trkpt><trkpt lat="37.02318681968542" lon="14.985412337505728"><ele>530.0</ele><time>2026-04-26T08:09:26Z</time></trkpt><trkpt lat="37.023286747527344" lon="14.985365733354563"><ele>530.0</ele><time>2026-04-26T08:09:27Z</time></trkpt><trkpt lat="37.02340982306164" lon="14.985319404126846"><ele>530.0</ele><time>2026-04-26T08:09:28Z</time></trkpt><trkpt lat="37.02355460459723" lon="14.9852804491788"><ele>530.0</ele><time>2026-04-26T08:09:29Z</time></trkpt><trkpt lat="37.023684427645414" lon="14.985213722180278"><ele>529.8</ele><time>2026-04-26T08:09:30Z</time></trkpt><trkpt lat="37.02377086085612" lon="14.985184913249672"><ele>529.6</ele><time>2026-04-26T08:09:31Z</time></trkpt><trkpt lat="37.023848517168" lon="14.98514096112022"><ele>529.4</ele><time>2026-04-26T08:09:32Z</time></trkpt><trkpt lat="37.023923066379595" lon="14.985079444208766"><ele>529.2</ele><time>2026-04-26T08:09:33Z</time></trkpt><trkpt lat="37.02403175183014" lon="14.984973975393647"><ele>529.0</ele><time>2026-04-26T08:09:34Z</time></trkpt><trkpt lat="37.024152070409194" lon="14.984844863118802"><ele>529.6666666666667</ele><time>2026-04-26T08:09:35Z</time></trkpt><trkpt lat="37.024274845122974" lon="14.984705190260202"><ele>530.3333333333334</ele><time>2026-04-26T08:09:36Z</time></trkpt><trkpt lat="37.02440378269215" lon="14.984561443952236"><ele>531.0</ele><time>2026-04-26T08:09:37Z</time></trkpt><trkpt lat="37.02450925769254" lon="14.98444851386779"><ele>531.0</ele><time>2026-04-26T08:09:38Z</time></trkpt><trkpt lat="37.02459056434206" lon="14.984350954644308"><ele>531.0</ele><time>2026-04-26T08:09:39Z</time></trkpt><trkpt lat="37.024662573832" lon="14.984250302782653"><ele>531.0</ele><time>2026-04-26T08:09:40Z</time></trkpt><trkpt lat="37.024752629557334" lon="14.984103145526294"><ele>531.0</ele><time>2026-04-26T08:09:41Z</time></trkpt><trkpt lat="37.02483150353138" lon="14.983958961792577"><ele>531.5</ele><time>2026-04-26T08:09:42Z</time></trkpt><trkpt lat="37.02489626349854" lon="14.983822579745132"><ele>532.0</ele><time>2026-04-26T08:09:43Z</time></trkpt><trkpt lat="37.024963573878956" lon="14.983673800760846"><ele>532.5</ele><time>2026-04-26T08:09:44Z</time></trkpt><trkpt lat="37.025028773850615" lon="14.983513870710782"><ele>533.0</ele><time>2026-04-26T08:09:45Z</time></trkpt><trkpt lat="37.02508252986072" lon="14.983385928043349"><ele>534.0</ele><time>2026-04-26T08:09:46Z</time></trkpt><trkpt lat="37.02511958032936" lon="14.983254615169978"><ele>535.0</ele><time>2026-04-26T08:09:47Z</time></trkpt><trkpt lat="37.02515632511495" lon="14.983095835205141"><ele>536.0</ele><time>2026-04-26T08:09:48Z</time></trkpt><trkpt lat="37.02520154363084" lon="14.98292472593334"><ele>537.0</ele><time>2026-04-26T08:09:49Z</time></trkpt><trkpt lat="37.02521155285678" lon="14.982774411808995"><ele>537.0</ele><time>2026-04-26T08:09:50Z</time></trkpt><trkpt lat="37.025236237189034" lon="14.982645130215658"><ele>537.0</ele><time>2026-04-26T08:09:51Z</time></trkpt><trkpt lat="37.02525977218914" lon="14.982518168409038"><ele>537.0</ele><time>2026-04-26T08:09:52Z</time></trkpt><trkpt lat="37.0252732998459" lon="14.98239815182839"><ele>537.0</ele><time>2026-04-26T08:09:53Z</time></trkpt><trkpt lat="37.02528593682272" lon="14.98228994706308"><ele>537.0</ele><time>2026-04-26T08:09:54Z</time></trkpt><trkpt lat="37.0253048110168" lon="14.982195590638161"><ele>537.0</ele><time>2026-04-26T08:09:55Z</time></trkpt><trkpt lat="37.025330300714515" lon="14.982101480807533"><ele>537.0</ele><time>2026-04-26T08:09:56Z</time></trkpt><trkpt lat="37.025348217892535" lon="14.982020100436749"><ele>537.0</ele><time>2026-04-26T08:09:57Z</time></trkpt><trkpt lat="37.025397691907514" lon="14.981935126336522"><ele>537.0</ele><time>2026-04-26T08:09:59Z</time></trkpt><trkpt lat="37.02550661728273" lon="14.981953488316341"><ele>537.0</ele><time>2026-04-26T08:10:01Z</time></trkpt><trkpt lat="37.02559452532733" lon="14.9819882326931"><ele>537.0</ele><time>2026-04-26T08:10:02Z</time></trkpt><trkpt lat="37.025697571125" lon="14.982023023896351"><ele>537.0</ele><time>2026-04-26T08:10:03Z</time></trkpt><trkpt lat="37.02581087794174" lon="14.98206439339782"><ele>537.0</ele><time>2026-04-26T08:10:04Z</time></trkpt><trkpt lat="37.025922146282504" lon="14.982111849885655"><ele>537.0</ele><time>2026-04-26T08:10:05Z</time></trkpt><trkpt lat="37.026055314666124" lon="14.982163076274553"><ele>537.0</ele><time>2026-04-26T08:10:06Z</time></trkpt><trkpt lat="37.02619207107009" lon="14.982180447663536"><ele>534.5</ele><time>2026-04-26T08:10:07Z</time></trkpt><trkpt lat="37.026320518266665" lon="14.982207579082928"><ele>532.0</ele><time>2026-04-26T08:10:08Z</time></trkpt><trkpt lat="37.026462007424186" lon="14.982237850033874"><ele>529.5</ele><time>2026-04-26T08:10:09Z</time></trkpt><trkpt lat="37.026584718271636" lon="14.982271577975764"><ele>527.0</ele><time>2026-04-26T08:10:10Z</time></trkpt><trkpt lat="37.02670511856552" lon="14.982298018689908"><ele>525.2</ele><time>2026-04-26T08:10:11Z</time></trkpt><trkpt lat="37.02681099691756" lon="14.982314916128194"><ele>523.4000000000001</ele><time>2026-04-26T08:10:12Z</time></trkpt><trkpt lat="37.02691120731289" lon="14.982324458068351"><ele>521.5999999999999</ele><time>2026-04-26T08:10:13Z</time></trkpt><trkpt lat="37.026995374363686" lon="14.982318476982712"><ele>519.8</ele><time>2026-04-26T08:10:14Z</time></trkpt><trkpt lat="37.027069163590866" lon="14.98229376982387"><ele>518.0</ele><time>2026-04-26T08:10:15Z</time></trkpt><trkpt lat="37.02714637752369" lon="14.982231441143117"><ele>518.0</ele><time>2026-04-26T08:10:16Z</time></trkpt><trkpt lat="37.02721551909319" lon="14.982165538393424"><ele>518.0</ele><time>2026-04-26T08:10:17Z</time></trkpt><trkpt lat="37.02730349466693" lon="14.982081741180863"><ele>518.0</ele><time>2026-04-26T08:10:18Z</time></trkpt><trkpt lat="37.0273955587716" lon="14.98198222164693"><ele>518.0</ele><time>2026-04-26T08:10:19Z</time></trkpt><trkpt lat="37.027508696782064" lon="14.981870458634416"><ele>515.75</ele><time>2026-04-26T08:10:20Z</time></trkpt><trkpt lat="37.02762323483468" lon="14.981746319796375"><ele>513.5</ele><time>2026-04-26T08:10:20.999Z</time></trkpt><trkpt lat="37.027726623389505" lon="14.981642670074761"><ele>511.25</ele><time>2026-04-26T08:10:21.999Z</time></trkpt><trkpt lat="37.02780716118733" lon="14.981546344280366"><ele>509.0</ele><time>2026-04-26T08:10:22.999Z</time></trkpt><trkpt lat="37.02786252793479" lon="14.981452057332383"><ele>509.0</ele><time>2026-04-26T08:10:23.999Z</time></trkpt><trkpt lat="37.02791747232101" lon="14.981314397336327"><ele>509.0</ele><time>2026-04-26T08:10:24.999Z</time></trkpt><trkpt lat="37.02798448942244" lon="14.981149611672757"><ele>509.0</ele><time>2026-04-26T08:10:25.999Z</time></trkpt><trkpt lat="37.028054275630694" lon="14.980984536218227"><ele>509.0</ele><time>2026-04-26T08:10:26.999Z</time></trkpt><trkpt lat="37.02811943097961" lon="14.980831374848464"><ele>510.3333333333333</ele><time>2026-04-26T08:10:27.999Z</time></trkpt><trkpt lat="37.02820046680395" lon="14.980644200484354"><ele>511.66666666666663</ele><time>2026-04-26T08:10:28.999Z</time></trkpt><trkpt lat="37.02828242883271" lon="14.980455346560808"><ele>513.0</ele><time>2026-04-26T08:10:29.999Z</time></trkpt><trkpt lat="37.0283308890382" lon="14.980281078188861"><ele>509.75</ele><time>2026-04-26T08:10:30.999Z</time></trkpt><trkpt lat="37.02836990830438" lon="14.980134817798735"><ele>506.5</ele><time>2026-04-26T08:10:31.999Z</time></trkpt><trkpt lat="37.028380679161785" lon="14.979964804969121"><ele>503.25</ele><time>2026-04-26T08:10:32.999Z</time></trkpt><trkpt lat="37.02837543040885" lon="14.979812044241033"><ele>500.0</ele><time>2026-04-26T08:10:33.999Z</time></trkpt><trkpt lat="37.02836109105348" lon="14.979671292837438"><ele>499.6</ele><time>2026-04-26T08:10:34.999Z</time></trkpt><trkpt lat="37.02834701574474" lon="14.979531011776274"><ele>499.2</ele><time>2026-04-26T08:10:35.999Z</time></trkpt><trkpt lat="37.02833834076551" lon="14.979388563715311"><ele>498.79999999999995</ele><time>2026-04-26T08:10:36.999Z</time></trkpt><trkpt lat="37.028336207438535" lon="14.97927531508893"><ele>498.4</ele><time>2026-04-26T08:10:37.999Z</time></trkpt><trkpt lat="37.02834197550647" lon="14.979146423699213"><ele>498.0</ele><time>2026-04-26T08:10:38.999Z</time></trkpt><trkpt lat="37.02832985952483" lon="14.979019878542058"><ele>500.79999999999995</ele><time>2026-04-26T08:10:39.999Z</time></trkpt><trkpt lat="37.02830966617558" lon="14.978896307391576"><ele>503.59999999999997</ele><time>2026-04-26T08:10:40.999Z</time></trkpt><trkpt lat="37.02826830627253" lon="14.978754737271817"><ele>506.40000000000003</ele><time>2026-04-26T08:10:41.999Z</time></trkpt><trkpt lat="37.02822238921526" lon="14.978645737476688"><ele>509.20000000000005</ele><time>2026-04-26T08:10:42.999Z</time></trkpt><trkpt lat="37.02818030063615" lon="14.978565631682518"><ele>512.0</ele><time>2026-04-26T08:10:43.999Z</time></trkpt><trkpt lat="37.02812857954254" lon="14.978505970769334"><ele>511.99999999999994</ele><time>2026-04-26T08:10:44.999Z</time></trkpt><trkpt lat="37.02808296966802" lon="14.978431672618807"><ele>512.0</ele><time>2026-04-26T08:10:45.999Z</time></trkpt><trkpt lat="37.02807020827633" lon="14.978340199553488"><ele>512.0</ele><time>2026-04-26T08:10:46.999Z</time></trkpt><trkpt lat="37.028025429919005" lon="14.978274508011904"><ele>512.0</ele><time>2026-04-26T08:10:47.999Z</time></trkpt><trkpt lat="37.02797153346731" lon="14.97819994234998"><ele>511.99999999999994</ele><time>2026-04-26T08:10:48.999Z</time></trkpt><trkpt lat="37.02793460061965" lon="14.9781331685479"><ele>512.0</ele><time>2026-04-26T08:10:49.999Z</time></trkpt><trkpt lat="37.02788409923507" lon="14.978012823488912"><ele>511.3333333333333</ele><time>2026-04-26T08:10:51.999Z</time></trkpt><trkpt lat="37.02788993278682" lon="14.97791660521209"><ele>510.66666666666663</ele><time>2026-04-26T08:10:53.999Z</time></trkpt><trkpt lat="37.0278934263151" lon="14.977820657774819"><ele>510.0</ele><time>2026-04-26T08:10:55.999Z</time></trkpt><trkpt lat="37.02797352613987" lon="14.977781841973298"><ele>509.33333333333337</ele><time>2026-04-26T08:10:59Z</time></trkpt><trkpt lat="37.028037353283715" lon="14.977747476157711"><ele>508.6666666666667</ele><time>2026-04-26T08:11:02Z</time></trkpt><trkpt lat="37.0280928143284" lon="14.9777093419246"><ele>508.0</ele><time>2026-04-26T08:11:04Z</time></trkpt><trkpt lat="37.02814450476094" lon="14.977602684022822"><ele>508.0</ele><time>2026-04-26T08:11:31Z</time></trkpt><trkpt lat="37.02821058457555" lon="14.97755187055384"><ele>507.99999999999994</ele><time>2026-04-26T08:11:32Z</time></trkpt><trkpt lat="37.028302070620235" lon="14.977514130042913"><ele>507.99999999999994</ele><time>2026-04-26T08:11:33Z</time></trkpt><trkpt lat="37.02840570104584" lon="14.977461283563068"><ele>508.0</ele><time>2026-04-26T08:11:34Z</time></trkpt><trkpt lat="37.02850819295368" lon="14.977418655430347"><ele>508.0</ele><time>2026-04-26T08:11:35Z</time></trkpt><trkpt lat="37.02858875372601" lon="14.977375705586253"><ele>504.6666666666667</ele><time>2026-04-26T08:11:36Z</time></trkpt><trkpt lat="37.028661329010525" lon="14.977420064625154"><ele>501.33333333333337</ele><time>2026-04-26T08:11:37Z</time></trkpt><trkpt lat="37.02873998034855" lon="14.977455457733669"><ele>498.0</ele><time>2026-04-26T08:11:38Z</time></trkpt><trkpt lat="37.0288110761044" lon="14.9774868215642"><ele>494.66666666666663</ele><time>2026-04-26T08:11:39Z</time></trkpt><trkpt lat="37.02889237898803" lon="14.977433743938368"><ele>491.3333333333333</ele><time>2026-04-26T08:11:41Z</time></trkpt><trkpt lat="37.02894749899458" lon="14.977360292508255"><ele>488.0</ele><time>2026-04-26T08:11:42Z</time></trkpt><trkpt lat="37.028922144901415" lon="14.977205904957799"><ele>488.0</ele><time>2026-04-26T08:11:43Z</time></trkpt><trkpt lat="37.02893017055979" lon="14.977103606569925"><ele>488.0</ele><time>2026-04-26T08:11:44Z</time></trkpt><trkpt lat="37.028975181588" lon="14.976986015806858"><ele>488.0</ele><time>2026-04-26T08:11:45Z</time></trkpt><trkpt lat="37.02901922981818" lon="14.976817966608198"><ele>488.0</ele><time>2026-04-26T08:11:46Z</time></trkpt><trkpt lat="37.029071655211986" lon="14.976656618489763"><ele>487.79999999999995</ele><time>2026-04-26T08:11:47Z</time></trkpt><trkpt lat="37.02914157373194" lon="14.976518097418658"><ele>487.59999999999997</ele><time>2026-04-26T08:11:48Z</time></trkpt><trkpt lat="37.02921037197689" lon="14.976394494618582"><ele>487.40000000000003</ele><time>2026-04-26T08:11:49Z</time></trkpt><trkpt lat="37.02926992817832" lon="14.976274136955098"><ele>487.20000000000005</ele><time>2026-04-26T08:11:50Z</time></trkpt><trkpt lat="37.02930103225198" lon="14.976176719363098"><ele>487.0</ele><time>2026-04-26T08:11:51Z</time></trkpt><trkpt lat="37.029289952561165" lon="14.97605893808754"><ele>488.00000000000006</ele><time>2026-04-26T08:11:52Z</time></trkpt><trkpt lat="37.0293384258071" lon="14.975936816182717"><ele>489.0</ele><time>2026-04-26T08:11:53Z</time></trkpt><trkpt lat="37.029377975882056" lon="14.97583345616174"><ele>490.0</ele><time>2026-04-26T08:11:54Z</time></trkpt><trkpt lat="37.029413495069555" lon="14.975744120103075"><ele>491.0</ele><time>2026-04-26T08:11:55Z</time></trkpt><trkpt lat="37.02944351929148" lon="14.975668604562447"><ele>492.00000000000006</ele><time>2026-04-26T08:11:56Z</time></trkpt><trkpt lat="37.02947630074068" lon="14.975586154347736"><ele>493.0</ele><time>2026-04-26T08:11:57Z</time></trkpt><trkpt lat="37.02949476132921" lon="14.975491100545954"><ele>493.2857142857143</ele><time>2026-04-26T08:11:58Z</time></trkpt><trkpt lat="37.02952507851587" lon="14.975408118829598"><ele>493.57142857142856</ele><time>2026-04-26T08:11:59Z</time></trkpt><trkpt lat="37.02956944029157" lon="14.97533297108435"><ele>493.85714285714283</ele><time>2026-04-26T08:12:00Z</time></trkpt><trkpt lat="37.029590789147726" lon="14.97524001010627"><ele>494.1428571428571</ele><time>2026-04-26T08:12:01Z</time></trkpt><trkpt lat="37.02962353212719" lon="14.975152182614073"><ele>494.42857142857144</ele><time>2026-04-26T08:12:02Z</time></trkpt><trkpt lat="37.02965278693643" lon="14.975071704482822"><ele>494.71428571428567</ele><time>2026-04-26T08:12:03Z</time></trkpt><trkpt lat="37.029675684106664" lon="14.974987441494633"><ele>494.99999999999994</ele><time>2026-04-26T08:12:04Z</time></trkpt><trkpt lat="37.0297099650406" lon="14.974894051580211"><ele>495.0</ele><time>2026-04-26T08:12:05Z</time></trkpt><trkpt lat="37.02974977463378" lon="14.974776960401067"><ele>495.0</ele><time>2026-04-26T08:12:06Z</time></trkpt><trkpt lat="37.02981420126421" lon="14.974642582183973"><ele>495.0</ele><time>2026-04-26T08:12:07Z</time></trkpt><trkpt lat="37.029842810232324" lon="14.974520671368474"><ele>495.0</ele><time>2026-04-26T08:12:08Z</time></trkpt><trkpt lat="37.02989152137215" lon="14.974419063056162"><ele>495.0</ele><time>2026-04-26T08:12:09Z</time></trkpt><trkpt lat="37.02991179332553" lon="14.97428567685641"><ele>494.5</ele><time>2026-04-26T08:12:10Z</time></trkpt><trkpt lat="37.02993878080126" lon="14.974155887123132"><ele>494.0</ele><time>2026-04-26T08:12:11Z</time></trkpt><trkpt lat="37.02994609677408" lon="14.974005691870042"><ele>493.5</ele><time>2026-04-26T08:12:12Z</time></trkpt><trkpt lat="37.029995143453725" lon="14.973846155969268"><ele>493.0</ele><time>2026-04-26T08:12:13Z</time></trkpt><trkpt lat="37.03003909888345" lon="14.973688628055141"><ele>493.5</ele><time>2026-04-26T08:12:14Z</time></trkpt><trkpt lat="37.030089973373705" lon="14.973609240321142"><ele>494.0</ele><time>2026-04-26T08:12:15Z</time></trkpt><trkpt lat="37.03015040353181" lon="14.973551457597722"><ele>494.5</ele><time>2026-04-26T08:12:16Z</time></trkpt><trkpt lat="37.030269918129534" lon="14.973424192282671"><ele>495.0</ele><time>2026-04-26T08:12:17Z</time></trkpt><trkpt lat="37.03040372108209" lon="14.973279809012435"><ele>495.0</ele><time>2026-04-26T08:12:18Z</time></trkpt><trkpt lat="37.03054588019166" lon="14.973162905114764"><ele>495.0</ele><time>2026-04-26T08:12:19Z</time></trkpt><trkpt lat="37.030685986418945" lon="14.973057598486342"><ele>495.0</ele><time>2026-04-26T08:12:20Z</time></trkpt><trkpt lat="37.0308187174245" lon="14.97295748774784"><ele>495.75</ele><time>2026-04-26T08:12:21Z</time></trkpt><trkpt lat="37.03091632334737" lon="14.972863286402204"><ele>496.5</ele><time>2026-04-26T08:12:22Z</time></trkpt><trkpt lat="37.03100082774225" lon="14.972735068863763"><ele>497.25</ele><time>2026-04-26T08:12:23Z</time></trkpt><trkpt lat="37.03107849185512" lon="14.972570757184398"><ele>498.0</ele><time>2026-04-26T08:12:24Z</time></trkpt><trkpt lat="37.03117793262582" lon="14.972469128027507"><ele>498.0</ele><time>2026-04-26T08:12:25Z</time></trkpt><trkpt lat="37.031285793400116" lon="14.972402322153176"><ele>498.0</ele><time>2026-04-26T08:12:26Z</time></trkpt><trkpt lat="37.031429695403965" lon="14.97231109858578"><ele>498.0</ele><time>2026-04-26T08:12:26.999Z</time></trkpt><trkpt lat="37.03159439650238" lon="14.97220901486472"><ele>500.5</ele><time>2026-04-26T08:12:27.999Z</time></trkpt><trkpt lat="37.03179076216829" lon="14.972078313720775"><ele>503.0</ele><time>2026-04-26T08:12:28.999Z</time></trkpt><trkpt lat="37.032008758715705" lon="14.971933037013555"><ele>503.0</ele><time>2026-04-26T08:12:29.999Z</time></trkpt><trkpt lat="37.03224409019342" lon="14.971776207678865"><ele>503.0</ele><time>2026-04-26T08:12:30.999Z</time></trkpt><trkpt lat="37.032460812041734" lon="14.97163247824946"><ele>503.66666666666663</ele><time>2026-04-26T08:12:31.999Z</time></trkpt><trkpt lat="37.0326261380302" lon="14.971524233575389"><ele>504.33333333333337</ele><time>2026-04-26T08:12:32.999Z</time></trkpt><trkpt lat="37.03278622564283" lon="14.971420915478248"><ele>505.0</ele><time>2026-04-26T08:12:33.999Z</time></trkpt><trkpt lat="37.032923770139476" lon="14.971333501547793"><ele>505.0</ele><time>2026-04-26T08:12:34.999Z</time></trkpt><trkpt lat="37.033048323359544" lon="14.971254343794298"><ele>505.0</ele><time>2026-04-26T08:12:35.999Z</time></trkpt><trkpt lat="37.03317628865949" lon="14.971151150269728"><ele>505.0</ele><time>2026-04-26T08:12:36.999Z</time></trkpt><trkpt lat="37.03333312653121" lon="14.971070986948972"><ele>506.0</ele><time>2026-04-26T08:12:37.999Z</time></trkpt><trkpt lat="37.03348026526441" lon="14.970971322057745"><ele>507.0</ele><time>2026-04-26T08:12:38.999Z</time></trkpt><trkpt lat="37.03361029208307" lon="14.970883318667665"><ele>508.0</ele><time>2026-04-26T08:12:39.999Z</time></trkpt><trkpt lat="37.033748027068796" lon="14.97077108545983"><ele>508.33333333333337</ele><time>2026-04-26T08:12:40.999Z</time></trkpt><trkpt lat="37.033905477892155" lon="14.970676811093355"><ele>508.66666666666663</ele><time>2026-04-26T08:12:42Z</time></trkpt><trkpt lat="37.03405966525826" lon="14.970579518733217"><ele>509.0</ele><time>2026-04-26T08:12:43Z</time></trkpt><trkpt lat="37.03420590237824" lon="14.970491738946887"><ele>509.3333333333333</ele><time>2026-04-26T08:12:44Z</time></trkpt><trkpt lat="37.03434560815227" lon="14.97039592723198"><ele>509.66666666666663</ele><time>2026-04-26T08:12:45Z</time></trkpt><trkpt lat="37.034492559717336" lon="14.970294268927507"><ele>510.0</ele><time>2026-04-26T08:12:46Z</time></trkpt><trkpt lat="37.034630351584966" lon="14.970199210957349"><ele>510.0</ele><time>2026-04-26T08:12:47Z</time></trkpt><trkpt lat="37.034750831275865" lon="14.970116128998118"><ele>510.0</ele><time>2026-04-26T08:12:48Z</time></trkpt><trkpt lat="37.034856712278376" lon="14.970051043153402"><ele>510.0</ele><time>2026-04-26T08:12:49Z</time></trkpt><trkpt lat="37.0349486593887" lon="14.96999354492674"><ele>510.0</ele><time>2026-04-26T08:12:50Z</time></trkpt><trkpt lat="37.03503237382069" lon="14.969944843255426"><ele>510.0</ele><time>2026-04-26T08:12:51Z</time></trkpt><trkpt lat="37.035118024334594" lon="14.969884445860725"><ele>510.0</ele><time>2026-04-26T08:12:52Z</time></trkpt><trkpt lat="37.03520385826884" lon="14.969843063078844"><ele>510.0</ele><time>2026-04-26T08:12:53Z</time></trkpt><trkpt lat="37.03529629407546" lon="14.969807258135832"><ele>510.0</ele><time>2026-04-26T08:12:54Z</time></trkpt><trkpt lat="37.03539589582103" lon="14.969767738675232"><ele>510.0</ele><time>2026-04-26T08:12:55Z</time></trkpt><trkpt lat="37.03549984276978" lon="14.96972347044962"><ele>510.0</ele><time>2026-04-26T08:12:56Z</time></trkpt><trkpt lat="37.03561049928818" lon="14.969682493191245"><ele>510.0</ele><time>2026-04-26T08:12:57Z</time></trkpt><trkpt lat="37.035706001348714" lon="14.969642676213555"><ele>510.0</ele><time>2026-04-26T08:12:58Z</time></trkpt><trkpt lat="37.03579656786275" lon="14.969605294128993"><ele>510.0</ele><time>2026-04-26T08:12:59Z</time></trkpt><trkpt lat="37.03589225790887" lon="14.96956937310102"><ele>510.0</ele><time>2026-04-26T08:13:00Z</time></trkpt><trkpt lat="37.03598379538294" lon="14.969531761429177"><ele>510.0</ele><time>2026-04-26T08:13:01Z</time></trkpt><trkpt lat="37.03607595675318" lon="14.969493834990702"><ele>510.0</ele><time>2026-04-26T08:13:02Z</time></trkpt><trkpt lat="37.03617087796833" lon="14.969459538933254"><ele>510.0</ele><time>2026-04-26T08:13:03Z</time></trkpt><trkpt lat="37.0362626946508" lon="14.969428105994924"><ele>510.0</ele><time>2026-04-26T08:13:04Z</time></trkpt><trkpt lat="37.03635076611335" lon="14.969389030340277"><ele>510.0</ele><time>2026-04-26T08:13:05Z</time></trkpt><trkpt lat="37.036433758049085" lon="14.969355760272826"><ele>510.0</ele><time>2026-04-26T08:13:06Z</time></trkpt><trkpt lat="37.03652103481212" lon="14.969333264547755"><ele>510.0</ele><time>2026-04-26T08:13:07Z</time></trkpt><trkpt lat="37.03659791876663" lon="14.969302385740862"><ele>510.0</ele><time>2026-04-26T08:13:08Z</time></trkpt><trkpt lat="37.03667512239763" lon="14.969271378569415"><ele>510.0</ele><time>2026-04-26T08:13:09Z</time></trkpt><trkpt lat="37.036744023977555" lon="14.969243705744656"><ele>510.0</ele><time>2026-04-26T08:13:10Z</time></trkpt><trkpt lat="37.03680479587279" lon="14.969219297921926"><ele>510.0</ele><time>2026-04-26T08:13:11Z</time></trkpt><trkpt lat="37.03686875390252" lon="14.969196411549222"><ele>510.4</ele><time>2026-04-26T08:13:12Z</time></trkpt><trkpt lat="37.036961292402104" lon="14.969170743074182"><ele>510.8</ele><time>2026-04-26T08:13:14Z</time></trkpt><trkpt lat="37.03706544390458" lon="14.96915010706827"><ele>511.20000000000005</ele><time>2026-04-26T08:13:30Z</time></trkpt><trkpt lat="37.037110208252784" lon="14.969068889831549"><ele>511.6</ele><time>2026-04-26T08:13:31Z</time></trkpt><trkpt lat="37.037135815494636" lon="14.968964489910634"><ele>512.0</ele><time>2026-04-26T08:13:32Z</time></trkpt><trkpt lat="37.03716338908043" lon="14.968856475972336"><ele>512.0</ele><time>2026-04-26T08:13:33Z</time></trkpt><trkpt lat="37.03720455250123" lon="14.968733036824917"><ele>512.0</ele><time>2026-04-26T08:13:34Z</time></trkpt><trkpt lat="37.03726284226298" lon="14.968564253280826"><ele>512.0</ele><time>2026-04-26T08:13:35Z</time></trkpt><trkpt lat="37.03733555963509" lon="14.96834163886367"><ele>512.0</ele><time>2026-04-26T08:13:36Z</time></trkpt><trkpt lat="37.03741254829016" lon="14.96809486594579"><ele>512.5</ele><time>2026-04-26T08:13:37Z</time></trkpt><trkpt lat="37.037493847831286" lon="14.967833174202918"><ele>513.0</ele><time>2026-04-26T08:13:38Z</time></trkpt><trkpt lat="37.03758566997529" lon="14.967550185714297"><ele>513.0</ele><time>2026-04-26T08:13:39Z</time></trkpt><trkpt lat="37.03768116893162" lon="14.967254693976798"><ele>513.0</ele><time>2026-04-26T08:13:40Z</time></trkpt><trkpt lat="37.03778317844426" lon="14.966944997319636"><ele>512.5</ele><time>2026-04-26T08:13:41Z</time></trkpt><trkpt lat="37.037893022547735" lon="14.966617605871186"><ele>512.0</ele><time>2026-04-26T08:13:42Z</time></trkpt><trkpt lat="37.03798999169859" lon="14.966322832917797"><ele>512.0</ele><time>2026-04-26T08:13:43Z</time></trkpt><trkpt lat="37.03805919590638" lon="14.966095788272513"><ele>512.0</ele><time>2026-04-26T08:13:44Z</time></trkpt><trkpt lat="37.03813383381321" lon="14.96586234043845"><ele>512.0</ele><time>2026-04-26T08:13:45Z</time></trkpt><trkpt lat="37.038205143677615" lon="14.965642152456443"><ele>512.3333333333333</ele><time>2026-04-26T08:13:46Z</time></trkpt><trkpt lat="37.03827737372565" lon="14.965421787717824"><ele>512.6666666666666</ele><time>2026-04-26T08:13:47Z</time></trkpt><trkpt lat="37.03835552831866" lon="14.96518742207446"><ele>513.0</ele><time>2026-04-26T08:13:48Z</time></trkpt><trkpt lat="37.0384373241477" lon="14.964942428550245"><ele>514.5</ele><time>2026-04-26T08:13:49Z</time></trkpt><trkpt lat="37.03852442028837" lon="14.964683659603306"><ele>516.0</ele><time>2026-04-26T08:13:50Z</time></trkpt><trkpt lat="37.03860884547572" lon="14.96442024802771"><ele>515.5</ele><time>2026-04-26T08:13:51Z</time></trkpt><trkpt lat="37.038693884272504" lon="14.964154573798208"><ele>515.0</ele><time>2026-04-26T08:13:52Z</time></trkpt><trkpt lat="37.03877980917493" lon="14.96388719234465"><ele>515.0</ele><time>2026-04-26T08:13:53Z</time></trkpt><trkpt lat="37.038866907335745" lon="14.963614444941113"><ele>515.0</ele><time>2026-04-26T08:13:54Z</time></trkpt><trkpt lat="37.03895701419022" lon="14.963331451287639"><ele>515.5</ele><time>2026-04-26T08:13:55Z</time></trkpt><trkpt lat="37.03905426352938" lon="14.963014484774275"><ele>516.0</ele><time>2026-04-26T08:13:56Z</time></trkpt><trkpt lat="37.03915579551394" lon="14.962688784692167"><ele>519.0</ele><time>2026-04-26T08:13:57Z</time></trkpt><trkpt lat="37.039259391248216" lon="14.962363721246328"><ele>522.0</ele><time>2026-04-26T08:13:58Z</time></trkpt><trkpt lat="37.03934949442502" lon="14.9620825678238"><ele>522.0</ele><time>2026-04-26T08:13:59Z</time></trkpt><trkpt lat="37.03943523521036" lon="14.961822142298912"><ele>522.0</ele><time>2026-04-26T08:14:00Z</time></trkpt><trkpt lat="37.03951965276468" lon="14.961558494109559"><ele>522.0</ele><time>2026-04-26T08:14:01Z</time></trkpt><trkpt lat="37.039601391435355" lon="14.961298790569046"><ele>522.0</ele><time>2026-04-26T08:14:02Z</time></trkpt><trkpt lat="37.03968580806303" lon="14.9610376020607"><ele>522.0</ele><time>2026-04-26T08:14:03Z</time></trkpt><trkpt lat="37.0397719187868" lon="14.960779895872228"><ele>522.0</ele><time>2026-04-26T08:14:04Z</time></trkpt><trkpt lat="37.03985474131835" lon="14.960515683551293"><ele>522.0</ele><time>2026-04-26T08:14:05Z</time></trkpt><trkpt lat="37.039937972531895" lon="14.96024483255879"><ele>523.0</ele><time>2026-04-26T08:14:06Z</time></trkpt><trkpt lat="37.04002515490005" lon="14.959971662138912"><ele>524.0</ele><time>2026-04-26T08:14:07Z</time></trkpt><trkpt lat="37.0401150267601" lon="14.959691948194298"><ele>524.0</ele><time>2026-04-26T08:14:08Z</time></trkpt><trkpt lat="37.04020224168698" lon="14.959414842016697"><ele>524.0</ele><time>2026-04-26T08:14:09Z</time></trkpt><trkpt lat="37.040288703829916" lon="14.959140849267545"><ele>526.5</ele><time>2026-04-26T08:14:10Z</time></trkpt><trkpt lat="37.04037369197024" lon="14.958869729471798"><ele>529.0</ele><time>2026-04-26T08:14:11Z</time></trkpt><trkpt lat="37.04045875684446" lon="14.958607345240743"><ele>529.6666666666667</ele><time>2026-04-26T08:14:12Z</time></trkpt><trkpt lat="37.04054269358819" lon="14.95835031173841"><ele>530.3333333333334</ele><time>2026-04-26T08:14:13Z</time></trkpt><trkpt lat="37.04062348187116" lon="14.958092692485916"><ele>531.0</ele><time>2026-04-26T08:14:14Z</time></trkpt><trkpt lat="37.04070887727902" lon="14.957830952577517"><ele>531.5</ele><time>2026-04-26T08:14:15Z</time></trkpt><trkpt lat="37.04080064100328" lon="14.957548401794321"><ele>532.0</ele><time>2026-04-26T08:14:16Z</time></trkpt><trkpt lat="37.04089555117011" lon="14.957251253834274"><ele>532.5</ele><time>2026-04-26T08:14:17Z</time></trkpt><trkpt lat="37.04099102364636" lon="14.956950924357164"><ele>533.0</ele><time>2026-04-26T08:14:18Z</time></trkpt><trkpt lat="37.041090654582426" lon="14.956653378422443"><ele>533.5</ele><time>2026-04-26T08:14:19Z</time></trkpt><trkpt lat="37.04118862617572" lon="14.956351103844147"><ele>534.0</ele><time>2026-04-26T08:14:20Z</time></trkpt><trkpt lat="37.04128571289284" lon="14.956048267995174"><ele>535.0</ele><time>2026-04-26T08:14:21Z</time></trkpt><trkpt lat="37.041385548486815" lon="14.955742806201364"><ele>536.0</ele><time>2026-04-26T08:14:22Z</time></trkpt><trkpt lat="37.04148702601537" lon="14.955438209620887"><ele>536.0</ele><time>2026-04-26T08:14:23Z</time></trkpt><trkpt lat="37.04158852802253" lon="14.9551351056491"><ele>536.0</ele><time>2026-04-26T08:14:24Z</time></trkpt><trkpt lat="37.041688746489974" lon="14.954827547400432"><ele>537.0</ele><time>2026-04-26T08:14:25Z</time></trkpt><trkpt lat="37.04178707892217" lon="14.954521786535286"><ele>538.0</ele><time>2026-04-26T08:14:26Z</time></trkpt><trkpt lat="37.041890132407914" lon="14.954210687585919"><ele>539.5</ele><time>2026-04-26T08:14:27Z</time></trkpt><trkpt lat="37.04200622398406" lon="14.953861006295615"><ele>541.0</ele><time>2026-04-26T08:14:28Z</time></trkpt><trkpt lat="37.04211810607829" lon="14.95351270568971"><ele>542.5</ele><time>2026-04-26T08:14:29Z</time></trkpt><trkpt lat="37.042212870722224" lon="14.953221781860757"><ele>544.0</ele><time>2026-04-26T08:14:30Z</time></trkpt><trkpt lat="37.0423008638088" lon="14.952941834329904"><ele>544.0</ele><time>2026-04-26T08:14:31Z</time></trkpt><trkpt lat="37.04239082972805" lon="14.952667713897"><ele>544.0</ele><time>2026-04-26T08:14:32Z</time></trkpt><trkpt lat="37.042480351089715" lon="14.952402324516951"><ele>545.0</ele><time>2026-04-26T08:14:33Z</time></trkpt><trkpt lat="37.04256740023189" lon="14.952141946144799"><ele>546.0</ele><time>2026-04-26T08:14:34Z</time></trkpt><trkpt lat="37.042650020090896" lon="14.95187262145611"><ele>546.5</ele><time>2026-04-26T08:14:35Z</time></trkpt><trkpt lat="37.04273986057875" lon="14.951586014018993"><ele>547.0</ele><time>2026-04-26T08:14:36Z</time></trkpt><trkpt lat="37.04283553546522" lon="14.951287036077822"><ele>547.0</ele><time>2026-04-26T08:14:37Z</time></trkpt><trkpt lat="37.04293531660763" lon="14.950976500128942"><ele>547.0</ele><time>2026-04-26T08:14:38Z</time></trkpt><trkpt lat="37.04303384442255" lon="14.950662683969517"><ele>547.0</ele><time>2026-04-26T08:14:39Z</time></trkpt><trkpt lat="37.04312308833099" lon="14.950376140323513"><ele>547.0</ele><time>2026-04-26T08:14:40Z</time></trkpt><trkpt lat="37.04321362809921" lon="14.950086003929485"><ele>548.0</ele><time>2026-04-26T08:14:41Z</time></trkpt><trkpt lat="37.04330570866646" lon="14.94979292993097"><ele>549.0</ele><time>2026-04-26T08:14:42Z</time></trkpt><trkpt lat="37.043398694704216" lon="14.949503039737646"><ele>549.0</ele><time>2026-04-26T08:14:43Z</time></trkpt><trkpt lat="37.04348936338648" lon="14.949212966980598"><ele>549.0</ele><time>2026-04-26T08:14:44Z</time></trkpt><trkpt lat="37.04357635945396" lon="14.948925722085637"><ele>549.5</ele><time>2026-04-26T08:14:45Z</time></trkpt><trkpt lat="37.043660560622214" lon="14.948641479463266"><ele>550.0</ele><time>2026-04-26T08:14:46Z</time></trkpt><trkpt lat="37.043746931248" lon="14.948358540217544"><ele>550.5</ele><time>2026-04-26T08:14:47Z</time></trkpt><trkpt lat="37.04383665375785" lon="14.94808146686678"><ele>551.0</ele><time>2026-04-26T08:14:48Z</time></trkpt><trkpt lat="37.04392903279083" lon="14.947815133318302"><ele>551.0</ele><time>2026-04-26T08:14:49Z</time></trkpt><trkpt lat="37.0440248531987" lon="14.947551544361934"><ele>551.0</ele><time>2026-04-26T08:14:50Z</time></trkpt><trkpt lat="37.04412460314511" lon="14.947291828251352"><ele>552.0</ele><time>2026-04-26T08:14:51Z</time></trkpt><trkpt lat="37.04422749608934" lon="14.947034762361888"><ele>553.0</ele><time>2026-04-26T08:14:52Z</time></trkpt><trkpt lat="37.04434040705814" lon="14.946772612986146"><ele>553.5</ele><time>2026-04-26T08:14:53Z</time></trkpt><trkpt lat="37.04447098071291" lon="14.9465173229573"><ele>554.0</ele><time>2026-04-26T08:14:54Z</time></trkpt><trkpt lat="37.04460854848979" lon="14.946267949038926"><ele>554.0</ele><time>2026-04-26T08:14:55Z</time></trkpt><trkpt lat="37.04475718554736" lon="14.94601384945131"><ele>554.0</ele><time>2026-04-26T08:14:56Z</time></trkpt><trkpt lat="37.04491732875949" lon="14.945746252392144"><ele>554.5</ele><time>2026-04-26T08:14:57Z</time></trkpt><trkpt lat="37.04506516334457" lon="14.945503861713876"><ele>555.0</ele><time>2026-04-26T08:14:58Z</time></trkpt><trkpt lat="37.04521629140366" lon="14.945298560624886"><ele>555.0</ele><time>2026-04-26T08:14:59Z</time></trkpt><trkpt lat="37.04534087688785" lon="14.945092104126688"><ele>555.0</ele><time>2026-04-26T08:15:00Z</time></trkpt><trkpt lat="37.04546219723566" lon="14.944908486629211"><ele>555.0</ele><time>2026-04-26T08:15:01Z</time></trkpt><trkpt lat="37.045594649729246" lon="14.944733761503178"><ele>555.0</ele><time>2026-04-26T08:15:02Z</time></trkpt><trkpt lat="37.045734565108056" lon="14.944536951770594"><ele>555.0</ele><time>2026-04-26T08:15:03Z</time></trkpt><trkpt lat="37.04586956723945" lon="14.94433291975755"><ele>555.0</ele><time>2026-04-26T08:15:04Z</time></trkpt><trkpt lat="37.0460070532044" lon="14.944122444317005"><ele>556.5</ele><time>2026-04-26T08:15:05Z</time></trkpt><trkpt lat="37.04615052723246" lon="14.943908667628767"><ele>558.0</ele><time>2026-04-26T08:15:06Z</time></trkpt><trkpt lat="37.04630202920421" lon="14.943681121605168"><ele>558.0</ele><time>2026-04-26T08:15:07Z</time></trkpt><trkpt lat="37.04645847802847" lon="14.943448650447971"><ele>558.0</ele><time>2026-04-26T08:15:08Z</time></trkpt><trkpt lat="37.04661700796961" lon="14.9432104410798"><ele>559.0</ele><time>2026-04-26T08:15:09Z</time></trkpt><trkpt lat="37.04678232119345" lon="14.94296192407024"><ele>560.0</ele><time>2026-04-26T08:15:10Z</time></trkpt><trkpt lat="37.046967931776656" lon="14.942681158351805"><ele>559.5</ele><time>2026-04-26T08:15:11Z</time></trkpt><trkpt lat="37.04713467605245" lon="14.942418858692218"><ele>559.0</ele><time>2026-04-26T08:15:12Z</time></trkpt><trkpt lat="37.047283702829965" lon="14.942167154012568"><ele>559.0</ele><time>2026-04-26T08:15:13Z</time></trkpt><trkpt lat="37.04742862052333" lon="14.94190762975396"><ele>559.0</ele><time>2026-04-26T08:15:14Z</time></trkpt><trkpt lat="37.047566448494635" lon="14.941639472620116"><ele>563.5</ele><time>2026-04-26T08:15:15Z</time></trkpt><trkpt lat="37.0476985154577" lon="14.94136442378213"><ele>568.0</ele><time>2026-04-26T08:15:16Z</time></trkpt><trkpt lat="37.04782664541776" lon="14.941085567061256"><ele>568.0</ele><time>2026-04-26T08:15:17Z</time></trkpt><trkpt lat="37.047941996008554" lon="14.9408099210923"><ele>568.0</ele><time>2026-04-26T08:15:18Z</time></trkpt><trkpt lat="37.048033000014556" lon="14.940566702032221"><ele>568.0</ele><time>2026-04-26T08:15:19Z</time></trkpt><trkpt lat="37.04810620814554" lon="14.940357561512437"><ele>568.0</ele><time>2026-04-26T08:15:20Z</time></trkpt><trkpt lat="37.04816442750687" lon="14.940187692497357"><ele>568.0</ele><time>2026-04-26T08:15:21Z</time></trkpt><trkpt lat="37.04821479261755" lon="14.94004440981549"><ele>568.0</ele><time>2026-04-26T08:15:22Z</time></trkpt><trkpt lat="37.04825798016622" lon="14.939915374099042"><ele>568.0</ele><time>2026-04-26T08:15:23Z</time></trkpt><trkpt lat="37.048301031905666" lon="14.939803214813502"><ele>568.0</ele><time>2026-04-26T08:15:24Z</time></trkpt><trkpt lat="37.04835775989023" lon="14.939715897721626"><ele>568.0</ele><time>2026-04-26T08:15:25Z</time></trkpt><trkpt lat="37.048420935754365" lon="14.939652426333152"><ele>568.0</ele><time>2026-04-26T08:15:26Z</time></trkpt><trkpt lat="37.048474361196845" lon="14.93960593030073"><ele>568.0</ele><time>2026-04-26T08:15:27Z</time></trkpt><trkpt lat="37.04847392509374" lon="14.939516594655393"><ele>568.0</ele><time>2026-04-26T08:15:29Z</time></trkpt><trkpt lat="37.048404091507216" lon="14.939483051540995"><ele>568.0</ele><time>2026-04-26T08:15:31Z</time></trkpt><trkpt lat="37.04830511958312" lon="14.939558414831101"><ele>568.0</ele><time>2026-04-26T08:15:33Z</time></trkpt><trkpt lat="37.048260579878615" lon="14.939723222372134"><ele>568.0</ele><time>2026-04-26T08:15:34Z</time></trkpt><trkpt lat="37.04820371163399" lon="14.939909434599695"><ele>568.0</ele><time>2026-04-26T08:15:35Z</time></trkpt><trkpt lat="37.04813750562525" lon="14.940101106258478"><ele>568.0</ele><time>2026-04-26T08:15:36Z</time></trkpt><trkpt lat="37.04806362618567" lon="14.940326586016454"><ele>568.0</ele><time>2026-04-26T08:15:37Z</time></trkpt><trkpt lat="37.04798845634413" lon="14.94056033105304"><ele>568.0</ele><time>2026-04-26T08:15:38Z</time></trkpt><trkpt lat="37.04790573849697" lon="14.940791075997275"><ele>568.0</ele><time>2026-04-26T08:15:39Z</time></trkpt><trkpt lat="37.04780991389021" lon="14.941020351158649"><ele>568.0</ele><time>2026-04-26T08:15:40Z</time></trkpt><trkpt lat="37.04770443871756" lon="14.941246280435632"><ele>568.0</ele><time>2026-04-26T08:15:41Z</time></trkpt><trkpt lat="37.047593335916446" lon="14.94147107948226"><ele>568.0</ele><time>2026-04-26T08:15:42Z</time></trkpt><trkpt lat="37.04747873274222" lon="14.941699720861255"><ele>568.0</ele><time>2026-04-26T08:15:43Z</time></trkpt><trkpt lat="37.04736143066908" lon="14.941927688292994"><ele>565.3333333333334</ele><time>2026-04-26T08:15:44Z</time></trkpt><trkpt lat="37.047235179134944" lon="14.942149489143683"><ele>562.6666666666666</ele><time>2026-04-26T08:15:45Z</time></trkpt><trkpt lat="37.047099403486335" lon="14.942375509472681"><ele>560.0</ele><time>2026-04-26T08:15:46Z</time></trkpt><trkpt lat="37.04694368114076" lon="14.942631523170462"><ele>560.0</ele><time>2026-04-26T08:15:47Z</time></trkpt><trkpt lat="37.046782778914476" lon="14.942891346715923"><ele>560.0</ele><time>2026-04-26T08:15:48Z</time></trkpt><trkpt lat="37.04662552673987" lon="14.943135887721274"><ele>560.0</ele><time>2026-04-26T08:15:49Z</time></trkpt><trkpt lat="37.046473942649925" lon="14.943358120220156"><ele>560.0</ele><time>2026-04-26T08:15:50Z</time></trkpt><trkpt lat="37.046321942872716" lon="14.943577444249753"><ele>559.0</ele><time>2026-04-26T08:15:51Z</time></trkpt><trkpt lat="37.04617255946316" lon="14.943796980244672"><ele>558.0</ele><time>2026-04-26T08:15:52Z</time></trkpt><trkpt lat="37.04601872508531" lon="14.944025996941953"><ele>557.5</ele><time>2026-04-26T08:15:53Z</time></trkpt><trkpt lat="37.04586177015131" lon="14.944261208599494"><ele>557.0</ele><time>2026-04-26T08:15:54Z</time></trkpt><trkpt lat="37.045699917978745" lon="14.944498261862853"><ele>556.0</ele><time>2026-04-26T08:15:55Z</time></trkpt><trkpt lat="37.0455377994701" lon="14.94473888904372"><ele>555.0</ele><time>2026-04-26T08:15:56Z</time></trkpt><trkpt lat="37.045374704060286" lon="14.944983743585"><ele>555.0</ele><time>2026-04-26T08:15:57Z</time></trkpt><trkpt lat="37.045215257869756" lon="14.945221821700695"><ele>555.0</ele><time>2026-04-26T08:15:58Z</time></trkpt><trkpt lat="37.045058415000206" lon="14.945453015440705"><ele>555.5</ele><time>2026-04-26T08:15:59Z</time></trkpt><trkpt lat="37.04490101416681" lon="14.945688682906043"><ele>556.0</ele><time>2026-04-26T08:16:00Z</time></trkpt><trkpt lat="37.044749348935106" lon="14.945929434040309"><ele>555.0</ele><time>2026-04-26T08:16:01Z</time></trkpt><trkpt lat="37.04460886272589" lon="14.946169262553243"><ele>554.0</ele><time>2026-04-26T08:16:02Z</time></trkpt><trkpt lat="37.04447258696395" lon="14.946420836085116"><ele>554.0</ele><time>2026-04-26T08:16:03Z</time></trkpt><trkpt lat="37.04433955804493" lon="14.946683198887339"><ele>554.0</ele><time>2026-04-26T08:16:04Z</time></trkpt><trkpt lat="37.04421452855218" lon="14.946953419017614"><ele>553.0</ele><time>2026-04-26T08:16:05Z</time></trkpt><trkpt lat="37.04409858729556" lon="14.947221902543523"><ele>552.0</ele><time>2026-04-26T08:16:06Z</time></trkpt><trkpt lat="37.04399184369056" lon="14.947491512173341"><ele>551.5</ele><time>2026-04-26T08:16:07Z</time></trkpt><trkpt lat="37.04389282607834" lon="14.947762635374916"><ele>551.0</ele><time>2026-04-26T08:16:08Z</time></trkpt><trkpt lat="37.04380140030894" lon="14.948035621596732"><ele>551.0</ele><time>2026-04-26T08:16:09Z</time></trkpt><trkpt lat="37.043715625583275" lon="14.948308954769864"><ele>551.0</ele><time>2026-04-26T08:16:10Z</time></trkpt><trkpt lat="37.043632971430284" lon="14.948579213938087"><ele>550.5</ele><time>2026-04-26T08:16:11Z</time></trkpt><trkpt lat="37.043549497808186" lon="14.948847919087257"><ele>550.0</ele><time>2026-04-26T08:16:12Z</time></trkpt><trkpt lat="37.04346469745445" lon="14.949118544123762"><ele>549.5</ele><time>2026-04-26T08:16:13Z</time></trkpt><trkpt lat="37.04338000575702" lon="14.949388365907552"><ele>549.0</ele><time>2026-04-26T08:16:14Z</time></trkpt><trkpt lat="37.04329743328529" lon="14.949656562221234"><ele>548.0</ele><time>2026-04-26T08:16:15.001Z</time></trkpt><trkpt lat="37.04321673549783" lon="14.94992617202909"><ele>547.0</ele><time>2026-04-26T08:16:16.001Z</time></trkpt><trkpt lat="37.043135230741" lon="14.950195341219798"><ele>547.0</ele><time>2026-04-26T08:16:17.001Z</time></trkpt><trkpt lat="37.043048703710035" lon="14.950471974254407"><ele>547.0</ele><time>2026-04-26T08:16:18.001Z</time></trkpt><trkpt lat="37.04295070178256" lon="14.950773044499352"><ele>547.0</ele><time>2026-04-26T08:16:19.001Z</time></trkpt><trkpt lat="37.04284585124716" lon="14.951093273910248"><ele>547.0</ele><time>2026-04-26T08:16:20.001Z</time></trkpt><trkpt lat="37.04273769897391" lon="14.951435625643109"><ele>546.5</ele><time>2026-04-26T08:16:21.001Z</time></trkpt><trkpt lat="37.04262447280094" lon="14.951795074428711"><ele>546.0</ele><time>2026-04-26T08:16:22.001Z</time></trkpt><trkpt lat="37.042505867287815" lon="14.952164502716018"><ele>545.0</ele><time>2026-04-26T08:16:23.001Z</time></trkpt><trkpt lat="37.042396053912206" lon="14.952496061288766"><ele>544.0</ele><time>2026-04-26T08:16:24.001Z</time></trkpt><trkpt lat="37.04229300686746" lon="14.95280704797057"><ele>544.0</ele><time>2026-04-26T08:16:25.001Z</time></trkpt><trkpt lat="37.042194892534035" lon="14.953105405732629"><ele>544.0</ele><time>2026-04-26T08:16:26.001Z</time></trkpt><trkpt lat="37.04209979977244" lon="14.953387889521562"><ele>542.5</ele><time>2026-04-26T08:16:27.001Z</time></trkpt><trkpt lat="37.04201216722965" lon="14.953658972998774"><ele>541.0</ele><time>2026-04-26T08:16:28.001Z</time></trkpt><trkpt lat="37.041928167647725" lon="14.953929563082722"><ele>541.0</ele><time>2026-04-26T08:16:29.001Z</time></trkpt><trkpt lat="37.04184644046543" lon="14.954199208023752"><ele>541.0</ele><time>2026-04-26T08:16:30.001Z</time></trkpt><trkpt lat="37.041764043399574" lon="14.954460175087936"><ele>539.5</ele><time>2026-04-26T08:16:31.001Z</time></trkpt><trkpt lat="37.041676217122735" lon="14.95472115506321"><ele>538.0</ele><time>2026-04-26T08:16:32.001Z</time></trkpt><trkpt lat="37.04158988950267" lon="14.95498767820452"><ele>537.0</ele><time>2026-04-26T08:16:33.001Z</time></trkpt><trkpt lat="37.04150300629389" lon="14.955257780106201"><ele>536.0</ele><time>2026-04-26T08:16:34.001Z</time></trkpt><trkpt lat="37.04140682530992" lon="14.955547947032304"><ele>536.0</ele><time>2026-04-26T08:16:35.001Z</time></trkpt><trkpt lat="37.041307030937574" lon="14.955857993379775"><ele>536.0</ele><time>2026-04-26T08:16:36.001Z</time></trkpt><trkpt lat="37.04119708999947" lon="14.956200471397132"><ele>535.0</ele><time>2026-04-26T08:16:37.001Z</time></trkpt><trkpt lat="37.04107807661172" lon="14.956564802990064"><ele>534.0</ele><time>2026-04-26T08:16:38.001Z</time></trkpt><trkpt lat="37.040951608309626" lon="14.95695090514825"><ele>533.5</ele><time>2026-04-26T08:16:39.001Z</time></trkpt><trkpt lat="37.04082836018501" lon="14.957326539749154"><ele>533.0</ele><time>2026-04-26T08:16:40.001Z</time></trkpt><trkpt lat="37.040711098438415" lon="14.957686568440796"><ele>532.0</ele><time>2026-04-26T08:16:41.001Z</time></trkpt><trkpt lat="37.04059936409688" lon="14.95803192936575"><ele>531.0</ele><time>2026-04-26T08:16:42.001Z</time></trkpt><trkpt lat="37.040493218112026" lon="14.958364032753291"><ele>530.0</ele><time>2026-04-26T08:16:43.001Z</time></trkpt><trkpt lat="37.04039124318629" lon="14.95868857218292"><ele>529.0</ele><time>2026-04-26T08:16:44.001Z</time></trkpt><trkpt lat="37.04029053079327" lon="14.959004549017777"><ele>526.5</ele><time>2026-04-26T08:16:45.001Z</time></trkpt><trkpt lat="37.0401904305678" lon="14.959315526242287"><ele>524.0</ele><time>2026-04-26T08:16:46.001Z</time></trkpt><trkpt lat="37.04009002904539" lon="14.959625801549166"><ele>524.0</ele><time>2026-04-26T08:16:47.001Z</time></trkpt><trkpt lat="37.03998942064049" lon="14.95993468799261"><ele>524.0</ele><time>2026-04-26T08:16:48.001Z</time></trkpt><trkpt lat="37.03988735532939" lon="14.960245241953697"><ele>523.0</ele><time>2026-04-26T08:16:49.001Z</time></trkpt><trkpt lat="37.03978609707454" lon="14.960554555282517"><ele>522.0</ele><time>2026-04-26T08:16:50.001Z</time></trkpt><trkpt lat="37.039685228733184" lon="14.960865519409705"><ele>521.0</ele><time>2026-04-26T08:16:51.001Z</time></trkpt><trkpt lat="37.03958462895864" lon="14.96117835964317"><ele>520.0</ele><time>2026-04-26T08:16:52.001Z</time></trkpt><trkpt lat="37.03948478071701" lon="14.961489583561432"><ele>521.0</ele><time>2026-04-26T08:16:53.001Z</time></trkpt><trkpt lat="37.039385611997396" lon="14.961796864849088"><ele>522.0</ele><time>2026-04-26T08:16:54.001Z</time></trkpt><trkpt lat="37.039287222450355" lon="14.962099509418474"><ele>522.0</ele><time>2026-04-26T08:16:55.001Z</time></trkpt><trkpt lat="37.03918743586672" lon="14.96240334850622"><ele>522.0</ele><time>2026-04-26T08:16:56.001Z</time></trkpt><trkpt lat="37.03909089881054" lon="14.962708126777441"><ele>519.0</ele><time>2026-04-26T08:16:57.001Z</time></trkpt><trkpt lat="37.03899540298538" lon="14.96301345799684"><ele>516.0</ele><time>2026-04-26T08:16:58.001Z</time></trkpt><trkpt lat="37.03890068780332" lon="14.963315437599753"><ele>515.5</ele><time>2026-04-26T08:16:59.001Z</time></trkpt><trkpt lat="37.03880455278979" lon="14.963615723160338"><ele>515.0</ele><time>2026-04-26T08:17:00.001Z</time></trkpt><trkpt lat="37.03870556325828" lon="14.963912574960514"><ele>515.5</ele><time>2026-04-26T08:17:01.001Z</time></trkpt><trkpt lat="37.03860943420801" lon="14.964209422159552"><ele>516.0</ele><time>2026-04-26T08:17:02.001Z</time></trkpt><trkpt lat="37.03851699956442" lon="14.964498173797267"><ele>516.0</ele><time>2026-04-26T08:17:03.001Z</time></trkpt><trkpt lat="37.03842218757914" lon="14.964788983477836"><ele>516.0</ele><time>2026-04-26T08:17:04.001Z</time></trkpt><trkpt lat="37.038329162993804" lon="14.965076345360462"><ele>514.5</ele><time>2026-04-26T08:17:05.001Z</time></trkpt><trkpt lat="37.03823705128774" lon="14.965362935773204"><ele>513.0</ele><time>2026-04-26T08:17:06.001Z</time></trkpt><trkpt lat="37.0381479990692" lon="14.965645356543416"><ele>512.5</ele><time>2026-04-26T08:17:07.001Z</time></trkpt><trkpt lat="37.03806119447716" lon="14.96592189563951"><ele>512.0</ele><time>2026-04-26T08:17:08.001Z</time></trkpt><trkpt lat="37.03797184661977" lon="14.96619736443277"><ele>512.0</ele><time>2026-04-26T08:17:09.001Z</time></trkpt><trkpt lat="37.0378839101253" lon="14.966472316572872"><ele>512.0</ele><time>2026-04-26T08:17:10.001Z</time></trkpt><trkpt lat="37.03779580292235" lon="14.966750417733454"><ele>512.5</ele><time>2026-04-26T08:17:11.001Z</time></trkpt><trkpt lat="37.03770971979896" lon="14.967028186861485"><ele>513.0</ele><time>2026-04-26T08:17:12.001Z</time></trkpt><trkpt lat="37.03762080504657" lon="14.967309364570523"><ele>513.0</ele><time>2026-04-26T08:17:13.001Z</time></trkpt><trkpt lat="37.037527089035365" lon="14.967589440703184"><ele>513.0</ele><time>2026-04-26T08:17:14.001Z</time></trkpt><trkpt lat="37.03743105340076" lon="14.967871368262681"><ele>513.0</ele><time>2026-04-26T08:17:15.001Z</time></trkpt><trkpt lat="37.037337407601285" lon="14.968159953839779"><ele>513.0</ele><time>2026-04-26T08:17:16.001Z</time></trkpt><trkpt lat="37.03724394606406" lon="14.968459237127451"><ele>512.5</ele><time>2026-04-26T08:17:17.001Z</time></trkpt><trkpt lat="37.03714820004322" lon="14.968767628813893"><ele>512.0</ele><time>2026-04-26T08:17:18.001Z</time></trkpt><trkpt lat="37.037045580293395" lon="14.969081454556111"><ele>511.5</ele><time>2026-04-26T08:17:19.001Z</time></trkpt><trkpt lat="37.03694107546724" lon="14.96940219493465"><ele>511.0</ele><time>2026-04-26T08:17:20.001Z</time></trkpt><trkpt lat="37.03683926110248" lon="14.969725657862599"><ele>511.0</ele><time>2026-04-26T08:17:21.001Z</time></trkpt><trkpt lat="37.0367374421136" lon="14.970050770828191"><ele>511.0</ele><time>2026-04-26T08:17:22.001Z</time></trkpt><trkpt lat="37.03663618793467" lon="14.970377738681735"><ele>511.0</ele><time>2026-04-26T08:17:23.001Z</time></trkpt><trkpt lat="37.03653775913034" lon="14.970705820075555"><ele>511.0</ele><time>2026-04-26T08:17:24.001Z</time></trkpt><trkpt lat="37.03644343529326" lon="14.971035252731545"><ele>510.0</ele><time>2026-04-26T08:17:25.001Z</time></trkpt><trkpt lat="37.0363508117424" lon="14.971364856775981"><ele>509.0</ele><time>2026-04-26T08:17:26.001Z</time></trkpt><trkpt lat="37.036264463107074" lon="14.971698397865188"><ele>509.0</ele><time>2026-04-26T08:17:27.001Z</time></trkpt><trkpt lat="37.03618795375237" lon="14.972036750570409"><ele>509.0</ele><time>2026-04-26T08:17:28.001Z</time></trkpt><trkpt lat="37.0361258833409" lon="14.972379337560008"><ele>508.0</ele><time>2026-04-26T08:17:29.001Z</time></trkpt><trkpt lat="37.03607528478401" lon="14.972722723970156"><ele>507.0</ele><time>2026-04-26T08:17:30.001Z</time></trkpt><trkpt lat="37.036030305888914" lon="14.973059432654171"><ele>507.0</ele><time>2026-04-26T08:17:31.001Z</time></trkpt><trkpt lat="37.035986074083254" lon="14.973388314926938"><ele>507.0</ele><time>2026-04-26T08:17:32.001Z</time></trkpt><trkpt lat="37.0359402963418" lon="14.97371103389914"><ele>507.0</ele><time>2026-04-26T08:17:33.001Z</time></trkpt><trkpt lat="37.035892513944944" lon="14.974030312187187"><ele>507.0</ele><time>2026-04-26T08:17:34.001Z</time></trkpt><trkpt lat="37.03584541776246" lon="14.974346474829256"><ele>506.0</ele><time>2026-04-26T08:17:35.001Z</time></trkpt><trkpt lat="37.03580139380441" lon="14.97465704521971"><ele>505.0</ele><time>2026-04-26T08:17:36.001Z</time></trkpt><trkpt lat="37.035758897703296" lon="14.974964711306988"><ele>504.5</ele><time>2026-04-26T08:17:37.001Z</time></trkpt><trkpt lat="37.03571845313442" lon="14.975271286246029"><ele>504.0</ele><time>2026-04-26T08:17:38.001Z</time></trkpt><trkpt lat="37.035678190552865" lon="14.975577253792292"><ele>503.5</ele><time>2026-04-26T08:17:39.001Z</time></trkpt><trkpt lat="37.03563827552124" lon="14.975879568784315"><ele>503.0</ele><time>2026-04-26T08:17:40.001Z</time></trkpt><trkpt lat="37.035597365066906" lon="14.976179504862264"><ele>503.0</ele><time>2026-04-26T08:17:41.001Z</time></trkpt><trkpt lat="37.03555653587856" lon="14.97648420245675"><ele>503.0</ele><time>2026-04-26T08:17:42.001Z</time></trkpt><trkpt lat="37.03551444040588" lon="14.97679048098465"><ele>502.0</ele><time>2026-04-26T08:17:43.001Z</time></trkpt><trkpt lat="37.03547251295359" lon="14.977097861075759"><ele>501.0</ele><time>2026-04-26T08:17:44.001Z</time></trkpt><trkpt lat="37.03543079764655" lon="14.977408014378758"><ele>501.5</ele><time>2026-04-26T08:17:45.001Z</time></trkpt><trkpt lat="37.03538928719684" lon="14.977721579683958"><ele>502.0</ele><time>2026-04-26T08:17:46.001Z</time></trkpt><trkpt lat="37.035346795473515" lon="14.978043274467499"><ele>502.5</ele><time>2026-04-26T08:17:47.001Z</time></trkpt><trkpt lat="37.035302922374754" lon="14.978370770306514"><ele>503.0</ele><time>2026-04-26T08:17:48.001Z</time></trkpt><trkpt lat="37.035256141374134" lon="14.978700653082818"><ele>503.0</ele><time>2026-04-26T08:17:49.001Z</time></trkpt><trkpt lat="37.035207512881335" lon="14.97903582870623"><ele>503.0</ele><time>2026-04-26T08:17:50.001Z</time></trkpt><trkpt lat="37.03515818590543" lon="14.979373561199397"><ele>503.0</ele><time>2026-04-26T08:17:51.001Z</time></trkpt><trkpt lat="37.0351089324347" lon="14.979723047058876"><ele>503.0</ele><time>2026-04-26T08:17:52.001Z</time></trkpt><trkpt lat="37.03505556683627" lon="14.980075634810465"><ele>503.0</ele><time>2026-04-26T08:17:53.001Z</time></trkpt><trkpt lat="37.03499442317097" lon="14.98043019760288"><ele>503.0</ele><time>2026-04-26T08:17:54.001Z</time></trkpt><trkpt lat="37.03492474266718" lon="14.980783790201603"><ele>505.0</ele><time>2026-04-26T08:17:55.001Z</time></trkpt><trkpt lat="37.03484599127995" lon="14.981132379252662"><ele>507.0</ele><time>2026-04-26T08:17:56.001Z</time></trkpt><trkpt lat="37.03476168526513" lon="14.981475994307223"><ele>505.5</ele><time>2026-04-26T08:17:57.001Z</time></trkpt><trkpt lat="37.03467733751897" lon="14.98181258153185"><ele>504.0</ele><time>2026-04-26T08:17:58.001Z</time></trkpt><trkpt lat="37.03459313850436" lon="14.982139406722514"><ele>504.0</ele><time>2026-04-26T08:17:59.001Z</time></trkpt><trkpt lat="37.03450824299097" lon="14.982458221218558"><ele>504.0</ele><time>2026-04-26T08:18:00.001Z</time></trkpt><trkpt lat="37.034424388311464" lon="14.982771647491354"><ele>501.0</ele><time>2026-04-26T08:18:01.001Z</time></trkpt><trkpt lat="37.0343437512688" lon="14.983080774591352"><ele>498.0</ele><time>2026-04-26T08:18:02.001Z</time></trkpt><trkpt lat="37.03426639542522" lon="14.983385146739757"><ele>497.5</ele><time>2026-04-26T08:18:03.001Z</time></trkpt><trkpt lat="37.034190720286816" lon="14.983688540997322"><ele>497.0</ele><time>2026-04-26T08:18:04.001Z</time></trkpt><trkpt lat="37.03411312535702" lon="14.983990376179301"><ele>497.5</ele><time>2026-04-26T08:18:05.001Z</time></trkpt><trkpt lat="37.03403468906861" lon="14.984289768594099"><ele>498.0</ele><time>2026-04-26T08:18:06.001Z</time></trkpt><trkpt lat="37.033952404564786" lon="14.984594496659867"><ele>498.0</ele><time>2026-04-26T08:18:07.001Z</time></trkpt><trkpt lat="37.03386819232144" lon="14.984902648235408"><ele>498.0</ele><time>2026-04-26T08:18:08.001Z</time></trkpt><trkpt lat="37.03378520176462" lon="14.985210961618971"><ele>497.5</ele><time>2026-04-26T08:18:09.001Z</time></trkpt><trkpt lat="37.033702580660986" lon="14.985519379264245"><ele>497.0</ele><time>2026-04-26T08:18:10.001Z</time></trkpt><trkpt lat="37.03362109365221" lon="14.985825980621872"><ele>498.0</ele><time>2026-04-26T08:18:11.001Z</time></trkpt><trkpt lat="37.03353972454561" lon="14.98613110356345"><ele>499.0</ele><time>2026-04-26T08:18:12.001Z</time></trkpt><trkpt lat="37.033457467590566" lon="14.98643195663988"><ele>499.0</ele><time>2026-04-26T08:18:13.001Z</time></trkpt><trkpt lat="37.033371544528336" lon="14.986727489434546"><ele>499.0</ele><time>2026-04-26T08:18:14.001Z</time></trkpt><trkpt lat="37.03327524244227" lon="14.987016294555108"><ele>498.0</ele><time>2026-04-26T08:18:15.001Z</time></trkpt><trkpt lat="37.03316988748674" lon="14.987299383614639"><ele>497.0</ele><time>2026-04-26T08:18:16.001Z</time></trkpt><trkpt lat="37.033049144518365" lon="14.987577613620868"><ele>497.0</ele><time>2026-04-26T08:18:17.001Z</time></trkpt><trkpt lat="37.03292245185138" lon="14.9878407262454"><ele>497.0</ele><time>2026-04-26T08:18:18.001Z</time></trkpt><trkpt lat="37.03279213977726" lon="14.988104719337066"><ele>498.0</ele><time>2026-04-26T08:18:19.001Z</time></trkpt><trkpt lat="37.03267174306418" lon="14.988372635652789"><ele>499.0</ele><time>2026-04-26T08:18:20.001Z</time></trkpt><trkpt lat="37.032557766294175" lon="14.988638153704255"><ele>496.0</ele><time>2026-04-26T08:18:21.001Z</time></trkpt><trkpt lat="37.03245322886001" lon="14.988904432765"><ele>493.0</ele><time>2026-04-26T08:18:22.001Z</time></trkpt><trkpt lat="37.032365344511966" lon="14.989173893387642"><ele>492.0</ele><time>2026-04-26T08:18:23.001Z</time></trkpt><trkpt lat="37.03228622143524" lon="14.989453868676968"><ele>491.0</ele><time>2026-04-26T08:18:24.001Z</time></trkpt><trkpt lat="37.03221805414184" lon="14.98974043451891"><ele>491.0</ele><time>2026-04-26T08:18:25.001Z</time></trkpt><trkpt lat="37.03216557366316" lon="14.990028485309022"><ele>491.0</ele><time>2026-04-26T08:18:26.001Z</time></trkpt><trkpt lat="37.032139159785146" lon="14.990321335096782"><ele>491.0</ele><time>2026-04-26T08:18:27.001Z</time></trkpt><trkpt lat="37.03212838373413" lon="14.990615428175289"><ele>491.0</ele><time>2026-04-26T08:18:28.001Z</time></trkpt><trkpt lat="37.032132903323365" lon="14.990909599238966"><ele>491.5</ele><time>2026-04-26T08:18:29.001Z</time></trkpt><trkpt lat="37.03214612803342" lon="14.991210612508066"><ele>492.0</ele><time>2026-04-26T08:18:30.001Z</time></trkpt><trkpt lat="37.03216039336332" lon="14.9915120167289"><ele>493.0</ele><time>2026-04-26T08:18:31.001Z</time></trkpt><trkpt lat="37.0321717473949" lon="14.991814194071983"><ele>494.0</ele><time>2026-04-26T08:18:32.001Z</time></trkpt><trkpt lat="37.032184692490105" lon="14.99208975708178"><ele>494.0</ele><time>2026-04-26T08:18:33.001Z</time></trkpt><trkpt lat="37.032201669087186" lon="14.992344913622535"><ele>494.0</ele><time>2026-04-26T08:18:34.001Z</time></trkpt><trkpt lat="37.03221660786602" lon="14.992574203972094"><ele>494.0</ele><time>2026-04-26T08:18:35.001Z</time></trkpt><trkpt lat="37.032229753523566" lon="14.992783937109579"><ele>494.5</ele><time>2026-04-26T08:18:36.001Z</time></trkpt><trkpt lat="37.03224045696427" lon="14.992981915040692"><ele>495.0</ele><time>2026-04-26T08:18:37.001Z</time></trkpt><trkpt lat="37.03225055467805" lon="14.993163829264859"><ele>495.5</ele><time>2026-04-26T08:18:38.001Z</time></trkpt><trkpt lat="37.03226153980964" lon="14.993334088554917"><ele>496.0</ele><time>2026-04-26T08:18:39.001Z</time></trkpt><trkpt lat="37.03227430891978" lon="14.993490903604053"><ele>496.20000000000005</ele><time>2026-04-26T08:18:40.001Z</time></trkpt><trkpt lat="37.032284213912696" lon="14.993637025099812"><ele>496.40000000000003</ele><time>2026-04-26T08:18:41.001Z</time></trkpt><trkpt lat="37.032292690249285" lon="14.993767114057231"><ele>496.6</ele><time>2026-04-26T08:18:42.001Z</time></trkpt><trkpt lat="37.032292834124696" lon="14.993863109141245"><ele>496.8</ele><time>2026-04-26T08:18:43.001Z</time></trkpt><trkpt lat="37.03230448914889" lon="14.993945004760757"><ele>497.0</ele><time>2026-04-26T08:18:45.001Z</time></trkpt><trkpt lat="37.03244922705526" lon="14.993922142577892"><ele>496.6</ele><time>2026-04-26T08:18:46.001Z</time></trkpt><trkpt lat="37.03251564069224" lon="14.993873612333472"><ele>496.20000000000005</ele><time>2026-04-26T08:18:47.001Z</time></trkpt><trkpt lat="37.03258514043513" lon="14.993817062693624"><ele>495.8</ele><time>2026-04-26T08:18:48.001Z</time></trkpt><trkpt lat="37.03266292514718" lon="14.993753050743448"><ele>495.4</ele><time>2026-04-26T08:18:49.001Z</time></trkpt><trkpt lat="37.032758222911944" lon="14.993686427468427"><ele>495.0</ele><time>2026-04-26T08:18:50.001Z</time></trkpt><trkpt lat="37.03287124778211" lon="14.9936227118327"><ele>495.0</ele><time>2026-04-26T08:18:51.001Z</time></trkpt><trkpt lat="37.03299557929112" lon="14.993544228117527"><ele>495.0</ele><time>2026-04-26T08:18:52.001Z</time></trkpt><trkpt lat="37.03312947134344" lon="14.99344103662026"><ele>495.0</ele><time>2026-04-26T08:18:53.001Z</time></trkpt><trkpt lat="37.03326734443665" lon="14.993323569044614"><ele>495.66666666666663</ele><time>2026-04-26T08:18:54.001Z</time></trkpt><trkpt lat="37.033410698303626" lon="14.993218588302835"><ele>496.3333333333333</ele><time>2026-04-26T08:18:55.001Z</time></trkpt><trkpt lat="37.033588281900506" lon="14.993105331959292"><ele>497.0</ele><time>2026-04-26T08:18:56.001Z</time></trkpt><trkpt lat="37.0337614976386" lon="14.992993489384979"><ele>497.0</ele><time>2026-04-26T08:18:57.001Z</time></trkpt><trkpt lat="37.0339068982191" lon="14.992893096025544"><ele>497.0</ele><time>2026-04-26T08:18:58.001Z</time></trkpt><trkpt lat="37.034032279367544" lon="14.992789965798721"><ele>497.0</ele><time>2026-04-26T08:18:59.001Z</time></trkpt><trkpt lat="37.03415853712944" lon="14.992659224793004"><ele>498.3333333333333</ele><time>2026-04-26T08:19:00.001Z</time></trkpt><trkpt lat="37.03427278488928" lon="14.992521272399213"><ele>499.66666666666663</ele><time>2026-04-26T08:19:01.001Z</time></trkpt><trkpt lat="37.034391483166644" lon="14.992384438285052"><ele>501.0</ele><time>2026-04-26T08:19:02.001Z</time></trkpt><trkpt lat="37.03451967012506" lon="14.992253449707697"><ele>502.66666666666663</ele><time>2026-04-26T08:19:03.001Z</time></trkpt><trkpt lat="37.03465217144453" lon="14.992127980666236"><ele>504.3333333333333</ele><time>2026-04-26T08:19:04.001Z</time></trkpt><trkpt lat="37.03478165194071" lon="14.992002872729884"><ele>506.0</ele><time>2026-04-26T08:19:05.001Z</time></trkpt><trkpt lat="37.03490560602498" lon="14.991876614635059"><ele>506.0</ele><time>2026-04-26T08:19:06.001Z</time></trkpt><trkpt lat="37.035025770214055" lon="14.991753249754806"><ele>506.0</ele><time>2026-04-26T08:19:07.001Z</time></trkpt><trkpt lat="37.03514233170273" lon="14.991635448687273"><ele>506.0</ele><time>2026-04-26T08:19:08.001Z</time></trkpt><trkpt lat="37.035259037099436" lon="14.991532943390403"><ele>506.0</ele><time>2026-04-26T08:19:09.001Z</time></trkpt><trkpt lat="37.0353805835244" lon="14.991446105076012"><ele>506.75</ele><time>2026-04-26T08:19:10.001Z</time></trkpt><trkpt lat="37.035502803493074" lon="14.99137017626322"><ele>507.5</ele><time>2026-04-26T08:19:11.001Z</time></trkpt><trkpt lat="37.035626216033044" lon="14.991292003130903"><ele>508.25</ele><time>2026-04-26T08:19:12.001Z</time></trkpt><trkpt lat="37.03574841267504" lon="14.991212754861463"><ele>509.0</ele><time>2026-04-26T08:19:13.001Z</time></trkpt><trkpt lat="37.03587146726593" lon="14.991129881254235"><ele>509.25</ele><time>2026-04-26T08:19:14.001Z</time></trkpt><trkpt lat="37.03599725074317" lon="14.991041716666604"><ele>509.5</ele><time>2026-04-26T08:19:15.001Z</time></trkpt><trkpt lat="37.036127144344746" lon="14.990948261330315"><ele>509.75</ele><time>2026-04-26T08:19:16.001Z</time></trkpt><trkpt lat="37.036261724460225" lon="14.990853530414899"><ele>510.0</ele><time>2026-04-26T08:19:17.001Z</time></trkpt><trkpt lat="37.03639940787554" lon="14.990759547489759"><ele>508.66666666666663</ele><time>2026-04-26T08:19:18.001Z</time></trkpt><trkpt lat="37.03654245628579" lon="14.990668164018865"><ele>507.3333333333333</ele><time>2026-04-26T08:19:19.001Z</time></trkpt><trkpt lat="37.03668998561554" lon="14.990576005970222"><ele>506.0</ele><time>2026-04-26T08:19:20.001Z</time></trkpt><trkpt lat="37.03683855073155" lon="14.990482644861501"><ele>506.0</ele><time>2026-04-26T08:19:21.001Z</time></trkpt><trkpt lat="37.0369729660229" lon="14.990400496638706"><ele>506.0</ele><time>2026-04-26T08:19:22.001Z</time></trkpt><trkpt lat="37.037106995571875" lon="14.990326327799174"><ele>506.0</ele><time>2026-04-26T08:19:23.001Z</time></trkpt><trkpt lat="37.037246968754694" lon="14.990253023322062"><ele>506.0</ele><time>2026-04-26T08:19:24.001Z</time></trkpt><trkpt lat="37.03739869468598" lon="14.990174618090954"><ele>507.0</ele><time>2026-04-26T08:19:25.001Z</time></trkpt><trkpt lat="37.03755539219921" lon="14.990085847103071"><ele>508.0</ele><time>2026-04-26T08:19:26.001Z</time></trkpt><trkpt lat="37.03771225047047" lon="14.989991585340418"><ele>509.0</ele><time>2026-04-26T08:19:27.001Z</time></trkpt><trkpt lat="37.037868523128026" lon="14.98990012414122"><ele>505.66666666666663</ele><time>2026-04-26T08:19:28.001Z</time></trkpt><trkpt lat="37.03802608644853" lon="14.989811241011559"><ele>502.33333333333337</ele><time>2026-04-26T08:19:29.001Z</time></trkpt><trkpt lat="37.0381741047223" lon="14.989724294485207"><ele>499.0</ele><time>2026-04-26T08:19:30.001Z</time></trkpt><trkpt lat="37.03832005542208" lon="14.989628462586905"><ele>498.0</ele><time>2026-04-26T08:19:31.001Z</time></trkpt><trkpt lat="37.03846221163393" lon="14.989527895501553"><ele>497.0</ele><time>2026-04-26T08:19:32.001Z</time></trkpt><trkpt lat="37.03860629141768" lon="14.989422733627972"><ele>496.0</ele><time>2026-04-26T08:19:33.001Z</time></trkpt><trkpt lat="37.03875070451553" lon="14.989322897995628"><ele>496.0</ele><time>2026-04-26T08:19:34.001Z</time></trkpt><trkpt lat="37.03889701659274" lon="14.989226869445014"><ele>496.0</ele><time>2026-04-26T08:19:35.001Z</time></trkpt><trkpt lat="37.039041045558086" lon="14.989134623377259"><ele>496.0</ele><time>2026-04-26T08:19:36.001Z</time></trkpt><trkpt lat="37.03917549526485" lon="14.989038849322641"><ele>493.5</ele><time>2026-04-26T08:19:37.001Z</time></trkpt><trkpt lat="37.03928989389132" lon="14.988938829315098"><ele>491.0</ele><time>2026-04-26T08:19:38.001Z</time></trkpt><trkpt lat="37.039411983262944" lon="14.988862669775115"><ele>488.5</ele><time>2026-04-26T08:19:39.001Z</time></trkpt><trkpt lat="37.039506953340194" lon="14.988758364302806"><ele>486.0</ele><time>2026-04-26T08:19:40.001Z</time></trkpt><trkpt lat="37.039586762462854" lon="14.988700699860113"><ele>486.0</ele><time>2026-04-26T08:19:41.001Z</time></trkpt><trkpt lat="37.03964673542332" lon="14.988654544016851"><ele>486.0</ele><time>2026-04-26T08:19:42.001Z</time></trkpt><trkpt lat="37.03974253687852" lon="14.98858995421799"><ele>486.0</ele><time>2026-04-26T08:19:44.001Z</time></trkpt><trkpt lat="37.03984949228741" lon="14.988561632294964"><ele>486.0</ele><time>2026-04-26T08:19:46.001Z</time></trkpt><trkpt lat="37.03991682371423" lon="14.98857513947109"><ele>486.0</ele><time>2026-04-26T08:19:47.001Z</time></trkpt><trkpt lat="37.03997799551896" lon="14.98861796816036"><ele>486.0</ele><time>2026-04-26T08:19:48.001Z</time></trkpt><trkpt lat="37.0400227352903" lon="14.988686270455856"><ele>486.0</ele><time>2026-04-26T08:19:49.001Z</time></trkpt><trkpt lat="37.04005367968453" lon="14.988772235801886"><ele>486.0</ele><time>2026-04-26T08:19:50.001Z</time></trkpt><trkpt lat="37.04008464331755" lon="14.988872389549938"><ele>486.0</ele><time>2026-04-26T08:19:51.001Z</time></trkpt><trkpt lat="37.04012921106734" lon="14.98898029570044"><ele>486.0</ele><time>2026-04-26T08:19:52.001Z</time></trkpt><trkpt lat="37.04017851228255" lon="14.989103989308957"><ele>486.0</ele><time>2026-04-26T08:19:53.001Z</time></trkpt><trkpt lat="37.04022559210849" lon="14.98924022089319"><ele>486.0</ele><time>2026-04-26T08:19:54.001Z</time></trkpt><trkpt lat="37.040267592176455" lon="14.98938968926158"><ele>486.0</ele><time>2026-04-26T08:19:55.001Z</time></trkpt><trkpt lat="37.04029536689323" lon="14.989523863943807"><ele>486.0</ele><time>2026-04-26T08:19:56.001Z</time></trkpt><trkpt lat="37.04031503158854" lon="14.989687785998143"><ele>486.0</ele><time>2026-04-26T08:19:57.001Z</time></trkpt><trkpt lat="37.0403154751815" lon="14.989853805606314"><ele>486.0</ele><time>2026-04-26T08:19:58.001Z</time></trkpt><trkpt lat="37.04027487695268" lon="14.989987744759556"><ele>486.0</ele><time>2026-04-26T08:19:59.001Z</time></trkpt><trkpt lat="37.04020966027992" lon="14.990068201895479"><ele>486.0</ele><time>2026-04-26T08:20:00.001Z</time></trkpt><trkpt lat="37.0401368165007" lon="14.990131524032165"><ele>486.0</ele><time>2026-04-26T08:20:01.001Z</time></trkpt><trkpt lat="37.040079668961425" lon="14.990224364656491"><ele>486.0</ele><time>2026-04-26T08:20:02.001Z</time></trkpt><trkpt lat="37.040032936164216" lon="14.990327255892984"><ele>485.6</ele><time>2026-04-26T08:20:03.001Z</time></trkpt><trkpt lat="37.040022512200075" lon="14.990454040329292"><ele>485.20000000000005</ele><time>2026-04-26T08:20:04.001Z</time></trkpt><trkpt lat="37.04003076464231" lon="14.99058869720712"><ele>484.79999999999995</ele><time>2026-04-26T08:20:05.001Z</time></trkpt><trkpt lat="37.04004562139845" lon="14.990726216375585"><ele>484.4</ele><time>2026-04-26T08:20:06.001Z</time></trkpt><trkpt lat="37.04007175763598" lon="14.990857973781754"><ele>484.0</ele><time>2026-04-26T08:20:07.001Z</time></trkpt><trkpt lat="37.04010897202418" lon="14.990973297353216"><ele>485.5</ele><time>2026-04-26T08:20:08.001Z</time></trkpt><trkpt lat="37.04017717152444" lon="14.991077370143135"><ele>487.0</ele><time>2026-04-26T08:20:09.001Z</time></trkpt><trkpt lat="37.04026924594051" lon="14.991188477474658"><ele>488.5</ele><time>2026-04-26T08:20:10.001Z</time></trkpt><trkpt lat="37.04035873390427" lon="14.99130304219842"><ele>490.0</ele><time>2026-04-26T08:20:11.001Z</time></trkpt><trkpt lat="37.04044196258314" lon="14.991424394081546"><ele>490.0</ele><time>2026-04-26T08:20:12.001Z</time></trkpt><trkpt lat="37.04050159133763" lon="14.99155040993209"><ele>490.0</ele><time>2026-04-26T08:20:13.001Z</time></trkpt><trkpt lat="37.040535847448616" lon="14.991675015673065"><ele>490.0</ele><time>2026-04-26T08:20:14.001Z</time></trkpt><trkpt lat="37.04055975770317" lon="14.991796752294142"><ele>490.0</ele><time>2026-04-26T08:20:15.001Z</time></trkpt><trkpt lat="37.04059179688044" lon="14.99190101543306"><ele>490.0</ele><time>2026-04-26T08:20:16.001Z</time></trkpt><trkpt lat="37.04063148373915" lon="14.99196511584715"><ele>490.0</ele><time>2026-04-26T08:20:17.001Z</time></trkpt><trkpt lat="37.04072808862432" lon="14.991963689240064"><ele>490.0</ele><time>2026-04-26T08:20:19.001Z</time></trkpt><trkpt lat="37.04076176368872" lon="14.991883030426354"><ele>490.0</ele><time>2026-04-26T08:20:20.001Z</time></trkpt><trkpt lat="37.040728528891734" lon="14.991728862046433"><ele>490.0</ele><time>2026-04-26T08:20:21.001Z</time></trkpt><trkpt lat="37.04069733052383" lon="14.991594676833222"><ele>490.0</ele><time>2026-04-26T08:20:22.001Z</time></trkpt><trkpt lat="37.04067399731953" lon="14.991459830166077"><ele>490.0</ele><time>2026-04-26T08:20:23.001Z</time></trkpt><trkpt lat="37.04068647025527" lon="14.991313016190428"><ele>490.0</ele><time>2026-04-26T08:20:24.001Z</time></trkpt><trkpt lat="37.0407213303966" lon="14.991142845345783"><ele>490.0</ele><time>2026-04-26T08:20:25.001Z</time></trkpt><trkpt lat="37.04074205481715" lon="14.990995874036075"><ele>490.0</ele><time>2026-04-26T08:20:26.001Z</time></trkpt><trkpt lat="37.04075392556158" lon="14.990861351864469"><ele>488.5</ele><time>2026-04-26T08:20:27.001Z</time></trkpt><trkpt lat="37.04078767055906" lon="14.990734294659962"><ele>487.0</ele><time>2026-04-26T08:20:28.001Z</time></trkpt><trkpt lat="37.04085877965889" lon="14.990596911897267"><ele>485.5</ele><time>2026-04-26T08:20:29.001Z</time></trkpt><trkpt lat="37.04094887302689" lon="14.990469567203833"><ele>484.0</ele><time>2026-04-26T08:20:30.001Z</time></trkpt><trkpt lat="37.04102493968766" lon="14.9903357218008"><ele>481.25</ele><time>2026-04-26T08:20:31.001Z</time></trkpt><trkpt lat="37.04106233330537" lon="14.99019707930353"><ele>478.5</ele><time>2026-04-26T08:20:32.001Z</time></trkpt><trkpt lat="37.04108317355882" lon="14.990068124112398"><ele>475.75</ele><time>2026-04-26T08:20:33.001Z</time></trkpt><trkpt lat="37.04110052785234" lon="14.989930352818327"><ele>473.0</ele><time>2026-04-26T08:20:34.001Z</time></trkpt><trkpt lat="37.041100502353366" lon="14.989779725840457"><ele>473.0</ele><time>2026-04-26T08:20:35.001Z</time></trkpt><trkpt lat="37.041091467742504" lon="14.989628012297068"><ele>472.99999999999994</ele><time>2026-04-26T08:20:36.001Z</time></trkpt><trkpt lat="37.041078912283524" lon="14.98947148906143"><ele>472.99999999999994</ele><time>2026-04-26T08:20:37.001Z</time></trkpt><trkpt lat="37.04106411490763" lon="14.989345679872208"><ele>473.0</ele><time>2026-04-26T08:20:38.001Z</time></trkpt><trkpt lat="37.04105052857273" lon="14.989243416548723"><ele>473.0</ele><time>2026-04-26T08:20:39.001Z</time></trkpt><trkpt lat="37.04104596870319" lon="14.989164074351459"><ele>473.75</ele><time>2026-04-26T08:20:40.001Z</time></trkpt><trkpt lat="37.04109165526912" lon="14.989060473430836"><ele>474.5</ele><time>2026-04-26T08:20:42.001Z</time></trkpt><trkpt lat="37.04121360283442" lon="14.989073022800488"><ele>475.25</ele><time>2026-04-26T08:20:44.001Z</time></trkpt><trkpt lat="37.0412756976952" lon="14.989087136661949"><ele>476.0</ele><time>2026-04-26T08:20:49.001Z</time></trkpt><trkpt lat="37.04136447397673" lon="14.988697540630485"><ele>475.99999999999994</ele><time>2026-04-26T08:21:48.001Z</time></trkpt><trkpt lat="37.0413970833944" lon="14.988622564275783"><ele>476.0</ele><time>2026-04-26T08:21:49.001Z</time></trkpt><trkpt lat="37.041439084435886" lon="14.988546639208563"><ele>476.0</ele><time>2026-04-26T08:21:50.001Z</time></trkpt><trkpt lat="37.04146417062466" lon="14.988460881703672"><ele>476.0</ele><time>2026-04-26T08:21:51.001Z</time></trkpt><trkpt lat="37.04149848388391" lon="14.988354869454737"><ele>475.99999999999994</ele><time>2026-04-26T08:21:52.001Z</time></trkpt><trkpt lat="37.041534214545585" lon="14.988247630751014"><ele>476.0</ele><time>2026-04-26T08:21:53.001Z</time></trkpt><trkpt lat="37.04157159026952" lon="14.988139363688626"><ele>475.49999999999994</ele><time>2026-04-26T08:21:54.001Z</time></trkpt><trkpt lat="37.0416138058285" lon="14.98803697232631"><ele>475.0</ele><time>2026-04-26T08:21:55.001Z</time></trkpt><trkpt lat="37.04164630974363" lon="14.987952886562862"><ele>474.5</ele><time>2026-04-26T08:21:56.001Z</time></trkpt><trkpt lat="37.04166761742752" lon="14.987857321669866"><ele>474.0</ele><time>2026-04-26T08:21:57.001Z</time></trkpt><trkpt lat="37.0416699304744" lon="14.987766770435984"><ele>473.49999999999994</ele><time>2026-04-26T08:21:58.001Z</time></trkpt><trkpt lat="37.04164051775611" lon="14.987632210854954"><ele>473.0</ele><time>2026-04-26T08:22:00.001Z</time></trkpt><trkpt lat="37.04160076516923" lon="14.987563150001261"><ele>472.49999999999994</ele><time>2026-04-26T08:22:03.001Z</time></trkpt><trkpt lat="37.04155594571387" lon="14.98749619497151"><ele>472.0</ele><time>2026-04-26T08:22:09.001Z</time></trkpt><trkpt lat="37.04152130774333" lon="14.987422520743106"><ele>471.5</ele><time>2026-04-26T08:22:11.001Z</time></trkpt><trkpt lat="37.041465815287054" lon="14.98733403114073"><ele>471.0</ele><time>2026-04-26T08:22:13.001Z</time></trkpt><trkpt lat="37.04142877551489" lon="14.98726350566061"><ele>470.49999999999994</ele><time>2026-04-26T08:22:18.001Z</time></trkpt><trkpt lat="37.041380387389914" lon="14.987201627048385"><ele>470.0</ele><time>2026-04-26T08:22:20.001Z</time></trkpt><trkpt lat="37.0413174943294" lon="14.987115802321773"><ele>469.99999999999994</ele><time>2026-04-26T08:22:22.001Z</time></trkpt><trkpt lat="37.04126127002889" lon="14.987006278460226"><ele>470.0</ele><time>2026-04-26T08:22:25.001Z</time></trkpt><trkpt lat="37.04122142795049" lon="14.986896445320959"><ele>470.0</ele><time>2026-04-26T08:22:27.001Z</time></trkpt><trkpt lat="37.04116893363625" lon="14.986827187882273"><ele>470.0</ele><time>2026-04-26T08:22:29.001Z</time></trkpt><trkpt lat="37.04110771541479" lon="14.986783914514556"><ele>469.99999999999994</ele><time>2026-04-26T08:22:32.001Z</time></trkpt><trkpt lat="37.04107732879868" lon="14.986707448944387"><ele>470.0</ele><time>2026-04-26T08:22:53.001Z</time></trkpt><trkpt lat="37.040998959117275" lon="14.986710047583687"><ele>470.0</ele><time>2026-04-26T08:22:58.001Z</time></trkpt><trkpt lat="37.04092544289644" lon="14.986775604535724"><ele>470.0</ele><time>2026-04-26T08:25:15.001Z</time></trkpt><trkpt lat="37.04084946430999" lon="14.986818651035836"><ele>470.0</ele><time>2026-04-26T08:25:24.001Z</time></trkpt><trkpt lat="37.040825151505416" lon="14.986927666406084"><ele>470.0</ele><time>2026-04-26T08:25:27.001Z</time></trkpt><trkpt lat="37.04074283604223" lon="14.986919178474084"><ele>470.0</ele><time>2026-04-26T08:25:31.001Z</time></trkpt><trkpt lat="37.04066353608766" lon="14.986835096764725"><ele>470.1428571428571</ele><time>2026-04-26T08:25:33.001Z</time></trkpt><trkpt lat="37.04061247034231" lon="14.986787374077611"><ele>470.2857142857142</ele><time>2026-04-26T08:25:34.001Z</time></trkpt><trkpt lat="37.04052742890407" lon="14.98674902077951"><ele>470.42857142857144</ele><time>2026-04-26T08:25:35.001Z</time></trkpt><trkpt lat="37.040457320904544" lon="14.986715563872588"><ele>470.57142857142856</ele><time>2026-04-26T08:25:36.001Z</time></trkpt><trkpt lat="37.040378123066134" lon="14.986707097792241"><ele>470.7142857142857</ele><time>2026-04-26T08:25:38.001Z</time></trkpt><trkpt lat="37.04033074855084" lon="14.986654511461943"><ele>470.8571428571429</ele><time>2026-04-26T08:25:41Z</time></trkpt><trkpt lat="37.04032189892757" lon="14.986575519624562"><ele>471.00000000000006</ele><time>2026-04-26T08:25:44Z</time></trkpt><trkpt lat="37.040383262703244" lon="14.986535521646273"><ele>471.00000000000006</ele><time>2026-04-26T08:25:47Z</time></trkpt><trkpt lat="37.04042572466985" lon="14.986594351047883"><ele>471.0</ele><time>2026-04-26T08:25:49Z</time></trkpt><trkpt lat="37.04038957917772" lon="14.98667548379278"><ele>471.00000000000006</ele><time>2026-04-26T08:26:08Z</time></trkpt><trkpt lat="37.04033119134125" lon="14.986713353903973"><ele>471.00000000000006</ele><time>2026-04-26T08:26:20Z</time></trkpt><trkpt lat="37.04025448949765" lon="14.986739862567024"><ele>471.0</ele><time>2026-04-26T08:26:22Z</time></trkpt><trkpt lat="37.040238017472504" lon="14.98666110774835"><ele>471.00000000000006</ele><time>2026-04-26T08:26:26Z</time></trkpt><trkpt lat="37.04030471011143" lon="14.98660640571091"><ele>471.00000000000006</ele><time>2026-04-26T08:26:29Z</time></trkpt><trkpt lat="37.04038541552748" lon="14.986661661093214"><ele>470.8333333333333</ele><time>2026-04-26T08:26:32Z</time></trkpt><trkpt lat="37.04045034453321" lon="14.98670843449166"><ele>470.66666666666663</ele><time>2026-04-26T08:26:35Z</time></trkpt><trkpt lat="37.04053088803499" lon="14.986738901547746"><ele>470.5</ele><time>2026-04-26T08:26:55Z</time></trkpt><trkpt lat="37.0406117294159" lon="14.986786485257623"><ele>470.3333333333333</ele><time>2026-04-26T08:26:57Z</time></trkpt><trkpt lat="37.04068936242578" lon="14.986823607380655"><ele>470.16666666666663</ele><time>2026-04-26T08:26:59Z</time></trkpt><trkpt lat="37.04074752045743" lon="14.9868701137191"><ele>470.0</ele><time>2026-04-26T08:27:01Z</time></trkpt><trkpt lat="37.040827890203985" lon="14.98690087774173"><ele>470.0</ele><time>2026-04-26T08:27:04Z</time></trkpt><trkpt lat="37.04085414125399" lon="14.986974196187388"><ele>469.99999999999994</ele><time>2026-04-26T08:27:06Z</time></trkpt><trkpt lat="37.04091646733504" lon="14.987029568150868"><ele>470.0</ele><time>2026-04-26T08:27:09.001Z</time></trkpt><trkpt lat="37.04098768404434" lon="14.987080112797216"><ele>470.0</ele><time>2026-04-26T08:27:11.001Z</time></trkpt><trkpt lat="37.0410407712065" lon="14.98715370448385"><ele>469.99999999999994</ele><time>2026-04-26T08:27:13.001Z</time></trkpt><trkpt lat="37.041076992189474" lon="14.987226836550356"><ele>470.0</ele><time>2026-04-26T08:27:15.001Z</time></trkpt><trkpt lat="37.04110129300695" lon="14.987314362029174"><ele>470.0</ele><time>2026-04-26T08:27:17.001Z</time></trkpt><trkpt lat="37.0410659534226" lon="14.987390470981193"><ele>469.99999999999994</ele><time>2026-04-26T08:27:19.001Z</time></trkpt><trkpt lat="37.04103990685074" lon="14.987484061345569"><ele>470.0</ele><time>2026-04-26T08:27:22.001Z</time></trkpt><trkpt lat="37.04106751878872" lon="14.987595667357036"><ele>470.0</ele><time>2026-04-26T08:27:31Z</time></trkpt><trkpt lat="37.04111036878614" lon="14.987662541507524"><ele>470.0</ele><time>2026-04-26T08:27:33Z</time></trkpt><trkpt lat="37.041155371355394" lon="14.987722159088584"><ele>469.99999999999994</ele><time>2026-04-26T08:27:36Z</time></trkpt><trkpt lat="37.04119469063221" lon="14.987821789929193"><ele>470.0</ele><time>2026-04-26T08:27:40Z</time></trkpt><trkpt lat="37.04125817455967" lon="14.987839456527555"><ele>469.99999999999994</ele><time>2026-04-26T08:27:43Z</time></trkpt><trkpt lat="37.041253204038746" lon="14.987741332301708"><ele>470.0</ele><time>2026-04-26T08:27:46Z</time></trkpt><trkpt lat="37.041175793028955" lon="14.987717052349028"><ele>470.0</ele><time>2026-04-26T08:27:48Z</time></trkpt><trkpt lat="37.0411131540506" lon="14.987697300599267"><ele>470.0</ele><time>2026-04-26T08:27:50Z</time></trkpt><trkpt lat="37.04105923264637" lon="14.987614300577903"><ele>469.99999999999994</ele><time>2026-04-26T08:27:53Z</time></trkpt><trkpt lat="37.04105195598951" lon="14.987522137421841"><ele>470.0</ele><time>2026-04-26T08:27:57Z</time></trkpt><trkpt lat="37.041053260014905" lon="14.987435567942098"><ele>469.99999999999994</ele><time>2026-04-26T08:28:09Z</time></trkpt><trkpt lat="37.0410885577073" lon="14.987337793618712"><ele>470.0</ele><time>2026-04-26T08:28:12Z</time></trkpt><trkpt lat="37.041071186727166" lon="14.987231902526892"><ele>470.0</ele><time>2026-04-26T08:28:14Z</time></trkpt><trkpt lat="37.04103336500545" lon="14.987150478514973"><ele>470.0</ele><time>2026-04-26T08:28:16Z</time></trkpt><trkpt lat="37.04096471409481" lon="14.987083551310311"><ele>469.99999999999994</ele><time>2026-04-26T08:28:18Z</time></trkpt><trkpt lat="37.040912860425486" lon="14.98703109462283"><ele>470.0</ele><time>2026-04-26T08:28:20Z</time></trkpt><trkpt lat="37.04084887459342" lon="14.986977239101199"><ele>469.99999999999994</ele><time>2026-04-26T08:28:23Z</time></trkpt><trkpt lat="37.04082134284123" lon="14.986899033128196"><ele>470.0</ele><time>2026-04-26T08:28:33Z</time></trkpt><trkpt lat="37.04084662423743" lon="14.98676434325427"><ele>470.0</ele><time>2026-04-26T08:28:36Z</time></trkpt><trkpt lat="37.040941845684785" lon="14.986750118665434"><ele>470.0</ele><time>2026-04-26T08:28:51Z</time></trkpt><trkpt lat="37.04100505295651" lon="14.986716274876189"><ele>469.99999999999994</ele><time>2026-04-26T08:28:54Z</time></trkpt><trkpt lat="37.04107681224743" lon="14.986698825702309"><ele>470.0</ele><time>2026-04-26T08:28:57Z</time></trkpt><trkpt lat="37.04108904972639" lon="14.986781386520075"><ele>470.0</ele><time>2026-04-26T08:28:59Z</time></trkpt><trkpt lat="37.04118389033228" lon="14.986864093708073"><ele>470.0</ele><time>2026-04-26T08:29:01Z</time></trkpt><trkpt lat="37.04122849950839" lon="14.986961091911265"><ele>470.0</ele><time>2026-04-26T08:29:03Z</time></trkpt><trkpt lat="37.041268939885256" lon="14.987056637530484"><ele>470.0</ele><time>2026-04-26T08:29:05Z</time></trkpt><trkpt lat="37.041325793403814" lon="14.987160715915142"><ele>470.0</ele><time>2026-04-26T08:29:07Z</time></trkpt><trkpt lat="37.041397252629686" lon="14.987245850959189"><ele>469.99999999999994</ele><time>2026-04-26T08:29:09Z</time></trkpt><trkpt lat="37.04143068873631" lon="14.987319446048046"><ele>470.0</ele><time>2026-04-26T08:29:11Z</time></trkpt><trkpt lat="37.041469000886345" lon="14.987417728008849"><ele>470.0</ele><time>2026-04-26T08:29:13Z</time></trkpt><trkpt lat="37.04152442419115" lon="14.98752390242978"><ele>470.0</ele><time>2026-04-26T08:29:15Z</time></trkpt><trkpt lat="37.04158041580998" lon="14.987623766880784"><ele>469.99999999999994</ele><time>2026-04-26T08:29:17Z</time></trkpt><trkpt lat="37.0416296727361" lon="14.987688574547285"><ele>470.0</ele><time>2026-04-26T08:29:19Z</time></trkpt><trkpt lat="37.04165999341731" lon="14.987779365266183"><ele>470.0</ele><time>2026-04-26T08:29:21Z</time></trkpt><trkpt lat="37.041653912983946" lon="14.98790046440354"><ele>470.0</ele><time>2026-04-26T08:29:23Z</time></trkpt><trkpt lat="37.041622959807825" lon="14.988032644931792"><ele>470.0</ele><time>2026-04-26T08:29:25Z</time></trkpt><trkpt lat="37.04158921245013" lon="14.988105509243164"><ele>470.0</ele><time>2026-04-26T08:29:26Z</time></trkpt><trkpt lat="37.04152674434657" lon="14.988242668599757"><ele>470.0</ele><time>2026-04-26T08:29:28Z</time></trkpt><trkpt lat="37.04147762457262" lon="14.988389157623725"><ele>470.99999999999994</ele><time>2026-04-26T08:29:30Z</time></trkpt><trkpt lat="37.04144436341126" lon="14.988463702115045"><ele>472.0</ele><time>2026-04-26T08:29:31Z</time></trkpt><trkpt lat="37.04141271797371" lon="14.988547879021754"><ele>473.0</ele><time>2026-04-26T08:29:32Z</time></trkpt><trkpt lat="37.04135187385702" lon="14.988682252418696"><ele>474.0</ele><time>2026-04-26T08:29:34Z</time></trkpt><trkpt lat="37.04131595004642" lon="14.98877837304856"><ele>474.99999999999994</ele><time>2026-04-26T08:29:35Z</time></trkpt><trkpt lat="37.04129976764117" lon="14.988874429921792"><ele>476.0</ele><time>2026-04-26T08:29:36Z</time></trkpt><trkpt lat="37.04129472444195" lon="14.988984233086342"><ele>475.99999999999994</ele><time>2026-04-26T08:29:38Z</time></trkpt><trkpt lat="37.0412714709191" lon="14.989060325265402"><ele>476.0</ele><time>2026-04-26T08:30:09Z</time></trkpt><trkpt lat="37.04133035111511" lon="14.989155058061618"><ele>476.0</ele><time>2026-04-26T08:30:11Z</time></trkpt><trkpt lat="37.04142195292915" lon="14.989215428879485"><ele>476.0</ele><time>2026-04-26T08:30:12Z</time></trkpt><trkpt lat="37.04149178879521" lon="14.989292119064782"><ele>475.99999999999994</ele><time>2026-04-26T08:30:13Z</time></trkpt><trkpt lat="37.04155809998958" lon="14.989343079209984"><ele>476.0</ele><time>2026-04-26T08:30:14Z</time></trkpt><trkpt lat="37.04161709065532" lon="14.989370784566312"><ele>473.5</ele><time>2026-04-26T08:30:15Z</time></trkpt><trkpt lat="37.041728031528116" lon="14.98939305492516"><ele>471.0</ele><time>2026-04-26T08:30:17Z</time></trkpt><trkpt lat="37.04182451201402" lon="14.989374973872476"><ele>468.5</ele><time>2026-04-26T08:30:18Z</time></trkpt><trkpt lat="37.04194684341213" lon="14.989296739594629"><ele>466.0</ele><time>2026-04-26T08:30:19Z</time></trkpt><trkpt lat="37.042060326568105" lon="14.989228792103095"><ele>466.00000000000006</ele><time>2026-04-26T08:30:20Z</time></trkpt><trkpt lat="37.04214697359584" lon="14.989191307597427"><ele>466.0</ele><time>2026-04-26T08:30:21Z</time></trkpt><trkpt lat="37.04221729193497" lon="14.989176468998952"><ele>466.0</ele><time>2026-04-26T08:30:22Z</time></trkpt><trkpt lat="37.04226334086048" lon="14.989241997661393"><ele>466.0</ele><time>2026-04-26T08:30:23Z</time></trkpt><trkpt lat="37.04228823335381" lon="14.989319513880831"><ele>466.00000000000006</ele><time>2026-04-26T08:30:24Z</time></trkpt><trkpt lat="37.04229952268628" lon="14.989418583908185"><ele>466.0</ele><time>2026-04-26T08:30:25Z</time></trkpt><trkpt lat="37.04220523356506" lon="14.989545617466591"><ele>466.00000000000006</ele><time>2026-04-26T08:30:26Z</time></trkpt><trkpt lat="37.042138364634205" lon="14.989621029482318"><ele>466.0</ele><time>2026-04-26T08:30:27Z</time></trkpt><trkpt lat="37.04208161935351" lon="14.989688339071717"><ele>466.0</ele><time>2026-04-26T08:30:28Z</time></trkpt><trkpt lat="37.04202789721738" lon="14.989760672413446"><ele>466.0</ele><time>2026-04-26T08:30:29Z</time></trkpt><trkpt lat="37.04197145801906" lon="14.989843288965016"><ele>466.00000000000006</ele><time>2026-04-26T08:30:30Z</time></trkpt><trkpt lat="37.04192949216188" lon="14.989928797489899"><ele>466.0</ele><time>2026-04-26T08:30:31Z</time></trkpt><trkpt lat="37.041911425368696" lon="14.990034008551472"><ele>466.0</ele><time>2026-04-26T08:30:32Z</time></trkpt><trkpt lat="37.041922645187974" lon="14.990157914730354"><ele>466.0</ele><time>2026-04-26T08:30:33Z</time></trkpt><trkpt lat="37.041957059517294" lon="14.990292195809308"><ele>466.0</ele><time>2026-04-26T08:30:34Z</time></trkpt><trkpt lat="37.04200450142567" lon="14.990436961488845"><ele>466.0</ele><time>2026-04-26T08:30:35Z</time></trkpt><trkpt lat="37.04204969462649" lon="14.990589296644306"><ele>466.0</ele><time>2026-04-26T08:30:36Z</time></trkpt><trkpt lat="37.04205169673066" lon="14.990732373088754"><ele>466.0</ele><time>2026-04-26T08:30:37Z</time></trkpt><trkpt lat="37.04200821660271" lon="14.990885707595849"><ele>466.0</ele><time>2026-04-26T08:30:38Z</time></trkpt><trkpt lat="37.041980701893664" lon="14.990998433134436"><ele>466.0</ele><time>2026-04-26T08:30:39Z</time></trkpt><trkpt lat="37.04197920585184" lon="14.99111255901128"><ele>466.0</ele><time>2026-04-26T08:30:40Z</time></trkpt><trkpt lat="37.04202251128068" lon="14.991273375134906"><ele>466.20000000000005</ele><time>2026-04-26T08:30:41Z</time></trkpt><trkpt lat="37.042072541700584" lon="14.991400695274146"><ele>466.40000000000003</ele><time>2026-04-26T08:30:42Z</time></trkpt><trkpt lat="37.04212914596052" lon="14.991510313865984"><ele>466.6</ele><time>2026-04-26T08:30:43Z</time></trkpt><trkpt lat="37.04219662649742" lon="14.991600646308338"><ele>466.8</ele><time>2026-04-26T08:30:44Z</time></trkpt><trkpt lat="37.04228035489463" lon="14.991667110542478"><ele>467.0</ele><time>2026-04-26T08:30:45Z</time></trkpt><trkpt lat="37.04237184562843" lon="14.991713524089759"><ele>469.0</ele><time>2026-04-26T08:30:46Z</time></trkpt><trkpt lat="37.042474438157775" lon="14.991734859732993"><ele>471.00000000000006</ele><time>2026-04-26T08:30:47Z</time></trkpt><trkpt lat="37.04258627823637" lon="14.991739864660728"><ele>473.00000000000006</ele><time>2026-04-26T08:30:48Z</time></trkpt><trkpt lat="37.042693742273414" lon="14.991754170135332"><ele>475.0</ele><time>2026-04-26T08:30:49Z</time></trkpt><trkpt lat="37.04279963075005" lon="14.991788142190433"><ele>477.0</ele><time>2026-04-26T08:30:50Z</time></trkpt><trkpt lat="37.04289732178188" lon="14.991834478620676"><ele>477.0</ele><time>2026-04-26T08:30:51Z</time></trkpt><trkpt lat="37.042985207392015" lon="14.991893545838554"><ele>477.00000000000006</ele><time>2026-04-26T08:30:52Z</time></trkpt><trkpt lat="37.043054091763366" lon="14.991978779124459"><ele>477.00000000000006</ele><time>2026-04-26T08:30:53Z</time></trkpt><trkpt lat="37.043102350416945" lon="14.992087999307284"><ele>477.0</ele><time>2026-04-26T08:30:54Z</time></trkpt><trkpt lat="37.04314265058503" lon="14.992207929845055"><ele>477.0</ele><time>2026-04-26T08:30:55Z</time></trkpt><trkpt lat="37.043167008158804" lon="14.992318486261716"><ele>477.0</ele><time>2026-04-26T08:30:56Z</time></trkpt><trkpt lat="37.04316069862392" lon="14.992428807843044"><ele>477.00000000000006</ele><time>2026-04-26T08:30:58Z</time></trkpt><trkpt lat="37.04317003701087" lon="14.992545096407582"><ele>477.00000000000006</ele><time>2026-04-26T08:31:08Z</time></trkpt><trkpt lat="37.04315717930893" lon="14.992718306494135"><ele>477.0</ele><time>2026-04-26T08:31:10Z</time></trkpt><trkpt lat="37.0431427316091" lon="14.992833708303134"><ele>477.0</ele><time>2026-04-26T08:31:11Z</time></trkpt><trkpt lat="37.0431291522802" lon="14.992967586778565"><ele>477.20000000000005</ele><time>2026-04-26T08:31:12Z</time></trkpt><trkpt lat="37.0431141708809" lon="14.993103013846383"><ele>477.40000000000003</ele><time>2026-04-26T08:31:13Z</time></trkpt><trkpt lat="37.043098300803834" lon="14.99323339670405"><ele>477.59999999999997</ele><time>2026-04-26T08:31:14Z</time></trkpt><trkpt lat="37.04308621655402" lon="14.993375408751808"><ele>477.79999999999995</ele><time>2026-04-26T08:31:15Z</time></trkpt><trkpt lat="37.04307121876132" lon="14.993523074280418"><ele>478.0</ele><time>2026-04-26T08:31:16Z</time></trkpt><trkpt lat="37.04305212179447" lon="14.993687916001878"><ele>479.25</ele><time>2026-04-26T08:31:17Z</time></trkpt><trkpt lat="37.043034392624065" lon="14.993847342114101"><ele>480.5</ele><time>2026-04-26T08:31:18Z</time></trkpt><trkpt lat="37.0430191633609" lon="14.994005627920034"><ele>481.75</ele><time>2026-04-26T08:31:19Z</time></trkpt><trkpt lat="37.043005980134524" lon="14.994159445553247"><ele>483.0</ele><time>2026-04-26T08:31:20Z</time></trkpt><trkpt lat="37.04299237595488" lon="14.994313178572137"><ele>483.5</ele><time>2026-04-26T08:31:21Z</time></trkpt><trkpt lat="37.042991222211384" lon="14.994448788934774"><ele>484.0</ele><time>2026-04-26T08:31:22Z</time></trkpt><trkpt lat="37.04300589276485" lon="14.994565449877982"><ele>484.5</ele><time>2026-04-26T08:31:23Z</time></trkpt><trkpt lat="37.043033198243194" lon="14.99465737129158"><ele>485.0</ele><time>2026-04-26T08:31:24Z</time></trkpt><trkpt lat="37.04305289522744" lon="14.994733673655855"><ele>485.5</ele><time>2026-04-26T08:32:32Z</time></trkpt><trkpt lat="37.04310914598291" lon="14.994839641068332"><ele>486.0</ele><time>2026-04-26T08:32:47Z</time></trkpt><trkpt lat="37.043152118132944" lon="14.99494781398791"><ele>485.8333333333333</ele><time>2026-04-26T08:32:49Z</time></trkpt><trkpt lat="37.04320458274636" lon="14.995087318210686"><ele>485.66666666666663</ele><time>2026-04-26T08:32:51Z</time></trkpt><trkpt lat="37.04324506587983" lon="14.995173311065534"><ele>485.5</ele><time>2026-04-26T08:32:52Z</time></trkpt><trkpt lat="37.043293192662205" lon="14.995249182514389"><ele>485.3333333333333</ele><time>2026-04-26T08:32:53Z</time></trkpt><trkpt lat="37.043343988936044" lon="14.99532438380904"><ele>485.16666666666663</ele><time>2026-04-26T08:32:54Z</time></trkpt><trkpt lat="37.04339814571468" lon="14.995398682157704"><ele>485.0</ele><time>2026-04-26T08:32:55Z</time></trkpt><trkpt lat="37.0434536913351" lon="14.995470244391754"><ele>484.8</ele><time>2026-04-26T08:32:56Z</time></trkpt><trkpt lat="37.04351553064595" lon="14.995548705927982"><ele>484.6</ele><time>2026-04-26T08:32:57Z</time></trkpt><trkpt lat="37.04358602083245" lon="14.99564096821461"><ele>484.4</ele><time>2026-04-26T08:32:58Z</time></trkpt><trkpt lat="37.04365921761796" lon="14.995738049946102"><ele>484.2</ele><time>2026-04-26T08:32:59Z</time></trkpt><trkpt lat="37.04372504305553" lon="14.995826664029975"><ele>484.0</ele><time>2026-04-26T08:33:00Z</time></trkpt><trkpt lat="37.04378597873335" lon="14.995912286942575"><ele>484.0</ele><time>2026-04-26T08:33:01Z</time></trkpt><trkpt lat="37.043840500608844" lon="14.995997299658578"><ele>484.0</ele><time>2026-04-26T08:33:02Z</time></trkpt><trkpt lat="37.043877712222184" lon="14.996096227430181"><ele>484.0</ele><time>2026-04-26T08:33:03Z</time></trkpt><trkpt lat="37.04389216031646" lon="14.996207621514223"><ele>484.0</ele><time>2026-04-26T08:33:04Z</time></trkpt><trkpt lat="37.0438967235938" lon="14.996326353276801"><ele>484.0</ele><time>2026-04-26T08:33:05Z</time></trkpt><trkpt lat="37.04389760072762" lon="14.996467870164894"><ele>484.0</ele><time>2026-04-26T08:33:06Z</time></trkpt><trkpt lat="37.04390541859441" lon="14.996617859563143"><ele>484.0</ele><time>2026-04-26T08:33:07Z</time></trkpt><trkpt lat="37.04390436855188" lon="14.996781413297912"><ele>484.0</ele><time>2026-04-26T08:33:08Z</time></trkpt><trkpt lat="37.04390174182143" lon="14.996949271410056"><ele>484.0</ele><time>2026-04-26T08:33:09Z</time></trkpt><trkpt lat="37.043906068898195" lon="14.997116536885077"><ele>483.75</ele><time>2026-04-26T08:33:10Z</time></trkpt><trkpt lat="37.043931826131605" lon="14.997254601446494"><ele>483.5</ele><time>2026-04-26T08:33:11Z</time></trkpt><trkpt lat="37.043996571928254" lon="14.997414138186214"><ele>483.25</ele><time>2026-04-26T08:33:12Z</time></trkpt><trkpt lat="37.044070739944715" lon="14.99758842834687"><ele>483.0</ele><time>2026-04-26T08:33:13Z</time></trkpt><trkpt lat="37.0441304341788" lon="14.997740802482273"><ele>483.75</ele><time>2026-04-26T08:33:14Z</time></trkpt><trkpt lat="37.04418998549056" lon="14.99788929411078"><ele>484.5</ele><time>2026-04-26T08:33:15Z</time></trkpt><trkpt lat="37.04424851255149" lon="14.998038921798992"><ele>485.25</ele><time>2026-04-26T08:33:16Z</time></trkpt><trkpt lat="37.04430638722853" lon="14.998190011523794"><ele>486.0</ele><time>2026-04-26T08:33:17Z</time></trkpt><trkpt lat="37.04436186738434" lon="14.998344413579003"><ele>486.0</ele><time>2026-04-26T08:33:18Z</time></trkpt><trkpt lat="37.04441273942655" lon="14.998473000388055"><ele>486.0</ele><time>2026-04-26T08:33:19Z</time></trkpt><trkpt lat="37.044452959259644" lon="14.998588652856414"><ele>486.0</ele><time>2026-04-26T08:33:20Z</time></trkpt><trkpt lat="37.04447683250312" lon="14.99872613298039"><ele>486.0</ele><time>2026-04-26T08:33:21Z</time></trkpt><trkpt lat="37.044484481413356" lon="14.998884788396719"><ele>486.0</ele><time>2026-04-26T08:33:22Z</time></trkpt><trkpt lat="37.04448659295862" lon="14.99905416904342"><ele>486.0</ele><time>2026-04-26T08:33:23Z</time></trkpt><trkpt lat="37.04449672864815" lon="14.999201476274758"><ele>486.0</ele><time>2026-04-26T08:33:24Z</time></trkpt><trkpt lat="37.04449735935888" lon="14.999324805242908"><ele>486.0</ele><time>2026-04-26T08:33:25Z</time></trkpt><trkpt lat="37.04447856104406" lon="14.999417069819424"><ele>486.0</ele><time>2026-04-26T08:33:26Z</time></trkpt><trkpt lat="37.04443881493579" lon="14.999487213529637"><ele>486.5</ele><time>2026-04-26T08:33:27Z</time></trkpt><trkpt lat="37.04437736623008" lon="14.999554833512878"><ele>487.0</ele><time>2026-04-26T08:33:28Z</time></trkpt><trkpt lat="37.04429146665295" lon="14.999622928409343"><ele>487.5</ele><time>2026-04-26T08:33:29Z</time></trkpt><trkpt lat="37.04418478591246" lon="14.999704351521002"><ele>488.0</ele><time>2026-04-26T08:33:30Z</time></trkpt><trkpt lat="37.04405055174056" lon="14.999800702838687"><ele>486.3333333333333</ele><time>2026-04-26T08:33:31Z</time></trkpt><trkpt lat="37.04389352126298" lon="14.999909126730456"><ele>484.66666666666663</ele><time>2026-04-26T08:33:32Z</time></trkpt><trkpt lat="37.043741457711384" lon="15.000016591298166"><ele>483.0</ele><time>2026-04-26T08:33:33Z</time></trkpt><trkpt lat="37.04360076774998" lon="15.000120436890189"><ele>483.0</ele><time>2026-04-26T08:33:34Z</time></trkpt><trkpt lat="37.04346965196433" lon="15.000214305226777"><ele>483.0</ele><time>2026-04-26T08:33:35Z</time></trkpt><trkpt lat="37.04334463641434" lon="15.00030588690051"><ele>483.0</ele><time>2026-04-26T08:33:36Z</time></trkpt><trkpt lat="37.043233683282054" lon="15.00039021988041"><ele>483.0</ele><time>2026-04-26T08:33:37Z</time></trkpt><trkpt lat="37.04313495920826" lon="15.00046830028197"><ele>482.75</ele><time>2026-04-26T08:33:38Z</time></trkpt><trkpt lat="37.04304182163124" lon="15.00055799275439"><ele>482.5</ele><time>2026-04-26T08:33:39Z</time></trkpt><trkpt lat="37.042957284301885" lon="15.000667269985952"><ele>482.25</ele><time>2026-04-26T08:33:40Z</time></trkpt><trkpt lat="37.042870392657164" lon="15.000777002971715"><ele>482.0</ele><time>2026-04-26T08:33:41Z</time></trkpt><trkpt lat="37.04277358492802" lon="15.000898614106257"><ele>482.0</ele><time>2026-04-26T08:33:42Z</time></trkpt><trkpt lat="37.04266895852963" lon="15.001041253970637"><ele>482.0</ele><time>2026-04-26T08:33:43Z</time></trkpt><trkpt lat="37.04255102190765" lon="15.001190447786973"><ele>482.0</ele><time>2026-04-26T08:33:44Z</time></trkpt><trkpt lat="37.04242578420811" lon="15.00134169200087"><ele>481.0</ele><time>2026-04-26T08:33:45Z</time></trkpt><trkpt lat="37.04228871621226" lon="15.001509462993186"><ele>480.0</ele><time>2026-04-26T08:33:46Z</time></trkpt><trkpt lat="37.04216368259675" lon="15.001660307289788"><ele>479.0</ele><time>2026-04-26T08:33:47Z</time></trkpt><trkpt lat="37.042045590856134" lon="15.001816689955113"><ele>479.0</ele><time>2026-04-26T08:33:48Z</time></trkpt><trkpt lat="37.0419299321202" lon="15.00198929984229"><ele>479.0</ele><time>2026-04-26T08:33:49Z</time></trkpt><trkpt lat="37.04181640448826" lon="15.00216885498746"><ele>479.0</ele><time>2026-04-26T08:33:50Z</time></trkpt><trkpt lat="37.04170970132146" lon="15.002330050029693"><ele>476.5</ele><time>2026-04-26T08:33:51Z</time></trkpt><trkpt lat="37.04160910171376" lon="15.002478318154083"><ele>474.0</ele><time>2026-04-26T08:33:52Z</time></trkpt><trkpt lat="37.0415212611097" lon="15.002611488777713"><ele>471.5</ele><time>2026-04-26T08:33:53Z</time></trkpt><trkpt lat="37.04145224281422" lon="15.002734221993517"><ele>469.0</ele><time>2026-04-26T08:33:54Z</time></trkpt><trkpt lat="37.04140753879018" lon="15.002869025821996"><ele>469.00000000000006</ele><time>2026-04-26T08:33:55Z</time></trkpt><trkpt lat="37.04137304800034" lon="15.002971027872638"><ele>469.0</ele><time>2026-04-26T08:33:56Z</time></trkpt><trkpt lat="37.04134445347644" lon="15.003057012249098"><ele>469.0</ele><time>2026-04-26T08:33:57Z</time></trkpt><trkpt lat="37.041321336442266" lon="15.003132419993465"><ele>469.0</ele><time>2026-04-26T08:33:58Z</time></trkpt><trkpt lat="37.041282587574514" lon="15.003252521389145"><ele>469.00000000000006</ele><time>2026-04-26T08:34:00Z</time></trkpt><trkpt lat="37.04125809546666" lon="15.003337601740224"><ele>469.0</ele><time>2026-04-26T08:34:01Z</time></trkpt><trkpt lat="37.041230242003074" lon="15.003431838142765"><ele>469.83333333333337</ele><time>2026-04-26T08:34:02Z</time></trkpt><trkpt lat="37.041201767444896" lon="15.003517651319562"><ele>470.6666666666667</ele><time>2026-04-26T08:34:03Z</time></trkpt><trkpt lat="37.04117611219198" lon="15.003597123519079"><ele>471.5</ele><time>2026-04-26T08:34:04Z</time></trkpt><trkpt lat="37.04114661424833" lon="15.003703073816066"><ele>472.33333333333337</ele><time>2026-04-26T08:34:06Z</time></trkpt><trkpt lat="37.041120811454476" lon="15.003797708966546"><ele>473.1666666666667</ele><time>2026-04-26T08:37:19Z</time></trkpt><trkpt lat="37.04108729154796" lon="15.003898722616569"><ele>474.0</ele><time>2026-04-26T08:37:21Z</time></trkpt><trkpt lat="37.041108525753394" lon="15.004001370904305"><ele>474.0</ele><time>2026-04-26T08:37:23Z</time></trkpt><trkpt lat="37.04113268515416" lon="15.004079198559115"><ele>474.0</ele><time>2026-04-26T08:37:25Z</time></trkpt><trkpt lat="37.041195546464884" lon="15.004163347874764"><ele>474.0</ele><time>2026-04-26T08:37:27Z</time></trkpt><trkpt lat="37.04127837410872" lon="15.004212155022683"><ele>474.0</ele><time>2026-04-26T08:37:29Z</time></trkpt><trkpt lat="37.04133919635973" lon="15.0042752790726"><ele>474.0</ele><time>2026-04-26T08:37:31Z</time></trkpt><trkpt lat="37.041713527530426" lon="15.004230404351471"><ele>475.2</ele><time>2026-04-26T08:37:32Z</time></trkpt><trkpt lat="37.04180133408526" lon="15.004286673686277"><ele>476.4</ele><time>2026-04-26T08:37:34Z</time></trkpt><trkpt lat="37.04193712347087" lon="15.004353257763075"><ele>477.6</ele><time>2026-04-26T08:37:36Z</time></trkpt><trkpt lat="37.0420177578751" lon="15.00439508359949"><ele>478.8</ele><time>2026-04-26T08:37:37Z</time></trkpt><trkpt lat="37.04209808298319" lon="15.004436734510591"><ele>480.0</ele><time>2026-04-26T08:37:38Z</time></trkpt><trkpt lat="37.04218549970793" lon="15.004476790605239"><ele>480.0</ele><time>2026-04-26T08:37:39Z</time></trkpt><trkpt lat="37.042255695273695" lon="15.004510477991046"><ele>480.0</ele><time>2026-04-26T08:37:40Z</time></trkpt><trkpt lat="37.04231980709021" lon="15.004535996485624"><ele>480.0</ele><time>2026-04-26T08:37:41Z</time></trkpt><trkpt lat="37.04242409697892" lon="15.004591059591604"><ele>480.0</ele><time>2026-04-26T08:37:43Z</time></trkpt><trkpt lat="37.042492818911015" lon="15.004619613499367"><ele>480.0</ele><time>2026-04-26T08:37:44Z</time></trkpt><trkpt lat="37.04256774405836" lon="15.004647969972803"><ele>480.0</ele><time>2026-04-26T08:37:45Z</time></trkpt><trkpt lat="37.04264327720016" lon="15.004689824423277"><ele>480.1666666666667</ele><time>2026-04-26T08:37:46Z</time></trkpt><trkpt lat="37.04272044792413" lon="15.004722870999512"><ele>480.33333333333337</ele><time>2026-04-26T08:37:47Z</time></trkpt><trkpt lat="37.04279168189585" lon="15.004752084260524"><ele>480.5</ele><time>2026-04-26T08:37:48Z</time></trkpt><trkpt lat="37.04285888875597" lon="15.004777994419703"><ele>480.6666666666667</ele><time>2026-04-26T08:37:49Z</time></trkpt><trkpt lat="37.04292043842931" lon="15.00479773519012"><ele>480.83333333333337</ele><time>2026-04-26T08:37:50Z</time></trkpt><trkpt lat="37.04300463540363" lon="15.00483799352574"><ele>481.0</ele><time>2026-04-26T08:37:52Z</time></trkpt><trkpt lat="37.043080817574676" lon="15.004875819060707"><ele>481.0</ele><time>2026-04-26T08:37:54Z</time></trkpt><trkpt lat="37.043151113382194" lon="15.004905666397818"><ele>481.0</ele><time>2026-04-26T08:37:56Z</time></trkpt><trkpt lat="37.04323998476965" lon="15.004939170463619"><ele>481.0</ele><time>2026-04-26T08:37:58Z</time></trkpt><trkpt lat="37.04330645256401" lon="15.004972012141925"><ele>481.0</ele><time>2026-04-26T08:38:00Z</time></trkpt><trkpt lat="37.04340092160927" lon="15.005006008522573"><ele>481.0</ele><time>2026-04-26T08:38:03Z</time></trkpt><trkpt lat="37.04352368729717" lon="15.005050616057924"><ele>479.20000000000005</ele><time>2026-04-26T08:38:05Z</time></trkpt><trkpt lat="37.0435868264468" lon="15.00508556338236"><ele>477.40000000000003</ele><time>2026-04-26T08:38:06Z</time></trkpt><trkpt lat="37.043691713339996" lon="15.005130228538789"><ele>475.6</ele><time>2026-04-26T08:38:08Z</time></trkpt><trkpt lat="37.04379028732593" lon="15.00517673501071"><ele>473.8</ele><time>2026-04-26T08:38:10Z</time></trkpt><trkpt lat="37.043881481683385" lon="15.005218514773274"><ele>472.0</ele><time>2026-04-26T08:38:12Z</time></trkpt><trkpt lat="37.043956488766746" lon="15.005247569892088"><ele>472.00000000000006</ele><time>2026-04-26T08:38:14Z</time></trkpt><trkpt lat="37.04402412174465" lon="15.005281009776535"><ele>472.0</ele><time>2026-04-26T08:38:16Z</time></trkpt><trkpt lat="37.04410853466214" lon="15.005292698203146"><ele>472.0</ele><time>2026-04-26T08:38:19Z</time></trkpt><trkpt lat="37.04417377109198" lon="15.005323115495642"><ele>472.0</ele><time>2026-04-26T08:38:23Z</time></trkpt><trkpt lat="37.04424610875958" lon="15.005329072815897"><ele>472.00000000000006</ele><time>2026-04-26T08:38:38Z</time></trkpt><trkpt lat="37.04430167631103" lon="15.005286000567535"><ele>472.0</ele><time>2026-04-26T08:38:40Z</time></trkpt><trkpt lat="37.04438810857413" lon="15.005241078651638"><ele>472.33333333333337</ele><time>2026-04-26T08:38:43Z</time></trkpt><trkpt lat="37.044479201747826" lon="15.005208058808437"><ele>472.6666666666667</ele><time>2026-04-26T08:38:46Z</time></trkpt><trkpt lat="37.04454608518183" lon="15.005174297156085"><ele>473.0</ele><time>2026-04-26T08:38:48Z</time></trkpt><trkpt lat="37.04461167652439" lon="15.005137026253312"><ele>473.33333333333337</ele><time>2026-04-26T08:38:52Z</time></trkpt><trkpt lat="37.04466336696043" lon="15.005090008294866"><ele>473.6666666666667</ele><time>2026-04-26T08:38:54Z</time></trkpt><trkpt lat="37.044719647984245" lon="15.005008277228674"><ele>474.0</ele><time>2026-04-26T08:38:56Z</time></trkpt><trkpt lat="37.04476633110775" lon="15.00491999088863"><ele>474.0</ele><time>2026-04-26T08:38:58Z</time></trkpt><trkpt lat="37.04481896733441" lon="15.00487545301696"><ele>474.0</ele><time>2026-04-26T08:39:00Z</time></trkpt><trkpt lat="37.044879235303085" lon="15.004787714737036"><ele>474.0</ele><time>2026-04-26T08:39:03Z</time></trkpt><trkpt lat="37.044940235501834" lon="15.004831577609915"><ele>474.0</ele><time>2026-04-26T08:39:07Z</time></trkpt><trkpt lat="37.04492171124734" lon="15.004941144378094"><ele>474.0</ele><time>2026-04-26T08:39:11Z</time></trkpt><trkpt lat="37.044873294841075" lon="15.005020735031437"><ele>474.0</ele><time>2026-04-26T08:39:13Z</time></trkpt><trkpt lat="37.04484751589387" lon="15.005132424440664"><ele>473.0</ele><time>2026-04-26T08:39:15Z</time></trkpt><trkpt lat="37.04482784088091" lon="15.005278026026883"><ele>472.0</ele><time>2026-04-26T08:39:17Z</time></trkpt><trkpt lat="37.04480646973736" lon="15.005353523883189"><ele>471.0</ele><time>2026-04-26T08:39:18Z</time></trkpt><trkpt lat="37.04477079668678" lon="15.005463181218454"><ele>470.0</ele><time>2026-04-26T08:39:20Z</time></trkpt><trkpt lat="37.04471957760723" lon="15.005573557068889"><ele>469.0</ele><time>2026-04-26T08:39:22Z</time></trkpt><trkpt lat="37.04468564989334" lon="15.005661121276837"><ele>469.0</ele><time>2026-04-26T08:39:24Z</time></trkpt><trkpt lat="37.04465067618112" lon="15.005762994269404"><ele>469.0</ele><time>2026-04-26T08:39:26Z</time></trkpt><trkpt lat="37.04462807656086" lon="15.005899717434378"><ele>469.0</ele><time>2026-04-26T08:39:28Z</time></trkpt><trkpt lat="37.04461660969084" lon="15.005977869663978"><ele>469.0</ele><time>2026-04-26T08:39:29Z</time></trkpt><trkpt lat="37.04460356245317" lon="15.006117387665457"><ele>469.0</ele><time>2026-04-26T08:39:31Z</time></trkpt><trkpt lat="37.044609283246274" lon="15.00623631310104"><ele>468.33333333333337</ele><time>2026-04-26T08:39:33Z</time></trkpt><trkpt lat="37.04463582312278" lon="15.006342072659953"><ele>467.6666666666667</ele><time>2026-04-26T08:39:35Z</time></trkpt><trkpt lat="37.044668243283645" lon="15.006409917224225"><ele>467.0</ele><time>2026-04-26T08:39:37Z</time></trkpt><trkpt lat="37.04473802081676" lon="15.00649312799655"><ele>466.33333333333337</ele><time>2026-04-26T08:39:57Z</time></trkpt><trkpt lat="37.04476915132795" lon="15.006564971649551"><ele>465.6666666666667</ele><time>2026-04-26T08:39:58Z</time></trkpt><trkpt lat="37.04480541134114" lon="15.006637956119311"><ele>465.0</ele><time>2026-04-26T08:40:00Z</time></trkpt><trkpt lat="37.04488655297967" lon="15.006650404901041"><ele>464.6</ele><time>2026-04-26T08:40:03Z</time></trkpt><trkpt lat="37.04496715662158" lon="15.006719414132155"><ele>464.2</ele><time>2026-04-26T08:40:05Z</time></trkpt><trkpt lat="37.04501144305569" lon="15.006849303456555"><ele>463.79999999999995</ele><time>2026-04-26T08:40:07Z</time></trkpt><trkpt lat="37.04499265215658" lon="15.006980922738078"><ele>463.4</ele><time>2026-04-26T08:40:09Z</time></trkpt><trkpt lat="37.044968063780104" lon="15.007082648545184"><ele>463.0</ele><time>2026-04-26T08:40:11Z</time></trkpt><trkpt lat="37.04494400481347" lon="15.00717263507848"><ele>463.00000000000006</ele><time>2026-04-26T08:40:12Z</time></trkpt><trkpt lat="37.04491759097629" lon="15.007277473850598"><ele>463.0</ele><time>2026-04-26T08:40:14Z</time></trkpt><trkpt lat="37.04497755231032" lon="15.007348911355914"><ele>463.0</ele><time>2026-04-26T08:40:16Z</time></trkpt><trkpt lat="37.04491912371674" lon="15.007272841519487"><ele>463.0</ele><time>2026-04-26T08:40:33Z</time></trkpt><trkpt lat="37.04498323742352" lon="15.007306699465884"><ele>463.00000000000006</ele><time>2026-04-26T08:40:44Z</time></trkpt><trkpt lat="37.04506271414139" lon="15.00735608963065"><ele>463.0</ele><time>2026-04-26T08:41:05Z</time></trkpt><trkpt lat="37.0451049742" lon="15.007439401909153"><ele>463.00000000000006</ele><time>2026-04-26T08:41:07Z</time></trkpt><trkpt lat="37.04517274797009" lon="15.007540785078863"><ele>463.0</ele><time>2026-04-26T08:41:09Z</time></trkpt><trkpt lat="37.045201196700205" lon="15.007614922302107"><ele>463.0</ele><time>2026-04-26T08:41:10Z</time></trkpt><trkpt lat="37.04522284027639" lon="15.007690735996201"><ele>463.0</ele><time>2026-04-26T08:41:11Z</time></trkpt><trkpt lat="37.045251872171846" lon="15.007770044379518"><ele>463.00000000000006</ele><time>2026-04-26T08:41:12Z</time></trkpt><trkpt lat="37.04528476685453" lon="15.007845728424012"><ele>463.0</ele><time>2026-04-26T08:41:13Z</time></trkpt><trkpt lat="37.045363075657015" lon="15.00795208722935"><ele>463.0</ele><time>2026-04-26T08:41:15Z</time></trkpt><trkpt lat="37.04542612660783" lon="15.0080457426803"><ele>462.99999999999994</ele><time>2026-04-26T08:41:17Z</time></trkpt><trkpt lat="37.04552843559593" lon="15.008129620736998"><ele>462.99999999999994</ele><time>2026-04-26T08:41:19Z</time></trkpt><trkpt lat="37.045571023200694" lon="15.008206724549373"><ele>463.0</ele><time>2026-04-26T08:41:20Z</time></trkpt><trkpt lat="37.04562127901313" lon="15.008295841688716"><ele>463.0</ele><time>2026-04-26T08:41:21Z</time></trkpt><trkpt lat="37.0456755857376" lon="15.008362502987158"><ele>462.2</ele><time>2026-04-26T08:41:22Z</time></trkpt><trkpt lat="37.045786329379375" lon="15.00839634129221"><ele>461.4</ele><time>2026-04-26T08:41:24Z</time></trkpt><trkpt lat="37.04584822567798" lon="15.008413749521155"><ele>460.59999999999997</ele><time>2026-04-26T08:41:25Z</time></trkpt><trkpt lat="37.04595382590486" lon="15.008435746784512"><ele>459.79999999999995</ele><time>2026-04-26T08:41:27Z</time></trkpt><trkpt lat="37.04606404915535" lon="15.008438524584578"><ele>459.0</ele><time>2026-04-26T08:41:29Z</time></trkpt><trkpt lat="37.04616994618571" lon="15.008448584934797"><ele>461.0</ele><time>2026-04-26T08:41:31Z</time></trkpt><trkpt lat="37.04628306025468" lon="15.00846726039155"><ele>463.0</ele><time>2026-04-26T08:41:33Z</time></trkpt><trkpt lat="37.04635976933648" lon="15.008477182982435"><ele>465.0</ele><time>2026-04-26T08:41:35Z</time></trkpt><trkpt lat="37.04645710189199" lon="15.008486241174086"><ele>467.0</ele><time>2026-04-26T08:41:37Z</time></trkpt><trkpt lat="37.04657288494542" lon="15.008471765323597"><ele>469.0</ele><time>2026-04-26T08:41:39Z</time></trkpt><trkpt lat="37.046640917760655" lon="15.00846728142389"><ele>470.4</ele><time>2026-04-26T08:41:40Z</time></trkpt><trkpt lat="37.04675459992591" lon="15.008513420685766"><ele>471.79999999999995</ele><time>2026-04-26T08:41:42Z</time></trkpt><trkpt lat="37.046815811311156" lon="15.008543489672528"><ele>473.20000000000005</ele><time>2026-04-26T08:41:43Z</time></trkpt><trkpt lat="37.04688416103631" lon="15.008542710757864"><ele>474.6</ele><time>2026-04-26T08:41:44Z</time></trkpt><trkpt lat="37.04697934552218" lon="15.008554401216301"><ele>476.0</ele><time>2026-04-26T08:41:46Z</time></trkpt><trkpt lat="37.04709198347727" lon="15.008566957578365"><ele>476.0</ele><time>2026-04-26T08:41:48Z</time></trkpt><trkpt lat="37.0471754357276" lon="15.008575465518915"><ele>476.0</ele><time>2026-04-26T08:41:51Z</time></trkpt><trkpt lat="37.04725061127791" lon="15.008596377430925"><ele>476.0</ele><time>2026-04-26T08:41:54Z</time></trkpt><trkpt lat="37.04733036239425" lon="15.008606668504408"><ele>476.0</ele><time>2026-04-26T08:41:57Z</time></trkpt><trkpt lat="37.04742409140571" lon="15.008654261025592"><ele>476.0</ele><time>2026-04-26T08:42:00Z</time></trkpt><trkpt lat="37.04753977870482" lon="15.008711685532974"><ele>475.8</ele><time>2026-04-26T08:42:02Z</time></trkpt><trkpt lat="37.04762587982713" lon="15.008776412859298"><ele>475.6</ele><time>2026-04-26T08:42:04Z</time></trkpt><trkpt lat="37.04770466468751" lon="15.00883653085784"><ele>475.4</ele><time>2026-04-26T08:42:06Z</time></trkpt><trkpt lat="37.047725644752504" lon="15.008927958753539"><ele>475.2</ele><time>2026-04-26T08:42:09Z</time></trkpt><trkpt lat="37.04771026528757" lon="15.009057524814601"><ele>475.0</ele><time>2026-04-26T08:42:13Z</time></trkpt><trkpt lat="37.04772884679874" lon="15.009168824560973"><ele>473.83333333333337</ele><time>2026-04-26T08:42:16Z</time></trkpt><trkpt lat="37.047714914489056" lon="15.009252065971006"><ele>472.6666666666667</ele><time>2026-04-26T08:42:20Z</time></trkpt><trkpt lat="37.04767638029703" lon="15.009346942640706"><ele>471.5</ele><time>2026-04-26T08:42:21Z</time></trkpt><trkpt lat="37.04764891055913" lon="15.009500909603274"><ele>470.33333333333337</ele><time>2026-04-26T08:42:23Z</time></trkpt><trkpt lat="37.04764754598781" lon="15.009600025062014"><ele>469.1666666666667</ele><time>2026-04-26T08:42:24Z</time></trkpt><trkpt lat="37.04763701439233" lon="15.009705788398673"><ele>468.0</ele><time>2026-04-26T08:42:25Z</time></trkpt><trkpt lat="37.04761949980758" lon="15.009806397590742"><ele>468.0</ele><time>2026-04-26T08:42:26Z</time></trkpt><trkpt lat="37.047600338265894" lon="15.009908496521446"><ele>468.0</ele><time>2026-04-26T08:42:27Z</time></trkpt><trkpt lat="37.0475901321114" lon="15.00999571406111"><ele>468.0</ele><time>2026-04-26T08:42:28Z</time></trkpt><trkpt lat="37.0475919904789" lon="15.010092171916792"><ele>468.0</ele><time>2026-04-26T08:42:29Z</time></trkpt><trkpt lat="37.04758661925161" lon="15.010185035561427"><ele>468.0</ele><time>2026-04-26T08:42:30Z</time></trkpt><trkpt lat="37.04757069667192" lon="15.01034591137541"><ele>468.0</ele><time>2026-04-26T08:42:32Z</time></trkpt><trkpt lat="37.047571117936066" lon="15.010441778383289"><ele>467.3333333333333</ele><time>2026-04-26T08:42:34Z</time></trkpt><trkpt lat="37.04754068994077" lon="15.010550268317878"><ele>466.66666666666663</ele><time>2026-04-26T08:42:37Z</time></trkpt><trkpt lat="37.0475365061076" lon="15.01063378219727"><ele>466.0</ele><time>2026-04-26T08:42:38Z</time></trkpt><trkpt lat="37.04753654205652" lon="15.0107226754165"><ele>465.3333333333333</ele><time>2026-04-26T08:42:39Z</time></trkpt><trkpt lat="37.04753680462336" lon="15.010814602313928"><ele>464.66666666666663</ele><time>2026-04-26T08:42:41Z</time></trkpt><trkpt lat="37.04752634983692" lon="15.010893452299989"><ele>464.0</ele><time>2026-04-26T08:42:43Z</time></trkpt><trkpt lat="37.047521076409296" lon="15.011034391270401"><ele>463.6</ele><time>2026-04-26T08:42:45Z</time></trkpt><trkpt lat="37.04750640225271" lon="15.01111435103238"><ele>463.2</ele><time>2026-04-26T08:42:46Z</time></trkpt><trkpt lat="37.047492235121126" lon="15.011254551292764"><ele>462.80000000000007</ele><time>2026-04-26T08:42:48Z</time></trkpt><trkpt lat="37.04747759869737" lon="15.01143551321912"><ele>462.40000000000003</ele><time>2026-04-26T08:42:50Z</time></trkpt><trkpt lat="37.04746873164389" lon="15.011537843878179"><ele>462.0</ele><time>2026-04-26T08:42:51Z</time></trkpt><trkpt lat="37.047460066905266" lon="15.011621830075214"><ele>460.1666666666667</ele><time>2026-04-26T08:42:52Z</time></trkpt><trkpt lat="37.04744791236304" lon="15.011704272634667"><ele>458.33333333333337</ele><time>2026-04-26T08:42:53Z</time></trkpt><trkpt lat="37.04744118923586" lon="15.011783964971197"><ele>456.5</ele><time>2026-04-26T08:42:54Z</time></trkpt><trkpt lat="37.047402159271996" lon="15.011897541494854"><ele>454.6666666666667</ele><time>2026-04-26T08:42:56Z</time></trkpt><trkpt lat="37.047374118797904" lon="15.01199749365653"><ele>452.83333333333337</ele><time>2026-04-26T08:42:58Z</time></trkpt><trkpt lat="37.04736756626458" lon="15.012119083632214"><ele>451.0</ele><time>2026-04-26T08:43:00Z</time></trkpt><trkpt lat="37.047370231525264" lon="15.012280080866407"><ele>451.00000000000006</ele><time>2026-04-26T08:43:02Z</time></trkpt><trkpt lat="37.047378289739854" lon="15.01236806831608"><ele>451.0</ele><time>2026-04-26T08:43:03Z</time></trkpt><trkpt lat="37.04738685913411" lon="15.012472155116134"><ele>451.0</ele><time>2026-04-26T08:43:04Z</time></trkpt><trkpt lat="37.047382904583095" lon="15.012570202858237"><ele>451.0</ele><time>2026-04-26T08:43:05Z</time></trkpt><trkpt lat="37.04736736474848" lon="15.012706720708909"><ele>451.00000000000006</ele><time>2026-04-26T08:43:06Z</time></trkpt><trkpt lat="37.04736063032655" lon="15.012821878724418"><ele>451.0</ele><time>2026-04-26T08:43:07Z</time></trkpt><trkpt lat="37.0473546109035" lon="15.012914029705481"><ele>450.83333333333337</ele><time>2026-04-26T08:43:08Z</time></trkpt><trkpt lat="37.047357232373294" lon="15.012995855907167"><ele>450.6666666666667</ele><time>2026-04-26T08:43:09Z</time></trkpt><trkpt lat="37.04734876157807" lon="15.01309240246545"><ele>450.5</ele><time>2026-04-26T08:43:10Z</time></trkpt><trkpt lat="37.04732393086628" lon="15.013194057105089"><ele>450.33333333333337</ele><time>2026-04-26T08:43:11Z</time></trkpt><trkpt lat="37.04729111337781" lon="15.013298914341421"><ele>450.1666666666667</ele><time>2026-04-26T08:43:13Z</time></trkpt><trkpt lat="37.04729415315793" lon="15.013424039956005"><ele>450.0</ele><time>2026-04-26T08:43:15Z</time></trkpt><trkpt lat="37.04727510884285" lon="15.01358898145556"><ele>449.6</ele><time>2026-04-26T08:43:17Z</time></trkpt><trkpt lat="37.047271725474644" lon="15.013688118012812"><ele>449.2</ele><time>2026-04-26T08:43:18Z</time></trkpt><trkpt lat="37.04726791550366" lon="15.013825908579037"><ele>448.79999999999995</ele><time>2026-04-26T08:43:19Z</time></trkpt><trkpt lat="37.04726637582065" lon="15.013951866305847"><ele>448.4</ele><time>2026-04-26T08:43:20Z</time></trkpt><trkpt lat="37.04726795811434" lon="15.014034789744114"><ele>448.0</ele><time>2026-04-26T08:43:21Z</time></trkpt><trkpt lat="37.04724260287621" lon="15.014182905435248"><ele>447.1666666666667</ele><time>2026-04-26T08:43:23Z</time></trkpt><trkpt lat="37.04720443259448" lon="15.014271445570063"><ele>446.33333333333337</ele><time>2026-04-26T08:43:25Z</time></trkpt><trkpt lat="37.047190536047616" lon="15.01439352344644"><ele>445.5</ele><time>2026-04-26T08:43:27Z</time></trkpt><trkpt lat="37.04719840528491" lon="15.01447856860442"><ele>444.66666666666663</ele><time>2026-04-26T08:43:28Z</time></trkpt><trkpt lat="37.047194940478235" lon="15.01457118700296"><ele>443.8333333333333</ele><time>2026-04-26T08:43:30Z</time></trkpt><trkpt lat="37.047127771083915" lon="15.014596085943506"><ele>443.0</ele><time>2026-04-26T08:44:14Z</time></trkpt><trkpt lat="37.047062406134536" lon="15.014630478403195"><ele>443.0</ele><time>2026-04-26T08:44:18Z</time></trkpt><trkpt lat="37.04704102577301" lon="15.014729932766436"><ele>442.99999999999994</ele><time>2026-04-26T08:44:21Z</time></trkpt><trkpt lat="37.047036404201414" lon="15.014816025852069"><ele>442.99999999999994</ele><time>2026-04-26T08:44:24Z</time></trkpt><trkpt lat="37.04700998187769" lon="15.014959736853973"><ele>443.0</ele><time>2026-04-26T08:46:30Z</time></trkpt><trkpt lat="37.04701019836602" lon="15.015061802312257"><ele>443.0</ele><time>2026-04-26T08:57:04Z</time></trkpt><trkpt lat="37.047002333920105" lon="15.015194164763209"><ele>442.99999999999994</ele><time>2026-04-26T08:57:06Z</time></trkpt><trkpt lat="37.04697756892608" lon="15.015336972358165"><ele>443.0</ele><time>2026-04-26T08:57:08Z</time></trkpt><trkpt lat="37.046966570459254" lon="15.015459066574913"><ele>443.0</ele><time>2026-04-26T08:57:09Z</time></trkpt><trkpt lat="37.04696599015741" lon="15.015565927204877"><ele>443.0</ele><time>2026-04-26T08:57:10Z</time></trkpt><trkpt lat="37.0469708659335" lon="15.015654749900484"><ele>442.99999999999994</ele><time>2026-04-26T08:57:11Z</time></trkpt><trkpt lat="37.04697332347221" lon="15.01573774559923"><ele>443.0</ele><time>2026-04-26T08:57:12Z</time></trkpt><trkpt lat="37.046967063066845" lon="15.015826424067116"><ele>442.99999999999994</ele><time>2026-04-26T08:57:13Z</time></trkpt><trkpt lat="37.0469554197575" lon="15.015914439347062"><ele>443.0</ele><time>2026-04-26T08:57:14Z</time></trkpt><trkpt lat="37.04694699264579" lon="15.016002633420372"><ele>443.0</ele><time>2026-04-26T08:57:15Z</time></trkpt><trkpt lat="37.04693455252869" lon="15.016096249424066"><ele>443.0</ele><time>2026-04-26T08:57:16Z</time></trkpt><trkpt lat="37.046917866980586" lon="15.016220810709127"><ele>442.99999999999994</ele><time>2026-04-26T08:57:17Z</time></trkpt><trkpt lat="37.046918536540986" lon="15.016337290224687"><ele>443.0</ele><time>2026-04-26T08:57:18Z</time></trkpt><trkpt lat="37.04692793435297" lon="15.016427498685092"><ele>443.0</ele><time>2026-04-26T08:57:19Z</time></trkpt><trkpt lat="37.046936568636845" lon="15.016509294066351"><ele>442.99999999999994</ele><time>2026-04-26T08:57:20Z</time></trkpt><trkpt lat="37.046946000785404" lon="15.016620809933665"><ele>442.99999999999994</ele><time>2026-04-26T08:57:22Z</time></trkpt><trkpt lat="37.046937801539514" lon="15.016734231452569"><ele>443.0</ele><time>2026-04-26T08:57:24Z</time></trkpt><trkpt lat="37.04690709054701" lon="15.016851116677733"><ele>443.0</ele><time>2026-04-26T08:57:26Z</time></trkpt><trkpt lat="37.046888388980925" lon="15.016983921700026"><ele>443.66666666666663</ele><time>2026-04-26T08:57:28Z</time></trkpt><trkpt lat="37.04689093484899" lon="15.017088433175203"><ele>444.3333333333333</ele><time>2026-04-26T08:57:30Z</time></trkpt><trkpt lat="37.04691790173533" lon="15.017205132490314"><ele>445.0</ele><time>2026-04-26T08:57:32Z</time></trkpt><trkpt lat="37.0469491644776" lon="15.017313923392063"><ele>445.66666666666663</ele><time>2026-04-26T08:57:34Z</time></trkpt><trkpt lat="37.046938330578705" lon="15.01742628978675"><ele>446.3333333333333</ele><time>2026-04-26T08:57:36Z</time></trkpt><trkpt lat="37.046923163730064" lon="15.01751386482855"><ele>447.0</ele><time>2026-04-26T08:57:37Z</time></trkpt><trkpt lat="37.046915539870916" lon="15.017621096504739"><ele>447.20000000000005</ele><time>2026-04-26T08:57:38Z</time></trkpt><trkpt lat="37.046909273877574" lon="15.017741202230452"><ele>447.40000000000003</ele><time>2026-04-26T08:57:39Z</time></trkpt><trkpt lat="37.0469004272702" lon="15.01788824696303"><ele>447.59999999999997</ele><time>2026-04-26T08:57:40Z</time></trkpt><trkpt lat="37.046886273611904" lon="15.018044234644883"><ele>447.79999999999995</ele><time>2026-04-26T08:57:41Z</time></trkpt><trkpt lat="37.04686600639158" lon="15.01816217543128"><ele>448.0</ele><time>2026-04-26T08:57:42Z</time></trkpt><trkpt lat="37.046848145366766" lon="15.018264730631843"><ele>447.6666666666667</ele><time>2026-04-26T08:57:43Z</time></trkpt><trkpt lat="37.04684714797212" lon="15.018351514358983"><ele>447.33333333333337</ele><time>2026-04-26T08:57:44Z</time></trkpt><trkpt lat="37.04684206291603" lon="15.018504078717497"><ele>447.0</ele><time>2026-04-26T08:57:46Z</time></trkpt><trkpt lat="37.04683290519947" lon="15.018597173891338"><ele>446.66666666666663</ele><time>2026-04-26T08:57:47Z</time></trkpt><trkpt lat="37.046817079858236" lon="15.018688857888009"><ele>446.3333333333333</ele><time>2026-04-26T08:57:48Z</time></trkpt><trkpt lat="37.046808421105275" lon="15.018777090810827"><ele>446.0</ele><time>2026-04-26T08:57:49Z</time></trkpt><trkpt lat="37.046784564760465" lon="15.018895278758594"><ele>446.0</ele><time>2026-04-26T08:57:51Z</time></trkpt><trkpt lat="37.04678535032862" lon="15.019005334273464"><ele>446.0</ele><time>2026-04-26T08:57:53Z</time></trkpt><trkpt lat="37.04677923875857" lon="15.019119895667627"><ele>446.0</ele><time>2026-04-26T08:57:55Z</time></trkpt><trkpt lat="37.04677351518694" lon="15.019246269086814"><ele>446.0</ele><time>2026-04-26T08:57:57Z</time></trkpt><trkpt lat="37.046767793708256" lon="15.019566583269095"><ele>445.99999999999994</ele><time>2026-04-26T08:58:00Z</time></trkpt><trkpt lat="37.046761614417676" lon="15.019662881112813"><ele>446.0</ele><time>2026-04-26T08:58:01Z</time></trkpt><trkpt lat="37.04673848399754" lon="15.019738096748737"><ele>446.0</ele><time>2026-04-26T08:58:02Z</time></trkpt><trkpt lat="37.046729235133476" lon="15.019835513464532"><ele>446.0</ele><time>2026-04-26T08:58:04Z</time></trkpt><trkpt lat="37.046721749765325" lon="15.019914355600566"><ele>445.99999999999994</ele><time>2026-04-26T08:58:05Z</time></trkpt><trkpt lat="37.04670965956235" lon="15.02004441475824"><ele>446.0</ele><time>2026-04-26T08:58:06Z</time></trkpt><trkpt lat="37.0467014122641" lon="15.020156597267096"><ele>445.99999999999994</ele><time>2026-04-26T08:58:07Z</time></trkpt><trkpt lat="37.046712610377114" lon="15.020257064676954"><ele>446.0</ele><time>2026-04-26T08:58:08Z</time></trkpt><trkpt lat="37.04670217853761" lon="15.020362512856712"><ele>446.0</ele><time>2026-04-26T08:58:09Z</time></trkpt><trkpt lat="37.04671134827902" lon="15.020465941611722"><ele>446.0</ele><time>2026-04-26T08:58:10Z</time></trkpt><trkpt lat="37.0467022247139" lon="15.020581680822549"><ele>445.99999999999994</ele><time>2026-04-26T08:58:11Z</time></trkpt><trkpt lat="37.04670529891384" lon="15.020681491766299"><ele>446.0</ele><time>2026-04-26T08:58:12Z</time></trkpt><trkpt lat="37.04670958575831" lon="15.020820674071654"><ele>445.8333333333333</ele><time>2026-04-26T08:58:14Z</time></trkpt><trkpt lat="37.04672814384829" lon="15.020899735144294"><ele>445.66666666666663</ele><time>2026-04-26T08:58:15Z</time></trkpt><trkpt lat="37.046715250697986" lon="15.020984013672"><ele>445.5</ele><time>2026-04-26T08:58:16Z</time></trkpt><trkpt lat="37.046718193105896" lon="15.02106442115681"><ele>445.33333333333337</ele><time>2026-04-26T08:58:17Z</time></trkpt><trkpt lat="37.046722883508" lon="15.02120194694208"><ele>445.1666666666667</ele><time>2026-04-26T08:58:19Z</time></trkpt><trkpt lat="37.04670286209126" lon="15.021314560996316"><ele>445.0</ele><time>2026-04-26T08:58:21Z</time></trkpt><trkpt lat="37.04670559659636" lon="15.021416591158827"><ele>445.00000000000006</ele><time>2026-04-26T08:58:22Z</time></trkpt><trkpt lat="37.04670448766004" lon="15.021511147502652"><ele>445.0</ele><time>2026-04-26T08:58:23Z</time></trkpt><trkpt lat="37.04670883614416" lon="15.021596317177423"><ele>445.0</ele><time>2026-04-26T08:58:24Z</time></trkpt><trkpt lat="37.046713198361296" lon="15.02172426019847"><ele>445.0</ele><time>2026-04-26T08:58:25Z</time></trkpt><trkpt lat="37.04671759974881" lon="15.021846769056996"><ele>445.00000000000006</ele><time>2026-04-26T08:58:26Z</time></trkpt><trkpt lat="37.046719225043006" lon="15.021944127148462"><ele>445.0</ele><time>2026-04-26T08:58:27Z</time></trkpt><trkpt lat="37.04672946343724" lon="15.022077894648202"><ele>444.50000000000006</ele><time>2026-04-26T08:58:29Z</time></trkpt><trkpt lat="37.04673491029301" lon="15.022196440077927"><ele>444.0</ele><time>2026-04-26T08:58:31Z</time></trkpt><trkpt lat="37.04673900905653" lon="15.02228607226135"><ele>443.5</ele><time>2026-04-26T08:58:32Z</time></trkpt><trkpt lat="37.04673545101992" lon="15.02236782006843"><ele>443.0</ele><time>2026-04-26T08:58:34Z</time></trkpt><trkpt lat="37.0467422945085" lon="15.022477750650864"><ele>442.50000000000006</ele><time>2026-04-26T08:58:36Z</time></trkpt><trkpt lat="37.04675199722955" lon="15.022581806121872"><ele>442.0</ele><time>2026-04-26T08:58:37Z</time></trkpt><trkpt lat="37.046761359302536" lon="15.022689942263835"><ele>441.00000000000006</ele><time>2026-04-26T08:58:38Z</time></trkpt><trkpt lat="37.04675166798292" lon="15.022791076525115"><ele>440.0</ele><time>2026-04-26T08:58:39Z</time></trkpt><trkpt lat="37.04676209326009" lon="15.022904903816585"><ele>439.0</ele><time>2026-04-26T08:58:40Z</time></trkpt><trkpt lat="37.0467577445701" lon="15.023019075970177"><ele>438.0</ele><time>2026-04-26T08:58:41Z</time></trkpt><trkpt lat="37.046764010375966" lon="15.023105131784394"><ele>437.00000000000006</ele><time>2026-04-26T08:58:42Z</time></trkpt><trkpt lat="37.046771795962066" lon="15.023246351503087"><ele>436.0</ele><time>2026-04-26T08:58:44Z</time></trkpt><trkpt lat="37.046786073010615" lon="15.023347383742422"><ele>435.33333333333337</ele><time>2026-04-26T08:58:47Z</time></trkpt><trkpt lat="37.046781745023054" lon="15.02346008052977"><ele>434.6666666666667</ele><time>2026-04-26T08:58:50Z</time></trkpt><trkpt lat="37.04678059915693" lon="15.023576375725934"><ele>434.0</ele><time>2026-04-26T08:58:52Z</time></trkpt><trkpt lat="37.04676475819994" lon="15.023703217603027"><ele>433.33333333333337</ele><time>2026-04-26T08:58:54Z</time></trkpt><trkpt lat="37.04673366360034" lon="15.023785305682543"><ele>432.6666666666667</ele><time>2026-04-26T08:58:56Z</time></trkpt><trkpt lat="37.04672765455709" lon="15.023887210764183"><ele>432.0</ele><time>2026-04-26T08:59:00Z</time></trkpt><trkpt lat="37.04670913665172" lon="15.024003269450253"><ele>430.8</ele><time>2026-04-26T08:59:02Z</time></trkpt><trkpt lat="37.04670997752146" lon="15.024168517255077"><ele>429.6</ele><time>2026-04-26T08:59:03Z</time></trkpt><trkpt lat="37.04667914185944" lon="15.024255898143561"><ele>428.40000000000003</ele><time>2026-04-26T08:59:05Z</time></trkpt><trkpt lat="37.046663290893036" lon="15.024339088213896"><ele>427.20000000000005</ele><time>2026-04-26T08:59:07Z</time></trkpt><trkpt lat="37.04663950528382" lon="15.024463921295416"><ele>426.0</ele><time>2026-04-26T08:59:09Z</time></trkpt><trkpt lat="37.04661503305226" lon="15.024592357984718"><ele>425.1666666666667</ele><time>2026-04-26T08:59:12Z</time></trkpt><trkpt lat="37.04660037010958" lon="15.024669312926822"><ele>424.33333333333337</ele><time>2026-04-26T08:59:13Z</time></trkpt><trkpt lat="37.046584684178725" lon="15.024760710131677"><ele>423.5</ele><time>2026-04-26T08:59:14Z</time></trkpt><trkpt lat="37.046566113907154" lon="15.024870699925822"><ele>422.6666666666667</ele><time>2026-04-26T08:59:15Z</time></trkpt><trkpt lat="37.046552029502195" lon="15.024951229794132"><ele>421.83333333333337</ele><time>2026-04-26T08:59:16Z</time></trkpt><trkpt lat="37.046523497469956" lon="15.025095372178132"><ele>421.0</ele><time>2026-04-26T08:59:18Z</time></trkpt><trkpt lat="37.046506339432824" lon="15.02518908989519"><ele>420.83333333333337</ele><time>2026-04-26T08:59:19Z</time></trkpt><trkpt lat="37.04649132289925" lon="15.025279610118497"><ele>420.6666666666667</ele><time>2026-04-26T08:59:20Z</time></trkpt><trkpt lat="37.046478406062064" lon="15.025365335000373"><ele>420.5</ele><time>2026-04-26T08:59:21Z</time></trkpt><trkpt lat="37.04646632877475" lon="15.025445488077626"><ele>420.33333333333337</ele><time>2026-04-26T08:59:22Z</time></trkpt><trkpt lat="37.04646479936567" lon="15.02553247205468"><ele>420.1666666666667</ele><time>2026-04-26T08:59:26Z</time></trkpt><trkpt lat="37.04644369625407" lon="15.025658506172352"><ele>420.0</ele><time>2026-04-26T08:59:30Z</time></trkpt><trkpt lat="37.046424502710664" lon="15.025743271143778"><ele>419.6666666666667</ele><time>2026-04-26T08:59:33Z</time></trkpt><trkpt lat="37.04640958785863" lon="15.025825385901149"><ele>419.33333333333337</ele><time>2026-04-26T08:59:35Z</time></trkpt><trkpt lat="37.046393645855055" lon="15.025916195665017"><ele>419.0</ele><time>2026-04-26T08:59:37Z</time></trkpt><trkpt lat="37.046378340976844" lon="15.02601858955808"><ele>418.6666666666667</ele><time>2026-04-26T08:59:40Z</time></trkpt><trkpt lat="37.04635711796158" lon="15.026119614528472"><ele>418.33333333333337</ele><time>2026-04-26T08:59:43Z</time></trkpt><trkpt lat="37.04634549320565" lon="15.026209875961289"><ele>418.0</ele><time>2026-04-26T08:59:46Z</time></trkpt><trkpt lat="37.04633192647725" lon="15.026325392657263"><ele>418.00000000000006</ele><time>2026-04-26T08:59:55Z</time></trkpt><trkpt lat="37.04630324444163" lon="15.02642988432862"><ele>418.0</ele><time>2026-04-26T08:59:57Z</time></trkpt><trkpt lat="37.046284620004144" lon="15.026537784924507"><ele>418.0</ele><time>2026-04-26T08:59:59Z</time></trkpt><trkpt lat="37.04625916066308" lon="15.0266714565959"><ele>418.0</ele><time>2026-04-26T09:00:01Z</time></trkpt><trkpt lat="37.04624812299583" lon="15.026749636107077"><ele>418.00000000000006</ele><time>2026-04-26T09:00:02Z</time></trkpt><trkpt lat="37.046242076285864" lon="15.026843644372654"><ele>418.0</ele><time>2026-04-26T09:00:04Z</time></trkpt><trkpt lat="37.04624506789396" lon="15.026925428050895"><ele>417.79999999999995</ele><time>2026-04-26T09:02:58.001Z</time></trkpt><trkpt lat="37.046229552438675" lon="15.027050392464814"><ele>417.6</ele><time>2026-04-26T09:03:00.001Z</time></trkpt><trkpt lat="37.04621143895273" lon="15.027131635505889"><ele>417.4</ele><time>2026-04-26T09:03:01.001Z</time></trkpt><trkpt lat="37.046184935417614" lon="15.02724842872456"><ele>417.20000000000005</ele><time>2026-04-26T09:03:02.001Z</time></trkpt><trkpt lat="37.046144613477466" lon="15.027388643055025"><ele>417.0</ele><time>2026-04-26T09:03:03.001Z</time></trkpt><trkpt lat="37.04610898518428" lon="15.027576576590407"><ele>416.75</ele><time>2026-04-26T09:03:04.001Z</time></trkpt><trkpt lat="37.04608520533856" lon="15.027758065363642"><ele>416.5</ele><time>2026-04-26T09:03:05.001Z</time></trkpt><trkpt lat="37.046046938423096" lon="15.027910453092137"><ele>416.25</ele><time>2026-04-26T09:03:06.001Z</time></trkpt><trkpt lat="37.04602890585876" lon="15.028067100916802"><ele>416.0</ele><time>2026-04-26T09:03:07.001Z</time></trkpt><trkpt lat="37.04600844586423" lon="15.028206328185659"><ele>415.5</ele><time>2026-04-26T09:03:08.001Z</time></trkpt><trkpt lat="37.04597864641934" lon="15.028360738160561"><ele>415.0</ele><time>2026-04-26T09:03:09.001Z</time></trkpt><trkpt lat="37.04593956830805" lon="15.028495514086018"><ele>414.5</ele><time>2026-04-26T09:03:10.001Z</time></trkpt><trkpt lat="37.04591242474758" lon="15.028653089833451"><ele>414.0</ele><time>2026-04-26T09:03:11.001Z</time></trkpt><trkpt lat="37.045883019556406" lon="15.028805717659047"><ele>414.0</ele><time>2026-04-26T09:03:12.001Z</time></trkpt><trkpt lat="37.045854284055906" lon="15.028950181926708"><ele>414.0</ele><time>2026-04-26T09:03:13.001Z</time></trkpt><trkpt lat="37.04581450199102" lon="15.029105543172408"><ele>414.0</ele><time>2026-04-26T09:03:14.001Z</time></trkpt><trkpt lat="37.045782279855416" lon="15.029264741036554"><ele>414.0</ele><time>2026-04-26T09:03:15.001Z</time></trkpt><trkpt lat="37.04575734289035" lon="15.029412714120602"><ele>413.5</ele><time>2026-04-26T09:03:16.001Z</time></trkpt><trkpt lat="37.045749417227114" lon="15.029546393044928"><ele>413.0</ele><time>2026-04-26T09:03:17.001Z</time></trkpt><trkpt lat="37.04577808517081" lon="15.029708553720532"><ele>412.5</ele><time>2026-04-26T09:03:18.001Z</time></trkpt><trkpt lat="37.045798615023095" lon="15.029837710632115"><ele>412.0</ele><time>2026-04-26T09:03:19.001Z</time></trkpt><trkpt lat="37.045831397516636" lon="15.029975790401323"><ele>411.6</ele><time>2026-04-26T09:03:20.001Z</time></trkpt><trkpt lat="37.045857286436565" lon="15.030111416286019"><ele>411.20000000000005</ele><time>2026-04-26T09:03:21Z</time></trkpt><trkpt lat="37.045870305545535" lon="15.030230746464857"><ele>410.8</ele><time>2026-04-26T09:03:22Z</time></trkpt><trkpt lat="37.0458972211009" lon="15.030360919610832"><ele>410.4</ele><time>2026-04-26T09:03:23Z</time></trkpt><trkpt lat="37.04593183024934" lon="15.030502501265557"><ele>410.0</ele><time>2026-04-26T09:03:24Z</time></trkpt><trkpt lat="37.04595290297048" lon="15.030641985527673"><ele>410.0</ele><time>2026-04-26T09:03:25Z</time></trkpt><trkpt lat="37.04597434657842" lon="15.030762529853714"><ele>410.0</ele><time>2026-04-26T09:03:26Z</time></trkpt><trkpt lat="37.04597966017937" lon="15.030915416215088"><ele>410.0</ele><time>2026-04-26T09:03:27Z</time></trkpt><trkpt lat="37.04597156634011" lon="15.031073663481333"><ele>410.0</ele><time>2026-04-26T09:03:28Z</time></trkpt><trkpt lat="37.04596301636102" lon="15.031209560980443"><ele>409.25</ele><time>2026-04-26T09:03:29Z</time></trkpt><trkpt lat="37.0459743066513" lon="15.031333850056084"><ele>408.5</ele><time>2026-04-26T09:03:30Z</time></trkpt><trkpt lat="37.045989762694475" lon="15.031493016517807"><ele>407.75</ele><time>2026-04-26T09:03:31Z</time></trkpt><trkpt lat="37.0460013767593" lon="15.031670400271688"><ele>407.0</ele><time>2026-04-26T09:03:32Z</time></trkpt><trkpt lat="37.046009358848615" lon="15.03180497174044"><ele>406.49999999999994</ele><time>2026-04-26T09:03:33Z</time></trkpt><trkpt lat="37.04601374461802" lon="15.031906846801482"><ele>406.0</ele><time>2026-04-26T09:03:34Z</time></trkpt><trkpt lat="37.04601833770806" lon="15.03199502557778"><ele>405.5</ele><time>2026-04-26T09:03:35Z</time></trkpt><trkpt lat="37.04603262318192" lon="15.032108446125113"><ele>405.0</ele><time>2026-04-26T09:03:37Z</time></trkpt><trkpt lat="37.046033570623166" lon="15.03221088109863"><ele>404.49999999999994</ele><time>2026-04-26T09:03:39Z</time></trkpt><trkpt lat="37.04605885671065" lon="15.0323027828556"><ele>404.0</ele><time>2026-04-26T09:03:41Z</time></trkpt><trkpt lat="37.04603622055233" lon="15.032135044038231"><ele>404.0</ele><time>2026-04-26T09:03:54Z</time></trkpt><trkpt lat="37.04602087814839" lon="15.031977394863906"><ele>404.0</ele><time>2026-04-26T09:03:55Z</time></trkpt><trkpt lat="37.046003859053116" lon="15.031851441423381"><ele>404.0</ele><time>2026-04-26T09:03:56Z</time></trkpt><trkpt lat="37.0460092581848" lon="15.031769201786114"><ele>404.0</ele><time>2026-04-26T09:03:57Z</time></trkpt><trkpt lat="37.04600959266111" lon="15.031685678718558"><ele>404.0</ele><time>2026-04-26T09:04:00Z</time></trkpt><trkpt lat="37.04603356898439" lon="15.031817786780103"><ele>404.0</ele><time>2026-04-26T09:06:43.999Z</time></trkpt><trkpt lat="37.04603675319107" lon="15.031938303310959"><ele>404.0</ele><time>2026-04-26T09:06:44.999Z</time></trkpt><trkpt lat="37.04604354420315" lon="15.032039711185114"><ele>404.0</ele><time>2026-04-26T09:06:45.999Z</time></trkpt><trkpt lat="37.04605009936957" lon="15.032174480416753"><ele>404.0</ele><time>2026-04-26T09:06:46.999Z</time></trkpt><trkpt lat="37.046062308375" lon="15.032348098344398"><ele>404.0</ele><time>2026-04-26T09:06:47.999Z</time></trkpt><trkpt lat="37.04608258376797" lon="15.032502418552783"><ele>403.2</ele><time>2026-04-26T09:06:48.999Z</time></trkpt><trkpt lat="37.04611819276522" lon="15.032602727159619"><ele>402.4</ele><time>2026-04-26T09:06:49.999Z</time></trkpt><trkpt lat="37.04615163006582" lon="15.032714701756673"><ele>401.6</ele><time>2026-04-26T09:06:50.999Z</time></trkpt><trkpt lat="37.046172540019626" lon="15.032831569336121"><ele>400.8</ele><time>2026-04-26T09:06:51.999Z</time></trkpt><trkpt lat="37.04619512620942" lon="15.032972627479523"><ele>400.0</ele><time>2026-04-26T09:06:53.999Z</time></trkpt><trkpt lat="37.04622456430335" lon="15.033111198592666"><ele>400.00000000000006</ele><time>2026-04-26T09:06:55.999Z</time></trkpt><trkpt lat="37.04624493980246" lon="15.033202026215736"><ele>400.0</ele><time>2026-04-26T09:06:56.999Z</time></trkpt><trkpt lat="37.04625974306104" lon="15.033284928003926"><ele>400.0</ele><time>2026-04-26T09:06:57.999Z</time></trkpt><trkpt lat="37.04628440711467" lon="15.033431581110904"><ele>400.0</ele><time>2026-04-26T09:06:59.999Z</time></trkpt><trkpt lat="37.04628537037188" lon="15.033515411147173"><ele>400.00000000000006</ele><time>2026-04-26T09:07:00.999Z</time></trkpt><trkpt lat="37.04626462256298" lon="15.033645034466415"><ele>400.0</ele><time>2026-04-26T09:07:01.999Z</time></trkpt><trkpt lat="37.04621955594372" lon="15.033798869962208"><ele>400.0</ele><time>2026-04-26T09:07:02.999Z</time></trkpt><trkpt lat="37.046183780884284" lon="15.033978702685259"><ele>400.0</ele><time>2026-04-26T09:07:03.999Z</time></trkpt><trkpt lat="37.046145150610066" lon="15.03415823511619"><ele>400.0</ele><time>2026-04-26T09:07:04.999Z</time></trkpt><trkpt lat="37.04611571923676" lon="15.034313324392151"><ele>400.0</ele><time>2026-04-26T09:07:05.999Z</time></trkpt><trkpt lat="37.0460885508401" lon="15.034431950218705"><ele>399.6</ele><time>2026-04-26T09:07:06.999Z</time></trkpt><trkpt lat="37.04607234198169" lon="15.034549355889375"><ele>399.2</ele><time>2026-04-26T09:07:07.999Z</time></trkpt><trkpt lat="37.0460423400287" lon="15.034660116221492"><ele>398.79999999999995</ele><time>2026-04-26T09:07:08.999Z</time></trkpt><trkpt lat="37.04599643679483" lon="15.034774072023326"><ele>398.4</ele><time>2026-04-26T09:07:09.999Z</time></trkpt><trkpt lat="37.04592181673283" lon="15.034889054909916"><ele>398.0</ele><time>2026-04-26T09:07:10.999Z</time></trkpt><trkpt lat="37.04583081048852" lon="15.03500368825783"><ele>396.0</ele><time>2026-04-26T09:07:11.999Z</time></trkpt><trkpt lat="37.045759221067364" lon="15.03511690284173"><ele>394.0</ele><time>2026-04-26T09:07:12.999Z</time></trkpt><trkpt lat="37.045691967646455" lon="15.035226709448338"><ele>392.0</ele><time>2026-04-26T09:07:13.999Z</time></trkpt><trkpt lat="37.04562209328967" lon="15.035332995561593"><ele>390.0</ele><time>2026-04-26T09:07:14.999Z</time></trkpt><trkpt lat="37.0455475409385" lon="15.035458906123202"><ele>390.0</ele><time>2026-04-26T09:07:15.999Z</time></trkpt><trkpt lat="37.045459511018116" lon="15.035592000160754"><ele>390.0</ele><time>2026-04-26T09:07:16.999Z</time></trkpt><trkpt lat="37.04535686453731" lon="15.035740817720853"><ele>390.0</ele><time>2026-04-26T09:07:17.999Z</time></trkpt><trkpt lat="37.04525979467056" lon="15.035909790382052"><ele>389.66666666666663</ele><time>2026-04-26T09:07:18.999Z</time></trkpt><trkpt lat="37.045136876338695" lon="15.036081182246308"><ele>389.3333333333333</ele><time>2026-04-26T09:07:19.999Z</time></trkpt><trkpt lat="37.04501858187253" lon="15.03622693910497"><ele>389.0</ele><time>2026-04-26T09:07:20.999Z</time></trkpt><trkpt lat="37.04491900515561" lon="15.036361943769053"><ele>387.79999999999995</ele><time>2026-04-26T09:07:21.999Z</time></trkpt><trkpt lat="37.04483075403231" lon="15.036488247152615"><ele>386.59999999999997</ele><time>2026-04-26T09:07:22.999Z</time></trkpt><trkpt lat="37.044759306892246" lon="15.03659549822897"><ele>385.4</ele><time>2026-04-26T09:07:23.999Z</time></trkpt><trkpt lat="37.04470383935851" lon="15.036699334389109"><ele>384.2</ele><time>2026-04-26T09:07:24.999Z</time></trkpt><trkpt lat="37.044674691186195" lon="15.03679895948224"><ele>383.0</ele><time>2026-04-26T09:07:25.999Z</time></trkpt><trkpt lat="37.044661051843946" lon="15.036885466036917"><ele>383.0</ele><time>2026-04-26T09:07:26.999Z</time></trkpt><trkpt lat="37.04465887660375" lon="15.036987302150058"><ele>383.0</ele><time>2026-04-26T09:07:27.999Z</time></trkpt><trkpt lat="37.044663745780824" lon="15.037120205562793"><ele>383.0</ele><time>2026-04-26T09:07:28.999Z</time></trkpt><trkpt lat="37.044671495895855" lon="15.037239913050612"><ele>383.0</ele><time>2026-04-26T09:07:29.999Z</time></trkpt><trkpt lat="37.04466236935371" lon="15.03733795629378"><ele>383.0</ele><time>2026-04-26T09:07:30.999Z</time></trkpt><trkpt lat="37.044627464233656" lon="15.037434965558043"><ele>383.0</ele><time>2026-04-26T09:07:31.999Z</time></trkpt><trkpt lat="37.04455770552909" lon="15.03757411066921"><ele>382.33333333333337</ele><time>2026-04-26T09:07:32.999Z</time></trkpt><trkpt lat="37.04447879366134" lon="15.037754785930474"><ele>381.6666666666667</ele><time>2026-04-26T09:07:33.999Z</time></trkpt><trkpt lat="37.04440143423766" lon="15.037953758380233"><ele>381.0</ele><time>2026-04-26T09:07:34.999Z</time></trkpt><trkpt lat="37.04432147444881" lon="15.038153712784844"><ele>380.3333333333333</ele><time>2026-04-26T09:07:35.999Z</time></trkpt><trkpt lat="37.04424776401681" lon="15.038324953898327"><ele>379.66666666666663</ele><time>2026-04-26T09:07:36.999Z</time></trkpt><trkpt lat="37.04418233900463" lon="15.038475685905246"><ele>379.0</ele><time>2026-04-26T09:07:37.999Z</time></trkpt><trkpt lat="37.04410690607114" lon="15.038656004522304"><ele>378.66666666666663</ele><time>2026-04-26T09:07:38.999Z</time></trkpt><trkpt lat="37.04402181687491" lon="15.038835449226827"><ele>378.3333333333333</ele><time>2026-04-26T09:07:39.999Z</time></trkpt><trkpt lat="37.04393761612707" lon="15.039056051377157"><ele>378.0</ele><time>2026-04-26T09:07:40.999Z</time></trkpt><trkpt lat="37.043831030275605" lon="15.03929997067581"><ele>377.6666666666667</ele><time>2026-04-26T09:07:41.999Z</time></trkpt><trkpt lat="37.04372404738177" lon="15.03955840128229"><ele>377.33333333333337</ele><time>2026-04-26T09:07:42.999Z</time></trkpt><trkpt lat="37.04362595883898" lon="15.039795891547714"><ele>377.0</ele><time>2026-04-26T09:07:43.999Z</time></trkpt><trkpt lat="37.04353879314842" lon="15.04000443997375"><ele>376.33333333333337</ele><time>2026-04-26T09:07:44.999Z</time></trkpt><trkpt lat="37.04344706709913" lon="15.040216080993243"><ele>375.6666666666667</ele><time>2026-04-26T09:07:45.999Z</time></trkpt><trkpt lat="37.04333968008172" lon="15.040436923184032"><ele>375.0</ele><time>2026-04-26T09:07:46.999Z</time></trkpt><trkpt lat="37.04322315455775" lon="15.040668461167996"><ele>374.3333333333333</ele><time>2026-04-26T09:07:47.999Z</time></trkpt><trkpt lat="37.043133015059176" lon="15.040862929242024"><ele>373.66666666666663</ele><time>2026-04-26T09:07:48.999Z</time></trkpt><trkpt lat="37.04305181417962" lon="15.04104252635027"><ele>373.0</ele><time>2026-04-26T09:07:49.999Z</time></trkpt><trkpt lat="37.042971999557565" lon="15.041200226284131"><ele>373.0</ele><time>2026-04-26T09:07:50.999Z</time></trkpt><trkpt lat="37.04289157121932" lon="15.041360459685954"><ele>373.0</ele><time>2026-04-26T09:07:51.999Z</time></trkpt><trkpt lat="37.042827558965215" lon="15.041517985024479"><ele>373.0</ele><time>2026-04-26T09:07:52.999Z</time></trkpt><trkpt lat="37.04275681101564" lon="15.041652249387306"><ele>373.0</ele><time>2026-04-26T09:07:53.999Z</time></trkpt><trkpt lat="37.04270743849175" lon="15.041782481909202"><ele>373.0</ele><time>2026-04-26T09:07:54.999Z</time></trkpt><trkpt lat="37.042652950578585" lon="15.041894753573628"><ele>373.0</ele><time>2026-04-26T09:07:55.999Z</time></trkpt><trkpt lat="37.04262291388752" lon="15.042013889342595"><ele>373.0</ele><time>2026-04-26T09:07:56.999Z</time></trkpt><trkpt lat="37.04260148577299" lon="15.042121088729637"><ele>373.0</ele><time>2026-04-26T09:07:57.999Z</time></trkpt><trkpt lat="37.042570399948715" lon="15.042218451257321"><ele>373.0</ele><time>2026-04-26T09:07:58.999Z</time></trkpt><trkpt lat="37.04253969035469" lon="15.042303337205134"><ele>373.0</ele><time>2026-04-26T09:07:59.999Z</time></trkpt><trkpt lat="37.042510722588766" lon="15.042392001731127"><ele>373.0</ele><time>2026-04-26T09:08:00.999Z</time></trkpt><trkpt lat="37.04247522217488" lon="15.042483333360817"><ele>373.0</ele><time>2026-04-26T09:08:01.999Z</time></trkpt><trkpt lat="37.04243770896767" lon="15.042620141864806"><ele>373.0</ele><time>2026-04-26T09:08:03.999Z</time></trkpt><trkpt lat="37.0424005159644" lon="15.04274716394182"><ele>373.0</ele><time>2026-04-26T09:08:27.999Z</time></trkpt><trkpt lat="37.04234675847196" lon="15.042896748383601"><ele>371.59999999999997</ele><time>2026-04-26T09:08:29.999Z</time></trkpt><trkpt lat="37.04230921674484" lon="15.042997179358787"><ele>370.2</ele><time>2026-04-26T09:08:30.999Z</time></trkpt><trkpt lat="37.042276327267835" lon="15.043109672145873"><ele>368.8</ele><time>2026-04-26T09:08:31.999Z</time></trkpt><trkpt lat="37.04224241370562" lon="15.043227378156663"><ele>367.4</ele><time>2026-04-26T09:08:32.999Z</time></trkpt><trkpt lat="37.04219303831985" lon="15.043356406578269"><ele>366.0</ele><time>2026-04-26T09:08:33.999Z</time></trkpt><trkpt lat="37.04215748681504" lon="15.043470851279537"><ele>364.8333333333333</ele><time>2026-04-26T09:08:34.999Z</time></trkpt><trkpt lat="37.042126022600904" lon="15.043564328643763"><ele>363.6666666666667</ele><time>2026-04-26T09:08:35.999Z</time></trkpt><trkpt lat="37.042097669740144" lon="15.043646101549495"><ele>362.5</ele><time>2026-04-26T09:08:36.999Z</time></trkpt><trkpt lat="37.04207433342894" lon="15.043722904514695"><ele>361.33333333333337</ele><time>2026-04-26T09:08:37.999Z</time></trkpt><trkpt lat="37.0420495115025" lon="15.043802897993949"><ele>360.1666666666667</ele><time>2026-04-26T09:08:38.999Z</time></trkpt><trkpt lat="37.04202248773219" lon="15.043875784493265"><ele>359.0</ele><time>2026-04-26T09:08:39.999Z</time></trkpt><trkpt lat="37.04197608121891" lon="15.0440172555222"><ele>359.0</ele><time>2026-04-26T09:08:41.999Z</time></trkpt><trkpt lat="37.04194582590566" lon="15.044101075914876"><ele>359.0</ele><time>2026-04-26T09:08:42.999Z</time></trkpt><trkpt lat="37.04191289081278" lon="15.04417202668928"><ele>359.0</ele><time>2026-04-26T09:08:43.999Z</time></trkpt><trkpt lat="37.04185674944588" lon="15.044243197392618"><ele>359.0</ele><time>2026-04-26T09:08:44.999Z</time></trkpt><trkpt lat="37.04179223603283" lon="15.04429970305851"><ele>359.0</ele><time>2026-04-26T09:08:45.999Z</time></trkpt><trkpt lat="37.04169873091391" lon="15.044365892816495"><ele>359.0</ele><time>2026-04-26T09:08:46.999Z</time></trkpt><trkpt lat="37.04162369648795" lon="15.044422424642649"><ele>354.4</ele><time>2026-04-26T09:08:47.999Z</time></trkpt><trkpt lat="37.04156506556095" lon="15.044457509690645"><ele>349.79999999999995</ele><time>2026-04-26T09:08:48.999Z</time></trkpt><trkpt lat="37.04144994775182" lon="15.044463079401213"><ele>345.20000000000005</ele><time>2026-04-26T09:08:50.999Z</time></trkpt><trkpt lat="37.04136309674507" lon="15.04438661347036"><ele>340.6</ele><time>2026-04-26T09:08:52.999Z</time></trkpt><trkpt lat="37.04134786633226" lon="15.044284125547037"><ele>336.0</ele><time>2026-04-26T09:08:54.999Z</time></trkpt><trkpt lat="37.041351069004094" lon="15.044132516735685"><ele>336.6666666666667</ele><time>2026-04-26T09:08:56.999Z</time></trkpt><trkpt lat="37.041363924634034" lon="15.044051256260381"><ele>337.3333333333333</ele><time>2026-04-26T09:08:57.999Z</time></trkpt><trkpt lat="37.041389120778035" lon="15.043956009289667"><ele>338.0</ele><time>2026-04-26T09:08:58.999Z</time></trkpt><trkpt lat="37.04140482583855" lon="15.043872572164334"><ele>338.66666666666663</ele><time>2026-04-26T09:08:59.999Z</time></trkpt><trkpt lat="37.04138449190892" lon="15.043739412694842"><ele>339.3333333333333</ele><time>2026-04-26T09:09:01.999Z</time></trkpt><trkpt lat="37.041316909366785" lon="15.043695552327236"><ele>340.0</ele><time>2026-04-26T09:09:04Z</time></trkpt><trkpt lat="37.04123238490774" lon="15.043641717044714"><ele>340.0</ele><time>2026-04-26T09:09:07Z</time></trkpt><trkpt lat="37.04112774566914" lon="15.04368731779406"><ele>340.0</ele><time>2026-04-26T09:09:10Z</time></trkpt><trkpt lat="37.041118894041524" lon="15.043780638542085"><ele>340.0</ele><time>2026-04-26T09:09:11Z</time></trkpt><trkpt lat="37.041117091052264" lon="15.043901394866282"><ele>340.0</ele><time>2026-04-26T09:09:13Z</time></trkpt><trkpt lat="37.04108454620537" lon="15.043981620948491"><ele>340.0</ele><time>2026-04-26T09:09:16Z</time></trkpt><trkpt lat="37.04110503472145" lon="15.043890980206235"><ele>340.0</ele><time>2026-04-26T09:09:21Z</time></trkpt><trkpt lat="37.04101698967274" lon="15.043718765393983"><ele>340.0</ele><time>2026-04-26T09:09:24Z</time></trkpt><trkpt lat="37.04096349536918" lon="15.043670715660578"><ele>340.0</ele><time>2026-04-26T09:09:26Z</time></trkpt><trkpt lat="37.04078607447313" lon="15.043704041367985"><ele>340.0</ele><time>2026-04-26T09:09:28Z</time></trkpt><trkpt lat="37.04073533501447" lon="15.043769817273164"><ele>340.0</ele><time>2026-04-26T09:09:29Z</time></trkpt><trkpt lat="37.04068585655984" lon="15.043864221919518"><ele>340.0</ele><time>2026-04-26T09:09:30Z</time></trkpt><trkpt lat="37.04061293554671" lon="15.043883046904178"><ele>349.5</ele><time>2026-04-26T09:09:33Z</time></trkpt><trkpt lat="37.040626340037946" lon="15.043757289534618"><ele>359.0</ele><time>2026-04-26T09:09:35Z</time></trkpt><trkpt lat="37.04059171962236" lon="15.043641238468284"><ele>368.5</ele><time>2026-04-26T09:09:36Z</time></trkpt><trkpt lat="37.04047303030104" lon="15.04358480401536"><ele>378.0</ele><time>2026-04-26T09:09:38Z</time></trkpt><trkpt lat="37.04053021221155" lon="15.043800845469214"><ele>378.0</ele><time>2026-04-26T09:09:40Z</time></trkpt><trkpt lat="37.04056729978377" lon="15.043938814448348"><ele>378.0</ele><time>2026-04-26T09:09:41Z</time></trkpt><trkpt lat="37.040614342818145" lon="15.044103838249615"><ele>378.0</ele><time>2026-04-26T09:09:42Z</time></trkpt><trkpt lat="37.040620138333885" lon="15.04419423923973"><ele>378.0</ele><time>2026-04-26T09:09:43Z</time></trkpt><trkpt lat="37.040614490772356" lon="15.044285002295846"><ele>378.0</ele><time>2026-04-26T09:09:44Z</time></trkpt><trkpt lat="37.04057855218361" lon="15.044376296827625"><ele>378.2</ele><time>2026-04-26T09:09:45Z</time></trkpt><trkpt lat="37.040566111281876" lon="15.044532803220706"><ele>378.4</ele><time>2026-04-26T09:09:46Z</time></trkpt><trkpt lat="37.04057323245708" lon="15.04465765127196"><ele>378.59999999999997</ele><time>2026-04-26T09:09:47Z</time></trkpt><trkpt lat="37.040623983089056" lon="15.044763075613028"><ele>378.79999999999995</ele><time>2026-04-26T09:09:48Z</time></trkpt><trkpt lat="37.04066373153209" lon="15.044884900082701"><ele>379.0</ele><time>2026-04-26T09:09:49Z</time></trkpt><trkpt lat="37.040701824573546" lon="15.045003901334331"><ele>378.0</ele><time>2026-04-26T09:09:50Z</time></trkpt><trkpt lat="37.04071487319318" lon="15.04509224504009"><ele>377.0</ele><time>2026-04-26T09:09:51Z</time></trkpt><trkpt lat="37.040687742980126" lon="15.0451638374278"><ele>376.0</ele><time>2026-04-26T09:09:52Z</time></trkpt><trkpt lat="37.0406643505045" lon="15.045250403565301"><ele>375.0</ele><time>2026-04-26T09:09:53Z</time></trkpt><trkpt lat="37.040587992343184" lon="15.045276174141748"><ele>374.0</ele><time>2026-04-26T09:09:56Z</time></trkpt><trkpt lat="37.04052048955839" lon="15.045110155793505"><ele>373.0</ele><time>2026-04-26T09:09:58.999Z</time></trkpt><trkpt lat="37.04047685391129" lon="15.045015802142963"><ele>374.2</ele><time>2026-04-26T09:09:59.999Z</time></trkpt><trkpt lat="37.04044963443149" lon="15.044933898928406"><ele>375.4</ele><time>2026-04-26T09:10:00.999Z</time></trkpt><trkpt lat="37.04040932133286" lon="15.044746140293109"><ele>376.59999999999997</ele><time>2026-04-26T09:10:01.999Z</time></trkpt><trkpt lat="37.04031446388572" lon="15.044727932558214"><ele>377.79999999999995</ele><time>2026-04-26T09:10:03.999Z</time></trkpt><trkpt lat="37.04027999235768" lon="15.044850014283188"><ele>379.0</ele><time>2026-04-26T09:10:05.999Z</time></trkpt><trkpt lat="37.04029491698886" lon="15.044931167426997"><ele>377.79999999999995</ele><time>2026-04-26T09:10:06.999Z</time></trkpt><trkpt lat="37.040263363265524" lon="15.04502373308587"><ele>376.59999999999997</ele><time>2026-04-26T09:10:07.999Z</time></trkpt><trkpt lat="37.040262855051765" lon="15.04517262576697"><ele>375.4</ele><time>2026-04-26T09:10:08.999Z</time></trkpt><trkpt lat="37.04025245224178" lon="15.0453148580509"><ele>374.2</ele><time>2026-04-26T09:10:09.999Z</time></trkpt><trkpt lat="37.040268274800205" lon="15.045439172514985"><ele>373.0</ele><time>2026-04-26T09:10:10.999Z</time></trkpt><trkpt lat="37.040278107206824" lon="15.045560285764514"><ele>373.0</ele><time>2026-04-26T09:10:11.999Z</time></trkpt><trkpt lat="37.040286034259985" lon="15.045672838273589"><ele>373.0</ele><time>2026-04-26T09:10:13.999Z</time></trkpt><trkpt lat="37.04033414105511" lon="15.045774624121806"><ele>373.0</ele><time>2026-04-26T09:10:27.999Z</time></trkpt><trkpt lat="37.04035084856829" lon="15.045871900780819"><ele>373.0</ele><time>2026-04-26T09:10:28.999Z</time></trkpt><trkpt lat="37.04036825838715" lon="15.045983501772966"><ele>373.0</ele><time>2026-04-26T09:10:29.999Z</time></trkpt><trkpt lat="37.040377457405015" lon="15.04609932799421"><ele>373.0</ele><time>2026-04-26T09:10:30.999Z</time></trkpt><trkpt lat="37.04037918057458" lon="15.046224734785522"><ele>373.0</ele><time>2026-04-26T09:10:31.999Z</time></trkpt><trkpt lat="37.040383748051525" lon="15.04634115110028"><ele>373.0</ele><time>2026-04-26T09:10:32.999Z</time></trkpt><trkpt lat="37.04039243735442" lon="15.046449783188436"><ele>373.0</ele><time>2026-04-26T09:10:33.999Z</time></trkpt><trkpt lat="37.04039558367938" lon="15.046564425540717"><ele>373.0</ele><time>2026-04-26T09:10:34.999Z</time></trkpt><trkpt lat="37.04038224832122" lon="15.046696164546477"><ele>373.0</ele><time>2026-04-26T09:10:35.999Z</time></trkpt><trkpt lat="37.04035662583864" lon="15.046819110720707"><ele>373.0</ele><time>2026-04-26T09:10:36.999Z</time></trkpt><trkpt lat="37.04031355074137" lon="15.046933685069883"><ele>373.0</ele><time>2026-04-26T09:10:37.999Z</time></trkpt><trkpt lat="37.040268339210854" lon="15.04704307039497"><ele>373.0</ele><time>2026-04-26T09:10:38.999Z</time></trkpt><trkpt lat="37.04023052171719" lon="15.047150304603433"><ele>373.0</ele><time>2026-04-26T09:10:39.999Z</time></trkpt><trkpt lat="37.04019066646576" lon="15.047259281987982"><ele>373.0</ele><time>2026-04-26T09:10:40.999Z</time></trkpt><trkpt lat="37.04015415062385" lon="15.04736868515746"><ele>372.2</ele><time>2026-04-26T09:10:41.999Z</time></trkpt><trkpt lat="37.04011925597542" lon="15.047473760252764"><ele>371.4</ele><time>2026-04-26T09:10:42.999Z</time></trkpt><trkpt lat="37.040073991262695" lon="15.047575794357806"><ele>370.59999999999997</ele><time>2026-04-26T09:10:43.999Z</time></trkpt><trkpt lat="37.040014819834475" lon="15.047718084457093"><ele>369.79999999999995</ele><time>2026-04-26T09:10:44.999Z</time></trkpt><trkpt lat="37.03996584221653" lon="15.0478695557324"><ele>369.0</ele><time>2026-04-26T09:10:45.999Z</time></trkpt><trkpt lat="37.03993307514313" lon="15.047993851210446"><ele>372.0</ele><time>2026-04-26T09:10:46.999Z</time></trkpt><trkpt lat="37.03991057705029" lon="15.048125981699348"><ele>375.0</ele><time>2026-04-26T09:10:47.999Z</time></trkpt><trkpt lat="37.03989642170541" lon="15.048277463165297"><ele>378.0</ele><time>2026-04-26T09:10:48.999Z</time></trkpt><trkpt lat="37.03987596336788" lon="15.048408556394648"><ele>381.0</ele><time>2026-04-26T09:10:49.999Z</time></trkpt><trkpt lat="37.03984306241893" lon="15.048549404127037"><ele>381.0</ele><time>2026-04-26T09:10:50.999Z</time></trkpt><trkpt lat="37.039814145836246" lon="15.04868600303858"><ele>381.0</ele><time>2026-04-26T09:10:51.999Z</time></trkpt><trkpt lat="37.03979655399035" lon="15.048793837487807"><ele>381.0</ele><time>2026-04-26T09:10:52.999Z</time></trkpt><trkpt lat="37.039789680012454" lon="15.04891636218025"><ele>381.0</ele><time>2026-04-26T09:10:53.999Z</time></trkpt><trkpt lat="37.039765737613656" lon="15.049042107995918"><ele>381.0</ele><time>2026-04-26T09:10:54.999Z</time></trkpt><trkpt lat="37.03978836796226" lon="15.049180210128517"><ele>380.0</ele><time>2026-04-26T09:10:55.999Z</time></trkpt><trkpt lat="37.0397794407688" lon="15.049318849147891"><ele>379.0</ele><time>2026-04-26T09:10:56.999Z</time></trkpt><trkpt lat="37.03977762919957" lon="15.049451858477337"><ele>378.0</ele><time>2026-04-26T09:10:57.999Z</time></trkpt><trkpt lat="37.039762543234616" lon="15.0495731634604"><ele>377.0</ele><time>2026-04-26T09:10:58.999Z</time></trkpt><trkpt lat="37.03974613367086" lon="15.049689331575147"><ele>376.0</ele><time>2026-04-26T09:10:59.999Z</time></trkpt><trkpt lat="37.039718524708334" lon="15.049804083763588"><ele>376.0</ele><time>2026-04-26T09:11:00.999Z</time></trkpt><trkpt lat="37.039671268413905" lon="15.049931167057226"><ele>376.0</ele><time>2026-04-26T09:11:01.999Z</time></trkpt><trkpt lat="37.03961051834022" lon="15.050062024781116"><ele>376.0</ele><time>2026-04-26T09:11:02.999Z</time></trkpt><trkpt lat="37.03955274642425" lon="15.050176050629693"><ele>376.0</ele><time>2026-04-26T09:11:03.999Z</time></trkpt><trkpt lat="37.039506169760976" lon="15.050264024239656"><ele>376.0</ele><time>2026-04-26T09:11:04.999Z</time></trkpt><trkpt lat="37.03947427456877" lon="15.05033408830749"><ele>375.3333333333333</ele><time>2026-04-26T09:11:05.999Z</time></trkpt><trkpt lat="37.03944024120744" lon="15.05040350859726"><ele>374.66666666666663</ele><time>2026-04-26T09:11:08.999Z</time></trkpt><trkpt lat="37.03941517771698" lon="15.050529104122287"><ele>374.0</ele><time>2026-04-26T09:11:18Z</time></trkpt><trkpt lat="37.03938872317074" lon="15.050618825671108"><ele>373.3333333333333</ele><time>2026-04-26T09:11:19Z</time></trkpt><trkpt lat="37.03937030847135" lon="15.05071303513741"><ele>372.6666666666667</ele><time>2026-04-26T09:11:20Z</time></trkpt><trkpt lat="37.03936624943917" lon="15.05081185131231"><ele>372.0</ele><time>2026-04-26T09:11:21Z</time></trkpt><trkpt lat="37.03936491784095" lon="15.050923133384213"><ele>371.6</ele><time>2026-04-26T09:11:22Z</time></trkpt><trkpt lat="37.039352251981704" lon="15.051041630921462"><ele>371.20000000000005</ele><time>2026-04-26T09:11:23Z</time></trkpt><trkpt lat="37.03931437713115" lon="15.051176005019572"><ele>370.8</ele><time>2026-04-26T09:11:24Z</time></trkpt><trkpt lat="37.03927987300868" lon="15.051310326571054"><ele>370.4</ele><time>2026-04-26T09:11:25Z</time></trkpt><trkpt lat="37.039247345797136" lon="15.051405754012492"><ele>370.0</ele><time>2026-04-26T09:11:26Z</time></trkpt><trkpt lat="37.03921955879548" lon="15.05149595483642"><ele>370.0</ele><time>2026-04-26T09:11:27Z</time></trkpt><trkpt lat="37.03913996857437" lon="15.05160496054935"><ele>370.0</ele><time>2026-04-26T09:11:29Z</time></trkpt><trkpt lat="37.039069768839546" lon="15.051646238760505"><ele>370.0</ele><time>2026-04-26T09:11:30Z</time></trkpt><trkpt lat="37.03897471682021" lon="15.051710811162502"><ele>370.0</ele><time>2026-04-26T09:11:31Z</time></trkpt><trkpt lat="37.03887432614116" lon="15.051791846863654"><ele>370.0</ele><time>2026-04-26T09:11:32Z</time></trkpt><trkpt lat="37.03877292255719" lon="15.051909351260017"><ele>370.8</ele><time>2026-04-26T09:11:33Z</time></trkpt><trkpt lat="37.03870048036476" lon="15.052010677047567"><ele>371.6</ele><time>2026-04-26T09:11:34Z</time></trkpt><trkpt lat="37.03864748814067" lon="15.05210152334463"><ele>372.4</ele><time>2026-04-26T09:11:35Z</time></trkpt><trkpt lat="37.03857883167948" lon="15.052140093741507"><ele>373.2</ele><time>2026-04-26T09:11:36Z</time></trkpt><trkpt lat="37.03848926950584" lon="15.052218403902698"><ele>374.0</ele><time>2026-04-26T09:11:38Z</time></trkpt><trkpt lat="37.03840924780316" lon="15.052289435947932"><ele>373.25</ele><time>2026-04-26T09:11:39Z</time></trkpt><trkpt lat="37.03838069632646" lon="15.052493997296317"><ele>372.5</ele><time>2026-04-26T09:11:40Z</time></trkpt><trkpt lat="37.03833060814776" lon="15.052662873188662"><ele>371.75</ele><time>2026-04-26T09:11:41Z</time></trkpt><trkpt lat="37.03829338407469" lon="15.052798106597058"><ele>371.0</ele><time>2026-04-26T09:11:42Z</time></trkpt><trkpt lat="37.038253379054694" lon="15.052921271762946"><ele>373.25</ele><time>2026-04-26T09:11:43Z</time></trkpt><trkpt lat="37.038201829202144" lon="15.053040469523939"><ele>375.5</ele><time>2026-04-26T09:11:44Z</time></trkpt><trkpt lat="37.03814002198519" lon="15.053161012448715"><ele>377.75</ele><time>2026-04-26T09:11:45Z</time></trkpt><trkpt lat="37.03806156706659" lon="15.053313142452392"><ele>380.0</ele><time>2026-04-26T09:11:46Z</time></trkpt><trkpt lat="37.03794986934359" lon="15.053510768493457"><ele>380.0</ele><time>2026-04-26T09:11:47Z</time></trkpt><trkpt lat="37.037849093918354" lon="15.053682547741579"><ele>380.0</ele><time>2026-04-26T09:11:48Z</time></trkpt><trkpt lat="37.037768387248924" lon="15.053826012797664"><ele>380.0</ele><time>2026-04-26T09:11:49Z</time></trkpt><trkpt lat="37.03769659109363" lon="15.053954637744527"><ele>380.0</ele><time>2026-04-26T09:11:50Z</time></trkpt><trkpt lat="37.03763018413337" lon="15.054077248247449"><ele>377.0</ele><time>2026-04-26T09:11:51Z</time></trkpt><trkpt lat="37.03756569253084" lon="15.054186747790878"><ele>374.0</ele><time>2026-04-26T09:11:52Z</time></trkpt><trkpt lat="37.03750583062142" lon="15.054292871664469"><ele>371.0</ele><time>2026-04-26T09:11:53Z</time></trkpt><trkpt lat="37.03744062590404" lon="15.054415791073382"><ele>368.0</ele><time>2026-04-26T09:11:54Z</time></trkpt><trkpt lat="37.03737498248746" lon="15.054546228005982"><ele>372.25</ele><time>2026-04-26T09:11:55Z</time></trkpt><trkpt lat="37.037299141000105" lon="15.054677112084391"><ele>376.5</ele><time>2026-04-26T09:11:56Z</time></trkpt><trkpt lat="37.03723122572807" lon="15.054809660140583"><ele>380.75</ele><time>2026-04-26T09:11:57Z</time></trkpt><trkpt lat="37.03716645801904" lon="15.054935066388897"><ele>385.0</ele><time>2026-04-26T09:11:58Z</time></trkpt><trkpt lat="37.03711393423628" lon="15.055072584442877"><ele>385.0</ele><time>2026-04-26T09:11:59Z</time></trkpt><trkpt lat="37.037047561328706" lon="15.05519384833666"><ele>385.0</ele><time>2026-04-26T09:12:00Z</time></trkpt><trkpt lat="37.03698776390165" lon="15.055314358421487"><ele>385.0</ele><time>2026-04-26T09:12:01Z</time></trkpt><trkpt lat="37.03692195100506" lon="15.05543100151371"><ele>385.0</ele><time>2026-04-26T09:12:02Z</time></trkpt><trkpt lat="37.03685741167181" lon="15.055551944136095"><ele>385.0</ele><time>2026-04-26T09:12:03Z</time></trkpt><trkpt lat="37.03679435622757" lon="15.055673866373096"><ele>385.0</ele><time>2026-04-26T09:12:04Z</time></trkpt><trkpt lat="37.03673783024334" lon="15.055805933346454"><ele>385.0</ele><time>2026-04-26T09:12:05Z</time></trkpt><trkpt lat="37.03668798476885" lon="15.055946038458092"><ele>385.0</ele><time>2026-04-26T09:12:06Z</time></trkpt><trkpt lat="37.03664503424671" lon="15.056095166479407"><ele>384.25</ele><time>2026-04-26T09:12:07Z</time></trkpt><trkpt lat="37.03659593315104" lon="15.056239901798076"><ele>383.5</ele><time>2026-04-26T09:12:08Z</time></trkpt><trkpt lat="37.03655304050094" lon="15.056390129750058"><ele>382.75</ele><time>2026-04-26T09:12:09Z</time></trkpt><trkpt lat="37.036504792705315" lon="15.056526157199569"><ele>382.0</ele><time>2026-04-26T09:12:10Z</time></trkpt><trkpt lat="37.036449050088734" lon="15.056658548160115"><ele>382.0</ele><time>2026-04-26T09:12:11Z</time></trkpt><trkpt lat="37.03638965781998" lon="15.056782318571637"><ele>382.0</ele><time>2026-04-26T09:12:12Z</time></trkpt><trkpt lat="37.03632425405925" lon="15.056890060763406"><ele>382.0</ele><time>2026-04-26T09:12:13Z</time></trkpt><trkpt lat="37.0362740628597" lon="15.056954272028248"><ele>382.0</ele><time>2026-04-26T09:12:14Z</time></trkpt><trkpt lat="37.03620190508089" lon="15.056988116091171"><ele>382.0</ele><time>2026-04-26T09:12:16Z</time></trkpt><trkpt lat="37.03610125764309" lon="15.056871629939199"><ele>382.0</ele><time>2026-04-26T09:12:18Z</time></trkpt><trkpt lat="37.03601788499995" lon="15.056906090558206"><ele>382.0</ele><time>2026-04-26T09:12:20Z</time></trkpt><trkpt lat="37.03597403915091" lon="15.057001861128663"><ele>382.0</ele><time>2026-04-26T09:12:21Z</time></trkpt><trkpt lat="37.03594321919985" lon="15.057135173912236"><ele>382.0</ele><time>2026-04-26T09:12:22Z</time></trkpt><trkpt lat="37.03591408141402" lon="15.057263814425388"><ele>382.0</ele><time>2026-04-26T09:12:23Z</time></trkpt><trkpt lat="37.035891127819696" lon="15.057351686509922"><ele>384.0</ele><time>2026-04-26T09:12:25Z</time></trkpt><trkpt lat="37.03575459074879" lon="15.057379051195863"><ele>386.0</ele><time>2026-04-26T09:12:28.999Z</time></trkpt><trkpt lat="37.035670603817785" lon="15.057425046515275"><ele>388.0</ele><time>2026-04-26T09:12:29.999Z</time></trkpt><trkpt lat="37.03562594937716" lon="15.057537775623747"><ele>390.0</ele><time>2026-04-26T09:12:30.999Z</time></trkpt><trkpt lat="37.035539507418065" lon="15.05764740875453"><ele>390.0</ele><time>2026-04-26T09:12:31.999Z</time></trkpt><trkpt lat="37.035461354395636" lon="15.057808375364502"><ele>390.0</ele><time>2026-04-26T09:12:32.999Z</time></trkpt><trkpt lat="37.035380187832736" lon="15.057942397252708"><ele>390.0</ele><time>2026-04-26T09:12:33.999Z</time></trkpt><trkpt lat="37.03529293769341" lon="15.058068871787299"><ele>390.0</ele><time>2026-04-26T09:12:34.999Z</time></trkpt><trkpt lat="37.03521198533762" lon="15.058193717566157"><ele>390.3333333333333</ele><time>2026-04-26T09:12:35.999Z</time></trkpt><trkpt lat="37.035150094303084" lon="15.058300536627161"><ele>390.66666666666663</ele><time>2026-04-26T09:12:36.999Z</time></trkpt><trkpt lat="37.03509356825329" lon="15.05839116948044"><ele>391.0</ele><time>2026-04-26T09:12:37.999Z</time></trkpt><trkpt lat="37.03504912282009" lon="15.058472907485204"><ele>391.3333333333333</ele><time>2026-04-26T09:12:38.999Z</time></trkpt><trkpt lat="37.03500519678397" lon="15.058544513226185"><ele>391.66666666666663</ele><time>2026-04-26T09:12:39.999Z</time></trkpt><trkpt lat="37.034959753092906" lon="15.058618593894561"><ele>392.0</ele><time>2026-04-26T09:12:40.999Z</time></trkpt><trkpt lat="37.03491010761323" lon="15.058693552377191"><ele>392.0</ele><time>2026-04-26T09:12:41.999Z</time></trkpt><trkpt lat="37.034860844054926" lon="15.058772962274858"><ele>392.0</ele><time>2026-04-26T09:12:42.999Z</time></trkpt><trkpt lat="37.034807607192704" lon="15.05885691473247"><ele>392.0</ele><time>2026-04-26T09:12:43.999Z</time></trkpt><trkpt lat="37.03475160924291" lon="15.05894939399726"><ele>392.0</ele><time>2026-04-26T09:12:44.999Z</time></trkpt><trkpt lat="37.034691357789875" lon="15.059046107366427"><ele>392.0</ele><time>2026-04-26T09:12:45.999Z</time></trkpt><trkpt lat="37.03462894635886" lon="15.059146217737986"><ele>390.8</ele><time>2026-04-26T09:12:46.999Z</time></trkpt><trkpt lat="37.03456546358464" lon="15.059247805726528"><ele>389.6</ele><time>2026-04-26T09:12:47.999Z</time></trkpt><trkpt lat="37.034503204233715" lon="15.059357533107105"><ele>388.40000000000003</ele><time>2026-04-26T09:12:48.999Z</time></trkpt><trkpt lat="37.03443874456285" lon="15.059468220210261"><ele>387.20000000000005</ele><time>2026-04-26T09:12:49.999Z</time></trkpt><trkpt lat="37.03436867665738" lon="15.05957344988398"><ele>386.0</ele><time>2026-04-26T09:12:50.999Z</time></trkpt><trkpt lat="37.03430145156092" lon="15.059681447300793"><ele>386.0</ele><time>2026-04-26T09:12:51.999Z</time></trkpt><trkpt lat="37.03423314656282" lon="15.05979074844659"><ele>386.0</ele><time>2026-04-26T09:12:52.999Z</time></trkpt><trkpt lat="37.034164558420535" lon="15.059899872622287"><ele>386.0</ele><time>2026-04-26T09:12:53.999Z</time></trkpt><trkpt lat="37.03409450506693" lon="15.060009677559151"><ele>386.0</ele><time>2026-04-26T09:12:54.999Z</time></trkpt><trkpt lat="37.03402785413838" lon="15.060125419284597"><ele>386.0</ele><time>2026-04-26T09:12:55.999Z</time></trkpt><trkpt lat="37.033961213887686" lon="15.060237786721489"><ele>386.6</ele><time>2026-04-26T09:12:56.999Z</time></trkpt><trkpt lat="37.03389566928147" lon="15.060341394498037"><ele>387.20000000000005</ele><time>2026-04-26T09:12:57.999Z</time></trkpt><trkpt lat="37.03384082855488" lon="15.060428970207594"><ele>387.79999999999995</ele><time>2026-04-26T09:12:58.999Z</time></trkpt><trkpt lat="37.0337886620497" lon="15.060520013241845"><ele>388.4</ele><time>2026-04-26T09:12:59.999Z</time></trkpt><trkpt lat="37.03372562314697" lon="15.060630215574182"><ele>389.0</ele><time>2026-04-26T09:13:00.999Z</time></trkpt><trkpt lat="37.03365829593364" lon="15.06074648797533"><ele>387.79999999999995</ele><time>2026-04-26T09:13:01.999Z</time></trkpt><trkpt lat="37.03358942331318" lon="15.060857586454542"><ele>386.59999999999997</ele><time>2026-04-26T09:13:02.999Z</time></trkpt><trkpt lat="37.033528068502015" lon="15.060949909872331"><ele>385.4</ele><time>2026-04-26T09:13:03.999Z</time></trkpt><trkpt lat="37.03346438306029" lon="15.061048413116797"><ele>384.2</ele><time>2026-04-26T09:13:04.999Z</time></trkpt><trkpt lat="37.03340243885661" lon="15.061140475136291"><ele>383.0</ele><time>2026-04-26T09:13:05.999Z</time></trkpt><trkpt lat="37.033351000674855" lon="15.06125216376797"><ele>383.59999999999997</ele><time>2026-04-26T09:13:06.999Z</time></trkpt><trkpt lat="37.03328883100974" lon="15.061352323091596"><ele>384.2</ele><time>2026-04-26T09:13:07.999Z</time></trkpt><trkpt lat="37.03321967179461" lon="15.061446256835502"><ele>384.8</ele><time>2026-04-26T09:13:08.999Z</time></trkpt><trkpt lat="37.03316392457812" lon="15.061531391535265"><ele>385.4</ele><time>2026-04-26T09:13:09.999Z</time></trkpt><trkpt lat="37.03310549685601" lon="15.061620398774064"><ele>386.0</ele><time>2026-04-26T09:13:10.999Z</time></trkpt><trkpt lat="37.03304626875656" lon="15.061714198798514"><ele>386.0</ele><time>2026-04-26T09:13:11.999Z</time></trkpt><trkpt lat="37.03299146763045" lon="15.061808414234193"><ele>386.0</ele><time>2026-04-26T09:13:12.999Z</time></trkpt><trkpt lat="37.03292950807145" lon="15.061904090090838"><ele>386.0</ele><time>2026-04-26T09:13:13.999Z</time></trkpt><trkpt lat="37.03286610855594" lon="15.062003302902932"><ele>386.0</ele><time>2026-04-26T09:13:14.999Z</time></trkpt><trkpt lat="37.03282488690855" lon="15.062099285360116"><ele>386.0</ele><time>2026-04-26T09:13:16Z</time></trkpt><trkpt lat="37.032767591695794" lon="15.062191477440624"><ele>386.0</ele><time>2026-04-26T09:13:17Z</time></trkpt><trkpt lat="37.03271201529167" lon="15.062280756578263"><ele>386.0</ele><time>2026-04-26T09:13:18Z</time></trkpt><trkpt lat="37.03265560479496" lon="15.062371099135728"><ele>386.0</ele><time>2026-04-26T09:13:19Z</time></trkpt><trkpt lat="37.03259877339352" lon="15.062461618892286"><ele>386.0</ele><time>2026-04-26T09:13:20Z</time></trkpt><trkpt lat="37.03254087106393" lon="15.062553643175528"><ele>386.0</ele><time>2026-04-26T09:13:21Z</time></trkpt><trkpt lat="37.032471421372016" lon="15.062638429072592"><ele>387.20000000000005</ele><time>2026-04-26T09:13:22Z</time></trkpt><trkpt lat="37.03241094552222" lon="15.062735448239174"><ele>388.40000000000003</ele><time>2026-04-26T09:13:23Z</time></trkpt><trkpt lat="37.03235100427278" lon="15.062826241690148"><ele>389.6</ele><time>2026-04-26T09:13:24Z</time></trkpt><trkpt lat="37.032295353973325" lon="15.062924793297379"><ele>390.8</ele><time>2026-04-26T09:13:25Z</time></trkpt><trkpt lat="37.032241351288505" lon="15.063011433130026"><ele>392.0</ele><time>2026-04-26T09:13:26Z</time></trkpt><trkpt lat="37.032184361935094" lon="15.063098754135652"><ele>392.0</ele><time>2026-04-26T09:13:27Z</time></trkpt><trkpt lat="37.03211537621905" lon="15.06320604007497"><ele>392.0</ele><time>2026-04-26T09:13:28Z</time></trkpt><trkpt lat="37.032058261707284" lon="15.063298749480575"><ele>392.0</ele><time>2026-04-26T09:13:29Z</time></trkpt><trkpt lat="37.03200496603984" lon="15.063381867371772"><ele>392.0</ele><time>2026-04-26T09:13:30Z</time></trkpt><trkpt lat="37.031949110578694" lon="15.063472542931615"><ele>392.0</ele><time>2026-04-26T09:13:31Z</time></trkpt><trkpt lat="37.03188924668297" lon="15.063562139942402"><ele>392.20000000000005</ele><time>2026-04-26T09:13:32Z</time></trkpt><trkpt lat="37.03182934402181" lon="15.063657040666985"><ele>392.4</ele><time>2026-04-26T09:13:33Z</time></trkpt><trkpt lat="37.03176894725535" lon="15.063754600858935"><ele>392.6</ele><time>2026-04-26T09:13:34Z</time></trkpt><trkpt lat="37.03170818322866" lon="15.063851911596293"><ele>392.79999999999995</ele><time>2026-04-26T09:13:35Z</time></trkpt><trkpt lat="37.03165221158875" lon="15.063942538071318"><ele>393.0</ele><time>2026-04-26T09:13:36Z</time></trkpt><trkpt lat="37.03160558329306" lon="15.064022362619134"><ele>393.0</ele><time>2026-04-26T09:13:37Z</time></trkpt><trkpt lat="37.03156088340134" lon="15.06409643360125"><ele>393.0</ele><time>2026-04-26T09:13:38Z</time></trkpt><trkpt lat="37.031504145500264" lon="15.064179043041056"><ele>393.0</ele><time>2026-04-26T09:13:39Z</time></trkpt><trkpt lat="37.03144150580665" lon="15.064274926531432"><ele>393.0</ele><time>2026-04-26T09:13:40Z</time></trkpt><trkpt lat="37.031394391385014" lon="15.06438285033755"><ele>393.0</ele><time>2026-04-26T09:13:41Z</time></trkpt><trkpt lat="37.03133461559237" lon="15.064479789212982"><ele>391.2</ele><time>2026-04-26T09:13:42Z</time></trkpt><trkpt lat="37.03125658711978" lon="15.064572777792387"><ele>389.4</ele><time>2026-04-26T09:13:43Z</time></trkpt><trkpt lat="37.03121112822548" lon="15.064680049592948"><ele>387.59999999999997</ele><time>2026-04-26T09:13:44Z</time></trkpt><trkpt lat="37.03114796282876" lon="15.064782486450298"><ele>385.79999999999995</ele><time>2026-04-26T09:13:45Z</time></trkpt><trkpt lat="37.03108355203434" lon="15.064868527826205"><ele>384.0</ele><time>2026-04-26T09:13:46Z</time></trkpt><trkpt lat="37.03102077770091" lon="15.064968196048591"><ele>384.6</ele><time>2026-04-26T09:13:47Z</time></trkpt><trkpt lat="37.03095705652827" lon="15.065073561277746"><ele>385.2</ele><time>2026-04-26T09:13:48Z</time></trkpt><trkpt lat="37.03090446825359" lon="15.065169000676669"><ele>385.8</ele><time>2026-04-26T09:13:49Z</time></trkpt><trkpt lat="37.0308433433266" lon="15.06527500229187"><ele>386.40000000000003</ele><time>2026-04-26T09:13:50Z</time></trkpt><trkpt lat="37.03077987025917" lon="15.065380957787948"><ele>387.0</ele><time>2026-04-26T09:13:51Z</time></trkpt><trkpt lat="37.030723384614305" lon="15.0654713560693"><ele>387.0</ele><time>2026-04-26T09:13:52Z</time></trkpt><trkpt lat="37.03066840104254" lon="15.065563347839758"><ele>387.0</ele><time>2026-04-26T09:13:53Z</time></trkpt><trkpt lat="37.030612441699674" lon="15.065659171404636"><ele>387.0</ele><time>2026-04-26T09:13:54Z</time></trkpt><trkpt lat="37.030552999646844" lon="15.065752766176413"><ele>387.0</ele><time>2026-04-26T09:13:55Z</time></trkpt><trkpt lat="37.03049370351453" lon="15.065851049847552"><ele>387.0</ele><time>2026-04-26T09:13:56Z</time></trkpt><trkpt lat="37.0304307568931" lon="15.06595000405055"><ele>385.40000000000003</ele><time>2026-04-26T09:13:57Z</time></trkpt><trkpt lat="37.03036633552712" lon="15.066051536856728"><ele>383.8</ele><time>2026-04-26T09:13:58Z</time></trkpt><trkpt lat="37.03031177938547" lon="15.066137971323531"><ele>382.2</ele><time>2026-04-26T09:13:59Z</time></trkpt><trkpt lat="37.030257933035145" lon="15.066225425431766"><ele>380.6</ele><time>2026-04-26T09:14:00Z</time></trkpt><trkpt lat="37.030206243306296" lon="15.066311427188268"><ele>379.0</ele><time>2026-04-26T09:14:01Z</time></trkpt><trkpt lat="37.03014962574422" lon="15.066399627219239"><ele>379.0</ele><time>2026-04-26T09:14:02Z</time></trkpt><trkpt lat="37.03008853590536" lon="15.06649598078736"><ele>379.0</ele><time>2026-04-26T09:14:03Z</time></trkpt><trkpt lat="37.03002259469921" lon="15.066604542634146"><ele>379.0</ele><time>2026-04-26T09:14:04Z</time></trkpt><trkpt lat="37.02996359252107" lon="15.066702929302359"><ele>379.0</ele><time>2026-04-26T09:14:05Z</time></trkpt><trkpt lat="37.029906249390265" lon="15.066805128947614"><ele>379.0</ele><time>2026-04-26T09:14:06Z</time></trkpt><trkpt lat="37.029844821235784" lon="15.06690139757211"><ele>378.6</ele><time>2026-04-26T09:14:07Z</time></trkpt><trkpt lat="37.02978316258477" lon="15.067000544933405"><ele>378.2</ele><time>2026-04-26T09:14:08Z</time></trkpt><trkpt lat="37.0297197763539" lon="15.067101339473515"><ele>377.8</ele><time>2026-04-26T09:14:09Z</time></trkpt><trkpt lat="37.02965816205618" lon="15.06720801627835"><ele>377.40000000000003</ele><time>2026-04-26T09:14:10Z</time></trkpt><trkpt lat="37.02959944890045" lon="15.067310381754755"><ele>377.0</ele><time>2026-04-26T09:14:11Z</time></trkpt><trkpt lat="37.02954648744069" lon="15.067397604835175"><ele>376.1666666666667</ele><time>2026-04-26T09:14:12Z</time></trkpt><trkpt lat="37.029492395884255" lon="15.06748068244153"><ele>375.33333333333337</ele><time>2026-04-26T09:14:13Z</time></trkpt><trkpt lat="37.029438723941055" lon="15.06756302914986"><ele>374.5</ele><time>2026-04-26T09:14:14Z</time></trkpt><trkpt lat="37.029386261596024" lon="15.067645546322398"><ele>373.6666666666667</ele><time>2026-04-26T09:14:15Z</time></trkpt><trkpt lat="37.02933420122205" lon="15.067729268558057"><ele>372.8333333333333</ele><time>2026-04-26T09:14:16Z</time></trkpt><trkpt lat="37.02927920185627" lon="15.067817114600823"><ele>372.0</ele><time>2026-04-26T09:14:17Z</time></trkpt><trkpt lat="37.029224995093706" lon="15.067912787024781"><ele>372.0</ele><time>2026-04-26T09:14:18Z</time></trkpt><trkpt lat="37.02917539518593" lon="15.067991244016117"><ele>372.0</ele><time>2026-04-26T09:14:19Z</time></trkpt><trkpt lat="37.029125145543155" lon="15.068071127416621"><ele>372.0</ele><time>2026-04-26T09:14:20Z</time></trkpt><trkpt lat="37.02907596303225" lon="15.068157364409785"><ele>372.0</ele><time>2026-04-26T09:14:21Z</time></trkpt><trkpt lat="37.02902485124356" lon="15.068249033917116"><ele>372.0</ele><time>2026-04-26T09:14:22Z</time></trkpt><trkpt lat="37.0289644973617" lon="15.0683365785854"><ele>372.0</ele><time>2026-04-26T09:14:23Z</time></trkpt><trkpt lat="37.02890366978268" lon="15.068432920056205"><ele>371.6</ele><time>2026-04-26T09:14:24Z</time></trkpt><trkpt lat="37.028840920683756" lon="15.068534467762449"><ele>371.20000000000005</ele><time>2026-04-26T09:14:25Z</time></trkpt><trkpt lat="37.02876868525839" lon="15.068646134067997"><ele>370.8</ele><time>2026-04-26T09:14:26Z</time></trkpt><trkpt lat="37.02870269051544" lon="15.068742305775771"><ele>370.4</ele><time>2026-04-26T09:14:27Z</time></trkpt><trkpt lat="37.0286404429489" lon="15.068842661889468"><ele>370.0</ele><time>2026-04-26T09:14:28Z</time></trkpt><trkpt lat="37.02857224254753" lon="15.06895008353856"><ele>370.0</ele><time>2026-04-26T09:14:29Z</time></trkpt><trkpt lat="37.028507519544945" lon="15.069054378298828"><ele>370.0</ele><time>2026-04-26T09:14:30Z</time></trkpt><trkpt lat="37.02845261646512" lon="15.069145709499768"><ele>370.0</ele><time>2026-04-26T09:14:31Z</time></trkpt><trkpt lat="37.02840153658993" lon="15.069229017763194"><ele>370.0</ele><time>2026-04-26T09:14:32Z</time></trkpt><trkpt lat="37.028347017392434" lon="15.069314468794296"><ele>370.0</ele><time>2026-04-26T09:14:33Z</time></trkpt><trkpt lat="37.02828766248671" lon="15.069404286202046"><ele>369.8333333333333</ele><time>2026-04-26T09:14:33.999Z</time></trkpt><trkpt lat="37.02822787154174" lon="15.06949820471182"><ele>369.66666666666663</ele><time>2026-04-26T09:14:34.999Z</time></trkpt><trkpt lat="37.0281779668005" lon="15.069584730938146"><ele>369.5</ele><time>2026-04-26T09:14:35.999Z</time></trkpt><trkpt lat="37.0281338137218" lon="15.069650266200876"><ele>369.3333333333333</ele><time>2026-04-26T09:14:36.999Z</time></trkpt><trkpt lat="37.0280667195644" lon="15.069764693968581"><ele>369.1666666666667</ele><time>2026-04-26T09:14:38.999Z</time></trkpt><trkpt lat="37.02802919238649" lon="15.069829807283547"><ele>369.0</ele><time>2026-04-26T09:14:40.999Z</time></trkpt><trkpt lat="37.02798846698266" lon="15.06991439974533"><ele>369.0</ele><time>2026-04-26T09:14:44.999Z</time></trkpt><trkpt lat="37.02786247311089" lon="15.069791120295704"><ele>369.0</ele><time>2026-04-26T09:14:46.999Z</time></trkpt><trkpt lat="37.02780506083622" lon="15.06973427936308"><ele>369.0</ele><time>2026-04-26T09:14:47.999Z</time></trkpt><trkpt lat="37.027756908648136" lon="15.069678114068124"><ele>369.0</ele><time>2026-04-26T09:14:48.999Z</time></trkpt><trkpt lat="37.02768851793114" lon="15.069635696630138"><ele>369.0</ele><time>2026-04-26T09:14:49.999Z</time></trkpt><trkpt lat="37.02761516191012" lon="15.069559232752022"><ele>369.0</ele><time>2026-04-26T09:14:50.999Z</time></trkpt><trkpt lat="37.02751996955254" lon="15.069468712698953"><ele>369.0</ele><time>2026-04-26T09:14:51.999Z</time></trkpt><trkpt lat="37.02742491726334" lon="15.069365441167335"><ele>369.0</ele><time>2026-04-26T09:14:52.999Z</time></trkpt><trkpt lat="37.027324631014906" lon="15.069263374426532"><ele>369.0</ele><time>2026-04-26T09:14:53.999Z</time></trkpt><trkpt lat="37.027260814582945" lon="15.069218161912158"><ele>369.0</ele><time>2026-04-26T09:14:54.999Z</time></trkpt><trkpt lat="37.02719861087465" lon="15.069162787629395"><ele>368.79999999999995</ele><time>2026-04-26T09:14:56.999Z</time></trkpt><trkpt lat="37.02709775813589" lon="15.069105249780547"><ele>368.59999999999997</ele><time>2026-04-26T09:14:59.999Z</time></trkpt><trkpt lat="37.02704061835171" lon="15.06906842080664"><ele>368.4</ele><time>2026-04-26T09:15:01.999Z</time></trkpt><trkpt lat="37.02692847674397" lon="15.069218454706512"><ele>368.2</ele><time>2026-04-26T09:15:03.999Z</time></trkpt><trkpt lat="37.026885829772795" lon="15.069277925972596"><ele>368.0</ele><time>2026-04-26T09:15:04.999Z</time></trkpt><trkpt lat="37.026874189765394" lon="15.069374443922161"><ele>367.75</ele><time>2026-04-26T09:15:05.999Z</time></trkpt><trkpt lat="37.02685949058407" lon="15.069484647491501"><ele>367.5</ele><time>2026-04-26T09:15:06.999Z</time></trkpt><trkpt lat="37.026836322799454" lon="15.069612986437896"><ele>367.25</ele><time>2026-04-26T09:15:07.999Z</time></trkpt><trkpt lat="37.02681185058198" lon="15.069759653588198"><ele>367.0</ele><time>2026-04-26T09:15:08.999Z</time></trkpt><trkpt lat="37.026782113441385" lon="15.069927422036441"><ele>366.3333333333333</ele><time>2026-04-26T09:15:09.999Z</time></trkpt><trkpt lat="37.0267428957677" lon="15.070125076595364"><ele>365.6666666666667</ele><time>2026-04-26T09:15:10.999Z</time></trkpt><trkpt lat="37.026704761178806" lon="15.07032187831727"><ele>365.0</ele><time>2026-04-26T09:15:11.999Z</time></trkpt><trkpt lat="37.026657188779794" lon="15.07055689725896"><ele>364.33333333333337</ele><time>2026-04-26T09:15:12.999Z</time></trkpt><trkpt lat="37.02662069749578" lon="15.070774668568136"><ele>363.6666666666667</ele><time>2026-04-26T09:15:13.999Z</time></trkpt><trkpt lat="37.026577780168985" lon="15.071003306213411"><ele>363.0</ele><time>2026-04-26T09:15:14.999Z</time></trkpt><trkpt lat="37.0265361528483" lon="15.07123123713339"><ele>363.0</ele><time>2026-04-26T09:15:15.999Z</time></trkpt><trkpt lat="37.026491357286055" lon="15.071464817979551"><ele>363.0</ele><time>2026-04-26T09:15:16.999Z</time></trkpt><trkpt lat="37.02644431770508" lon="15.071705497250816"><ele>363.0</ele><time>2026-04-26T09:15:17.999Z</time></trkpt><trkpt lat="37.02639701294828" lon="15.07197189207681"><ele>363.0</ele><time>2026-04-26T09:15:18.999Z</time></trkpt><trkpt lat="37.026336436707155" lon="15.072295991866243"><ele>363.0</ele><time>2026-04-26T09:15:19.999Z</time></trkpt><trkpt lat="37.02629446846515" lon="15.072566595322407"><ele>363.0</ele><time>2026-04-26T09:15:20.999Z</time></trkpt><trkpt lat="37.026251224933574" lon="15.072822541867993"><ele>363.0</ele><time>2026-04-26T09:15:22Z</time></trkpt><trkpt lat="37.026216815112015" lon="15.073071978098278"><ele>363.0</ele><time>2026-04-26T09:15:23Z</time></trkpt><trkpt lat="37.02618769457638" lon="15.073311834487985"><ele>362.3333333333333</ele><time>2026-04-26T09:15:24Z</time></trkpt><trkpt lat="37.026160515221406" lon="15.073540583149384"><ele>361.66666666666663</ele><time>2026-04-26T09:15:25Z</time></trkpt><trkpt lat="37.026138965664046" lon="15.073759965713693"><ele>361.0</ele><time>2026-04-26T09:15:26Z</time></trkpt><trkpt lat="37.02611520313192" lon="15.073970367185307"><ele>359.3333333333333</ele><time>2026-04-26T09:15:27Z</time></trkpt><trkpt lat="37.026092772441814" lon="15.074173707262375"><ele>357.6666666666667</ele><time>2026-04-26T09:15:28Z</time></trkpt><trkpt lat="37.026072162881924" lon="15.074369091751267"><ele>356.0</ele><time>2026-04-26T09:15:29Z</time></trkpt><trkpt lat="37.02605400155159" lon="15.074568224323011"><ele>356.0</ele><time>2026-04-26T09:15:30Z</time></trkpt><trkpt lat="37.02604662686781" lon="15.074736946554298"><ele>356.0</ele><time>2026-04-26T09:15:31Z</time></trkpt><trkpt lat="37.02604663887801" lon="15.074905694272472"><ele>356.0</ele><time>2026-04-26T09:15:32Z</time></trkpt><trkpt lat="37.02602988215208" lon="15.075075587344504"><ele>356.0</ele><time>2026-04-26T09:15:33Z</time></trkpt><trkpt lat="37.025990368977006" lon="15.075293949794952"><ele>354.0</ele><time>2026-04-26T09:15:34Z</time></trkpt><trkpt lat="37.02597017959689" lon="15.075532361403516"><ele>352.0</ele><time>2026-04-26T09:15:35Z</time></trkpt><trkpt lat="37.025990922086834" lon="15.075783639742488"><ele>350.0</ele><time>2026-04-26T09:15:36Z</time></trkpt><trkpt lat="37.02596698150643" lon="15.07605387995015"><ele>345.5</ele><time>2026-04-26T09:15:37Z</time></trkpt><trkpt lat="37.02596135244979" lon="15.076333069624992"><ele>341.0</ele><time>2026-04-26T09:15:38Z</time></trkpt><trkpt lat="37.02595329328214" lon="15.076626642206259"><ele>339.33333333333337</ele><time>2026-04-26T09:15:39Z</time></trkpt><trkpt lat="37.025941942680234" lon="15.076898112976803"><ele>337.6666666666667</ele><time>2026-04-26T09:15:40Z</time></trkpt><trkpt lat="37.02593583822955" lon="15.077163531301059"><ele>336.0</ele><time>2026-04-26T09:15:41Z</time></trkpt><trkpt lat="37.0259270976909" lon="15.07742902749071"><ele>334.3333333333333</ele><time>2026-04-26T09:15:42Z</time></trkpt><trkpt lat="37.02591599498517" lon="15.077695381126674"><ele>332.66666666666663</ele><time>2026-04-26T09:15:43Z</time></trkpt><trkpt lat="37.02590597415418" lon="15.077964854629103"><ele>331.0</ele><time>2026-04-26T09:15:44Z</time></trkpt><trkpt lat="37.025894406498935" lon="15.078240316288431"><ele>329.5</ele><time>2026-04-26T09:15:45Z</time></trkpt><trkpt lat="37.02588319265316" lon="15.078536490689196"><ele>328.0</ele><time>2026-04-26T09:15:46Z</time></trkpt><trkpt lat="37.025873311627755" lon="15.078845667775296"><ele>325.5</ele><time>2026-04-26T09:15:47Z</time></trkpt><trkpt lat="37.025865046721044" lon="15.07915605555839"><ele>323.0</ele><time>2026-04-26T09:15:48Z</time></trkpt><trkpt lat="37.025855734168985" lon="15.079464118049966"><ele>323.0</ele><time>2026-04-26T09:15:49Z</time></trkpt><trkpt lat="37.025846330610676" lon="15.079761153386272"><ele>323.0</ele><time>2026-04-26T09:15:50Z</time></trkpt><trkpt lat="37.02583599728806" lon="15.080053886106322"><ele>321.0</ele><time>2026-04-26T09:15:51Z</time></trkpt><trkpt lat="37.02582393890831" lon="15.080348367287112"><ele>319.0</ele><time>2026-04-26T09:15:52Z</time></trkpt><trkpt lat="37.025809112515084" lon="15.080642151866678"><ele>325.0</ele><time>2026-04-26T09:15:53Z</time></trkpt><trkpt lat="37.0257952477854" lon="15.080933638170317"><ele>331.0</ele><time>2026-04-26T09:15:54Z</time></trkpt><trkpt lat="37.025787382341086" lon="15.081223065113672"><ele>331.0</ele><time>2026-04-26T09:15:55Z</time></trkpt><trkpt lat="37.02578438100141" lon="15.08151407811718"><ele>331.0</ele><time>2026-04-26T09:15:56Z</time></trkpt><trkpt lat="37.025781294826515" lon="15.081808117357808"><ele>329.66666666666663</ele><time>2026-04-26T09:15:57Z</time></trkpt><trkpt lat="37.025774976293306" lon="15.082097893144292"><ele>328.3333333333333</ele><time>2026-04-26T09:15:58Z</time></trkpt><trkpt lat="37.025764836248506" lon="15.08236608627747"><ele>327.0</ele><time>2026-04-26T09:15:59Z</time></trkpt><trkpt lat="37.02575434082137" lon="15.08263232306692"><ele>326.3333333333333</ele><time>2026-04-26T09:16:00Z</time></trkpt><trkpt lat="37.02574193323994" lon="15.08290808166857"><ele>325.66666666666663</ele><time>2026-04-26T09:16:01Z</time></trkpt><trkpt lat="37.02573326326538" lon="15.083173767166667"><ele>325.0</ele><time>2026-04-26T09:16:02Z</time></trkpt><trkpt lat="37.02572244275422" lon="15.08344410512472"><ele>326.3333333333333</ele><time>2026-04-26T09:16:03Z</time></trkpt><trkpt lat="37.025713065990374" lon="15.08370542724364"><ele>327.6666666666667</ele><time>2026-04-26T09:16:04Z</time></trkpt><trkpt lat="37.02570632702552" lon="15.08397535479712"><ele>329.0</ele><time>2026-04-26T09:16:05Z</time></trkpt><trkpt lat="37.025701610674474" lon="15.084247677127333"><ele>329.0</ele><time>2026-04-26T09:16:06Z</time></trkpt><trkpt lat="37.0257071965573" lon="15.084517294174507"><ele>329.0</ele><time>2026-04-26T09:16:07Z</time></trkpt><trkpt lat="37.02572785463922" lon="15.084789581240155"><ele>329.0</ele><time>2026-04-26T09:16:08Z</time></trkpt><trkpt lat="37.025763224838734" lon="15.085070193718455"><ele>329.0</ele><time>2026-04-26T09:16:09Z</time></trkpt><trkpt lat="37.0258013385811" lon="15.08535405914218"><ele>329.0</ele><time>2026-04-26T09:16:10Z</time></trkpt><trkpt lat="37.0258372979965" lon="15.085634950700737"><ele>319.0</ele><time>2026-04-26T09:16:11Z</time></trkpt><trkpt lat="37.02587045479973" lon="15.08591586071585"><ele>309.0</ele><time>2026-04-26T09:16:12Z</time></trkpt><trkpt lat="37.02590252547994" lon="15.086193200885447"><ele>309.0</ele><time>2026-04-26T09:16:13Z</time></trkpt><trkpt lat="37.02592825771331" lon="15.086467493371511"><ele>309.0</ele><time>2026-04-26T09:16:14Z</time></trkpt><trkpt lat="37.025939060811325" lon="15.08674453644641"><ele>309.0</ele><time>2026-04-26T09:16:15Z</time></trkpt><trkpt lat="37.02592213503298" lon="15.087024554379791"><ele>309.0</ele><time>2026-04-26T09:16:16Z</time></trkpt><trkpt lat="37.02588510021632" lon="15.087312520284136"><ele>309.0</ele><time>2026-04-26T09:16:17Z</time></trkpt><trkpt lat="37.0258429429633" lon="15.087608663501172"><ele>314.5</ele><time>2026-04-26T09:16:18Z</time></trkpt><trkpt lat="37.025806570856446" lon="15.087900423225895"><ele>320.0</ele><time>2026-04-26T09:16:19Z</time></trkpt><trkpt lat="37.02577527724366" lon="15.088194048165114"><ele>318.5</ele><time>2026-04-26T09:16:20Z</time></trkpt><trkpt lat="37.02574844511653" lon="15.088492958327276"><ele>317.0</ele><time>2026-04-26T09:16:21Z</time></trkpt><trkpt lat="37.02573077257138" lon="15.08880476349967"><ele>316.5</ele><time>2026-04-26T09:16:22Z</time></trkpt><trkpt lat="37.0257149363323" lon="15.08914387047788"><ele>316.0</ele><time>2026-04-26T09:16:23Z</time></trkpt><trkpt lat="37.025693874812994" lon="15.089537549347206"><ele>316.0</ele><time>2026-04-26T09:16:24Z</time></trkpt><trkpt lat="37.025672628112176" lon="15.089950027010875"><ele>316.0</ele><time>2026-04-26T09:16:25Z</time></trkpt><trkpt lat="37.02565305966304" lon="15.090372738581927"><ele>314.0</ele><time>2026-04-26T09:16:26Z</time></trkpt><trkpt lat="37.025640198469254" lon="15.090766178549451"><ele>312.0</ele><time>2026-04-26T09:16:27Z</time></trkpt><trkpt lat="37.02562770218591" lon="15.091144012623886"><ele>312.0</ele><time>2026-04-26T09:16:28Z</time></trkpt><trkpt lat="37.025614037647856" lon="15.091512479156538"><ele>312.0</ele><time>2026-04-26T09:16:29Z</time></trkpt><trkpt lat="37.025601825892835" lon="15.091879112282008"><ele>308.5</ele><time>2026-04-26T09:16:30Z</time></trkpt><trkpt lat="37.0255943097803" lon="15.0922391227387"><ele>305.0</ele><time>2026-04-26T09:16:31Z</time></trkpt><trkpt lat="37.025594395716375" lon="15.09258510369471"><ele>303.0</ele><time>2026-04-26T09:16:32Z</time></trkpt><trkpt lat="37.02560853151335" lon="15.092914781472963"><ele>301.0</ele><time>2026-04-26T09:16:32.999Z</time></trkpt><trkpt lat="37.025648841723246" lon="15.093235846069447"><ele>300.5</ele><time>2026-04-26T09:16:33.999Z</time></trkpt><trkpt lat="37.025692366784604" lon="15.093552770727403"><ele>300.0</ele><time>2026-04-26T09:16:34.999Z</time></trkpt><trkpt lat="37.02573194100436" lon="15.093855672400526"><ele>301.5</ele><time>2026-04-26T09:16:35.999Z</time></trkpt><trkpt lat="37.025770164450144" lon="15.09414645801018"><ele>303.0</ele><time>2026-04-26T09:16:36.999Z</time></trkpt><trkpt lat="37.02580945772454" lon="15.094441097040434"><ele>294.5</ele><time>2026-04-26T09:16:37.999Z</time></trkpt><trkpt lat="37.02584388663851" lon="15.094729520554031"><ele>286.0</ele><time>2026-04-26T09:16:38.999Z</time></trkpt><trkpt lat="37.02587550286699" lon="15.095024890920934"><ele>285.0</ele><time>2026-04-26T09:16:39.999Z</time></trkpt><trkpt lat="37.02589144335584" lon="15.095314023223828"><ele>284.0</ele><time>2026-04-26T09:16:40.999Z</time></trkpt><trkpt lat="37.025902490743256" lon="15.095605973332455"><ele>283.5</ele><time>2026-04-26T09:16:41.999Z</time></trkpt><trkpt lat="37.0258976552047" lon="15.095892587373623"><ele>283.0</ele><time>2026-04-26T09:16:42.999Z</time></trkpt><trkpt lat="37.02587859223883" lon="15.096176458505127"><ele>283.0</ele><time>2026-04-26T09:16:43.999Z</time></trkpt><trkpt lat="37.02584134519533" lon="15.096477579912738"><ele>283.0</ele><time>2026-04-26T09:16:44.999Z</time></trkpt><trkpt lat="37.02579909721858" lon="15.096802309920319"><ele>286.5</ele><time>2026-04-26T09:16:45.999Z</time></trkpt><trkpt lat="37.025758899831075" lon="15.097137576720081"><ele>290.0</ele><time>2026-04-26T09:16:46.999Z</time></trkpt><trkpt lat="37.025718540045624" lon="15.097474302199164"><ele>290.0</ele><time>2026-04-26T09:16:47.999Z</time></trkpt><trkpt lat="37.0256771308506" lon="15.097810849022347"><ele>290.0</ele><time>2026-04-26T09:16:48.999Z</time></trkpt><trkpt lat="37.025635986654905" lon="15.098148993013028"><ele>287.5</ele><time>2026-04-26T09:16:49.999Z</time></trkpt><trkpt lat="37.02559389841413" lon="15.098493771407787"><ele>285.0</ele><time>2026-04-26T09:16:50.999Z</time></trkpt><trkpt lat="37.025551537766745" lon="15.09883942068207"><ele>283.0</ele><time>2026-04-26T09:16:51.999Z</time></trkpt><trkpt lat="37.025507404618615" lon="15.099163605314077"><ele>281.0</ele><time>2026-04-26T09:16:52.999Z</time></trkpt><trkpt lat="37.02545707268277" lon="15.09947078125025"><ele>281.0</ele><time>2026-04-26T09:16:53.999Z</time></trkpt><trkpt lat="37.02539212194779" lon="15.09976953283863"><ele>281.0</ele><time>2026-04-26T09:16:54.999Z</time></trkpt><trkpt lat="37.02530518741776" lon="15.100056037349955"><ele>281.5</ele><time>2026-04-26T09:16:55.999Z</time></trkpt><trkpt lat="37.02520413085047" lon="15.10034430211075"><ele>282.0</ele><time>2026-04-26T09:16:56.999Z</time></trkpt><trkpt lat="37.025093230210175" lon="15.100629929721483"><ele>283.5</ele><time>2026-04-26T09:16:57.999Z</time></trkpt><trkpt lat="37.02497234979691" lon="15.100903368908977"><ele>285.0</ele><time>2026-04-26T09:16:58.999Z</time></trkpt><trkpt lat="37.024838665522935" lon="15.101176720472372"><ele>285.0</ele><time>2026-04-26T09:16:59.999Z</time></trkpt><trkpt lat="37.02469809452486" lon="15.101441312113232"><ele>285.0</ele><time>2026-04-26T09:17:00.999Z</time></trkpt><trkpt lat="37.024544451471414" lon="15.10170050299487"><ele>281.0</ele><time>2026-04-26T09:17:01.999Z</time></trkpt><trkpt lat="37.02436982925688" lon="15.101952274926369"><ele>277.0</ele><time>2026-04-26T09:17:02.999Z</time></trkpt><trkpt lat="37.02418371127828" lon="15.102198742876126"><ele>274.5</ele><time>2026-04-26T09:17:03.999Z</time></trkpt><trkpt lat="37.023998198704476" lon="15.102450398544518"><ele>272.0</ele><time>2026-04-26T09:17:04.999Z</time></trkpt><trkpt lat="37.02382013854884" lon="15.102698896911122"><ele>272.0</ele><time>2026-04-26T09:17:05.999Z</time></trkpt><trkpt lat="37.023641344402826" lon="15.10294766834833"><ele>272.0</ele><time>2026-04-26T09:17:06.999Z</time></trkpt><trkpt lat="37.023461244465445" lon="15.103195589514177"><ele>268.5</ele><time>2026-04-26T09:17:07.999Z</time></trkpt><trkpt lat="37.02328069783073" lon="15.103447370471727"><ele>265.0</ele><time>2026-04-26T09:17:08.999Z</time></trkpt><trkpt lat="37.02310221311618" lon="15.103698878783945"><ele>265.0</ele><time>2026-04-26T09:17:09.999Z</time></trkpt><trkpt lat="37.0229252592363" lon="15.103947288707554"><ele>265.0</ele><time>2026-04-26T09:17:10.999Z</time></trkpt><trkpt lat="37.02274802460533" lon="15.104197054566313"><ele>263.5</ele><time>2026-04-26T09:17:11.999Z</time></trkpt><trkpt lat="37.022572268638136" lon="15.104444268070434"><ele>262.0</ele><time>2026-04-26T09:17:12.999Z</time></trkpt><trkpt lat="37.02239626936487" lon="15.104689538137286"><ele>260.0</ele><time>2026-04-26T09:17:13.999Z</time></trkpt><trkpt lat="37.0222154851014" lon="15.104937439129628"><ele>258.0</ele><time>2026-04-26T09:17:14.999Z</time></trkpt><trkpt lat="37.022034241505885" lon="15.10518398762346"><ele>258.0</ele><time>2026-04-26T09:17:15.999Z</time></trkpt><trkpt lat="37.021856198827486" lon="15.105430584366575"><ele>258.0</ele><time>2026-04-26T09:17:16.999Z</time></trkpt><trkpt lat="37.02168131487138" lon="15.105679163187718"><ele>257.0</ele><time>2026-04-26T09:17:17.999Z</time></trkpt><trkpt lat="37.0215056111104" lon="15.10592479532209"><ele>256.0</ele><time>2026-04-26T09:17:18.999Z</time></trkpt><trkpt lat="37.02132985367726" lon="15.106165688684923"><ele>256.0</ele><time>2026-04-26T09:17:19.999Z</time></trkpt><trkpt lat="37.02115756699762" lon="15.106408223724834"><ele>256.0</ele><time>2026-04-26T09:17:20.999Z</time></trkpt><trkpt lat="37.02099103489646" lon="15.106653119537437"><ele>254.0</ele><time>2026-04-26T09:17:21.999Z</time></trkpt><trkpt lat="37.0208311922593" lon="15.10690591618489"><ele>252.0</ele><time>2026-04-26T09:17:22.999Z</time></trkpt><trkpt lat="37.020686876105806" lon="15.107171440752781"><ele>251.0</ele><time>2026-04-26T09:17:23.999Z</time></trkpt><trkpt lat="37.0205573180129" lon="15.10745183354226"><ele>250.0</ele><time>2026-04-26T09:17:24.999Z</time></trkpt><trkpt lat="37.020435546503144" lon="15.107746503159392"><ele>250.0</ele><time>2026-04-26T09:17:25.999Z</time></trkpt><trkpt lat="37.02032363525635" lon="15.10804703899948"><ele>250.0</ele><time>2026-04-26T09:17:26.999Z</time></trkpt><trkpt lat="37.02022822448291" lon="15.10836236734606"><ele>248.0</ele><time>2026-04-26T09:17:28Z</time></trkpt><trkpt lat="37.02014820421002" lon="15.108688154259012"><ele>246.0</ele><time>2026-04-26T09:17:29Z</time></trkpt><trkpt lat="37.020086653562025" lon="15.109021527063788"><ele>245.0</ele><time>2026-04-26T09:17:30Z</time></trkpt><trkpt lat="37.02004009064474" lon="15.109356827894016"><ele>244.0</ele><time>2026-04-26T09:17:31Z</time></trkpt><trkpt lat="37.02001216900525" lon="15.109692991265515"><ele>244.0</ele><time>2026-04-26T09:17:32Z</time></trkpt><trkpt lat="37.02000140201335" lon="15.110032925301004"><ele>244.0</ele><time>2026-04-26T09:17:33Z</time></trkpt><trkpt lat="37.02000977160837" lon="15.110373240321806"><ele>244.0</ele><time>2026-04-26T09:17:34Z</time></trkpt><trkpt lat="37.02003143522688" lon="15.11071390098745"><ele>244.0</ele><time>2026-04-26T09:17:35Z</time></trkpt><trkpt lat="37.020065538069794" lon="15.111048683247661"><ele>244.0</ele><time>2026-04-26T09:17:36Z</time></trkpt><trkpt lat="37.020108853764626" lon="15.111382592547866"><ele>244.0</ele><time>2026-04-26T09:17:37Z</time></trkpt><trkpt lat="37.02016214911328" lon="15.111713650412662"><ele>242.5</ele><time>2026-04-26T09:17:38Z</time></trkpt><trkpt lat="37.02021537395434" lon="15.112045992656"><ele>241.0</ele><time>2026-04-26T09:17:39Z</time></trkpt><trkpt lat="37.0202637056088" lon="15.112378905186716"><ele>240.5</ele><time>2026-04-26T09:17:40Z</time></trkpt><trkpt lat="37.020311152152395" lon="15.112713240846531"><ele>240.0</ele><time>2026-04-26T09:17:41Z</time></trkpt><trkpt lat="37.020362155347954" lon="15.113051379379916"><ele>240.0</ele><time>2026-04-26T09:17:42Z</time></trkpt><trkpt lat="37.02041563339506" lon="15.113388469884416"><ele>240.0</ele><time>2026-04-26T09:17:43Z</time></trkpt><trkpt lat="37.02046931234529" lon="15.113722276821239"><ele>240.0</ele><time>2026-04-26T09:17:44Z</time></trkpt><trkpt lat="37.02052012444543" lon="15.114056103796441"><ele>240.0</ele><time>2026-04-26T09:17:45Z</time></trkpt><trkpt lat="37.02057250198985" lon="15.114395231280964"><ele>239.0</ele><time>2026-04-26T09:17:46Z</time></trkpt><trkpt lat="37.02062409320198" lon="15.114734419476514"><ele>238.0</ele><time>2026-04-26T09:17:47Z</time></trkpt><trkpt lat="37.02067606307751" lon="15.115081101435777"><ele>237.0</ele><time>2026-04-26T09:17:48Z</time></trkpt><trkpt lat="37.02073326756768" lon="15.115457270631545"><ele>236.0</ele><time>2026-04-26T09:17:49Z</time></trkpt><trkpt lat="37.02079433516029" lon="15.115845219003335"><ele>235.5</ele><time>2026-04-26T09:17:50Z</time></trkpt><trkpt lat="37.02084991933126" lon="15.116200055749136"><ele>235.0</ele><time>2026-04-26T09:17:51Z</time></trkpt><trkpt lat="37.02090171814096" lon="15.116546134501508"><ele>235.0</ele><time>2026-04-26T09:17:52Z</time></trkpt><trkpt lat="37.02095184494868" lon="15.11687946856022"><ele>235.0</ele><time>2026-04-26T09:17:53Z</time></trkpt><trkpt lat="37.0210004897621" lon="15.117205885477643"><ele>234.0</ele><time>2026-04-26T09:17:54Z</time></trkpt><trkpt lat="37.021049657046184" lon="15.11752469162064"><ele>233.0</ele><time>2026-04-26T09:17:55Z</time></trkpt><trkpt lat="37.021100059656675" lon="15.11784211004305"><ele>233.0</ele><time>2026-04-26T09:17:56Z</time></trkpt><trkpt lat="37.02115031934346" lon="15.118152793015687"><ele>233.0</ele><time>2026-04-26T09:17:57Z</time></trkpt><trkpt lat="37.02120141298682" lon="15.118465803357656"><ele>234.0</ele><time>2026-04-26T09:17:58Z</time></trkpt><trkpt lat="37.02125220362556" lon="15.118781264549664"><ele>235.0</ele><time>2026-04-26T09:17:59Z</time></trkpt><trkpt lat="37.021299991954784" lon="15.119100650274596"><ele>236.0</ele><time>2026-04-26T09:18:00Z</time></trkpt><trkpt lat="37.021348133901476" lon="15.119440735550388"><ele>237.0</ele><time>2026-04-26T09:18:01Z</time></trkpt><trkpt lat="37.02139167293201" lon="15.119789083102633"><ele>236.0</ele><time>2026-04-26T09:18:02Z</time></trkpt><trkpt lat="37.02142250550023" lon="15.120147290518371"><ele>235.0</ele><time>2026-04-26T09:18:03Z</time></trkpt><trkpt lat="37.021439534061685" lon="15.120510074235403"><ele>234.5</ele><time>2026-04-26T09:18:04Z</time></trkpt><trkpt lat="37.02143588065632" lon="15.120877521805156"><ele>234.0</ele><time>2026-04-26T09:18:05Z</time></trkpt><trkpt lat="37.02142155140798" lon="15.121243320020127"><ele>233.0</ele><time>2026-04-26T09:18:06Z</time></trkpt><trkpt lat="37.02139640337945" lon="15.121620987907612"><ele>232.0</ele><time>2026-04-26T09:18:07Z</time></trkpt><trkpt lat="37.02136374145731" lon="15.122006196475295"><ele>232.0</ele><time>2026-04-26T09:18:08Z</time></trkpt><trkpt lat="37.02132785023936" lon="15.122366249913613"><ele>232.0</ele><time>2026-04-26T09:18:09Z</time></trkpt><trkpt lat="37.02129454613582" lon="15.122693202541498"><ele>231.5</ele><time>2026-04-26T09:18:10Z</time></trkpt><trkpt lat="37.02127005997328" lon="15.12299886655067"><ele>231.0</ele><time>2026-04-26T09:18:11Z</time></trkpt><trkpt lat="37.02124519472233" lon="15.123304035837993"><ele>230.5</ele><time>2026-04-26T09:18:12Z</time></trkpt><trkpt lat="37.021218169008314" lon="15.123612429173695"><ele>230.0</ele><time>2026-04-26T09:18:13Z</time></trkpt><trkpt lat="37.021189404458696" lon="15.12392171035281"><ele>229.0</ele><time>2026-04-26T09:18:14Z</time></trkpt><trkpt lat="37.021159363977475" lon="15.124229291163015"><ele>228.0</ele><time>2026-04-26T09:18:15Z</time></trkpt><trkpt lat="37.021130568258265" lon="15.12453122787112"><ele>228.0</ele><time>2026-04-26T09:18:16Z</time></trkpt><trkpt lat="37.02110366592559" lon="15.124838048130835"><ele>228.0</ele><time>2026-04-26T09:18:17Z</time></trkpt><trkpt lat="37.02107802806127" lon="15.125143015552213"><ele>227.0</ele><time>2026-04-26T09:18:18Z</time></trkpt><trkpt lat="37.02105217779472" lon="15.12545063203592"><ele>226.0</ele><time>2026-04-26T09:18:19Z</time></trkpt><trkpt lat="37.021023896523" lon="15.125760753668725"><ele>226.0</ele><time>2026-04-26T09:18:20Z</time></trkpt><trkpt lat="37.02099438889852" lon="15.126071727390876"><ele>226.0</ele><time>2026-04-26T09:18:21Z</time></trkpt><trkpt lat="37.02096481646357" lon="15.126385922193652"><ele>225.0</ele><time>2026-04-26T09:18:22Z</time></trkpt><trkpt lat="37.02093780582676" lon="15.126699096775308"><ele>224.0</ele><time>2026-04-26T09:18:23Z</time></trkpt><trkpt lat="37.020911043854966" lon="15.127019482864338"><ele>224.0</ele><time>2026-04-26T09:18:24Z</time></trkpt><trkpt lat="37.02088413896576" lon="15.127338922221984"><ele>224.0</ele><time>2026-04-26T09:18:25Z</time></trkpt><trkpt lat="37.02085527740555" lon="15.127655692609292"><ele>223.0</ele><time>2026-04-26T09:18:26Z</time></trkpt><trkpt lat="37.020826119317555" lon="15.12797054743478"><ele>222.0</ele><time>2026-04-26T09:18:27Z</time></trkpt><trkpt lat="37.02079794545838" lon="15.128284215542923"><ele>220.0</ele><time>2026-04-26T09:18:28Z</time></trkpt><trkpt lat="37.02076925962299" lon="15.128599824703498"><ele>218.0</ele><time>2026-04-26T09:18:29Z</time></trkpt><trkpt lat="37.02074062291768" lon="15.128915392229"><ele>216.5</ele><time>2026-04-26T09:18:30Z</time></trkpt><trkpt lat="37.020712297141436" lon="15.129234310458605"><ele>215.0</ele><time>2026-04-26T09:18:31Z</time></trkpt><trkpt lat="37.0206861891756" lon="15.129554648106355"><ele>215.0</ele><time>2026-04-26T09:18:32Z</time></trkpt><trkpt lat="37.02065994175545" lon="15.12987763388051"><ele>215.0</ele><time>2026-04-26T09:18:33Z</time></trkpt><trkpt lat="37.02063458893241" lon="15.13020191051278"><ele>214.0</ele><time>2026-04-26T09:18:34Z</time></trkpt><trkpt lat="37.020611514203836" lon="15.13052426595285"><ele>213.0</ele><time>2026-04-26T09:18:35Z</time></trkpt><trkpt lat="37.02059290875327" lon="15.13084712270683"><ele>213.0</ele><time>2026-04-26T09:18:36Z</time></trkpt><trkpt lat="37.02057688346772" lon="15.131168529217609"><ele>213.0</ele><time>2026-04-26T09:18:37Z</time></trkpt><trkpt lat="37.02056291198295" lon="15.131484819684925"><ele>213.0</ele><time>2026-04-26T09:18:37.999Z</time></trkpt><trkpt lat="37.02054804416101" lon="15.131801990052384"><ele>213.0</ele><time>2026-04-26T09:18:38.999Z</time></trkpt><trkpt lat="37.020533894922195" lon="15.132122102309326"><ele>212.5</ele><time>2026-04-26T09:18:39.999Z</time></trkpt><trkpt lat="37.02051928939805" lon="15.132446458319889"><ele>212.0</ele><time>2026-04-26T09:18:40.999Z</time></trkpt><trkpt lat="37.02050837612845" lon="15.132769121092439"><ele>212.0</ele><time>2026-04-26T09:18:41.999Z</time></trkpt><trkpt lat="37.02050321777291" lon="15.133087463228076"><ele>212.0</ele><time>2026-04-26T09:18:42.999Z</time></trkpt><trkpt lat="37.020496864215" lon="15.133406306571237"><ele>211.5</ele><time>2026-04-26T09:18:43.999Z</time></trkpt><trkpt lat="37.02049317929245" lon="15.133726082572496"><ele>211.0</ele><time>2026-04-26T09:18:44.999Z</time></trkpt><trkpt lat="37.0204896545269" lon="15.134046033926207"><ele>210.0</ele><time>2026-04-26T09:18:45.999Z</time></trkpt><trkpt lat="37.02048590412287" lon="15.134365129478201"><ele>209.0</ele><time>2026-04-26T09:18:46.999Z</time></trkpt><trkpt lat="37.020481209280405" lon="15.134680863088589"><ele>208.5</ele><time>2026-04-26T09:18:47.999Z</time></trkpt><trkpt lat="37.02047837081997" lon="15.134993145377322"><ele>208.0</ele><time>2026-04-26T09:18:48.999Z</time></trkpt><trkpt lat="37.02047737601739" lon="15.135306573958207"><ele>208.0</ele><time>2026-04-26T09:18:49.999Z</time></trkpt><trkpt lat="37.020475040133825" lon="15.135620988225082"><ele>208.0</ele><time>2026-04-26T09:18:50.999Z</time></trkpt><trkpt lat="37.02047507943394" lon="15.135935773804926"><ele>208.5</ele><time>2026-04-26T09:18:51.999Z</time></trkpt><trkpt lat="37.02047387307025" lon="15.136249033341535"><ele>209.0</ele><time>2026-04-26T09:18:52.999Z</time></trkpt><trkpt lat="37.0204768319778" lon="15.136563527066832"><ele>209.0</ele><time>2026-04-26T09:18:53.999Z</time></trkpt><trkpt lat="37.02048623373155" lon="15.13687660421881"><ele>209.0</ele><time>2026-04-26T09:18:54.999Z</time></trkpt><trkpt lat="37.02049279518448" lon="15.137187709196247"><ele>211.0</ele><time>2026-04-26T09:18:55.999Z</time></trkpt><trkpt lat="37.02050131854233" lon="15.13749593264407"><ele>213.0</ele><time>2026-04-26T09:18:56.999Z</time></trkpt><trkpt lat="37.02050565934738" lon="15.137803841730657"><ele>213.0</ele><time>2026-04-26T09:18:57.999Z</time></trkpt><trkpt lat="37.02051155983266" lon="15.138108951335491"><ele>213.0</ele><time>2026-04-26T09:18:58.999Z</time></trkpt><trkpt lat="37.020521122971104" lon="15.138412556651614"><ele>214.0</ele><time>2026-04-26T09:18:59.999Z</time></trkpt><trkpt lat="37.02053872502391" lon="15.138713402051666"><ele>215.0</ele><time>2026-04-26T09:19:00.999Z</time></trkpt><trkpt lat="37.02056720663012" lon="15.139013656488228"><ele>214.5</ele><time>2026-04-26T09:19:01.999Z</time></trkpt><trkpt lat="37.02061304534733" lon="15.139311107436333"><ele>214.0</ele><time>2026-04-26T09:19:02.999Z</time></trkpt><trkpt lat="37.02066531467265" lon="15.139601575181269"><ele>213.5</ele><time>2026-04-26T09:19:03.999Z</time></trkpt><trkpt lat="37.02071570638769" lon="15.139893325922866"><ele>213.0</ele><time>2026-04-26T09:19:04.999Z</time></trkpt><trkpt lat="37.020765256376734" lon="15.140186832828496"><ele>213.0</ele><time>2026-04-26T09:19:05.999Z</time></trkpt><trkpt lat="37.02080842526034" lon="15.140482062576762"><ele>213.0</ele><time>2026-04-26T09:19:06.999Z</time></trkpt><trkpt lat="37.020856298383436" lon="15.140780599289892"><ele>209.5</ele><time>2026-04-26T09:19:07.999Z</time></trkpt><trkpt lat="37.02090783642127" lon="15.141085603596373"><ele>206.0</ele><time>2026-04-26T09:19:08.999Z</time></trkpt><trkpt lat="37.0209582042738" lon="15.141388725275648"><ele>204.0</ele><time>2026-04-26T09:19:09.999Z</time></trkpt><trkpt lat="37.021006732054126" lon="15.141693118273283"><ele>202.0</ele><time>2026-04-26T09:19:10.999Z</time></trkpt><trkpt lat="37.021047615261935" lon="15.141999682940336"><ele>202.0</ele><time>2026-04-26T09:19:11.999Z</time></trkpt><trkpt lat="37.02107562866234" lon="15.142306874494205"><ele>202.0</ele><time>2026-04-26T09:19:12.999Z</time></trkpt><trkpt lat="37.021088019332836" lon="15.142614569868076"><ele>200.0</ele><time>2026-04-26T09:19:13.999Z</time></trkpt><trkpt lat="37.02109173602553" lon="15.142928349602458"><ele>198.0</ele><time>2026-04-26T09:19:14.999Z</time></trkpt><trkpt lat="37.02108385142808" lon="15.143240182107473"><ele>196.5</ele><time>2026-04-26T09:19:15.999Z</time></trkpt><trkpt lat="37.02106347304834" lon="15.143546929142714"><ele>195.0</ele><time>2026-04-26T09:19:16.999Z</time></trkpt><trkpt lat="37.02103517407602" lon="15.14385470859127"><ele>193.5</ele><time>2026-04-26T09:19:17.999Z</time></trkpt><trkpt lat="37.02100500264978" lon="15.144161963863107"><ele>192.0</ele><time>2026-04-26T09:19:18.999Z</time></trkpt><trkpt lat="37.02097436734292" lon="15.144472439344634"><ele>192.0</ele><time>2026-04-26T09:19:19.999Z</time></trkpt><trkpt lat="37.02094855540707" lon="15.144776654288627"><ele>192.0</ele><time>2026-04-26T09:19:20.999Z</time></trkpt><trkpt lat="37.020924807587654" lon="15.145082517493409"><ele>191.0</ele><time>2026-04-26T09:19:21.999Z</time></trkpt><trkpt lat="37.02089845994315" lon="15.145383793203962"><ele>190.0</ele><time>2026-04-26T09:19:22.999Z</time></trkpt><trkpt lat="37.020869756862695" lon="15.145681353826303"><ele>189.0</ele><time>2026-04-26T09:19:23.999Z</time></trkpt><trkpt lat="37.02084044463445" lon="15.14597837279912"><ele>188.0</ele><time>2026-04-26T09:19:24.999Z</time></trkpt><trkpt lat="37.02081291823805" lon="15.146272545432744"><ele>188.0</ele><time>2026-04-26T09:19:25.999Z</time></trkpt><trkpt lat="37.02078607343812" lon="15.146568205377609"><ele>188.0</ele><time>2026-04-26T09:19:26.999Z</time></trkpt><trkpt lat="37.02076417941284" lon="15.14686661812818"><ele>188.0</ele><time>2026-04-26T09:19:27.999Z</time></trkpt><trkpt lat="37.02074813980024" lon="15.147164940960716"><ele>188.0</ele><time>2026-04-26T09:19:28.999Z</time></trkpt><trkpt lat="37.020741551386784" lon="15.147461991002833"><ele>189.0</ele><time>2026-04-26T09:19:29.999Z</time></trkpt><trkpt lat="37.020744191720624" lon="15.147760653178123"><ele>190.0</ele><time>2026-04-26T09:19:30.999Z</time></trkpt><trkpt lat="37.020753303390215" lon="15.14806359049951"><ele>189.0</ele><time>2026-04-26T09:19:31.999Z</time></trkpt><trkpt lat="37.020768500299944" lon="15.148367487429667"><ele>188.0</ele><time>2026-04-26T09:19:32.999Z</time></trkpt><trkpt lat="37.020782363985695" lon="15.148674748743593"><ele>188.0</ele><time>2026-04-26T09:19:34Z</time></trkpt><trkpt lat="37.02079342695832" lon="15.148976374581341"><ele>188.0</ele><time>2026-04-26T09:19:35Z</time></trkpt><trkpt lat="37.020804603822064" lon="15.149279354676523"><ele>181.5</ele><time>2026-04-26T09:19:36Z</time></trkpt><trkpt lat="37.020818640384014" lon="15.149590483849499"><ele>175.0</ele><time>2026-04-26T09:19:37Z</time></trkpt><trkpt lat="37.02083109768196" lon="15.149901455225969"><ele>174.0</ele><time>2026-04-26T09:19:38Z</time></trkpt><trkpt lat="37.020842768155795" lon="15.150215990887585"><ele>173.0</ele><time>2026-04-26T09:19:39Z</time></trkpt><trkpt lat="37.020855414434564" lon="15.150533456655207"><ele>170.5</ele><time>2026-04-26T09:19:40Z</time></trkpt><trkpt lat="37.020869903004794" lon="15.15085051061022"><ele>168.0</ele><time>2026-04-26T09:19:41Z</time></trkpt><trkpt lat="37.02088339927974" lon="15.151159316263755"><ele>168.0</ele><time>2026-04-26T09:19:42Z</time></trkpt><trkpt lat="37.02089642629418" lon="15.15146929548024"><ele>168.0</ele><time>2026-04-26T09:19:43Z</time></trkpt><trkpt lat="37.02090850527461" lon="15.151787070144415"><ele>166.5</ele><time>2026-04-26T09:19:44Z</time></trkpt><trkpt lat="37.020919956744144" lon="15.152102896513771"><ele>165.0</ele><time>2026-04-26T09:19:45Z</time></trkpt><trkpt lat="37.02093119573767" lon="15.152416061551818"><ele>163.0</ele><time>2026-04-26T09:19:46Z</time></trkpt><trkpt lat="37.02094254534856" lon="15.152726974821855"><ele>161.0</ele><time>2026-04-26T09:19:47Z</time></trkpt><trkpt lat="37.020952964213414" lon="15.153033830917654"><ele>161.5</ele><time>2026-04-26T09:19:48Z</time></trkpt><trkpt lat="37.02096458570757" lon="15.153345741845763"><ele>162.0</ele><time>2026-04-26T09:19:49Z</time></trkpt><trkpt lat="37.020977839499096" lon="15.153657265354724"><ele>162.0</ele><time>2026-04-26T09:19:50Z</time></trkpt><trkpt lat="37.02099015206249" lon="15.153967857607421"><ele>162.0</ele><time>2026-04-26T09:19:51Z</time></trkpt><trkpt lat="37.02100059234684" lon="15.15426998665836"><ele>161.0</ele><time>2026-04-26T09:19:52Z</time></trkpt><trkpt lat="37.02100970886826" lon="15.154574796594266"><ele>160.0</ele><time>2026-04-26T09:19:53Z</time></trkpt><trkpt lat="37.02102144823028" lon="15.154881176604311"><ele>159.0</ele><time>2026-04-26T09:19:54Z</time></trkpt><trkpt lat="37.02103551091229" lon="15.155183191998203"><ele>158.0</ele><time>2026-04-26T09:19:55Z</time></trkpt><trkpt lat="37.02105098722746" lon="15.155496409842355"><ele>157.0</ele><time>2026-04-26T09:19:56Z</time></trkpt><trkpt lat="37.021064463662896" lon="15.155795851821898"><ele>156.0</ele><time>2026-04-26T09:19:57Z</time></trkpt><trkpt lat="37.02108170907637" lon="15.1561080211218"><ele>156.0</ele><time>2026-04-26T09:19:58Z</time></trkpt><trkpt lat="37.0211145890224" lon="15.156414444960829"><ele>156.0</ele><time>2026-04-26T09:19:59Z</time></trkpt><trkpt lat="37.02116861259002" lon="15.156718059820074"><ele>155.0</ele><time>2026-04-26T09:20:00Z</time></trkpt><trkpt lat="37.02123540994158" lon="15.15702087102544"><ele>154.0</ele><time>2026-04-26T09:20:01Z</time></trkpt><trkpt lat="37.02132305492764" lon="15.157311275870565"><ele>154.0</ele><time>2026-04-26T09:20:02Z</time></trkpt><trkpt lat="37.02142832624105" lon="15.157591612205342"><ele>154.0</ele><time>2026-04-26T09:20:03Z</time></trkpt><trkpt lat="37.02155323034194" lon="15.15786573046941"><ele>152.5</ele><time>2026-04-26T09:20:04Z</time></trkpt><trkpt lat="37.02169473172014" lon="15.158125982103536"><ele>151.0</ele><time>2026-04-26T09:20:05Z</time></trkpt><trkpt lat="37.02184794962081" lon="15.158377511820756"><ele>150.5</ele><time>2026-04-26T09:20:06Z</time></trkpt><trkpt lat="37.02201604230583" lon="15.158623120394992"><ele>150.0</ele><time>2026-04-26T09:20:07Z</time></trkpt><trkpt lat="37.02219274999464" lon="15.158856819491447"><ele>150.0</ele><time>2026-04-26T09:20:08Z</time></trkpt><trkpt lat="37.02236890155831" lon="15.159089111406423"><ele>150.0</ele><time>2026-04-26T09:20:09Z</time></trkpt><trkpt lat="37.022548799367385" lon="15.159322818150908"><ele>145.0</ele><time>2026-04-26T09:20:10Z</time></trkpt><trkpt lat="37.02272322439375" lon="15.159556852189203"><ele>140.0</ele><time>2026-04-26T09:20:11Z</time></trkpt><trkpt lat="37.022890266751006" lon="15.159795693500303"><ele>141.5</ele><time>2026-04-26T09:20:12Z</time></trkpt><trkpt lat="37.02304446115088" lon="15.160044033181233"><ele>143.0</ele><time>2026-04-26T09:20:13Z</time></trkpt><trkpt lat="37.023187724034365" lon="15.16030160965368"><ele>137.0</ele><time>2026-04-26T09:20:14Z</time></trkpt><trkpt lat="37.023321712320644" lon="15.160563225329012"><ele>131.0</ele><time>2026-04-26T09:20:15Z</time></trkpt><trkpt lat="37.02344321146119" lon="15.160835713621028"><ele>131.0</ele><time>2026-04-26T09:20:16Z</time></trkpt><trkpt lat="37.02355071668624" lon="15.161116778984388"><ele>131.0</ele><time>2026-04-26T09:20:17Z</time></trkpt><trkpt lat="37.02364723234756" lon="15.161403487827732"><ele>128.5</ele><time>2026-04-26T09:20:18Z</time></trkpt><trkpt lat="37.02373222321068" lon="15.161692647310815"><ele>126.0</ele><time>2026-04-26T09:20:19Z</time></trkpt><trkpt lat="37.0238100309609" lon="15.161983001843376"><ele>126.0</ele><time>2026-04-26T09:20:20Z</time></trkpt><trkpt lat="37.02388401486594" lon="15.162279179495949"><ele>126.0</ele><time>2026-04-26T09:20:21Z</time></trkpt><trkpt lat="37.02395651411283" lon="15.162575209879565"><ele>119.5</ele><time>2026-04-26T09:20:22Z</time></trkpt><trkpt lat="37.02403550708783" lon="15.162874624145296"><ele>113.0</ele><time>2026-04-26T09:20:23Z</time></trkpt><trkpt lat="37.02411860102057" lon="15.163183265816881"><ele>109.0</ele><time>2026-04-26T09:20:24Z</time></trkpt><trkpt lat="37.024205830066066" lon="15.16351102264068"><ele>105.0</ele><time>2026-04-26T09:20:25Z</time></trkpt><trkpt lat="37.024296211218775" lon="15.163854057856375"><ele>102.5</ele><time>2026-04-26T09:20:26Z</time></trkpt><trkpt lat="37.024385786153104" lon="15.164189381070909"><ele>100.0</ele><time>2026-04-26T09:20:27Z</time></trkpt><trkpt lat="37.02447292801867" lon="15.164517811131068"><ele>100.0</ele><time>2026-04-26T09:20:28Z</time></trkpt><trkpt lat="37.024554921293756" lon="15.164834975738717"><ele>100.0</ele><time>2026-04-26T09:20:29Z</time></trkpt><trkpt lat="37.02463454967124" lon="15.16514976146918"><ele>97.5</ele><time>2026-04-26T09:20:30Z</time></trkpt><trkpt lat="37.02471240945483" lon="15.16545183758468"><ele>95.0</ele><time>2026-04-26T09:20:31Z</time></trkpt><trkpt lat="37.02479436304629" lon="15.165749065014467"><ele>93.5</ele><time>2026-04-26T09:20:32Z</time></trkpt><trkpt lat="37.02487665565745" lon="15.166039715481864"><ele>92.0</ele><time>2026-04-26T09:20:33Z</time></trkpt><trkpt lat="37.02495656458348" lon="15.166328435478208"><ele>92.0</ele><time>2026-04-26T09:20:34Z</time></trkpt><trkpt lat="37.02503503466963" lon="15.166620836389738"><ele>92.0</ele><time>2026-04-26T09:20:35Z</time></trkpt><trkpt lat="37.02511506879946" lon="15.166918216213443"><ele>92.0</ele><time>2026-04-26T09:20:36Z</time></trkpt><trkpt lat="37.02519080215487" lon="15.16721306670407"><ele>92.0</ele><time>2026-04-26T09:20:37Z</time></trkpt><trkpt lat="37.02526733174414" lon="15.16750697664431"><ele>91.0</ele><time>2026-04-26T09:20:38Z</time></trkpt><trkpt lat="37.02534481782004" lon="15.167799030530036"><ele>90.0</ele><time>2026-04-26T09:20:39Z</time></trkpt><trkpt lat="37.02542044104723" lon="15.168095868720082"><ele>87.5</ele><time>2026-04-26T09:20:40Z</time></trkpt><trkpt lat="37.025499589122" lon="15.168400285287872"><ele>85.0</ele><time>2026-04-26T09:20:41Z</time></trkpt><trkpt lat="37.025582520282676" lon="15.168703827065965"><ele>85.0</ele><time>2026-04-26T09:20:42Z</time></trkpt><trkpt lat="37.025668321575374" lon="15.169003300516751"><ele>85.0</ele><time>2026-04-26T09:20:42.999Z</time></trkpt><trkpt lat="37.025753479814" lon="15.169301709765403"><ele>84.0</ele><time>2026-04-26T09:20:43.999Z</time></trkpt><trkpt lat="37.0258417117557" lon="15.169599438528813"><ele>83.0</ele><time>2026-04-26T09:20:44.999Z</time></trkpt><trkpt lat="37.025932375451276" lon="15.169898883675534"><ele>82.5</ele><time>2026-04-26T09:20:45.999Z</time></trkpt><trkpt lat="37.02603314828906" lon="15.17020137277329"><ele>82.0</ele><time>2026-04-26T09:20:46.999Z</time></trkpt><trkpt lat="37.02614885158639" lon="15.170512666348383"><ele>80.5</ele><time>2026-04-26T09:20:47.999Z</time></trkpt><trkpt lat="37.02624767651878" lon="15.170825961514666"><ele>79.0</ele><time>2026-04-26T09:20:48.999Z</time></trkpt><trkpt lat="37.02636788618369" lon="15.17112552546069"><ele>79.0</ele><time>2026-04-26T09:20:49.999Z</time></trkpt><trkpt lat="37.026487188106124" lon="15.171422711371363"><ele>79.0</ele><time>2026-04-26T09:20:50.999Z</time></trkpt><trkpt lat="37.0266093083665" lon="15.171722112469189"><ele>77.0</ele><time>2026-04-26T09:20:51.999Z</time></trkpt><trkpt lat="37.02675220837988" lon="15.172017403357463"><ele>75.0</ele><time>2026-04-26T09:20:52.999Z</time></trkpt><trkpt lat="37.02687948869264" lon="15.1723244352409"><ele>75.0</ele><time>2026-04-26T09:20:53.999Z</time></trkpt><trkpt lat="37.02700552627017" lon="15.172637571753514"><ele>75.0</ele><time>2026-04-26T09:20:54.999Z</time></trkpt><trkpt lat="37.02713081784301" lon="15.172949728920745"><ele>73.5</ele><time>2026-04-26T09:20:55.999Z</time></trkpt><trkpt lat="37.0272579807167" lon="15.173258729190533"><ele>72.0</ele><time>2026-04-26T09:20:56.999Z</time></trkpt><trkpt lat="37.02737047041355" lon="15.173574609594814"><ele>72.0</ele><time>2026-04-26T09:20:57.999Z</time></trkpt><trkpt lat="37.027495663704656" lon="15.173881271007549"><ele>72.0</ele><time>2026-04-26T09:20:58.999Z</time></trkpt><trkpt lat="37.027619578307885" lon="15.174184800218907"><ele>71.0</ele><time>2026-04-26T09:20:59.999Z</time></trkpt><trkpt lat="37.02774175985927" lon="15.17448408434114"><ele>70.0</ele><time>2026-04-26T09:21:00.999Z</time></trkpt><trkpt lat="37.027859085731535" lon="15.17477147445674"><ele>69.0</ele><time>2026-04-26T09:21:01.999Z</time></trkpt><trkpt lat="37.02797869107599" lon="15.175064448351135"><ele>68.0</ele><time>2026-04-26T09:21:02.999Z</time></trkpt><trkpt lat="37.028097819434564" lon="15.175355080335668"><ele>68.0</ele><time>2026-04-26T09:21:03.999Z</time></trkpt><trkpt lat="37.028216838867166" lon="15.175645661650814"><ele>68.0</ele><time>2026-04-26T09:21:04.999Z</time></trkpt><trkpt lat="37.0283368005003" lon="15.175938543305094"><ele>66.5</ele><time>2026-04-26T09:21:05.999Z</time></trkpt><trkpt lat="37.02845699426795" lon="15.176231991706828"><ele>65.0</ele><time>2026-04-26T09:21:06.999Z</time></trkpt><trkpt lat="37.02857676509838" lon="15.176526808395273"><ele>63.5</ele><time>2026-04-26T09:21:07.999Z</time></trkpt><trkpt lat="37.0286941702608" lon="15.176815830828419"><ele>62.0</ele><time>2026-04-26T09:21:08.999Z</time></trkpt><trkpt lat="37.028812583182685" lon="15.177107334086903"><ele>61.5</ele><time>2026-04-26T09:21:09.999Z</time></trkpt><trkpt lat="37.02893307841688" lon="15.177396773384315"><ele>61.0</ele><time>2026-04-26T09:21:10.999Z</time></trkpt><trkpt lat="37.02906843224333" lon="15.177676860006214"><ele>61.0</ele><time>2026-04-26T09:21:11.999Z</time></trkpt><trkpt lat="37.02919056555758" lon="15.177971228011108"><ele>61.0</ele><time>2026-04-26T09:21:12.999Z</time></trkpt><trkpt lat="37.02930959946233" lon="15.178260634104562"><ele>60.0</ele><time>2026-04-26T09:21:13.999Z</time></trkpt><trkpt lat="37.0294274944726" lon="15.178551115865956"><ele>59.0</ele><time>2026-04-26T09:21:14.999Z</time></trkpt><trkpt lat="37.02954664697092" lon="15.178838542579975"><ele>58.5</ele><time>2026-04-26T09:21:15.999Z</time></trkpt><trkpt lat="37.02967310646664" lon="15.179120169768575"><ele>58.0</ele><time>2026-04-26T09:21:16.999Z</time></trkpt><trkpt lat="37.02980181718464" lon="15.17940533521887"><ele>58.0</ele><time>2026-04-26T09:21:17.999Z</time></trkpt><trkpt lat="37.02995301698917" lon="15.179676268280353"><ele>58.0</ele><time>2026-04-26T09:21:18.999Z</time></trkpt><trkpt lat="37.03010649064073" lon="15.179943175732612"><ele>57.0</ele><time>2026-04-26T09:21:19.999Z</time></trkpt><trkpt lat="37.030262609401014" lon="15.180210278166875"><ele>56.0</ele><time>2026-04-26T09:21:20.999Z</time></trkpt><trkpt lat="37.030418136499236" lon="15.180473994991933"><ele>55.0</ele><time>2026-04-26T09:21:21.999Z</time></trkpt><trkpt lat="37.03057357070056" lon="15.180736979404037"><ele>54.0</ele><time>2026-04-26T09:21:22.999Z</time></trkpt><trkpt lat="37.030731599059976" lon="15.181003540627422"><ele>54.0</ele><time>2026-04-26T09:21:23.999Z</time></trkpt><trkpt lat="37.0308951861866" lon="15.181279478240812"><ele>54.0</ele><time>2026-04-26T09:21:24.999Z</time></trkpt><trkpt lat="37.031061858108565" lon="15.181560619264776"><ele>54.0</ele><time>2026-04-26T09:21:25.999Z</time></trkpt><trkpt lat="37.03124240250401" lon="15.181831001918408"><ele>54.0</ele><time>2026-04-26T09:21:26.999Z</time></trkpt><trkpt lat="37.03139202954014" lon="15.182121001537025"><ele>53.5</ele><time>2026-04-26T09:21:27.999Z</time></trkpt><trkpt lat="37.03155280483411" lon="15.182397512420842"><ele>53.0</ele><time>2026-04-26T09:21:28.999Z</time></trkpt><trkpt lat="37.03170938751513" lon="15.182670016078411"><ele>54.5</ele><time>2026-04-26T09:21:29.999Z</time></trkpt><trkpt lat="37.03186505380648" lon="15.182944506232829"><ele>56.0</ele><time>2026-04-26T09:21:30.999Z</time></trkpt><trkpt lat="37.03201380542223" lon="15.183225864442026"><ele>56.0</ele><time>2026-04-26T09:21:31.999Z</time></trkpt><trkpt lat="37.032151841824835" lon="15.183511090299145"><ele>56.0</ele><time>2026-04-26T09:21:32.999Z</time></trkpt><trkpt lat="37.03227768122465" lon="15.183800868478112"><ele>55.5</ele><time>2026-04-26T09:21:33.999Z</time></trkpt><trkpt lat="37.032402367969276" lon="15.184092487878715"><ele>55.0</ele><time>2026-04-26T09:21:34.999Z</time></trkpt><trkpt lat="37.032502812670145" lon="15.184404683228161"><ele>56.0</ele><time>2026-04-26T09:21:35.999Z</time></trkpt><trkpt lat="37.032596966990376" lon="15.184724468341477"><ele>57.0</ele><time>2026-04-26T09:21:36.999Z</time></trkpt><trkpt lat="37.0326803993218" lon="15.185049012687118"><ele>57.0</ele><time>2026-04-26T09:21:37.999Z</time></trkpt><trkpt lat="37.03275764804761" lon="15.185379596394117"><ele>57.0</ele><time>2026-04-26T09:21:38.999Z</time></trkpt><trkpt lat="37.032831815116104" lon="15.185715819786436"><ele>56.0</ele><time>2026-04-26T09:21:40Z</time></trkpt><trkpt lat="37.032906830709415" lon="15.186054455922907"><ele>55.0</ele><time>2026-04-26T09:21:41Z</time></trkpt><trkpt lat="37.032986772741054" lon="15.186391137626151"><ele>54.5</ele><time>2026-04-26T09:21:42Z</time></trkpt><trkpt lat="37.0330568533154" lon="15.186731344325445"><ele>54.0</ele><time>2026-04-26T09:21:43Z</time></trkpt><trkpt lat="37.03316030997815" lon="15.187051901401594"><ele>53.0</ele><time>2026-04-26T09:21:44Z</time></trkpt><trkpt lat="37.03325685575356" lon="15.187376416677232"><ele>52.0</ele><time>2026-04-26T09:21:45Z</time></trkpt><trkpt lat="37.03336729275348" lon="15.187693052541555"><ele>50.0</ele><time>2026-04-26T09:21:46Z</time></trkpt><trkpt lat="37.0334936649665" lon="15.187999276351754"><ele>48.0</ele><time>2026-04-26T09:21:47Z</time></trkpt><trkpt lat="37.03362848579571" lon="15.188326841807298"><ele>46.0</ele><time>2026-04-26T09:21:48Z</time></trkpt><trkpt lat="37.03378967567279" lon="15.188677249946357"><ele>44.0</ele><time>2026-04-26T09:21:49Z</time></trkpt><trkpt lat="37.033960781213885" lon="15.189052652309714"><ele>43.0</ele><time>2026-04-26T09:21:50Z</time></trkpt><trkpt lat="37.034119268025805" lon="15.189401945492166"><ele>42.0</ele><time>2026-04-26T09:21:51Z</time></trkpt><trkpt lat="37.034267730560394" lon="15.189728851848088"><ele>40.5</ele><time>2026-04-26T09:21:52Z</time></trkpt><trkpt lat="37.03441264973022" lon="15.1900479090709"><ele>39.0</ele><time>2026-04-26T09:21:53Z</time></trkpt><trkpt lat="37.03456889980098" lon="15.190356791602124"><ele>39.0</ele><time>2026-04-26T09:21:54Z</time></trkpt><trkpt lat="37.034711448875285" lon="15.190673459038546"><ele>39.0</ele><time>2026-04-26T09:21:55Z</time></trkpt><trkpt lat="37.03485755764177" lon="15.190990985301587"><ele>39.5</ele><time>2026-04-26T09:21:56Z</time></trkpt><trkpt lat="37.035005875021014" lon="15.191308679791536"><ele>40.0</ele><time>2026-04-26T09:21:57Z</time></trkpt><trkpt lat="37.03515424512384" lon="15.191629478742284"><ele>40.0</ele><time>2026-04-26T09:21:58Z</time></trkpt><trkpt lat="37.03528595835435" lon="15.191968739167633"><ele>40.0</ele><time>2026-04-26T09:21:59Z</time></trkpt><trkpt lat="37.03544194739408" lon="15.192302505834332"><ele>40.0</ele><time>2026-04-26T09:22:00Z</time></trkpt><trkpt lat="37.03561200835527" lon="15.192619462314296"><ele>40.0</ele><time>2026-04-26T09:22:01Z</time></trkpt><trkpt lat="37.035745226525925" lon="15.192938153928708"><ele>41.5</ele><time>2026-04-26T09:22:02Z</time></trkpt><trkpt lat="37.0358926091132" lon="15.193250492869836"><ele>43.0</ele><time>2026-04-26T09:22:03Z</time></trkpt><trkpt lat="37.03604526364626" lon="15.1935730998963"><ele>43.0</ele><time>2026-04-26T09:22:04Z</time></trkpt><trkpt lat="37.036196598786134" lon="15.193886370813534"><ele>43.0</ele><time>2026-04-26T09:22:05Z</time></trkpt><trkpt lat="37.036345910900074" lon="15.19419545389973"><ele>44.0</ele><time>2026-04-26T09:22:06Z</time></trkpt><trkpt lat="37.0364945765429" lon="15.194503198603954"><ele>45.0</ele><time>2026-04-26T09:22:07Z</time></trkpt><trkpt lat="37.0366404251296" lon="15.194802390276962"><ele>45.0</ele><time>2026-04-26T09:22:08Z</time></trkpt><trkpt lat="37.036803034132845" lon="15.19510005971083"><ele>45.0</ele><time>2026-04-26T09:22:09Z</time></trkpt><trkpt lat="37.036952088316376" lon="15.195418046858162"><ele>45.0</ele><time>2026-04-26T09:22:10Z</time></trkpt><trkpt lat="37.037102683222535" lon="15.195732070579476"><ele>45.0</ele><time>2026-04-26T09:22:11Z</time></trkpt><trkpt lat="37.03724908987857" lon="15.19603859639245"><ele>45.0</ele><time>2026-04-26T09:22:12Z</time></trkpt><trkpt lat="37.037395761057255" lon="15.196349221764319"><ele>45.0</ele><time>2026-04-26T09:22:13Z</time></trkpt><trkpt lat="37.037540149227276" lon="15.196659081886622"><ele>45.0</ele><time>2026-04-26T09:22:14Z</time></trkpt><trkpt lat="37.03768820297898" lon="15.196973462948078"><ele>45.0</ele><time>2026-04-26T09:22:15Z</time></trkpt><trkpt lat="37.03783833349614" lon="15.197290899703965"><ele>45.5</ele><time>2026-04-26T09:22:16Z</time></trkpt><trkpt lat="37.037991178800965" lon="15.197610156506977"><ele>46.0</ele><time>2026-04-26T09:22:17Z</time></trkpt><trkpt lat="37.0381430086533" lon="15.197928192025168"><ele>46.0</ele><time>2026-04-26T09:22:18Z</time></trkpt><trkpt lat="37.038294522883895" lon="15.198250933270408"><ele>46.0</ele><time>2026-04-26T09:22:19Z</time></trkpt><trkpt lat="37.03845166384868" lon="15.198588757724936"><ele>46.0</ele><time>2026-04-26T09:22:20Z</time></trkpt><trkpt lat="37.0386139538578" lon="15.198944303001639"><ele>46.0</ele><time>2026-04-26T09:22:21Z</time></trkpt><trkpt lat="37.03876979045842" lon="15.199285211081957"><ele>45.0</ele><time>2026-04-26T09:22:22Z</time></trkpt><trkpt lat="37.03891791271967" lon="15.199613978114813"><ele>44.0</ele><time>2026-04-26T09:22:23Z</time></trkpt><trkpt lat="37.03906599506446" lon="15.199943374452223"><ele>43.5</ele><time>2026-04-26T09:22:24Z</time></trkpt><trkpt lat="37.03920930808679" lon="15.200267458987467"><ele>43.0</ele><time>2026-04-26T09:22:25Z</time></trkpt><trkpt lat="37.039352816253114" lon="15.200589467973973"><ele>42.5</ele><time>2026-04-26T09:22:26Z</time></trkpt><trkpt lat="37.03949410325646" lon="15.200902689077846"><ele>42.0</ele><time>2026-04-26T09:22:27Z</time></trkpt><trkpt lat="37.03963650398737" lon="15.201217079918091"><ele>41.0</ele><time>2026-04-26T09:22:28Z</time></trkpt><trkpt lat="37.03977738486285" lon="15.20152978498969"><ele>40.0</ele><time>2026-04-26T09:22:29Z</time></trkpt><trkpt lat="37.03991986829824" lon="15.20184122157416"><ele>40.5</ele><time>2026-04-26T09:22:30Z</time></trkpt><trkpt lat="37.04006710465856" lon="15.202145743108765"><ele>41.0</ele><time>2026-04-26T09:22:31Z</time></trkpt><trkpt lat="37.0402194393466" lon="15.202435431491274"><ele>41.0</ele><time>2026-04-26T09:22:32Z</time></trkpt><trkpt lat="37.04038660610423" lon="15.20271308487054"><ele>41.0</ele><time>2026-04-26T09:22:33Z</time></trkpt><trkpt lat="37.040567621555276" lon="15.202980139143445"><ele>40.5</ele><time>2026-04-26T09:22:34Z</time></trkpt><trkpt lat="37.040768577374756" lon="15.203236373922358"><ele>40.0</ele><time>2026-04-26T09:22:35Z</time></trkpt><trkpt lat="37.04098327823428" lon="15.203473257186793"><ele>39.5</ele><time>2026-04-26T09:22:36Z</time></trkpt><trkpt lat="37.04120673099104" lon="15.203700772394491"><ele>39.0</ele><time>2026-04-26T09:22:37Z</time></trkpt><trkpt lat="37.04144491318778" lon="15.203934274015728"><ele>39.0</ele><time>2026-04-26T09:22:38Z</time></trkpt><trkpt lat="37.04168341215766" lon="15.204167919847265"><ele>39.0</ele><time>2026-04-26T09:22:39Z</time></trkpt><trkpt lat="37.04192185900173" lon="15.204400160373101"><ele>39.0</ele><time>2026-04-26T09:22:39.999Z</time></trkpt><trkpt lat="37.04215578065457" lon="15.204629759131837"><ele>39.0</ele><time>2026-04-26T09:22:40.999Z</time></trkpt><trkpt lat="37.04238541712889" lon="15.204858026880757"><ele>39.5</ele><time>2026-04-26T09:22:41.999Z</time></trkpt><trkpt lat="37.04261361484265" lon="15.205086709801273"><ele>40.0</ele><time>2026-04-26T09:22:42.999Z</time></trkpt><trkpt lat="37.04284071501776" lon="15.205314189757274"><ele>40.0</ele><time>2026-04-26T09:22:43.999Z</time></trkpt><trkpt lat="37.043065966295075" lon="15.2055383078995"><ele>40.0</ele><time>2026-04-26T09:22:44.999Z</time></trkpt><trkpt lat="37.043292611638286" lon="15.20576334014819"><ele>41.5</ele><time>2026-04-26T09:22:45.999Z</time></trkpt><trkpt lat="37.04351677356521" lon="15.20598596820967"><ele>43.0</ele><time>2026-04-26T09:22:46.999Z</time></trkpt><trkpt lat="37.04374111707404" lon="15.20620983145445"><ele>43.0</ele><time>2026-04-26T09:22:47.999Z</time></trkpt><trkpt lat="37.043964636015396" lon="15.206435461625855"><ele>43.0</ele><time>2026-04-26T09:22:48.999Z</time></trkpt><trkpt lat="37.04417768450113" lon="15.20667038248134"><ele>43.0</ele><time>2026-04-26T09:22:49.999Z</time></trkpt><trkpt lat="37.04438132136418" lon="15.206910325935764"><ele>43.0</ele><time>2026-04-26T09:22:50.999Z</time></trkpt><trkpt lat="37.04457981308233" lon="15.207153679852128"><ele>43.0</ele><time>2026-04-26T09:22:51.999Z</time></trkpt><trkpt lat="37.044777700963344" lon="15.207407609621457"><ele>43.0</ele><time>2026-04-26T09:22:52.999Z</time></trkpt><trkpt lat="37.04497585316074" lon="15.207667307812871"><ele>43.5</ele><time>2026-04-26T09:22:53.999Z</time></trkpt><trkpt lat="37.045177066938464" lon="15.20792045479576"><ele>44.0</ele><time>2026-04-26T09:22:54.999Z</time></trkpt><trkpt lat="37.0453784959435" lon="15.20816762328389"><ele>43.0</ele><time>2026-04-26T09:22:55.999Z</time></trkpt><trkpt lat="37.04558171628479" lon="15.208411425433852"><ele>42.0</ele><time>2026-04-26T09:22:56.999Z</time></trkpt><trkpt lat="37.04578759469588" lon="15.208660307327829"><ele>42.5</ele><time>2026-04-26T09:22:57.999Z</time></trkpt><trkpt lat="37.0459957862105" lon="15.208912018091793"><ele>43.0</ele><time>2026-04-26T09:22:58.999Z</time></trkpt><trkpt lat="37.04620448246844" lon="15.209164795118275"><ele>43.0</ele><time>2026-04-26T09:22:59.999Z</time></trkpt><trkpt lat="37.046415961766044" lon="15.209420633137851"><ele>43.0</ele><time>2026-04-26T09:23:00.999Z</time></trkpt><trkpt lat="37.04662733411421" lon="15.209675711900436"><ele>42.5</ele><time>2026-04-26T09:23:01.999Z</time></trkpt><trkpt lat="37.04683996714576" lon="15.20993377697981"><ele>42.0</ele><time>2026-04-26T09:23:02.999Z</time></trkpt><trkpt lat="37.047053933361966" lon="15.2101885369823"><ele>42.0</ele><time>2026-04-26T09:23:03.999Z</time></trkpt><trkpt lat="37.04726738853572" lon="15.210445427720312"><ele>42.0</ele><time>2026-04-26T09:23:04.999Z</time></trkpt><trkpt lat="37.04747765872194" lon="15.210700185828662"><ele>41.5</ele><time>2026-04-26T09:23:05.999Z</time></trkpt><trkpt lat="37.04768773700243" lon="15.210955019094326"><ele>41.0</ele><time>2026-04-26T09:23:06.999Z</time></trkpt><trkpt lat="37.0478953903206" lon="15.21120731762282"><ele>41.0</ele><time>2026-04-26T09:23:07.999Z</time></trkpt><trkpt lat="37.04810240030142" lon="15.211461006688467"><ele>41.0</ele><time>2026-04-26T09:23:08.999Z</time></trkpt><trkpt lat="37.048298269979895" lon="15.21169862819394"><ele>41.0</ele><time>2026-04-26T09:23:09.999Z</time></trkpt><trkpt lat="37.04848217304756" lon="15.211920673711557"><ele>41.0</ele><time>2026-04-26T09:23:10.999Z</time></trkpt><trkpt lat="37.04865563219507" lon="15.212132108826918"><ele>41.0</ele><time>2026-04-26T09:23:11.999Z</time></trkpt><trkpt lat="37.048819337949475" lon="15.21233102876345"><ele>41.0</ele><time>2026-04-26T09:23:12.999Z</time></trkpt><trkpt lat="37.04897328109334" lon="15.212518577270108"><ele>41.0</ele><time>2026-04-26T09:23:13.999Z</time></trkpt><trkpt lat="37.04910855884231" lon="15.212714565300178"><ele>40.666666666666664</ele><time>2026-04-26T09:23:14.999Z</time></trkpt><trkpt lat="37.049257512789055" lon="15.21287081807834"><ele>40.333333333333336</ele><time>2026-04-26T09:23:15.999Z</time></trkpt><trkpt lat="37.049386576094356" lon="15.213035403347881"><ele>40.0</ele><time>2026-04-26T09:23:16.999Z</time></trkpt><trkpt lat="37.04949590549829" lon="15.21320609849381"><ele>40.0</ele><time>2026-04-26T09:23:17.999Z</time></trkpt><trkpt lat="37.04960631691211" lon="15.213355451458321"><ele>40.0</ele><time>2026-04-26T09:23:18.999Z</time></trkpt><trkpt lat="37.04971295884145" lon="15.21349914568224"><ele>40.0</ele><time>2026-04-26T09:23:19.999Z</time></trkpt><trkpt lat="37.04981376803201" lon="15.213634279905431"><ele>40.0</ele><time>2026-04-26T09:23:20.999Z</time></trkpt><trkpt lat="37.049920624484784" lon="15.2137497651316"><ele>40.0</ele><time>2026-04-26T09:23:21.999Z</time></trkpt><trkpt lat="37.05000254485534" lon="15.213871164660729"><ele>40.0</ele><time>2026-04-26T09:23:22.999Z</time></trkpt><trkpt lat="37.0500603240271" lon="15.213972873855765"><ele>40.0</ele><time>2026-04-26T09:23:23.999Z</time></trkpt><trkpt lat="37.050095698059586" lon="15.214075604385055"><ele>40.2</ele><time>2026-04-26T09:23:24.999Z</time></trkpt><trkpt lat="37.050112327001386" lon="15.214175981172598"><ele>40.4</ele><time>2026-04-26T09:23:25.999Z</time></trkpt><trkpt lat="37.050151050202466" lon="15.214274792733034"><ele>40.599999999999994</ele><time>2026-04-26T09:23:26.999Z</time></trkpt><trkpt lat="37.0502191343015" lon="15.214362675139508"><ele>40.8</ele><time>2026-04-26T09:23:27.999Z</time></trkpt><trkpt lat="37.05029239169543" lon="15.214449660578083"><ele>41.0</ele><time>2026-04-26T09:23:28.999Z</time></trkpt><trkpt lat="37.05037162283251" lon="15.21455982338114"><ele>41.0</ele><time>2026-04-26T09:23:29.999Z</time></trkpt><trkpt lat="37.05044924004635" lon="15.214704009774652"><ele>41.0</ele><time>2026-04-26T09:23:30.999Z</time></trkpt><trkpt lat="37.05052565756457" lon="15.214881960834452"><ele>41.0</ele><time>2026-04-26T09:23:31.999Z</time></trkpt><trkpt lat="37.05060308902374" lon="15.215088795985995"><ele>40.666666666666664</ele><time>2026-04-26T09:23:32.999Z</time></trkpt><trkpt lat="37.05068846274849" lon="15.215345624191544"><ele>40.333333333333336</ele><time>2026-04-26T09:23:33.999Z</time></trkpt><trkpt lat="37.05076218743521" lon="15.21560074854765"><ele>40.0</ele><time>2026-04-26T09:23:34.999Z</time></trkpt><trkpt lat="37.050820698478496" lon="15.215870727222505"><ele>39.0</ele><time>2026-04-26T09:23:35.999Z</time></trkpt><trkpt lat="37.05087731081992" lon="15.216156478498341"><ele>38.0</ele><time>2026-04-26T09:23:36.999Z</time></trkpt><trkpt lat="37.05094586573933" lon="15.216478774143113"><ele>38.0</ele><time>2026-04-26T09:23:37.999Z</time></trkpt><trkpt lat="37.05103557919784" lon="15.216834144876382"><ele>38.0</ele><time>2026-04-26T09:23:38.999Z</time></trkpt><trkpt lat="37.05114275676861" lon="15.217209801071613"><ele>37.0</ele><time>2026-04-26T09:23:39.999Z</time></trkpt><trkpt lat="37.05125448919202" lon="15.217540054426001"><ele>36.0</ele><time>2026-04-26T09:23:40.999Z</time></trkpt><trkpt lat="37.05136644605961" lon="15.217832711073308"><ele>36.0</ele><time>2026-04-26T09:23:41.999Z</time></trkpt><trkpt lat="37.05148670121575" lon="15.218107884121908"><ele>36.0</ele><time>2026-04-26T09:23:42.999Z</time></trkpt><trkpt lat="37.051616023904366" lon="15.21836199765699"><ele>33.5</ele><time>2026-04-26T09:23:43.999Z</time></trkpt><trkpt lat="37.051754605150485" lon="15.218610688496069"><ele>31.0</ele><time>2026-04-26T09:23:44.999Z</time></trkpt><trkpt lat="37.05190350806561" lon="15.218849095919866"><ele>29.5</ele><time>2026-04-26T09:23:46Z</time></trkpt><trkpt lat="37.05206714457179" lon="15.219087445330993"><ele>28.0</ele><time>2026-04-26T09:23:47Z</time></trkpt><trkpt lat="37.052238389949856" lon="15.219320557875074"><ele>28.0</ele><time>2026-04-26T09:23:48Z</time></trkpt><trkpt lat="37.05241283020452" lon="15.219541903137491"><ele>28.0</ele><time>2026-04-26T09:23:49Z</time></trkpt><trkpt lat="37.0525775929531" lon="15.219752916729943"><ele>25.666666666666668</ele><time>2026-04-26T09:23:50Z</time></trkpt><trkpt lat="37.05273024262467" lon="15.219957351451376"><ele>23.333333333333336</ele><time>2026-04-26T09:23:51Z</time></trkpt><trkpt lat="37.05288155563475" lon="15.220164649060143"><ele>21.0</ele><time>2026-04-26T09:23:52Z</time></trkpt><trkpt lat="37.053033666772386" lon="15.220386691189649"><ele>21.0</ele><time>2026-04-26T09:23:53Z</time></trkpt><trkpt lat="37.05318468206189" lon="15.220622720815467"><ele>21.0</ele><time>2026-04-26T09:23:54Z</time></trkpt><trkpt lat="37.05333063953877" lon="15.220880693283188"><ele>17.0</ele><time>2026-04-26T09:23:55Z</time></trkpt><trkpt lat="37.05346693420184" lon="15.221138713258515"><ele>13.0</ele><time>2026-04-26T09:23:56Z</time></trkpt><trkpt lat="37.05358629451175" lon="15.221386923945815"><ele>13.0</ele><time>2026-04-26T09:23:57Z</time></trkpt><trkpt lat="37.05369812997798" lon="15.22162500906423"><ele>13.0</ele><time>2026-04-26T09:23:58Z</time></trkpt><trkpt lat="37.05380678082805" lon="15.221849154103017"><ele>13.0</ele><time>2026-04-26T09:23:59Z</time></trkpt><trkpt lat="37.05390193719454" lon="15.222066329982194"><ele>13.0</ele><time>2026-04-26T09:24:00Z</time></trkpt><trkpt lat="37.05397904480309" lon="15.222278107525723"><ele>13.0</ele><time>2026-04-26T09:24:01Z</time></trkpt><trkpt lat="37.05403541061523" lon="15.222486036489569"><ele>13.0</ele><time>2026-04-26T09:24:02Z</time></trkpt><trkpt lat="37.05407111077494" lon="15.22268181905691"><ele>12.5</ele><time>2026-04-26T09:24:03Z</time></trkpt><trkpt lat="37.05409092879373" lon="15.222865803189297"><ele>12.0</ele><time>2026-04-26T09:24:04Z</time></trkpt><trkpt lat="37.054100341967086" lon="15.22303487050345"><ele>11.5</ele><time>2026-04-26T09:24:05Z</time></trkpt><trkpt lat="37.05410545938359" lon="15.223190260472613"><ele>11.0</ele><time>2026-04-26T09:24:06Z</time></trkpt><trkpt lat="37.05410372672475" lon="15.223326219617956"><ele>11.0</ele><time>2026-04-26T09:24:07Z</time></trkpt><trkpt lat="37.05409323828686" lon="15.223431557047842"><ele>11.0</ele><time>2026-04-26T09:24:08Z</time></trkpt><trkpt lat="37.054068745957764" lon="15.223524550061132"><ele>11.0</ele><time>2026-04-26T09:24:09Z</time></trkpt><trkpt lat="37.05403062921921" lon="15.22361791021201"><ele>11.0</ele><time>2026-04-26T09:24:10Z</time></trkpt><trkpt lat="37.05399734512438" lon="15.223714284012727"><ele>11.0</ele><time>2026-04-26T09:24:11Z</time></trkpt><trkpt lat="37.05399181630118" lon="15.223824654704094"><ele>11.0</ele><time>2026-04-26T09:24:12Z</time></trkpt><trkpt lat="37.05403655657546" lon="15.223927751922458"><ele>11.25</ele><time>2026-04-26T09:24:13Z</time></trkpt><trkpt lat="37.054130296918345" lon="15.223999200503632"><ele>11.5</ele><time>2026-04-26T09:24:14Z</time></trkpt><trkpt lat="37.05426219229047" lon="15.22406038513787"><ele>11.75</ele><time>2026-04-26T09:24:15Z</time></trkpt><trkpt lat="37.05438739346887" lon="15.224122561390912"><ele>12.0</ele><time>2026-04-26T09:24:16Z</time></trkpt><trkpt lat="37.0545005810476" lon="15.224258914225032"><ele>12.0</ele><time>2026-04-26T09:24:17Z</time></trkpt><trkpt lat="37.054613465535795" lon="15.224461476360206"><ele>12.0</ele><time>2026-04-26T09:24:18Z</time></trkpt><trkpt lat="37.05470517586012" lon="15.224683223770072"><ele>12.0</ele><time>2026-04-26T09:24:19Z</time></trkpt><trkpt lat="37.05477146044021" lon="15.224896878599395"><ele>12.0</ele><time>2026-04-26T09:24:20Z</time></trkpt><trkpt lat="37.05485815976025" lon="15.225129324073782"><ele>12.0</ele><time>2026-04-26T09:24:21Z</time></trkpt><trkpt lat="37.05495640734932" lon="15.225373523046908"><ele>12.0</ele><time>2026-04-26T09:24:22Z</time></trkpt><trkpt lat="37.05505683877716" lon="15.225598563177599"><ele>11.333333333333334</ele><time>2026-04-26T09:24:23Z</time></trkpt><trkpt lat="37.055158180496115" lon="15.225817806218549"><ele>10.666666666666668</ele><time>2026-04-26T09:24:24Z</time></trkpt><trkpt lat="37.05524932940859" lon="15.226025196585157"><ele>10.0</ele><time>2026-04-26T09:24:25Z</time></trkpt><trkpt lat="37.055319528242336" lon="15.226224967602908"><ele>10.0</ele><time>2026-04-26T09:24:26Z</time></trkpt><trkpt lat="37.05535421136882" lon="15.226417486368746"><ele>10.0</ele><time>2026-04-26T09:24:27Z</time></trkpt><trkpt lat="37.055370215692584" lon="15.226596750368293"><ele>10.0</ele><time>2026-04-26T09:24:28Z</time></trkpt><trkpt lat="37.05537928681452" lon="15.226751977302618"><ele>10.0</ele><time>2026-04-26T09:24:29Z</time></trkpt><trkpt lat="37.05537354519306" lon="15.226899112666267"><ele>10.4</ele><time>2026-04-26T09:24:30Z</time></trkpt><trkpt lat="37.05535251794854" lon="15.227018030408821"><ele>10.8</ele><time>2026-04-26T09:24:31Z</time></trkpt><trkpt lat="37.05535115786657" lon="15.227119100831992"><ele>11.2</ele><time>2026-04-26T09:24:32Z</time></trkpt><trkpt lat="37.05525585817119" lon="15.227229082172729"><ele>11.6</ele><time>2026-04-26T09:24:33Z</time></trkpt><trkpt lat="37.05524092571375" lon="15.227350280523313"><ele>12.0</ele><time>2026-04-26T09:24:34Z</time></trkpt><trkpt lat="37.055276174447506" lon="15.22746763601872"><ele>10.75</ele><time>2026-04-26T09:24:35Z</time></trkpt><trkpt lat="37.055359900344996" lon="15.227548729549389"><ele>9.5</ele><time>2026-04-26T09:24:36Z</time></trkpt><trkpt lat="37.055470628667926" lon="15.227650181232175"><ele>8.25</ele><time>2026-04-26T09:24:37Z</time></trkpt><trkpt lat="37.055618411207206" lon="15.227651197518025"><ele>7.0</ele><time>2026-04-26T09:24:38Z</time></trkpt><trkpt lat="37.05573464354244" lon="15.22773898311473"><ele>7.25</ele><time>2026-04-26T09:24:39Z</time></trkpt><trkpt lat="37.0558370198405" lon="15.227854922069097"><ele>7.5</ele><time>2026-04-26T09:24:40Z</time></trkpt><trkpt lat="37.055944566199216" lon="15.22797009256892"><ele>7.75</ele><time>2026-04-26T09:24:41Z</time></trkpt><trkpt lat="37.05605327788769" lon="15.228083549371371"><ele>8.0</ele><time>2026-04-26T09:24:42Z</time></trkpt><trkpt lat="37.056161733701366" lon="15.22819753924927"><ele>8.25</ele><time>2026-04-26T09:24:43Z</time></trkpt><trkpt lat="37.056276233503326" lon="15.228311784603886"><ele>8.5</ele><time>2026-04-26T09:24:44Z</time></trkpt><trkpt lat="37.056395776232826" lon="15.228417668872718"><ele>8.75</ele><time>2026-04-26T09:24:45Z</time></trkpt><trkpt lat="37.05651510728704" lon="15.228514925018064"><ele>9.0</ele><time>2026-04-26T09:24:46Z</time></trkpt><trkpt lat="37.05663502450041" lon="15.228609756071144"><ele>9.0</ele><time>2026-04-26T09:24:47Z</time></trkpt><trkpt lat="37.05674894187442" lon="15.228713081847085"><ele>9.0</ele><time>2026-04-26T09:24:48Z</time></trkpt><trkpt lat="37.05684373612286" lon="15.228841068204073"><ele>9.0</ele><time>2026-04-26T09:24:49Z</time></trkpt><trkpt lat="37.0569390962707" lon="15.228962801019518"><ele>9.0</ele><time>2026-04-26T09:24:50Z</time></trkpt><trkpt lat="37.0570398862274" lon="15.229075270673457"><ele>9.75</ele><time>2026-04-26T09:24:50.999Z</time></trkpt><trkpt lat="37.057125810676794" lon="15.229203613717848"><ele>10.5</ele><time>2026-04-26T09:24:51.999Z</time></trkpt><trkpt lat="37.057214970694126" lon="15.229326029634409"><ele>11.25</ele><time>2026-04-26T09:24:52.999Z</time></trkpt><trkpt lat="37.05730510130215" lon="15.229441551074107"><ele>12.0</ele><time>2026-04-26T09:24:53.999Z</time></trkpt><trkpt lat="37.05737975865963" lon="15.229543690514301"><ele>12.75</ele><time>2026-04-26T09:24:54.999Z</time></trkpt><trkpt lat="37.05745280228091" lon="15.229641843031137"><ele>13.5</ele><time>2026-04-26T09:24:55.999Z</time></trkpt><trkpt lat="37.05752774310138" lon="15.22974261722293"><ele>14.25</ele><time>2026-04-26T09:24:56.999Z</time></trkpt><trkpt lat="37.05760918343981" lon="15.22984663900349"><ele>15.0</ele><time>2026-04-26T09:24:57.999Z</time></trkpt><trkpt lat="37.0576966598135" lon="15.229954939505014"><ele>15.8</ele><time>2026-04-26T09:24:58.999Z</time></trkpt><trkpt lat="37.057786872337424" lon="15.230050694030412"><ele>16.6</ele><time>2026-04-26T09:24:59.999Z</time></trkpt><trkpt lat="37.057852552161755" lon="15.2301473522545"><ele>17.4</ele><time>2026-04-26T09:25:00.999Z</time></trkpt><trkpt lat="37.057931188172034" lon="15.230223247178493"><ele>18.2</ele><time>2026-04-26T09:25:01.999Z</time></trkpt><trkpt lat="37.05800392520091" lon="15.230288993455211"><ele>19.0</ele><time>2026-04-26T09:25:02.999Z</time></trkpt><trkpt lat="37.058089999811884" lon="15.23036214267775"><ele>19.0</ele><time>2026-04-26T09:25:03.999Z</time></trkpt><trkpt lat="37.0581873280139" lon="15.230441636592987"><ele>19.0</ele><time>2026-04-26T09:25:04.999Z</time></trkpt><trkpt lat="37.058295658281146" lon="15.23053000127397"><ele>19.0</ele><time>2026-04-26T09:25:05.999Z</time></trkpt><trkpt lat="37.05841259931852" lon="15.230630949876613"><ele>19.0</ele><time>2026-04-26T09:25:06.999Z</time></trkpt><trkpt lat="37.05852055557833" lon="15.230723554785673"><ele>18.75</ele><time>2026-04-26T09:25:07.999Z</time></trkpt><trkpt lat="37.058635507326336" lon="15.230822160435132"><ele>18.5</ele><time>2026-04-26T09:25:08.999Z</time></trkpt><trkpt lat="37.05875190896492" lon="15.230922009796442"><ele>18.25</ele><time>2026-04-26T09:25:09.999Z</time></trkpt><trkpt lat="37.05886927760638" lon="15.231023492014188"><ele>18.0</ele><time>2026-04-26T09:25:10.999Z</time></trkpt><trkpt lat="37.058987271046306" lon="15.231126754755012"><ele>18.0</ele><time>2026-04-26T09:25:11.999Z</time></trkpt><trkpt lat="37.05911039958013" lon="15.231224576828255"><ele>18.0</ele><time>2026-04-26T09:25:12.999Z</time></trkpt><trkpt lat="37.05922194729628" lon="15.231350427234107"><ele>18.0</ele><time>2026-04-26T09:25:13.999Z</time></trkpt><trkpt lat="37.05932499926726" lon="15.231499127991619"><ele>16.333333333333332</ele><time>2026-04-26T09:25:14.999Z</time></trkpt><trkpt lat="37.05943523194774" lon="15.231664703415952"><ele>14.666666666666666</ele><time>2026-04-26T09:25:15.999Z</time></trkpt><trkpt lat="37.05952442033269" lon="15.231845893517312"><ele>13.0</ele><time>2026-04-26T09:25:16.999Z</time></trkpt><trkpt lat="37.0596127056638" lon="15.232029466069937"><ele>13.0</ele><time>2026-04-26T09:25:17.999Z</time></trkpt><trkpt lat="37.0596922612858" lon="15.232199910454185"><ele>13.0</ele><time>2026-04-26T09:25:18.999Z</time></trkpt><trkpt lat="37.05976637481706" lon="15.232358695381706"><ele>13.0</ele><time>2026-04-26T09:25:19.999Z</time></trkpt><trkpt lat="37.05983466529731" lon="15.232505004683592"><ele>13.0</ele><time>2026-04-26T09:25:20.999Z</time></trkpt><trkpt lat="37.05989943598243" lon="15.232643772955353"><ele>12.75</ele><time>2026-04-26T09:25:21.999Z</time></trkpt><trkpt lat="37.05996547689807" lon="15.23278526266922"><ele>12.5</ele><time>2026-04-26T09:25:22.999Z</time></trkpt><trkpt lat="37.060027466156626" lon="15.232918071886555"><ele>12.25</ele><time>2026-04-26T09:25:23.999Z</time></trkpt><trkpt lat="37.06009076318199" lon="15.233053496841752"><ele>12.0</ele><time>2026-04-26T09:25:24.999Z</time></trkpt><trkpt lat="37.06015472985276" lon="15.233188353841696"><ele>12.0</ele><time>2026-04-26T09:25:25.999Z</time></trkpt><trkpt lat="37.06021860326524" lon="15.233323014231328"><ele>12.0</ele><time>2026-04-26T09:25:26.999Z</time></trkpt><trkpt lat="37.06027652307611" lon="15.233445123015441"><ele>12.0</ele><time>2026-04-26T09:25:27.999Z</time></trkpt><trkpt lat="37.060335597051534" lon="15.233569665041765"><ele>12.0</ele><time>2026-04-26T09:25:28.999Z</time></trkpt><trkpt lat="37.06039541753356" lon="15.233696154665637"><ele>12.0</ele><time>2026-04-26T09:25:29.999Z</time></trkpt><trkpt lat="37.06045868991844" lon="15.233830731653134"><ele>12.0</ele><time>2026-04-26T09:25:30.999Z</time></trkpt><trkpt lat="37.06052326686406" lon="15.233968083381074"><ele>12.0</ele><time>2026-04-26T09:25:31.999Z</time></trkpt><trkpt lat="37.060589451276336" lon="15.234108957170582"><ele>12.0</ele><time>2026-04-26T09:25:32.999Z</time></trkpt><trkpt lat="37.060656010145415" lon="15.234253686026157"><ele>12.0</ele><time>2026-04-26T09:25:33.999Z</time></trkpt><trkpt lat="37.06072411567091" lon="15.234401778007554"><ele>12.0</ele><time>2026-04-26T09:25:34.999Z</time></trkpt><trkpt lat="37.060791067248324" lon="15.234553977946085"><ele>12.0</ele><time>2026-04-26T09:25:35.999Z</time></trkpt><trkpt lat="37.06085271918812" lon="15.234718199162003"><ele>12.0</ele><time>2026-04-26T09:25:36.999Z</time></trkpt><trkpt lat="37.06090830335249" lon="15.234915330618279"><ele>11.666666666666666</ele><time>2026-04-26T09:25:37.999Z</time></trkpt><trkpt lat="37.06097463849113" lon="15.235147856965236"><ele>11.333333333333332</ele><time>2026-04-26T09:25:38.999Z</time></trkpt><trkpt lat="37.06100632363492" lon="15.235383922644125"><ele>11.0</ele><time>2026-04-26T09:25:39.999Z</time></trkpt><trkpt lat="37.061027464913984" lon="15.23558664686652"><ele>11.0</ele><time>2026-04-26T09:25:40.999Z</time></trkpt><trkpt lat="37.061044034255296" lon="15.235776723638725"><ele>11.0</ele><time>2026-04-26T09:25:41.999Z</time></trkpt><trkpt lat="37.061072542867095" lon="15.235962829670047"><ele>11.0</ele><time>2026-04-26T09:25:42.999Z</time></trkpt><trkpt lat="37.06110753297399" lon="15.236141190562916"><ele>11.0</ele><time>2026-04-26T09:25:43.999Z</time></trkpt><trkpt lat="37.061144660352305" lon="15.236318027568906"><ele>11.0</ele><time>2026-04-26T09:25:44.999Z</time></trkpt><trkpt lat="37.061191061994144" lon="15.236535334280518"><ele>11.0</ele><time>2026-04-26T09:25:45.999Z</time></trkpt><trkpt lat="37.06126008668473" lon="15.236807826982913"><ele>11.0</ele><time>2026-04-26T09:25:46.999Z</time></trkpt><trkpt lat="37.061315073630816" lon="15.23707627094137"><ele>11.0</ele><time>2026-04-26T09:25:47.999Z</time></trkpt><trkpt lat="37.061367404951866" lon="15.237306267564009"><ele>11.0</ele><time>2026-04-26T09:25:48.999Z</time></trkpt><trkpt lat="37.06142391978524" lon="15.237527064067988"><ele>11.0</ele><time>2026-04-26T09:25:49.999Z</time></trkpt><trkpt lat="37.06148590038113" lon="15.237730892095373"><ele>11.0</ele><time>2026-04-26T09:25:50.999Z</time></trkpt><trkpt lat="37.06157314960635" lon="15.237926444674194"><ele>11.0</ele><time>2026-04-26T09:25:52Z</time></trkpt><trkpt lat="37.061688423287166" lon="15.238151145786135"><ele>10.5</ele><time>2026-04-26T09:25:53Z</time></trkpt><trkpt lat="37.061807018107345" lon="15.238399640265923"><ele>10.0</ele><time>2026-04-26T09:25:54Z</time></trkpt><trkpt lat="37.06190675598886" lon="15.238690935661545"><ele>10.5</ele><time>2026-04-26T09:25:55Z</time></trkpt><trkpt lat="37.06202208191188" lon="15.238986725707997"><ele>11.0</ele><time>2026-04-26T09:25:56Z</time></trkpt><trkpt lat="37.06212065618227" lon="15.239260214119234"><ele>11.0</ele><time>2026-04-26T09:25:57Z</time></trkpt><trkpt lat="37.0622091515476" lon="15.2395276204351"><ele>11.0</ele><time>2026-04-26T09:25:58Z</time></trkpt><trkpt lat="37.06230030664241" lon="15.23981164839926"><ele>11.0</ele><time>2026-04-26T09:25:59Z</time></trkpt><trkpt lat="37.062398768265034" lon="15.240118442628054"><ele>11.0</ele><time>2026-04-26T09:26:00Z</time></trkpt><trkpt lat="37.06250182968517" lon="15.240439569243152"><ele>10.0</ele><time>2026-04-26T09:26:01Z</time></trkpt><trkpt lat="37.062617649268354" lon="15.240804198237084"><ele>9.0</ele><time>2026-04-26T09:26:02Z</time></trkpt><trkpt lat="37.06272956728772" lon="15.241156620297108"><ele>10.0</ele><time>2026-04-26T09:26:03Z</time></trkpt><trkpt lat="37.06283420066066" lon="15.241486103512626"><ele>11.0</ele><time>2026-04-26T09:26:04Z</time></trkpt><trkpt lat="37.062947451960426" lon="15.241821727777362"><ele>11.0</ele><time>2026-04-26T09:26:05Z</time></trkpt><trkpt lat="37.06309894428538" lon="15.242123440627745"><ele>11.0</ele><time>2026-04-26T09:26:06Z</time></trkpt><trkpt lat="37.06325683467963" lon="15.242437609352868"><ele>9.5</ele><time>2026-04-26T09:26:07Z</time></trkpt><trkpt lat="37.06342762604359" lon="15.242790590200805"><ele>8.0</ele><time>2026-04-26T09:26:08Z</time></trkpt><trkpt lat="37.06361837253696" lon="15.243138949631163"><ele>8.0</ele><time>2026-04-26T09:26:09Z</time></trkpt><trkpt lat="37.06381286401065" lon="15.24346572528303"><ele>8.0</ele><time>2026-04-26T09:26:10Z</time></trkpt><trkpt lat="37.06397984055978" lon="15.243796984532175"><ele>8.5</ele><time>2026-04-26T09:26:11Z</time></trkpt><trkpt lat="37.0641358952681" lon="15.24411080709077"><ele>9.0</ele><time>2026-04-26T09:26:12Z</time></trkpt><trkpt lat="37.06427285570409" lon="15.244405166773808"><ele>9.0</ele><time>2026-04-26T09:26:13Z</time></trkpt><trkpt lat="37.064384018621176" lon="15.244667092570747"><ele>9.0</ele><time>2026-04-26T09:26:14Z</time></trkpt><trkpt lat="37.06446830955997" lon="15.244902634550142"><ele>9.0</ele><time>2026-04-26T09:26:15Z</time></trkpt><trkpt lat="37.06452350092839" lon="15.245110056889098"><ele>9.0</ele><time>2026-04-26T09:26:16Z</time></trkpt><trkpt lat="37.06454370711975" lon="15.24529853978193"><ele>9.0</ele><time>2026-04-26T09:26:17Z</time></trkpt><trkpt lat="37.06452437710135" lon="15.245473630630643"><ele>9.0</ele><time>2026-04-26T09:26:18Z</time></trkpt><trkpt lat="37.064467093789126" lon="15.245644311759794"><ele>9.0</ele><time>2026-04-26T09:26:19Z</time></trkpt><trkpt lat="37.064398076433164" lon="15.245800631707034"><ele>9.0</ele><time>2026-04-26T09:26:20Z</time></trkpt><trkpt lat="37.06437506175015" lon="15.24594000122906"><ele>9.0</ele><time>2026-04-26T09:26:21Z</time></trkpt><trkpt lat="37.06439994722072" lon="15.246081775537856"><ele>9.0</ele><time>2026-04-26T09:26:22Z</time></trkpt><trkpt lat="37.06447077505094" lon="15.246211694391011"><ele>9.0</ele><time>2026-04-26T09:26:23Z</time></trkpt><trkpt lat="37.064577336706044" lon="15.24631480191583"><ele>9.0</ele><time>2026-04-26T09:26:24Z</time></trkpt><trkpt lat="37.06467511171732" lon="15.246379426372341"><ele>9.0</ele><time>2026-04-26T09:26:25Z</time></trkpt><trkpt lat="37.06474109763058" lon="15.246454524945314"><ele>9.0</ele><time>2026-04-26T09:26:26Z</time></trkpt><trkpt lat="37.06477377753436" lon="15.246528795318993"><ele>9.0</ele><time>2026-04-26T09:26:27Z</time></trkpt><trkpt lat="37.06479370835935" lon="15.246611911336892"><ele>9.0</ele><time>2026-04-26T09:26:28Z</time></trkpt><trkpt lat="37.06482204773904" lon="15.246756978298526"><ele>8.333333333333334</ele><time>2026-04-26T09:26:29Z</time></trkpt><trkpt lat="37.06485456169364" lon="15.246966147691518"><ele>7.666666666666667</ele><time>2026-04-26T09:26:30Z</time></trkpt><trkpt lat="37.06488535636111" lon="15.247219125324982"><ele>7.0</ele><time>2026-04-26T09:26:31Z</time></trkpt><trkpt lat="37.06492080621208" lon="15.247509447582372"><ele>6.0</ele><time>2026-04-26T09:26:32Z</time></trkpt><trkpt lat="37.06496604752037" lon="15.247845667742801"><ele>5.0</ele><time>2026-04-26T09:26:33Z</time></trkpt><trkpt lat="37.06501967065898" lon="15.248217798807696"><ele>5.0</ele><time>2026-04-26T09:26:34Z</time></trkpt><trkpt lat="37.065076935163866" lon="15.248601169661828"><ele>5.0</ele><time>2026-04-26T09:26:35Z</time></trkpt><trkpt lat="37.06513172855475" lon="15.248974247289333"><ele>5.5</ele><time>2026-04-26T09:26:36Z</time></trkpt><trkpt lat="37.065181435726664" lon="15.24931734427858"><ele>6.0</ele><time>2026-04-26T09:26:37Z</time></trkpt><trkpt lat="37.065224814972595" lon="15.249623854364943"><ele>6.666666666666666</ele><time>2026-04-26T09:26:38Z</time></trkpt><trkpt lat="37.06526025857896" lon="15.249905787108164"><ele>7.333333333333333</ele><time>2026-04-26T09:26:39Z</time></trkpt><trkpt lat="37.06529173489502" lon="15.250161732123518"><ele>8.0</ele><time>2026-04-26T09:26:40Z</time></trkpt><trkpt lat="37.065321364721015" lon="15.250391327266943"><ele>8.0</ele><time>2026-04-26T09:26:41Z</time></trkpt><trkpt lat="37.065347376583375" lon="15.250593655646794"><ele>8.0</ele><time>2026-04-26T09:26:42Z</time></trkpt><trkpt lat="37.06536099983019" lon="15.25073962820767"><ele>8.0</ele><time>2026-04-26T09:26:43Z</time></trkpt><trkpt lat="37.06536300038767" lon="15.25088494306733"><ele>8.0</ele><time>2026-04-26T09:26:44Z</time></trkpt><trkpt lat="37.06535293736376" lon="15.251011529161564"><ele>7.666666666666666</ele><time>2026-04-26T09:26:45Z</time></trkpt><trkpt lat="37.06535741448076" lon="15.251175208303659"><ele>7.333333333333334</ele><time>2026-04-26T09:26:46Z</time></trkpt><trkpt lat="37.06541528477729" lon="15.25137814265731"><ele>7.0</ele><time>2026-04-26T09:26:47Z</time></trkpt><trkpt lat="37.065495937392775" lon="15.251625599430398"><ele>7.0</ele><time>2026-04-26T09:26:48Z</time></trkpt><trkpt lat="37.065553703988726" lon="15.251946018065748"><ele>7.0</ele><time>2026-04-26T09:26:49Z</time></trkpt><trkpt lat="37.06560066720543" lon="15.25228824386744"><ele>7.0</ele><time>2026-04-26T09:26:50Z</time></trkpt><trkpt lat="37.06564915043191" lon="15.252677098990171"><ele>7.0</ele><time>2026-04-26T09:26:51Z</time></trkpt><trkpt lat="37.06570422084175" lon="15.253097001299912"><ele>6.0</ele><time>2026-04-26T09:26:52Z</time></trkpt><trkpt lat="37.06576518245894" lon="15.253528302064417"><ele>5.0</ele><time>2026-04-26T09:26:53Z</time></trkpt><trkpt lat="37.0658247416038" lon="15.2539409696667"><ele>6.0</ele><time>2026-04-26T09:26:53.999Z</time></trkpt><trkpt lat="37.06588293073982" lon="15.254334041650257"><ele>7.0</ele><time>2026-04-26T09:26:54.999Z</time></trkpt><trkpt lat="37.065943600551215" lon="15.254738631894043"><ele>7.0</ele><time>2026-04-26T09:26:55.999Z</time></trkpt><trkpt lat="37.06598857506915" lon="15.255134019796785"><ele>7.0</ele><time>2026-04-26T09:26:56.999Z</time></trkpt><trkpt lat="37.066037965497344" lon="15.255522376217447"><ele>6.0</ele><time>2026-04-26T09:26:57.999Z</time></trkpt><trkpt lat="37.066083737424655" lon="15.255907061764827"><ele>5.0</ele><time>2026-04-26T09:26:58.999Z</time></trkpt><trkpt lat="37.06613171708243" lon="15.25630980518191"><ele>4.5</ele><time>2026-04-26T09:26:59.999Z</time></trkpt><trkpt lat="37.06617620504306" lon="15.256723120814215"><ele>4.0</ele><time>2026-04-26T09:27:00.999Z</time></trkpt><trkpt lat="37.06621861482317" lon="15.257166835314878"><ele>4.5</ele><time>2026-04-26T09:27:01.999Z</time></trkpt><trkpt lat="37.0662631234554" lon="15.257633316300588"><ele>5.0</ele><time>2026-04-26T09:27:02.999Z</time></trkpt><trkpt lat="37.066309332365734" lon="15.258114786423498"><ele>5.0</ele><time>2026-04-26T09:27:03.999Z</time></trkpt><trkpt lat="37.066357852502485" lon="15.258588859035292"><ele>5.0</ele><time>2026-04-26T09:27:04.999Z</time></trkpt><trkpt lat="37.066398063206165" lon="15.259003374450876"><ele>5.0</ele><time>2026-04-26T09:27:05.999Z</time></trkpt><trkpt lat="37.06643678122108" lon="15.259379680684326"><ele>5.0</ele><time>2026-04-26T09:27:06.999Z</time></trkpt><trkpt lat="37.06647342738264" lon="15.259736749108692"><ele>4.0</ele><time>2026-04-26T09:27:07.999Z</time></trkpt><trkpt lat="37.066510815371196" lon="15.2600815772154"><ele>3.0</ele><time>2026-04-26T09:27:08.999Z</time></trkpt><trkpt lat="37.066553422660476" lon="15.260439134259556"><ele>3.0</ele><time>2026-04-26T09:27:09.999Z</time></trkpt><trkpt lat="37.06658955006778" lon="15.260793809961733"><ele>3.0</ele><time>2026-04-26T09:27:10.999Z</time></trkpt><trkpt lat="37.06662029592512" lon="15.261126135467643"><ele>3.0</ele><time>2026-04-26T09:27:11.999Z</time></trkpt><trkpt lat="37.06664512035058" lon="15.26143422739845"><ele>3.0</ele><time>2026-04-26T09:27:12.999Z</time></trkpt><trkpt lat="37.06666959058205" lon="15.261699766086764"><ele>3.333333333333333</ele><time>2026-04-26T09:27:13.999Z</time></trkpt><trkpt lat="37.066692895599765" lon="15.261955044047784"><ele>3.6666666666666665</ele><time>2026-04-26T09:27:14.999Z</time></trkpt><trkpt lat="37.06671652262692" lon="15.262186254933443"><ele>4.0</ele><time>2026-04-26T09:27:15.999Z</time></trkpt><trkpt lat="37.066734984623174" lon="15.262396381177622"><ele>3.5</ele><time>2026-04-26T09:27:16.999Z</time></trkpt><trkpt lat="37.06675645242067" lon="15.262590343137216"><ele>3.0</ele><time>2026-04-26T09:27:17.999Z</time></trkpt><trkpt lat="37.06678633329967" lon="15.262768499977495"><ele>2.5</ele><time>2026-04-26T09:27:18.999Z</time></trkpt><trkpt lat="37.066826651782804" lon="15.262923919629898"><ele>2.0</ele><time>2026-04-26T09:27:19.999Z</time></trkpt><trkpt lat="37.06687707732851" lon="15.263046118411125"><ele>2.2</ele><time>2026-04-26T09:27:20.999Z</time></trkpt><trkpt lat="37.06693292489053" lon="15.263134640570499"><ele>2.4000000000000004</ele><time>2026-04-26T09:27:21.999Z</time></trkpt><trkpt lat="37.06699150154828" lon="15.26321050832638"><ele>2.5999999999999996</ele><time>2026-04-26T09:27:22.999Z</time></trkpt><trkpt lat="37.06705103438508" lon="15.263302956874387"><ele>2.8</ele><time>2026-04-26T09:27:23.999Z</time></trkpt><trkpt lat="37.06711224956776" lon="15.263452510309929"><ele>3.0</ele><time>2026-04-26T09:27:24.999Z</time></trkpt><trkpt lat="37.06716961076922" lon="15.263610096125293"><ele>3.0</ele><time>2026-04-26T09:27:25.999Z</time></trkpt><trkpt lat="37.06726448786154" lon="15.263725281308954"><ele>3.0</ele><time>2026-04-26T09:27:26.999Z</time></trkpt><trkpt lat="37.06738141932612" lon="15.263803106850744"><ele>3.0</ele><time>2026-04-26T09:27:27.999Z</time></trkpt><trkpt lat="37.06749105590503" lon="15.263879551420235"><ele>3.0</ele><time>2026-04-26T09:27:28.999Z</time></trkpt><trkpt lat="37.06757759536736" lon="15.263991725056542"><ele>3.5</ele><time>2026-04-26T09:27:29.999Z</time></trkpt><trkpt lat="37.0676528903357" lon="15.26412060174734"><ele>4.0</ele><time>2026-04-26T09:27:30.999Z</time></trkpt><trkpt lat="37.06772793009723" lon="15.264231984032953"><ele>4.5</ele><time>2026-04-26T09:27:31.999Z</time></trkpt><trkpt lat="37.06783347605687" lon="15.26432631386008"><ele>5.0</ele><time>2026-04-26T09:27:32.999Z</time></trkpt><trkpt lat="37.06798386113077" lon="15.264463038937686"><ele>5.0</ele><time>2026-04-26T09:27:33.999Z</time></trkpt><trkpt lat="37.068166429252905" lon="15.264638305971799"><ele>5.0</ele><time>2026-04-26T09:27:34.999Z</time></trkpt><trkpt lat="37.068367183352244" lon="15.264815887783536"><ele>5.0</ele><time>2026-04-26T09:27:35.999Z</time></trkpt><trkpt lat="37.068578794120185" lon="15.264985497222776"><ele>5.0</ele><time>2026-04-26T09:27:36.999Z</time></trkpt><trkpt lat="37.06876824748544" lon="15.265123237792062"><ele>5.0</ele><time>2026-04-26T09:27:37.999Z</time></trkpt><trkpt lat="37.06894428025446" lon="15.265241631271067"><ele>5.0</ele><time>2026-04-26T09:27:38.999Z</time></trkpt><trkpt lat="37.06912572838825" lon="15.265371112917169"><ele>5.0</ele><time>2026-04-26T09:27:39.999Z</time></trkpt><trkpt lat="37.06934267575152" lon="15.265449273531878"><ele>5.0</ele><time>2026-04-26T09:27:40.999Z</time></trkpt><trkpt lat="37.06960720371805" lon="15.265474269266045"><ele>5.0</ele><time>2026-04-26T09:27:41.999Z</time></trkpt><trkpt lat="37.069894321414516" lon="15.265513811383192"><ele>6.0</ele><time>2026-04-26T09:27:42.999Z</time></trkpt><trkpt lat="37.070176462573386" lon="15.265525926632524"><ele>7.0</ele><time>2026-04-26T09:27:43.999Z</time></trkpt><trkpt lat="37.07042111081916" lon="15.265536750410778"><ele>7.0</ele><time>2026-04-26T09:27:44.999Z</time></trkpt><trkpt lat="37.070645598157434" lon="15.265574856749693"><ele>7.0</ele><time>2026-04-26T09:27:45.999Z</time></trkpt><trkpt lat="37.070844917237366" lon="15.265591934823949"><ele>7.0</ele><time>2026-04-26T09:27:46.999Z</time></trkpt><trkpt lat="37.071014366922704" lon="15.265606453623121"><ele>7.25</ele><time>2026-04-26T09:27:47.999Z</time></trkpt><trkpt lat="37.07115288639081" lon="15.265618078527348"><ele>7.5</ele><time>2026-04-26T09:27:48.999Z</time></trkpt><trkpt lat="37.07126263377842" lon="15.265613985926525"><ele>7.75</ele><time>2026-04-26T09:27:49.999Z</time></trkpt><trkpt lat="37.0713331888369" lon="15.265650571329694"><ele>8.0</ele><time>2026-04-26T09:27:50.999Z</time></trkpt><trkpt lat="37.07135183835722" lon="15.26584143411424"><ele>8.0</ele><time>2026-04-26T09:27:52.999Z</time></trkpt><trkpt lat="37.0713153510272" lon="15.266028547270892"><ele>8.0</ele><time>2026-04-26T09:27:53.999Z</time></trkpt><trkpt lat="37.07128812409077" lon="15.266254172677607"><ele>8.0</ele><time>2026-04-26T09:27:54.999Z</time></trkpt><trkpt lat="37.07125385102312" lon="15.266517425354534"><ele>10.0</ele><time>2026-04-26T09:27:55.999Z</time></trkpt><trkpt lat="37.071213406436485" lon="15.266801010001666"><ele>12.0</ele><time>2026-04-26T09:27:56.999Z</time></trkpt><trkpt lat="37.0711599654323" lon="15.267118048336249"><ele>13.0</ele><time>2026-04-26T09:27:58Z</time></trkpt><trkpt lat="37.07111814495272" lon="15.267423092825323"><ele>14.0</ele><time>2026-04-26T09:27:59Z</time></trkpt><trkpt lat="37.0710767329128" lon="15.267682363465223"><ele>14.0</ele><time>2026-04-26T09:28:00Z</time></trkpt><trkpt lat="37.0710389195727" lon="15.267925730683752"><ele>14.0</ele><time>2026-04-26T09:28:01Z</time></trkpt><trkpt lat="37.071007099101195" lon="15.26814366719886"><ele>14.0</ele><time>2026-04-26T09:28:02Z</time></trkpt><trkpt lat="37.07097861399668" lon="15.268354163122133"><ele>13.333333333333334</ele><time>2026-04-26T09:28:03Z</time></trkpt><trkpt lat="37.07095307317312" lon="15.268556947632096"><ele>12.666666666666668</ele><time>2026-04-26T09:28:04Z</time></trkpt><trkpt lat="37.07092430400134" lon="15.2687488136034"><ele>12.0</ele><time>2026-04-26T09:28:05Z</time></trkpt><trkpt lat="37.07089605868768" lon="15.268918737473008"><ele>12.0</ele><time>2026-04-26T09:28:06Z</time></trkpt><trkpt lat="37.07086867482823" lon="15.269068117016172"><ele>12.0</ele><time>2026-04-26T09:28:07Z</time></trkpt><trkpt lat="37.07084599370074" lon="15.2692097235734"><ele>12.0</ele><time>2026-04-26T09:28:08Z</time></trkpt><trkpt lat="37.07082557727307" lon="15.269331966867844"><ele>12.0</ele><time>2026-04-26T09:28:09Z</time></trkpt><trkpt lat="37.070804676806276" lon="15.269434469858243"><ele>12.0</ele><time>2026-04-26T09:28:10Z</time></trkpt><trkpt lat="37.07076504059397" lon="15.269560399636163"><ele>11.6</ele><time>2026-04-26T09:28:12Z</time></trkpt><trkpt lat="37.07073713957178" lon="15.26968803697448"><ele>11.2</ele><time>2026-04-26T09:28:14Z</time></trkpt><trkpt lat="37.0707270110421" lon="15.269784112271928"><ele>10.8</ele><time>2026-04-26T09:28:15Z</time></trkpt><trkpt lat="37.07070569199299" lon="15.269903431962364"><ele>10.4</ele><time>2026-04-26T09:28:16Z</time></trkpt><trkpt lat="37.07068593927268" lon="15.270041638314705"><ele>10.0</ele><time>2026-04-26T09:28:17Z</time></trkpt><trkpt lat="37.070662843793286" lon="15.270194444884455"><ele>10.0</ele><time>2026-04-26T09:28:18Z</time></trkpt><trkpt lat="37.0706465053734" lon="15.270344116430161"><ele>10.0</ele><time>2026-04-26T09:28:19Z</time></trkpt><trkpt lat="37.07063108258438" lon="15.270499680253819"><ele>10.0</ele><time>2026-04-26T09:28:20Z</time></trkpt><trkpt lat="37.07062540962798" lon="15.270628778726763"><ele>10.0</ele><time>2026-04-26T09:28:21Z</time></trkpt><trkpt lat="37.07060714109061" lon="15.270739763722728"><ele>10.0</ele><time>2026-04-26T09:28:22Z</time></trkpt><trkpt lat="37.070587731762586" lon="15.270834964555798"><ele>10.25</ele><time>2026-04-26T09:28:23Z</time></trkpt><trkpt lat="37.07061560873789" lon="15.270954117588222"><ele>10.5</ele><time>2026-04-26T09:28:25Z</time></trkpt><trkpt lat="37.07073939135828" lon="15.271016815255996"><ele>10.75</ele><time>2026-04-26T09:28:27Z</time></trkpt><trkpt lat="37.07080087778319" lon="15.27114020885115"><ele>11.0</ele><time>2026-04-26T09:28:28Z</time></trkpt><trkpt lat="37.07085285082597" lon="15.27128395373601"><ele>12.0</ele><time>2026-04-26T09:28:29Z</time></trkpt><trkpt lat="37.070909070264015" lon="15.271463598753543"><ele>13.0</ele><time>2026-04-26T09:28:30Z</time></trkpt><trkpt lat="37.070967063631414" lon="15.271678194374498"><ele>14.0</ele><time>2026-04-26T09:28:31Z</time></trkpt><trkpt lat="37.071028013888984" lon="15.271913333726872"><ele>14.0</ele><time>2026-04-26T09:28:32Z</time></trkpt><trkpt lat="37.07109254458855" lon="15.272144305475091"><ele>14.0</ele><time>2026-04-26T09:28:33Z</time></trkpt><trkpt lat="37.07116606611562" lon="15.272389577124105"><ele>14.0</ele><time>2026-04-26T09:28:34Z</time></trkpt><trkpt lat="37.0712380923433" lon="15.27264839013269"><ele>13.0</ele><time>2026-04-26T09:28:35Z</time></trkpt><trkpt lat="37.07131678472778" lon="15.272932030893088"><ele>12.0</ele><time>2026-04-26T09:28:36Z</time></trkpt><trkpt lat="37.07140221856133" lon="15.273239924281448"><ele>11.0</ele><time>2026-04-26T09:28:37Z</time></trkpt><trkpt lat="37.071492789772115" lon="15.273566442655852"><ele>10.0</ele><time>2026-04-26T09:28:38Z</time></trkpt><trkpt lat="37.07158455198415" lon="15.273906173135495"><ele>9.0</ele><time>2026-04-26T09:28:39Z</time></trkpt><trkpt lat="37.0716799012993" lon="15.27425168691207"><ele>8.0</ele><time>2026-04-26T09:28:40Z</time></trkpt><trkpt lat="37.071771325846115" lon="15.27458339925991"><ele>8.0</ele><time>2026-04-26T09:28:41Z</time></trkpt><trkpt lat="37.07185161921752" lon="15.274886266817346"><ele>8.0</ele><time>2026-04-26T09:28:42Z</time></trkpt><trkpt lat="37.07192781522373" lon="15.275167803209582"><ele>8.0</ele><time>2026-04-26T09:28:43Z</time></trkpt><trkpt lat="37.07200503537135" lon="15.275436147179612"><ele>8.0</ele><time>2026-04-26T09:28:44Z</time></trkpt><trkpt lat="37.072083512755746" lon="15.275709244706581"><ele>7.5</ele><time>2026-04-26T09:28:45Z</time></trkpt><trkpt lat="37.072162997764906" lon="15.275989810382436"><ele>7.0</ele><time>2026-04-26T09:28:46Z</time></trkpt><trkpt lat="37.07223833382493" lon="15.276260333042883"><ele>6.333333333333334</ele><time>2026-04-26T09:28:47Z</time></trkpt><trkpt lat="37.07230451258425" lon="15.276511536374615"><ele>5.666666666666667</ele><time>2026-04-26T09:28:48Z</time></trkpt><trkpt lat="37.072366603600436" lon="15.276747280443546"><ele>5.0</ele><time>2026-04-26T09:28:49Z</time></trkpt><trkpt lat="37.072422651209855" lon="15.27696111517833"><ele>5.333333333333334</ele><time>2026-04-26T09:28:50Z</time></trkpt><trkpt lat="37.072482495082994" lon="15.277171418119119"><ele>5.666666666666667</ele><time>2026-04-26T09:28:51Z</time></trkpt><trkpt lat="37.072548527476656" lon="15.277408161705802"><ele>6.0</ele><time>2026-04-26T09:28:52Z</time></trkpt><trkpt lat="37.072611616352845" lon="15.277640941804162"><ele>6.666666666666666</ele><time>2026-04-26T09:28:53Z</time></trkpt><trkpt lat="37.07266622990635" lon="15.27784215643891"><ele>7.333333333333333</ele><time>2026-04-26T09:28:54Z</time></trkpt><trkpt lat="37.0727168378791" lon="15.278021541235839"><ele>8.0</ele><time>2026-04-26T09:28:55Z</time></trkpt><trkpt lat="37.07276699687876" lon="15.278200847835505"><ele>8.0</ele><time>2026-04-26T09:28:56Z</time></trkpt><trkpt lat="37.07281509101186" lon="15.278382515836304"><ele>8.0</ele><time>2026-04-26T09:28:57Z</time></trkpt><trkpt lat="37.07285878639402" lon="15.278530954144724"><ele>8.0</ele><time>2026-04-26T09:28:58Z</time></trkpt><trkpt lat="37.07290234554257" lon="15.27866190766428"><ele>8.0</ele><time>2026-04-26T09:28:59Z</time></trkpt><trkpt lat="37.07294540150528" lon="15.278798648638437"><ele>9.666666666666666</ele><time>2026-04-26T09:29:00Z</time></trkpt><trkpt lat="37.072976092284705" lon="15.278970196977172"><ele>11.333333333333332</ele><time>2026-04-26T09:29:01Z</time></trkpt><trkpt lat="37.07303355007673" lon="15.279171939040312"><ele>13.0</ele><time>2026-04-26T09:29:02Z</time></trkpt><trkpt lat="37.073111052167455" lon="15.279391139877134"><ele>13.0</ele><time>2026-04-26T09:29:03Z</time></trkpt><trkpt lat="37.073165770758365" lon="15.279597403436778"><ele>13.0</ele><time>2026-04-26T09:29:04Z</time></trkpt><trkpt lat="37.07321484701541" lon="15.279770596839382"><ele>13.0</ele><time>2026-04-26T09:29:05Z</time></trkpt><trkpt lat="37.07325965269325" lon="15.279923349269605"><ele>14.4</ele><time>2026-04-26T09:29:06Z</time></trkpt><trkpt lat="37.073292418871674" lon="15.280055775258564"><ele>15.8</ele><time>2026-04-26T09:29:07Z</time></trkpt><trkpt lat="37.07331928871408" lon="15.280169910298739"><ele>17.2</ele><time>2026-04-26T09:29:07.999Z</time></trkpt><trkpt lat="37.07334672599267" lon="15.280274005645866"><ele>18.6</ele><time>2026-04-26T09:29:08.999Z</time></trkpt><trkpt lat="37.07338229943377" lon="15.280380959669673"><ele>20.0</ele><time>2026-04-26T09:29:09.999Z</time></trkpt><trkpt lat="37.073424105547446" lon="15.280492761185979"><ele>20.0</ele><time>2026-04-26T09:29:10.999Z</time></trkpt><trkpt lat="37.073448838708906" lon="15.280578493168786"><ele>20.0</ele><time>2026-04-26T09:29:11.999Z</time></trkpt><trkpt lat="37.07347072731837" lon="15.280654028978047"><ele>20.0</ele><time>2026-04-26T09:29:12.999Z</time></trkpt><trkpt lat="37.07349318566274" lon="15.28075344853832"><ele>20.0</ele><time>2026-04-26T09:29:13.999Z</time></trkpt><trkpt lat="37.0735053744015" lon="15.2808478959286"><ele>20.0</ele><time>2026-04-26T09:29:14.999Z</time></trkpt><trkpt lat="37.073508296778336" lon="15.280955223521739"><ele>20.0</ele><time>2026-04-26T09:29:15.999Z</time></trkpt><trkpt lat="37.073544213794726" lon="15.281092685705925"><ele>19.8</ele><time>2026-04-26T09:29:16.999Z</time></trkpt><trkpt lat="37.07358995412762" lon="15.28123067234195"><ele>19.6</ele><time>2026-04-26T09:29:17.999Z</time></trkpt><trkpt lat="37.07362149638122" lon="15.281337889275715"><ele>19.4</ele><time>2026-04-26T09:29:18.999Z</time></trkpt><trkpt lat="37.07364727019374" lon="15.281431131247475"><ele>19.2</ele><time>2026-04-26T09:29:19.999Z</time></trkpt><trkpt lat="37.07367202968118" lon="15.28151072789602"><ele>19.0</ele><time>2026-04-26T09:29:20.999Z</time></trkpt><trkpt lat="37.073735560035196" lon="15.281620963567676"><ele>19.0</ele><time>2026-04-26T09:29:22.999Z</time></trkpt><trkpt lat="37.07382566332932" lon="15.281647459367619"><ele>19.0</ele><time>2026-04-26T09:29:26.999Z</time></trkpt><trkpt lat="37.07397810904454" lon="15.28160126315109"><ele>19.0</ele><time>2026-04-26T09:29:28.999Z</time></trkpt><trkpt lat="37.07413037115078" lon="15.281598423689244"><ele>19.0</ele><time>2026-04-26T09:29:29.999Z</time></trkpt><trkpt lat="37.074302085149206" lon="15.2815889934297"><ele>19.5</ele><time>2026-04-26T09:29:30.999Z</time></trkpt><trkpt lat="37.07446019560046" lon="15.281591098247075"><ele>20.0</ele><time>2026-04-26T09:29:31.999Z</time></trkpt><trkpt lat="37.07458137545702" lon="15.281571672911737"><ele>20.5</ele><time>2026-04-26T09:29:32.999Z</time></trkpt><trkpt lat="37.07465458333007" lon="15.281606276392605"><ele>21.0</ele><time>2026-04-26T09:29:33.999Z</time></trkpt><trkpt lat="37.07467484255288" lon="15.28189233104114"><ele>21.0</ele><time>2026-04-26T09:29:36.999Z</time></trkpt><trkpt lat="37.07466985631071" lon="15.28210967300505"><ele>21.0</ele><time>2026-04-26T09:29:37.999Z</time></trkpt><trkpt lat="37.07467239108621" lon="15.28234433007559"><ele>21.0</ele><time>2026-04-26T09:29:38.999Z</time></trkpt><trkpt lat="37.0746724702585" lon="15.282594563084695"><ele>21.666666666666668</ele><time>2026-04-26T09:29:39.999Z</time></trkpt><trkpt lat="37.07466496087833" lon="15.282814595393772"><ele>22.333333333333336</ele><time>2026-04-26T09:29:40.999Z</time></trkpt><trkpt lat="37.07467575337008" lon="15.283011433155096"><ele>23.0</ele><time>2026-04-26T09:29:41.999Z</time></trkpt><trkpt lat="37.07464470468486" lon="15.283197789094991"><ele>23.0</ele><time>2026-04-26T09:29:42.999Z</time></trkpt><trkpt lat="37.07463884449408" lon="15.2834064301169"><ele>23.0</ele><time>2026-04-26T09:29:43.999Z</time></trkpt><trkpt lat="37.07463747314479" lon="15.283621396529572"><ele>23.0</ele><time>2026-04-26T09:29:44.999Z</time></trkpt><trkpt lat="37.07463323804985" lon="15.283799825467451"><ele>22.0</ele><time>2026-04-26T09:29:45.999Z</time></trkpt><trkpt lat="37.07463023296822" lon="15.283952793796617"><ele>21.0</ele><time>2026-04-26T09:29:46.999Z</time></trkpt><trkpt lat="37.074608536952" lon="15.28408467638362"><ele>20.0</ele><time>2026-04-26T09:29:47.999Z</time></trkpt><trkpt lat="37.07459132688351" lon="15.284209096371423"><ele>19.0</ele><time>2026-04-26T09:29:48.999Z</time></trkpt><trkpt lat="37.074601640560736" lon="15.284299997534676"><ele>18.0</ele><time>2026-04-26T09:29:49.999Z</time></trkpt><trkpt lat="37.074607144572596" lon="15.28439392070486"><ele>18.0</ele><time>2026-04-26T09:29:51.999Z</time></trkpt><trkpt lat="37.07466734120863" lon="15.284469788308503"><ele>18.0</ele><time>2026-04-26T09:29:52.999Z</time></trkpt><trkpt lat="37.07477423578892" lon="15.284490232906654"><ele>18.0</ele><time>2026-04-26T09:29:54.999Z</time></trkpt><trkpt lat="37.07483697494238" lon="15.284503852911916"><ele>18.0</ele><time>2026-04-26T09:29:55.999Z</time></trkpt><trkpt lat="37.07490377527546" lon="15.284519020241325"><ele>18.0</ele><time>2026-04-26T09:29:56.999Z</time></trkpt><trkpt lat="37.074974347497" lon="15.28452952357575"><ele>18.0</ele><time>2026-04-26T09:29:57.999Z</time></trkpt><trkpt lat="37.075096883095455" lon="15.284541123778434"><ele>17.833333333333332</ele><time>2026-04-26T09:29:59.999Z</time></trkpt><trkpt lat="37.07516149352306" lon="15.284545957867213"><ele>17.666666666666668</ele><time>2026-04-26T09:30:00.999Z</time></trkpt><trkpt lat="37.07526271060354" lon="15.284561055037639"><ele>17.5</ele><time>2026-04-26T09:30:03Z</time></trkpt><trkpt lat="37.075358190508595" lon="15.284591990343978"><ele>17.333333333333336</ele><time>2026-04-26T09:30:05Z</time></trkpt><trkpt lat="37.075439876238484" lon="15.284586990099495"><ele>17.166666666666668</ele><time>2026-04-26T09:30:06Z</time></trkpt><trkpt lat="37.07548440606581" lon="15.284644994682703"><ele>17.0</ele><time>2026-04-26T09:30:07Z</time></trkpt><trkpt lat="37.07541630317421" lon="15.284860987505644"><ele>17.0</ele><time>2026-04-26T09:30:08Z</time></trkpt><trkpt lat="37.0754105574935" lon="15.285044003622584"><ele>17.0</ele><time>2026-04-26T09:30:09Z</time></trkpt><trkpt lat="37.075403437108335" lon="15.285285654614919"><ele>17.0</ele><time>2026-04-26T09:30:10Z</time></trkpt><trkpt lat="37.075395970510286" lon="15.285585823583542"><ele>17.333333333333336</ele><time>2026-04-26T09:30:11Z</time></trkpt><trkpt lat="37.07539191660246" lon="15.285891339721177"><ele>17.666666666666668</ele><time>2026-04-26T09:30:12Z</time></trkpt><trkpt lat="37.075394994339845" lon="15.286138170132796"><ele>18.0</ele><time>2026-04-26T09:30:13Z</time></trkpt><trkpt lat="37.07539471792883" lon="15.286295748944656"><ele>18.0</ele><time>2026-04-26T09:30:14Z</time></trkpt><trkpt lat="37.07539619390617" lon="15.2864029559293"><ele>18.0</ele><time>2026-04-26T09:30:15Z</time></trkpt><trkpt lat="37.07539343115381" lon="15.286488794353405"><ele>18.0</ele><time>2026-04-26T09:30:17Z</time></trkpt><trkpt lat="37.07537660467364" lon="15.286613995787768"><ele>18.0</ele><time>2026-04-26T09:31:42.999Z</time></trkpt><trkpt lat="37.07536447030387" lon="15.286797534413193"><ele>18.0</ele><time>2026-04-26T09:31:43.999Z</time></trkpt><trkpt lat="37.075363678737254" lon="15.28701794343604"><ele>18.333333333333332</ele><time>2026-04-26T09:31:44.999Z</time></trkpt><trkpt lat="37.0753644666909" lon="15.287236514608454"><ele>18.666666666666664</ele><time>2026-04-26T09:31:45.999Z</time></trkpt><trkpt lat="37.075376403140346" lon="15.287484591318071"><ele>19.0</ele><time>2026-04-26T09:31:46.999Z</time></trkpt><trkpt lat="37.07536504198678" lon="15.287777080101428"><ele>21.5</ele><time>2026-04-26T09:31:47.999Z</time></trkpt><trkpt lat="37.07537799079302" lon="15.28812154378139"><ele>24.0</ele><time>2026-04-26T09:31:48.999Z</time></trkpt><trkpt lat="37.07537364361984" lon="15.288449706268521"><ele>24.0</ele><time>2026-04-26T09:31:49.999Z</time></trkpt><trkpt lat="37.075390803379904" lon="15.288775643928421"><ele>24.0</ele><time>2026-04-26T09:31:50.999Z</time></trkpt><trkpt lat="37.07539453543413" lon="15.289055999847887"><ele>23.666666666666668</ele><time>2026-04-26T09:31:51.999Z</time></trkpt><trkpt lat="37.07539706916249" lon="15.289370596878511"><ele>23.333333333333336</ele><time>2026-04-26T09:31:52.999Z</time></trkpt><trkpt lat="37.07540712564226" lon="15.28957107440176"><ele>23.0</ele><time>2026-04-26T09:31:53.999Z</time></trkpt><trkpt lat="37.075419437905616" lon="15.28981334735323"><ele>23.0</ele><time>2026-04-26T09:31:54.999Z</time></trkpt><trkpt lat="37.07542372282865" lon="15.290102476274205"><ele>23.0</ele><time>2026-04-26T09:31:55.999Z</time></trkpt><trkpt lat="37.075432274261466" lon="15.290361654340215"><ele>23.0</ele><time>2026-04-26T09:31:56.999Z</time></trkpt><trkpt lat="37.07543626169484" lon="15.290597393362324"><ele>23.0</ele><time>2026-04-26T09:31:57.999Z</time></trkpt><trkpt lat="37.07545285001576" lon="15.290811867008076"><ele>23.0</ele><time>2026-04-26T09:31:58.999Z</time></trkpt><trkpt lat="37.07547616352111" lon="15.290983132748133"><ele>23.0</ele><time>2026-04-26T09:31:59.999Z</time></trkpt><trkpt lat="37.07551387574906" lon="15.2911638328118"><ele>21.0</ele><time>2026-04-26T09:32:00.999Z</time></trkpt><trkpt lat="37.07558407802326" lon="15.291445986457802"><ele>19.0</ele><time>2026-04-26T09:32:01.999Z</time></trkpt><trkpt lat="37.07563249051178" lon="15.29164616607699"><ele>17.0</ele><time>2026-04-26T09:32:02.999Z</time></trkpt><trkpt lat="37.075680040654916" lon="15.291843779952513"><ele>17.0</ele><time>2026-04-26T09:32:03.999Z</time></trkpt><trkpt lat="37.075707550807266" lon="15.291992483618111"><ele>17.0</ele><time>2026-04-26T09:32:04.999Z</time></trkpt><trkpt lat="37.07574153781796" lon="15.292063109028405"><ele>17.0</ele><time>2026-04-26T09:32:05.999Z</time></trkpt><trkpt lat="37.07575279862424" lon="15.292147093919821"><ele>17.0</ele><time>2026-04-26T09:32:06.999Z</time></trkpt><trkpt lat="37.07582704749433" lon="15.292108523388928"><ele>17.0</ele><time>2026-04-26T09:32:10Z</time></trkpt><trkpt lat="37.075921707419354" lon="15.292072222980591"><ele>17.0</ele><time>2026-04-26T09:32:12Z</time></trkpt><trkpt lat="37.07602988608154" lon="15.292023769918497"><ele>19.75</ele><time>2026-04-26T09:32:14Z</time></trkpt><trkpt lat="37.07610833612018" lon="15.291981326549285"><ele>22.5</ele><time>2026-04-26T09:32:15Z</time></trkpt><trkpt lat="37.076199491978784" lon="15.291967658346422"><ele>25.25</ele><time>2026-04-26T09:32:16Z</time></trkpt><trkpt lat="37.0763556994588" lon="15.29188921754377"><ele>28.0</ele><time>2026-04-26T09:32:17Z</time></trkpt><trkpt lat="37.07655451774354" lon="15.291836079692638"><ele>31.5</ele><time>2026-04-26T09:32:18Z</time></trkpt><trkpt lat="37.07681733681542" lon="15.291745064015435"><ele>35.0</ele><time>2026-04-26T09:32:19Z</time></trkpt><trkpt lat="37.07703437887771" lon="15.291672573983904"><ele>35.0</ele><time>2026-04-26T09:32:20Z</time></trkpt><trkpt lat="37.07724313868972" lon="15.29160957960956"><ele>35.0</ele><time>2026-04-26T09:32:21Z</time></trkpt><trkpt lat="37.07740997911841" lon="15.29151185720153"><ele>35.0</ele><time>2026-04-26T09:32:22Z</time></trkpt><trkpt lat="37.077558812166615" lon="15.291438597745268"><ele>34.8</ele><time>2026-04-26T09:32:23Z</time></trkpt><trkpt lat="37.07764167466913" lon="15.29140979936999"><ele>34.6</ele><time>2026-04-26T09:32:24Z</time></trkpt><trkpt lat="37.07777012533318" lon="15.291359229091793"><ele>34.4</ele><time>2026-04-26T09:32:25Z</time></trkpt><trkpt lat="37.07789378069797" lon="15.291337399425911"><ele>34.2</ele><time>2026-04-26T09:32:26Z</time></trkpt><trkpt lat="37.07799665901261" lon="15.291324142096585"><ele>34.0</ele><time>2026-04-26T09:32:27Z</time></trkpt><trkpt lat="37.07809754519002" lon="15.291326653422148"><ele>34.0</ele><time>2026-04-26T09:32:28Z</time></trkpt><trkpt lat="37.07815171364518" lon="15.291401749111587"><ele>34.0</ele><time>2026-04-26T09:32:29Z</time></trkpt><trkpt lat="37.078282855776145" lon="15.291494777346776"><ele>34.0</ele><time>2026-04-26T09:32:30Z</time></trkpt><trkpt lat="37.07840330939502" lon="15.291590246754652"><ele>34.0</ele><time>2026-04-26T09:32:31Z</time></trkpt><trkpt lat="37.0784575275838" lon="15.291684117323825"><ele>33.66666666666667</ele><time>2026-04-26T09:32:32Z</time></trkpt><trkpt lat="37.078517994594" lon="15.291772873395466"><ele>33.333333333333336</ele><time>2026-04-26T09:32:33Z</time></trkpt><trkpt lat="37.0784236697698" lon="15.292004071937992"><ele>33.0</ele><time>2026-04-26T09:32:34Z</time></trkpt><trkpt lat="37.07837181397972" lon="15.292201674426275"><ele>33.666666666666664</ele><time>2026-04-26T09:32:35Z</time></trkpt><trkpt lat="37.07831161310583" lon="15.292448121242979"><ele>34.33333333333333</ele><time>2026-04-26T09:32:36Z</time></trkpt><trkpt lat="37.07826071434705" lon="15.29266819570596"><ele>35.0</ele><time>2026-04-26T09:32:37Z</time></trkpt><trkpt lat="37.07821911875206" lon="15.292845400179345"><ele>34.2</ele><time>2026-04-26T09:32:38Z</time></trkpt><trkpt lat="37.07817888488384" lon="15.292989859288387"><ele>33.4</ele><time>2026-04-26T09:32:39Z</time></trkpt><trkpt lat="37.07814581497558" lon="15.293110072076557"><ele>32.6</ele><time>2026-04-26T09:32:40Z</time></trkpt><trkpt lat="37.07811050522616" lon="15.293206439256975"><ele>31.8</ele><time>2026-04-26T09:32:41Z</time></trkpt><trkpt lat="37.078070430797695" lon="15.293287884733573"><ele>31.0</ele><time>2026-04-26T09:32:42Z</time></trkpt><trkpt lat="37.078026085120385" lon="15.293363653268571"><ele>31.000000000000004</ele><time>2026-04-26T09:32:43Z</time></trkpt><trkpt lat="37.077975689733364" lon="15.293428392749963"><ele>31.0</ele><time>2026-04-26T09:32:44Z</time></trkpt><trkpt lat="37.07792420570037" lon="15.293486646593086"><ele>31.0</ele><time>2026-04-26T09:32:45Z</time></trkpt><trkpt lat="37.07786214200485" lon="15.293573439498253"><ele>31.0</ele><time>2026-04-26T09:32:47Z</time></trkpt><trkpt lat="37.07780385246883" lon="15.29363383827817"><ele>31.000000000000004</ele><time>2026-04-26T09:32:49Z</time></trkpt><trkpt lat="37.0777174695377" lon="15.29359687159934"><ele>31.0</ele><time>2026-04-26T09:32:51Z</time></trkpt><trkpt lat="37.077667771216575" lon="15.293456601345783"><ele>31.0</ele><time>2026-04-26T09:32:53Z</time></trkpt><trkpt lat="37.077622271818726" lon="15.29338277270622"><ele>31.0</ele><time>2026-04-26T09:32:54Z</time></trkpt><trkpt lat="37.07756699092961" lon="15.293309038910149"><ele>31.0</ele><time>2026-04-26T09:32:55Z</time></trkpt><trkpt lat="37.077506022099975" lon="15.293214913884913"><ele>31.0</ele><time>2026-04-26T09:32:57Z</time></trkpt><trkpt lat="37.077464154667254" lon="15.293093478124577"><ele>31.0</ele><time>2026-04-26T09:33:03Z</time></trkpt><trkpt lat="37.077371849796855" lon="15.292975726453452"><ele>30.6</ele><time>2026-04-26T09:33:05Z</time></trkpt><trkpt lat="37.07732376404274" lon="15.292924700616231"><ele>30.200000000000003</ele><time>2026-04-26T09:33:07Z</time></trkpt><trkpt lat="37.07722207726151" lon="15.293007212809949"><ele>29.799999999999997</ele><time>2026-04-26T09:33:08Z</time></trkpt><trkpt lat="37.07714090184372" lon="15.293084912018955"><ele>29.4</ele><time>2026-04-26T09:33:09Z</time></trkpt><trkpt lat="37.07708195089429" lon="15.293141338625036"><ele>29.0</ele><time>2026-04-26T09:33:11Z</time></trkpt><trkpt lat="37.07709123518913" lon="15.293283027247437"><ele>28.4</ele><time>2026-04-26T09:33:12Z</time></trkpt><trkpt lat="37.07715140019588" lon="15.293387843360922"><ele>27.799999999999997</ele><time>2026-04-26T09:33:13Z</time></trkpt><trkpt lat="37.0772066987928" lon="15.293479064580156"><ele>27.200000000000003</ele><time>2026-04-26T09:33:15Z</time></trkpt><trkpt lat="37.07734639535803" lon="15.293428425623466"><ele>26.6</ele><time>2026-04-26T09:33:17.999Z</time></trkpt><trkpt lat="37.07727988265054" lon="15.293489552353417"><ele>26.0</ele><time>2026-04-26T09:33:18.999Z</time></trkpt><trkpt lat="37.0773407382734" lon="15.29343362462628"><ele>26.0</ele><time>2026-04-26T09:33:24.999Z</time></trkpt><trkpt lat="37.07733168871793" lon="15.293274172049008"><ele>26.0</ele><time>2026-04-26T09:33:40.699Z</time></trkpt><trkpt lat="37.077312488101256" lon="15.29355861555702"><ele>26.0</ele><time>2026-04-26T09:33:56.681Z</time></trkpt><trkpt lat="37.077304937086545" lon="15.293202599429328"><ele>26.0</ele><time>2026-04-26T09:34:09.028Z</time></trkpt><trkpt lat="37.07738616539018" lon="15.293088945905422"><ele>26.0</ele><time>2026-04-26T09:34:12.764Z</time></trkpt><trkpt lat="37.07744525419478" lon="15.293137883313273"><ele>26.0</ele><time>2026-04-26T09:34:20.24Z</time></trkpt><trkpt lat="37.07731659138303" lon="15.293541933171046"><ele>26.0</ele><time>2026-04-26T09:34:26.593Z</time></trkpt><trkpt lat="37.07739248636767" lon="15.293221375381167"><ele>26.0</ele><time>2026-04-26T09:34:57.649Z</time></trkpt><trkpt lat="37.077422813231166" lon="15.293407499552837"><ele>26.0</ele><time>2026-04-26T09:36:17.157Z</time></trkpt><trkpt lat="37.07724619305864" lon="15.293576802094373"><ele>26.0</ele><time>2026-04-26T09:36:23.509Z</time></trkpt><trkpt lat="37.07735183502899" lon="15.29334443338892"><ele>26.0</ele><time>2026-04-26T09:36:24.636Z</time></trkpt><trkpt lat="37.07731606077744" lon="15.293418995466673"><ele>26.0</ele><time>2026-04-26T09:36:38.999Z</time></trkpt><trkpt lat="37.07723287854639" lon="15.293460691882657"><ele>26.0</ele><time>2026-04-26T09:36:40.999Z</time></trkpt><trkpt lat="37.077170510434236" lon="15.293431466639104"><ele>26.0</ele><time>2026-04-26T09:36:50Z</time></trkpt><trkpt lat="37.077128828289794" lon="15.29335678785625"><ele>26.0</ele><time>2026-04-26T09:36:54Z</time></trkpt><trkpt lat="37.07711390184953" lon="15.293270819537263"><ele>26.0</ele><time>2026-04-26T09:36:59Z</time></trkpt><trkpt lat="37.077083525997004" lon="15.29319366975679"><ele>26.0</ele><time>2026-04-26T09:37:04Z</time></trkpt><trkpt lat="37.07709206399635" lon="15.29310288588156"><ele>26.0</ele><time>2026-04-26T09:37:13Z</time></trkpt><trkpt lat="37.07714500524746" lon="15.293052162404077"><ele>26.0</ele><time>2026-04-26T09:37:18Z</time></trkpt><trkpt lat="37.077183061222385" lon="15.292985796678323"><ele>26.0</ele><time>2026-04-26T09:37:23Z</time></trkpt><trkpt lat="37.07723778418261" lon="15.292923141470379"><ele>26.0</ele><time>2026-04-26T09:37:28Z</time></trkpt><trkpt lat="37.07729838911703" lon="15.292955484371921"><ele>26.428571428571427</ele><time>2026-04-26T09:37:31Z</time></trkpt><trkpt lat="37.07734290404778" lon="15.29301210187062"><ele>26.85714285714286</ele><time>2026-04-26T09:37:34Z</time></trkpt><trkpt lat="37.07739392750271" lon="15.293086457919477"><ele>27.28571428571429</ele><time>2026-04-26T09:37:39Z</time></trkpt><trkpt lat="37.07745716701177" lon="15.293137610350183"><ele>27.714285714285715</ele><time>2026-04-26T09:37:44Z</time></trkpt><trkpt lat="37.07752002603543" lon="15.29317293488948"><ele>28.142857142857146</ele><time>2026-04-26T09:37:49Z</time></trkpt><trkpt lat="37.07751002900607" lon="15.293252581249595"><ele>28.571428571428577</ele><time>2026-04-26T09:38:14.999Z</time></trkpt><trkpt lat="37.07757426638981" lon="15.293335804283112"><ele>29.000000000000004</ele><time>2026-04-26T09:38:19.999Z</time></trkpt><trkpt lat="37.07761700283302" lon="15.293426148155367"><ele>29.285714285714292</ele><time>2026-04-26T09:38:22.999Z</time></trkpt><trkpt lat="37.07765306712468" lon="15.293492392158429"><ele>29.571428571428573</ele><time>2026-04-26T09:38:24.999Z</time></trkpt><trkpt lat="37.077687723145274" lon="15.293566565741157"><ele>29.85714285714286</ele><time>2026-04-26T09:38:26.999Z</time></trkpt><trkpt lat="37.07770878412762" lon="15.293642417902618"><ele>30.142857142857146</ele><time>2026-04-26T09:38:29.999Z</time></trkpt><trkpt lat="37.07779308333333" lon="15.293699766666668"><ele>30.42857142857143</ele><time>2026-04-26T09:38:39.899Z</time></trkpt><trkpt lat="37.07783916603875" lon="15.293795580552162"><ele>30.714285714285715</ele><time>2026-04-26T09:38:41.904Z</time></trkpt><trkpt lat="37.077902215703865" lon="15.293807082470703"><ele>31.0</ele><time>2026-04-26T09:38:42.906Z</time></trkpt><trkpt lat="37.077982020155986" lon="15.293778256719506"><ele>31.0</ele><time>2026-04-26T09:38:44.906Z</time></trkpt><trkpt lat="37.07805322877528" lon="15.29375257473557"><ele>31.0</ele><time>2026-04-26T09:38:45.894Z</time></trkpt><trkpt lat="37.078189891276445" lon="15.293458110329938"><ele>31.0</ele><time>2026-04-26T09:38:46.89Z</time></trkpt><trkpt lat="37.07819443924378" lon="15.293376864985682"><ele>31.0</ele><time>2026-04-26T09:38:47.89Z</time></trkpt><trkpt lat="37.07813776666667" lon="15.293223716666667"><ele>31.0</ele><time>2026-04-26T09:38:48.897Z</time></trkpt><trkpt lat="37.07818018333333" lon="15.293119133333335"><ele>31.0</ele><time>2026-04-26T09:38:49.899Z</time></trkpt><trkpt lat="37.07821906666667" lon="15.293006933333332"><ele>31.0</ele><time>2026-04-26T09:38:50.908Z</time></trkpt><trkpt lat="37.078254166666675" lon="15.292885000000002"><ele>31.0</ele><time>2026-04-26T09:38:51.89Z</time></trkpt><trkpt lat="37.078285216666664" lon="15.292763400000002"><ele>31.0</ele><time>2026-04-26T09:38:52.896Z</time></trkpt><trkpt lat="37.07831633333333" lon="15.292643683333331"><ele>31.4</ele><time>2026-04-26T09:38:53.89Z</time></trkpt><trkpt lat="37.07834735" lon="15.292522750000002"><ele>31.8</ele><time>2026-04-26T09:38:54.891Z</time></trkpt><trkpt lat="37.07837683333333" lon="15.292402799999998"><ele>32.199999999999996</ele><time>2026-04-26T09:38:55.893Z</time></trkpt><trkpt lat="37.07840568333334" lon="15.292281216666666"><ele>32.6</ele><time>2026-04-26T09:38:56.89Z</time></trkpt><trkpt lat="37.07843545" lon="15.292157866666665"><ele>33.0</ele><time>2026-04-26T09:38:57.892Z</time></trkpt><trkpt lat="37.0784665" lon="15.2920341"><ele>33.0</ele><time>2026-04-26T09:38:58.894Z</time></trkpt><trkpt lat="37.07849753333333" lon="15.291913133333333"><ele>33.0</ele><time>2026-04-26T09:38:59.889Z</time></trkpt><trkpt lat="37.0785267" lon="15.291798649999999"><ele>33.0</ele><time>2026-04-26T09:39:00.892Z</time></trkpt><trkpt lat="37.078554133333334" lon="15.291689866666665"><ele>33.0</ele><time>2026-04-26T09:39:01.885Z</time></trkpt><trkpt lat="37.078577083333336" lon="15.2915978"><ele>33.0</ele><time>2026-04-26T09:39:02.899Z</time></trkpt><trkpt lat="37.07860830847766" lon="15.291451148667955"><ele>32.8</ele><time>2026-04-26T09:39:04.884Z</time></trkpt><trkpt lat="37.078525066666664" lon="15.2913038"><ele>32.599999999999994</ele><time>2026-04-26T09:39:06.878Z</time></trkpt><trkpt lat="37.078402806127684" lon="15.291288368508534"><ele>32.400000000000006</ele><time>2026-04-26T09:39:08.879Z</time></trkpt><trkpt lat="37.078324611022346" lon="15.291282220330151"><ele>32.2</ele><time>2026-04-26T09:39:09.878Z</time></trkpt><trkpt lat="37.07823698333333" lon="15.291279097599977"><ele>32.0</ele><time>2026-04-26T09:39:10.874Z</time></trkpt><trkpt lat="37.07813988762767" lon="15.291282761841122"><ele>32.33333333333333</ele><time>2026-04-26T09:39:11.875Z</time></trkpt><trkpt lat="37.07803893922581" lon="15.2912647847963"><ele>32.666666666666664</ele><time>2026-04-26T09:39:12.872Z</time></trkpt><trkpt lat="37.077948166666665" lon="15.291257866666667"><ele>33.0</ele><time>2026-04-26T09:39:13.875Z</time></trkpt><trkpt lat="37.07787178333333" lon="15.291282083333334"><ele>33.333333333333336</ele><time>2026-04-26T09:39:14.872Z</time></trkpt><trkpt lat="37.077810033333336" lon="15.291306200000001"><ele>33.66666666666667</ele><time>2026-04-26T09:39:15.871Z</time></trkpt><trkpt lat="37.07773148333333" lon="15.29133705"><ele>34.0</ele><time>2026-04-26T09:39:17.87Z</time></trkpt><trkpt lat="37.07765995" lon="15.291363416666666"><ele>34.0</ele><time>2026-04-26T09:39:19.868Z</time></trkpt><trkpt lat="37.0775469" lon="15.291408733333332"><ele>34.0</ele><time>2026-04-26T09:39:21.867Z</time></trkpt><trkpt lat="37.077452566666665" lon="15.291441416666666"><ele>34.0</ele><time>2026-04-26T09:39:23.866Z</time></trkpt><trkpt lat="37.077406249999996" lon="15.29135375"><ele>34.0</ele><time>2026-04-26T09:39:26.868Z</time></trkpt><trkpt lat="37.077474433333336" lon="15.291286649999998"><ele>34.0</ele><time>2026-04-26T09:39:28.866Z</time></trkpt><trkpt lat="37.07753768333333" lon="15.291261116666664"><ele>34.0</ele><time>2026-04-26T09:39:29.863Z</time></trkpt><trkpt lat="37.07761178333333" lon="15.29123741666667"><ele>34.0</ele><time>2026-04-26T09:39:30.862Z</time></trkpt><trkpt lat="37.07768651666667" lon="15.291214349999999"><ele>34.0</ele><time>2026-04-26T09:39:31.862Z</time></trkpt><trkpt lat="37.077773" lon="15.291160033333332"><ele>34.0</ele><time>2026-04-26T09:39:33.86Z</time></trkpt><trkpt lat="37.077803233333334" lon="15.2910331"><ele>34.0</ele><time>2026-04-26T09:39:35.86Z</time></trkpt><trkpt lat="37.07780056666666" lon="15.290931149999999"><ele>34.0</ele><time>2026-04-26T09:39:36.859Z</time></trkpt><trkpt lat="37.077804050000005" lon="15.290811816666666"><ele>34.0</ele><time>2026-04-26T09:39:37.859Z</time></trkpt><trkpt lat="37.07781526666667" lon="15.2906737"><ele>34.0</ele><time>2026-04-26T09:39:38.857Z</time></trkpt><trkpt lat="37.07782718333334" lon="15.290529166666666"><ele>34.0</ele><time>2026-04-26T09:39:39.858Z</time></trkpt><trkpt lat="37.07783718333334" lon="15.29038885"><ele>34.0</ele><time>2026-04-26T09:39:40.856Z</time></trkpt><trkpt lat="37.077828684712955" lon="15.290261000342246"><ele>34.0</ele><time>2026-04-26T09:39:41.857Z</time></trkpt><trkpt lat="37.07783083486567" lon="15.290154933333334"><ele>33.333333333333336</ele><time>2026-04-26T09:39:42.856Z</time></trkpt><trkpt lat="37.077819779579194" lon="15.290072737053855"><ele>32.66666666666667</ele><time>2026-04-26T09:39:43.855Z</time></trkpt><trkpt lat="37.07780183239933" lon="15.289962147383024"><ele>32.0</ele><time>2026-04-26T09:39:45.854Z</time></trkpt><trkpt lat="37.077923466435436" lon="15.289923263649197"><ele>31.333333333333336</ele><time>2026-04-26T09:39:46.853Z</time></trkpt><trkpt lat="37.07798855397748" lon="15.289921593340761"><ele>30.666666666666668</ele><time>2026-04-26T09:39:47.853Z</time></trkpt><trkpt lat="37.07807946025293" lon="15.289924242177156"><ele>30.0</ele><time>2026-04-26T09:39:48.852Z</time></trkpt><trkpt lat="37.078184709768855" lon="15.289934570037763"><ele>30.833333333333332</ele><time>2026-04-26T09:39:49.852Z</time></trkpt><trkpt lat="37.078285446310616" lon="15.289943299245728"><ele>31.666666666666664</ele><time>2026-04-26T09:39:50.85Z</time></trkpt><trkpt lat="37.078376887960296" lon="15.289950415086"><ele>32.5</ele><time>2026-04-26T09:39:51.851Z</time></trkpt><trkpt lat="37.07845209606671" lon="15.28995626768392"><ele>33.33333333333333</ele><time>2026-04-26T09:39:52.85Z</time></trkpt><trkpt lat="37.07854783142784" lon="15.289963717687188"><ele>34.166666666666664</ele><time>2026-04-26T09:39:54.849Z</time></trkpt><trkpt lat="37.078585483333335" lon="15.289896849999998"><ele>35.0</ele><time>2026-04-26T09:39:55.85Z</time></trkpt><trkpt lat="37.078595995746205" lon="15.289766970542631"><ele>34.4</ele><time>2026-04-26T09:39:57.847Z</time></trkpt><trkpt lat="37.07861862258286" lon="15.28964264643347"><ele>33.8</ele><time>2026-04-26T09:39:59.847Z</time></trkpt><trkpt lat="37.078643074798826" lon="15.289506837610881"><ele>33.2</ele><time>2026-04-26T09:40:01.844Z</time></trkpt><trkpt lat="37.07866365203234" lon="15.289392921626566"><ele>32.6</ele><time>2026-04-26T09:40:03.844Z</time></trkpt><trkpt lat="37.07876363333333" lon="15.289361983333333"><ele>32.0</ele><time>2026-04-26T09:40:04.843Z</time></trkpt><trkpt lat="37.078762633333334" lon="15.289227733333332"><ele>31.999999999999996</ele><time>2026-04-26T09:40:06.843Z</time></trkpt><trkpt lat="37.078755599999994" lon="15.289112866666668"><ele>32.0</ele><time>2026-04-26T09:40:08.841Z</time></trkpt><trkpt lat="37.07871493333334" lon="15.289047449999998"><ele>32.0</ele><time>2026-04-26T09:40:10.94Z</time></trkpt><trkpt lat="37.07864476666667" lon="15.289038466666668"><ele>32.0</ele><time>2026-04-26T09:40:12.939Z</time></trkpt><trkpt lat="37.078564033333336" lon="15.289040066666667"><ele>31.999999999999996</ele><time>2026-04-26T09:40:14.938Z</time></trkpt><trkpt lat="37.07852968006982" lon="15.289111111772225"><ele>32.0</ele><time>2026-04-26T09:40:41.999Z</time></trkpt><trkpt lat="37.078450773938116" lon="15.289087475184528"><ele>31.999999999999996</ele><time>2026-04-26T09:41:23.999Z</time></trkpt><trkpt lat="37.07842317231068" lon="15.289001947805874"><ele>32.0</ele><time>2026-04-26T09:41:28.999Z</time></trkpt><trkpt lat="37.07842292251176" lon="15.288902818609705"><ele>32.0</ele><time>2026-04-26T09:41:33.999Z</time></trkpt><trkpt lat="37.07848442597203" lon="15.288863648281579"><ele>32.0</ele><time>2026-04-26T09:41:38.999Z</time></trkpt><trkpt lat="37.0785230649033" lon="15.288926119572176"><ele>31.999999999999996</ele><time>2026-04-26T09:41:52.999Z</time></trkpt><trkpt lat="37.07855308244178" lon="15.288996833702873"><ele>32.0</ele><time>2026-04-26T09:41:59.999Z</time></trkpt><trkpt lat="37.078621326139874" lon="15.289145488515308"><ele>32.0</ele><time>2026-04-26T09:49:00.036Z</time></trkpt><trkpt lat="37.07852331821918" lon="15.289049175177094"><ele>32.0</ele><time>2026-04-26T09:49:01.036Z</time></trkpt><trkpt lat="37.07842309924306" lon="15.28893036359222"><ele>32.0</ele><time>2026-04-26T09:49:05Z</time></trkpt><trkpt lat="37.07844579964895" lon="15.288851106755578"><ele>32.0</ele><time>2026-04-26T09:50:45Z</time></trkpt><trkpt lat="37.0785188711236" lon="15.288846660581152"><ele>32.0</ele><time>2026-04-26T09:50:49Z</time></trkpt><trkpt lat="37.078586415073985" lon="15.28885882576436"><ele>31.999999999999996</ele><time>2026-04-26T09:50:52Z</time></trkpt><trkpt lat="37.07867921896849" lon="15.288852697752331"><ele>32.0</ele><time>2026-04-26T09:50:55Z</time></trkpt><trkpt lat="37.078745944189656" lon="15.288865914481091"><ele>32.0</ele><time>2026-04-26T09:50:58Z</time></trkpt><trkpt lat="37.078752714480665" lon="15.288992755601146"><ele>32.0</ele><time>2026-04-26T09:51:00Z</time></trkpt><trkpt lat="37.07875419634398" lon="15.289073393923982"><ele>31.999999999999996</ele><time>2026-04-26T09:51:01Z</time></trkpt><trkpt lat="37.078752194395534" lon="15.289179473849797"><ele>32.0</ele><time>2026-04-26T09:51:03Z</time></trkpt><trkpt lat="37.078723492919416" lon="15.289304470038001"><ele>32.0</ele><time>2026-04-26T09:51:05Z</time></trkpt><trkpt lat="37.07874037103251" lon="15.289413124132512"><ele>32.0</ele><time>2026-04-26T09:51:07Z</time></trkpt><trkpt lat="37.07885745964725" lon="15.289454586425748"><ele>32.0</ele><time>2026-04-26T09:51:10Z</time></trkpt><trkpt lat="37.078946323648076" lon="15.289438406751653"><ele>32.0</ele><time>2026-04-26T09:51:12Z</time></trkpt><trkpt lat="37.0790283044216" lon="15.289576110722125"><ele>32.0</ele><time>2026-04-26T09:51:15.999Z</time></trkpt><trkpt lat="37.0789693868963" lon="15.289698426958884"><ele>31.999999999999996</ele><time>2026-04-26T09:51:16.999Z</time></trkpt><trkpt lat="37.07902920102907" lon="15.289734793234517"><ele>32.0</ele><time>2026-04-26T09:51:17.999Z</time></trkpt><trkpt lat="37.07903818386897" lon="15.289848116200591"><ele>32.0</ele><time>2026-04-26T09:51:19.999Z</time></trkpt><trkpt lat="37.079116071577445" lon="15.289792985303015"><ele>32.0</ele><time>2026-04-26T09:51:21.999Z</time></trkpt><trkpt lat="37.0791159992534" lon="15.289712846947397"><ele>31.999999999999996</ele><time>2026-04-26T09:51:22.999Z</time></trkpt><trkpt lat="37.079109690653986" lon="15.289630247939959"><ele>32.0</ele><time>2026-04-26T09:51:23.999Z</time></trkpt><trkpt lat="37.07910930328727" lon="15.289528921315089"><ele>31.8</ele><time>2026-04-26T09:51:25Z</time></trkpt><trkpt lat="37.0791290923272" lon="15.289420533298628"><ele>31.6</ele><time>2026-04-26T09:51:26Z</time></trkpt><trkpt lat="37.07913321126707" lon="15.289301250462076"><ele>31.400000000000002</ele><time>2026-04-26T09:51:27Z</time></trkpt><trkpt lat="37.0791264729062" lon="15.289178155789873"><ele>31.200000000000003</ele><time>2026-04-26T09:51:28Z</time></trkpt><trkpt lat="37.07910247493197" lon="15.289052964465538"><ele>31.0</ele><time>2026-04-26T09:51:29Z</time></trkpt><trkpt lat="37.079071595787696" lon="15.288925630590528"><ele>31.0</ele><time>2026-04-26T09:51:30Z</time></trkpt><trkpt lat="37.07905613547443" lon="15.288788299535232"><ele>31.0</ele><time>2026-04-26T09:51:31Z</time></trkpt><trkpt lat="37.07902528863102" lon="15.28865247920456"><ele>31.0</ele><time>2026-04-26T09:51:32Z</time></trkpt><trkpt lat="37.07899185230351" lon="15.28852363732547"><ele>31.0</ele><time>2026-04-26T09:51:33Z</time></trkpt><trkpt lat="37.07895429142897" lon="15.288403400493126"><ele>31.0</ele><time>2026-04-26T09:51:34Z</time></trkpt><trkpt lat="37.07890902834465" lon="15.288289962726182"><ele>31.0</ele><time>2026-04-26T09:51:35Z</time></trkpt><trkpt lat="37.078860510578586" lon="15.288176294501776"><ele>31.0</ele><time>2026-04-26T09:51:36Z</time></trkpt><trkpt lat="37.07880729265543" lon="15.2880616027666"><ele>31.0</ele><time>2026-04-26T09:51:37Z</time></trkpt><trkpt lat="37.07873175681732" lon="15.287945021905168"><ele>31.0</ele><time>2026-04-26T09:51:38Z</time></trkpt><trkpt lat="37.078548864109386" lon="15.287946484493899"><ele>30.75</ele><time>2026-04-26T09:51:39Z</time></trkpt><trkpt lat="37.07842258135024" lon="15.287897086412219"><ele>30.5</ele><time>2026-04-26T09:51:40Z</time></trkpt><trkpt lat="37.07828541468567" lon="15.28785399983272"><ele>30.25</ele><time>2026-04-26T09:51:41Z</time></trkpt><trkpt lat="37.078140456987185" lon="15.28780816601117"><ele>30.0</ele><time>2026-04-26T09:51:42Z</time></trkpt><trkpt lat="37.077999131934746" lon="15.287766886784066"><ele>31.0</ele><time>2026-04-26T09:51:43Z</time></trkpt><trkpt lat="37.07786197498114" lon="15.287731428659646"><ele>32.0</ele><time>2026-04-26T09:51:44Z</time></trkpt><trkpt lat="37.07772935466802" lon="15.287688219922716"><ele>33.0</ele><time>2026-04-26T09:51:45Z</time></trkpt><trkpt lat="37.07759950583199" lon="15.287646934749466"><ele>34.0</ele><time>2026-04-26T09:51:46Z</time></trkpt><trkpt lat="37.077472814644" lon="15.287611073569405"><ele>31.75</ele><time>2026-04-26T09:51:47Z</time></trkpt><trkpt lat="37.077348075498925" lon="15.287577099291626"><ele>29.5</ele><time>2026-04-26T09:51:48Z</time></trkpt><trkpt lat="37.07722700318602" lon="15.287543466738189"><ele>27.25</ele><time>2026-04-26T09:51:49Z</time></trkpt><trkpt lat="37.07710857578826" lon="15.287507091842084"><ele>25.0</ele><time>2026-04-26T09:51:50Z</time></trkpt><trkpt lat="37.076993045051545" lon="15.287478850506751"><ele>25.0</ele><time>2026-04-26T09:51:51Z</time></trkpt><trkpt lat="37.07687870283299" lon="15.287461211712536"><ele>25.0</ele><time>2026-04-26T09:51:52Z</time></trkpt><trkpt lat="37.07677175769717" lon="15.287454525039701"><ele>25.0</ele><time>2026-04-26T09:51:53Z</time></trkpt><trkpt lat="37.07667397278589" lon="15.287444169573376"><ele>25.0</ele><time>2026-04-26T09:51:54Z</time></trkpt><trkpt lat="37.07658521376596" lon="15.287414692021716"><ele>25.0</ele><time>2026-04-26T09:51:55Z</time></trkpt><trkpt lat="37.07649907502061" lon="15.287403515271551"><ele>24.714285714285715</ele><time>2026-04-26T09:51:56Z</time></trkpt><trkpt lat="37.076417916844" lon="15.287392984751014"><ele>24.42857142857143</ele><time>2026-04-26T09:51:57Z</time></trkpt><trkpt lat="37.0763484647411" lon="15.287383353017212"><ele>24.142857142857146</ele><time>2026-04-26T09:51:58Z</time></trkpt><trkpt lat="37.07624966514329" lon="15.287383760947538"><ele>23.857142857142858</ele><time>2026-04-26T09:52:00Z</time></trkpt><trkpt lat="37.07618528387849" lon="15.287374594177537"><ele>23.57142857142857</ele><time>2026-04-26T09:52:05Z</time></trkpt><trkpt lat="37.07611669258196" lon="15.287365289333266"><ele>23.28571428571429</ele><time>2026-04-26T09:52:11Z</time></trkpt><trkpt lat="37.07605399541419" lon="15.28735460927125"><ele>23.0</ele><time>2026-04-26T09:52:19Z</time></trkpt><trkpt lat="37.07597136683555" lon="15.287335603448662"><ele>23.0</ele><time>2026-04-26T09:52:22Z</time></trkpt><trkpt lat="37.07587907042094" lon="15.287316876835888"><ele>23.0</ele><time>2026-04-26T09:52:24Z</time></trkpt><trkpt lat="37.07580585385151" lon="15.287301873304594"><ele>23.0</ele><time>2026-04-26T09:52:26Z</time></trkpt><trkpt lat="37.0757286351865" lon="15.287272603639568"><ele>23.0</ele><time>2026-04-26T09:52:28Z</time></trkpt><trkpt lat="37.075618998686295" lon="15.287226760612985"><ele>23.0</ele><time>2026-04-26T09:52:30Z</time></trkpt><trkpt lat="37.0755067007005" lon="15.287183889105085"><ele>22.2</ele><time>2026-04-26T09:52:32Z</time></trkpt><trkpt lat="37.07543469506265" lon="15.28717734326517"><ele>21.4</ele><time>2026-04-26T09:52:34Z</time></trkpt><trkpt lat="37.07542712810609" lon="15.28702316853738"><ele>20.599999999999998</ele><time>2026-04-26T09:52:35Z</time></trkpt><trkpt lat="37.07541369907399" lon="15.286898991700502"><ele>19.799999999999997</ele><time>2026-04-26T09:52:37Z</time></trkpt><trkpt lat="37.075421936024895" lon="15.286770032080684"><ele>19.0</ele><time>2026-04-26T09:52:39Z</time></trkpt><trkpt lat="37.075410040780035" lon="15.286670048082176"><ele>19.0</ele><time>2026-04-26T09:52:40.999Z</time></trkpt><trkpt lat="37.075184820102635" lon="15.286662757975439"><ele>19.0</ele><time>2026-04-26T09:52:42.999Z</time></trkpt><trkpt lat="37.07507638791719" lon="15.286703018527762"><ele>19.0</ele><time>2026-04-26T09:52:44.999Z</time></trkpt><trkpt lat="37.07495751548271" lon="15.286725457459928"><ele>18.333333333333332</ele><time>2026-04-26T09:52:46.999Z</time></trkpt><trkpt lat="37.07482664424083" lon="15.286740757849078"><ele>17.666666666666664</ele><time>2026-04-26T09:52:48.999Z</time></trkpt><trkpt lat="37.07475028472844" lon="15.286751736059806"><ele>17.0</ele><time>2026-04-26T09:52:49.999Z</time></trkpt><trkpt lat="37.07467906512402" lon="15.286764366887676"><ele>16.333333333333332</ele><time>2026-04-26T09:52:50.999Z</time></trkpt><trkpt lat="37.07461390866067" lon="15.286778482731961"><ele>15.666666666666666</ele><time>2026-04-26T09:52:51.999Z</time></trkpt><trkpt lat="37.07452332901156" lon="15.286796477618868"><ele>15.0</ele><time>2026-04-26T09:52:53.999Z</time></trkpt><trkpt lat="37.0744204715007" lon="15.286809319196559"><ele>15.0</ele><time>2026-04-26T09:52:55.999Z</time></trkpt><trkpt lat="37.07429158637468" lon="15.286821496027835"><ele>15.0</ele><time>2026-04-26T09:52:57.999Z</time></trkpt><trkpt lat="37.07421529890471" lon="15.286835147400254"><ele>15.0</ele><time>2026-04-26T09:52:58.999Z</time></trkpt><trkpt lat="37.07413422745382" lon="15.28685473214034"><ele>15.0</ele><time>2026-04-26T09:52:59.999Z</time></trkpt><trkpt lat="37.07405756668062" lon="15.286868559021407"><ele>15.0</ele><time>2026-04-26T09:53:00.999Z</time></trkpt><trkpt lat="37.07398369262149" lon="15.286880951156133"><ele>15.0</ele><time>2026-04-26T09:53:01.999Z</time></trkpt><trkpt lat="37.07390960173452" lon="15.28689361248182"><ele>14.666666666666666</ele><time>2026-04-26T09:53:02.999Z</time></trkpt><trkpt lat="37.07383951319543" lon="15.286909728340369"><ele>14.333333333333332</ele><time>2026-04-26T09:53:03.999Z</time></trkpt><trkpt lat="37.07377314153131" lon="15.286921971500625"><ele>14.0</ele><time>2026-04-26T09:53:04.999Z</time></trkpt><trkpt lat="37.07371014567857" lon="15.286933994735541"><ele>13.666666666666666</ele><time>2026-04-26T09:53:05.999Z</time></trkpt><trkpt lat="37.07358829193415" lon="15.286952205026543"><ele>13.333333333333332</ele><time>2026-04-26T09:53:07.999Z</time></trkpt><trkpt lat="37.07346487369741" lon="15.286973333464088"><ele>13.0</ele><time>2026-04-26T09:53:09.999Z</time></trkpt><trkpt lat="37.07339389147051" lon="15.286984400577731"><ele>13.0</ele><time>2026-04-26T09:53:10.999Z</time></trkpt><trkpt lat="37.07332335498564" lon="15.286997682582033"><ele>13.0</ele><time>2026-04-26T09:53:11.999Z</time></trkpt><trkpt lat="37.07322356677617" lon="15.286995700742409"><ele>13.0</ele><time>2026-04-26T09:53:13.999Z</time></trkpt><trkpt lat="37.07316028136676" lon="15.286838913096936"><ele>13.0</ele><time>2026-04-26T09:53:16.999Z</time></trkpt><trkpt lat="37.073133609840234" lon="15.286716401464851"><ele>13.0</ele><time>2026-04-26T09:53:18.999Z</time></trkpt><trkpt lat="37.07310521828742" lon="15.286565566982002"><ele>13.0</ele><time>2026-04-26T09:53:20.999Z</time></trkpt><trkpt lat="37.073075147620436" lon="15.28642848316317"><ele>13.0</ele><time>2026-04-26T09:53:22.999Z</time></trkpt><trkpt lat="37.073030736146464" lon="15.286314438304816"><ele>13.0</ele><time>2026-04-26T09:53:24.999Z</time></trkpt><trkpt lat="37.07291840641131" lon="15.286265456293796"><ele>13.0</ele><time>2026-04-26T09:53:26.999Z</time></trkpt><trkpt lat="37.07282802286476" lon="15.286174747652282"><ele>13.0</ele><time>2026-04-26T09:53:28.999Z</time></trkpt><trkpt lat="37.0727879687146" lon="15.286109046971124"><ele>13.666666666666666</ele><time>2026-04-26T09:53:29.999Z</time></trkpt><trkpt lat="37.072751877607615" lon="15.286037510854213"><ele>14.333333333333332</ele><time>2026-04-26T09:53:30.999Z</time></trkpt><trkpt lat="37.07271974339054" lon="15.28596876200707"><ele>15.0</ele><time>2026-04-26T09:53:31.999Z</time></trkpt><trkpt lat="37.07270565908802" lon="15.285848731677708"><ele>15.666666666666668</ele><time>2026-04-26T09:53:33.999Z</time></trkpt><trkpt lat="37.07270108303901" lon="15.285744938616048"><ele>16.333333333333336</ele><time>2026-04-26T09:53:35.999Z</time></trkpt><trkpt lat="37.072700529696576" lon="15.28561800519577"><ele>17.0</ele><time>2026-04-26T09:53:37.999Z</time></trkpt><trkpt lat="37.072730338944254" lon="15.285485195115275"><ele>17.0</ele><time>2026-04-26T09:53:39.999Z</time></trkpt><trkpt lat="37.07272312861956" lon="15.28540581537878"><ele>17.0</ele><time>2026-04-26T09:53:40.999Z</time></trkpt><trkpt lat="37.07270578613483" lon="15.28532882949811"><ele>17.0</ele><time>2026-04-26T09:53:41.999Z</time></trkpt><trkpt lat="37.07270445240385" lon="15.285210039447593"><ele>17.0</ele><time>2026-04-26T09:53:43.999Z</time></trkpt><trkpt lat="37.072658026674034" lon="15.285102623674865"><ele>17.0</ele><time>2026-04-26T09:53:45.999Z</time></trkpt><trkpt lat="37.072629984803996" lon="15.284987531655446"><ele>17.0</ele><time>2026-04-26T09:53:47.999Z</time></trkpt><trkpt lat="37.0725905930151" lon="15.2848482556652"><ele>17.2</ele><time>2026-04-26T09:53:49.999Z</time></trkpt><trkpt lat="37.07255360818519" lon="15.284723096933124"><ele>17.4</ele><time>2026-04-26T09:53:51.999Z</time></trkpt><trkpt lat="37.072538288417356" lon="15.284600927265958"><ele>17.6</ele><time>2026-04-26T09:53:53.999Z</time></trkpt><trkpt lat="37.072492017348615" lon="15.284491400060322"><ele>17.8</ele><time>2026-04-26T09:53:55.999Z</time></trkpt><trkpt lat="37.07245802512748" lon="15.284363288284698"><ele>18.0</ele><time>2026-04-26T09:53:57.999Z</time></trkpt><trkpt lat="37.072438927511875" lon="15.28428698112017"><ele>18.0</ele><time>2026-04-26T09:53:58.999Z</time></trkpt><trkpt lat="37.07241998619959" lon="15.284211245066007"><ele>18.0</ele><time>2026-04-26T09:53:59.999Z</time></trkpt><trkpt lat="37.07239448781379" lon="15.28406729069544"><ele>18.0</ele><time>2026-04-26T09:54:01.999Z</time></trkpt><trkpt lat="37.07237098656988" lon="15.283977510508088"><ele>18.0</ele><time>2026-04-26T09:54:02.999Z</time></trkpt><trkpt lat="37.07233322695605" lon="15.283875970132497"><ele>18.0</ele><time>2026-04-26T09:54:03.999Z</time></trkpt><trkpt lat="37.07229826696843" lon="15.283747723829068"><ele>18.0</ele><time>2026-04-26T09:54:04.999Z</time></trkpt><trkpt lat="37.072265086512935" lon="15.283621014652057"><ele>18.0</ele><time>2026-04-26T09:54:05.999Z</time></trkpt><trkpt lat="37.072235411801" lon="15.2835077726211"><ele>18.0</ele><time>2026-04-26T09:54:06.999Z</time></trkpt><trkpt lat="37.07220748303496" lon="15.28341239669223"><ele>18.0</ele><time>2026-04-26T09:54:07.999Z</time></trkpt><trkpt lat="37.072182083383964" lon="15.283332787715906"><ele>18.0</ele><time>2026-04-26T09:54:08.999Z</time></trkpt><trkpt lat="37.072153928356244" lon="15.28323845307986"><ele>18.0</ele><time>2026-04-26T09:54:10.999Z</time></trkpt><trkpt lat="37.072129944264766" lon="15.283156593316164"><ele>18.0</ele><time>2026-04-26T09:54:17.999Z</time></trkpt><trkpt lat="37.07211136516717" lon="15.283078215613026"><ele>18.0</ele><time>2026-04-26T09:54:24.999Z</time></trkpt><trkpt lat="37.07208179361568" lon="15.282983013256162"><ele>18.0</ele><time>2026-04-26T09:54:28.999Z</time></trkpt><trkpt lat="37.07205043712322" lon="15.282893464961814"><ele>18.0</ele><time>2026-04-26T09:54:30.999Z</time></trkpt><trkpt lat="37.07202851364253" lon="15.282774643393152"><ele>18.0</ele><time>2026-04-26T09:54:34.999Z</time></trkpt><trkpt lat="37.071996832676255" lon="15.282679444595741"><ele>18.0</ele><time>2026-04-26T09:54:39.999Z</time></trkpt><trkpt lat="37.0718495528536" lon="15.282743887327682"><ele>18.0</ele><time>2026-04-26T09:54:41.999Z</time></trkpt><trkpt lat="37.07178988533166" lon="15.28278884121215"><ele>18.0</ele><time>2026-04-26T09:54:42.999Z</time></trkpt><trkpt lat="37.07173244485343" lon="15.282831331688769"><ele>18.0</ele><time>2026-04-26T09:54:43.999Z</time></trkpt><trkpt lat="37.071659528549986" lon="15.282872818949587"><ele>18.0</ele><time>2026-04-26T09:54:44.999Z</time></trkpt><trkpt lat="37.07157982383074" lon="15.282917686897466"><ele>18.0</ele><time>2026-04-26T09:54:45.999Z</time></trkpt><trkpt lat="37.07149677174581" lon="15.282958898537993"><ele>18.0</ele><time>2026-04-26T09:54:46.999Z</time></trkpt><trkpt lat="37.07142166502271" lon="15.282999145282144"><ele>17.833333333333332</ele><time>2026-04-26T09:54:47.999Z</time></trkpt><trkpt lat="37.07135101151465" lon="15.28304020054199"><ele>17.666666666666668</ele><time>2026-04-26T09:54:48.999Z</time></trkpt><trkpt lat="37.07128029399415" lon="15.283083033524058"><ele>17.5</ele><time>2026-04-26T09:54:49.999Z</time></trkpt><trkpt lat="37.07120975325431" lon="15.28312008261187"><ele>17.333333333333336</ele><time>2026-04-26T09:54:50.999Z</time></trkpt><trkpt lat="37.07113717015053" lon="15.283166383048485"><ele>17.166666666666668</ele><time>2026-04-26T09:54:51.999Z</time></trkpt><trkpt lat="37.071053174309725" lon="15.283215451381391"><ele>17.0</ele><time>2026-04-26T09:54:52.999Z</time></trkpt><trkpt lat="37.070963368044985" lon="15.28327065627963"><ele>16.8</ele><time>2026-04-26T09:54:53.999Z</time></trkpt><trkpt lat="37.07086830492499" lon="15.283326536562402"><ele>16.6</ele><time>2026-04-26T09:54:54.999Z</time></trkpt><trkpt lat="37.07076797791764" lon="15.283386848620017"><ele>16.400000000000002</ele><time>2026-04-26T09:54:55.999Z</time></trkpt><trkpt lat="37.07068512674148" lon="15.283431355491922"><ele>16.2</ele><time>2026-04-26T09:54:56.999Z</time></trkpt><trkpt lat="37.070618286822175" lon="15.28346855700575"><ele>16.0</ele><time>2026-04-26T09:54:57.999Z</time></trkpt><trkpt lat="37.070554746891" lon="15.283507895480874"><ele>16.333333333333332</ele><time>2026-04-26T09:54:58.999Z</time></trkpt><trkpt lat="37.07049140362525" lon="15.283547772061725"><ele>16.666666666666664</ele><time>2026-04-26T09:54:59.999Z</time></trkpt><trkpt lat="37.07043119399602" lon="15.283582236192807"><ele>17.0</ele><time>2026-04-26T09:55:00.999Z</time></trkpt><trkpt lat="37.07031648104822" lon="15.283643489871684"><ele>17.333333333333332</ele><time>2026-04-26T09:55:02.999Z</time></trkpt><trkpt lat="37.07025754973012" lon="15.283674509014691"><ele>17.666666666666668</ele><time>2026-04-26T09:55:03.999Z</time></trkpt><trkpt lat="37.0701470576935" lon="15.283736211676304"><ele>18.0</ele><time>2026-04-26T09:55:05.999Z</time></trkpt><trkpt lat="37.07004457901176" lon="15.283791833028545"><ele>18.0</ele><time>2026-04-26T09:55:07.999Z</time></trkpt><trkpt lat="37.0699657077568" lon="15.283833454326592"><ele>18.0</ele><time>2026-04-26T09:55:09.999Z</time></trkpt><trkpt lat="37.069900687788746" lon="15.283880717997766"><ele>18.0</ele><time>2026-04-26T09:55:13.999Z</time></trkpt><trkpt lat="37.069844002424595" lon="15.28391622021838"><ele>18.0</ele><time>2026-04-26T09:55:18.999Z</time></trkpt><trkpt lat="37.0697623221415" lon="15.28396606608677"><ele>18.0</ele><time>2026-04-26T09:55:21.999Z</time></trkpt><trkpt lat="37.06967333439937" lon="15.284019680504391"><ele>18.0</ele><time>2026-04-26T09:55:23.999Z</time></trkpt><trkpt lat="37.06961331088871" lon="15.28405356435831"><ele>17.6</ele><time>2026-04-26T09:55:24.999Z</time></trkpt><trkpt lat="37.069540740057576" lon="15.284093267888126"><ele>17.200000000000003</ele><time>2026-04-26T09:55:25.999Z</time></trkpt><trkpt lat="37.06946005407745" lon="15.284141704953575"><ele>16.8</ele><time>2026-04-26T09:55:26.999Z</time></trkpt><trkpt lat="37.06936850193621" lon="15.284194379672735"><ele>16.400000000000002</ele><time>2026-04-26T09:55:27.999Z</time></trkpt><trkpt lat="37.0692755473208" lon="15.284247919800558"><ele>16.0</ele><time>2026-04-26T09:55:28.999Z</time></trkpt><trkpt lat="37.06918263528284" lon="15.284297225444023"><ele>15.200000000000001</ele><time>2026-04-26T09:55:29.999Z</time></trkpt><trkpt lat="37.069096713683" lon="15.28434814949166"><ele>14.400000000000002</ele><time>2026-04-26T09:55:30.999Z</time></trkpt><trkpt lat="37.06900845847412" lon="15.284400811964142"><ele>13.6</ele><time>2026-04-26T09:55:31.999Z</time></trkpt><trkpt lat="37.068921004657675" lon="15.284453216439331"><ele>12.8</ele><time>2026-04-26T09:55:32.999Z</time></trkpt><trkpt lat="37.068835938952645" lon="15.284503398163384"><ele>12.0</ele><time>2026-04-26T09:55:33.999Z</time></trkpt><trkpt lat="37.06875374936491" lon="15.284547444168501"><ele>12.0</ele><time>2026-04-26T09:55:34.999Z</time></trkpt><trkpt lat="37.068672802588125" lon="15.28459314950147"><ele>12.0</ele><time>2026-04-26T09:55:35.999Z</time></trkpt><trkpt lat="37.06859187461617" lon="15.284637251970112"><ele>12.0</ele><time>2026-04-26T09:55:36.999Z</time></trkpt><trkpt lat="37.068511166722594" lon="15.284681376732028"><ele>12.0</ele><time>2026-04-26T09:55:37.999Z</time></trkpt><trkpt lat="37.06843002859314" lon="15.284715867619488"><ele>12.0</ele><time>2026-04-26T09:55:38.999Z</time></trkpt><trkpt lat="37.06834276365295" lon="15.284714373816028"><ele>12.0</ele><time>2026-04-26T09:55:39.999Z</time></trkpt><trkpt lat="37.06825652517544" lon="15.284741917888098"><ele>12.2</ele><time>2026-04-26T09:55:40.999Z</time></trkpt><trkpt lat="37.06816325220313" lon="15.284738419024706"><ele>12.399999999999999</ele><time>2026-04-26T09:55:41.999Z</time></trkpt><trkpt lat="37.068069209159844" lon="15.284729222674788"><ele>12.600000000000001</ele><time>2026-04-26T09:55:42.999Z</time></trkpt><trkpt lat="37.06798219170307" lon="15.284728474984139"><ele>12.8</ele><time>2026-04-26T09:55:43.999Z</time></trkpt><trkpt lat="37.06789296412014" lon="15.28473697362222"><ele>13.0</ele><time>2026-04-26T09:55:44.999Z</time></trkpt><trkpt lat="37.0678150832948" lon="15.284687295866153"><ele>12.999999999999998</ele><time>2026-04-26T09:55:45.999Z</time></trkpt><trkpt lat="37.06773848340892" lon="15.284646261789462"><ele>13.0</ele><time>2026-04-26T09:55:46.999Z</time></trkpt><trkpt lat="37.06766905982782" lon="15.284606703803489"><ele>13.0</ele><time>2026-04-26T09:55:47.999Z</time></trkpt><trkpt lat="37.067560230814344" lon="15.284546246672063"><ele>13.0</ele><time>2026-04-26T09:55:49.999Z</time></trkpt><trkpt lat="37.06746904665947" lon="15.284492953501356"><ele>12.999999999999998</ele><time>2026-04-26T09:55:51.999Z</time></trkpt><trkpt lat="37.067410924935366" lon="15.284458983889058"><ele>13.0</ele><time>2026-04-26T09:55:55.999Z</time></trkpt><trkpt lat="37.06734870061607" lon="15.284436195444172"><ele>11.0</ele><time>2026-04-26T09:56:01.999Z</time></trkpt></trkseg></trk></gpx>